<?xml version="1.0" encoding="UTF-8" standalone="no" ?>
<gpx xmlns="http://www.topografix.com/GPX/1/1" xmlns:xsi="http://www.w3.org/2001/XMLSchema-instance" xsi:schemaLocation="http://www.topografix.com/GPX/1/1 http://www.topografix.com/GPX/1/1/gpx.xsd" version="1.1" creator="VisuGPX - https://www.visugpx.com">
  <metadata>
    <name>Pornichet 09/08/2020</name>
    <desc><![CDATA[Sortie VTT du dimanche 09 août 2020]]></desc>
  </metadata>
  <trk>
    <name><![CDATA[Pornichet Cyclisme]]></name>
    <trkseg>
      <trkpt lat="47.2537" lon="-2.33111">
        <ele>6.8000001907349</ele>
        <time>2020-08-09T07:08:30.000Z</time>
      </trkpt>
      <trkpt lat="47.25366" lon="-2.33095">
        <ele>6.8000001907349</ele>
        <time>2020-08-09T07:08:34.000Z</time>
      </trkpt>
      <trkpt lat="47.25364" lon="-2.3309">
        <ele>7.4000000953674</ele>
        <time>2020-08-09T07:08:35.000Z</time>
      </trkpt>
      <trkpt lat="47.25362" lon="-2.33086">
        <ele>7.4000000953674</ele>
        <time>2020-08-09T07:08:36.000Z</time>
      </trkpt>
      <trkpt lat="47.2535" lon="-2.33059">
        <ele>7.4000000953674</ele>
        <time>2020-08-09T07:08:43.000Z</time>
      </trkpt>
      <trkpt lat="47.25343" lon="-2.33036">
        <ele>7.4000000953674</ele>
        <time>2020-08-09T07:08:48.000Z</time>
      </trkpt>
      <trkpt lat="47.25329" lon="-2.33003">
        <ele>7.4000000953674</ele>
        <time>2020-08-09T07:08:54.000Z</time>
      </trkpt>
      <trkpt lat="47.25312" lon="-2.32959">
        <ele>7.4000000953674</ele>
        <time>2020-08-09T07:09:01.000Z</time>
      </trkpt>
      <trkpt lat="47.25306" lon="-2.32939">
        <ele>7.4000000953674</ele>
        <time>2020-08-09T07:09:04.000Z</time>
      </trkpt>
      <trkpt lat="47.25306" lon="-2.32924">
        <ele>7.4000000953674</ele>
        <time>2020-08-09T07:09:06.000Z</time>
      </trkpt>
      <trkpt lat="47.25317" lon="-2.32909">
        <ele>7.4000000953674</ele>
        <time>2020-08-09T07:09:09.000Z</time>
      </trkpt>
      <trkpt lat="47.25326" lon="-2.32901">
        <ele>7.4000000953674</ele>
        <time>2020-08-09T07:09:11.000Z</time>
      </trkpt>
      <trkpt lat="47.25345" lon="-2.32883">
        <ele>7.4000000953674</ele>
        <time>2020-08-09T07:09:15.000Z</time>
      </trkpt>
      <trkpt lat="47.25385" lon="-2.3284">
        <ele>7.8000001907349</ele>
        <time>2020-08-09T07:09:24.000Z</time>
      </trkpt>
      <trkpt lat="47.2539" lon="-2.32835">
        <ele>8.1999998092651</ele>
        <time>2020-08-09T07:09:25.000Z</time>
      </trkpt>
      <trkpt lat="47.25394" lon="-2.3283">
        <ele>8.3999996185303</ele>
        <time>2020-08-09T07:09:26.000Z</time>
      </trkpt>
      <trkpt lat="47.25398" lon="-2.32824">
        <ele>8.8000001907349</ele>
        <time>2020-08-09T07:09:27.000Z</time>
      </trkpt>
      <trkpt lat="47.25402" lon="-2.32819">
        <ele>9.1999998092651</ele>
        <time>2020-08-09T07:09:28.000Z</time>
      </trkpt>
      <trkpt lat="47.25417" lon="-2.32797">
        <ele>9.1999998092651</ele>
        <time>2020-08-09T07:09:32.000Z</time>
      </trkpt>
      <trkpt lat="47.25425" lon="-2.32782">
        <ele>9.1999998092651</ele>
        <time>2020-08-09T07:09:35.000Z</time>
      </trkpt>
      <trkpt lat="47.25427" lon="-2.3277">
        <ele>9.1999998092651</ele>
        <time>2020-08-09T07:09:37.000Z</time>
      </trkpt>
      <trkpt lat="47.25439" lon="-2.32759">
        <ele>9.1999998092651</ele>
        <time>2020-08-09T07:09:40.000Z</time>
      </trkpt>
      <trkpt lat="47.25442" lon="-2.32754">
        <ele>9.1999998092651</ele>
        <time>2020-08-09T07:09:41.000Z</time>
      </trkpt>
      <trkpt lat="47.2546" lon="-2.32728">
        <ele>9.1999998092651</ele>
        <time>2020-08-09T07:09:46.000Z</time>
      </trkpt>
      <trkpt lat="47.25482" lon="-2.32697">
        <ele>9.1999998092651</ele>
        <time>2020-08-09T07:09:52.000Z</time>
      </trkpt>
      <trkpt lat="47.25485" lon="-2.3269">
        <ele>9.1999998092651</ele>
        <time>2020-08-09T07:09:53.000Z</time>
      </trkpt>
      <trkpt lat="47.25487" lon="-2.32667">
        <ele>9.6000003814697</ele>
        <time>2020-08-09T07:09:56.000Z</time>
      </trkpt>
      <trkpt lat="47.25487" lon="-2.32659">
        <ele>10</ele>
        <time>2020-08-09T07:09:57.000Z</time>
      </trkpt>
      <trkpt lat="47.25485" lon="-2.32652">
        <ele>10.39999961853</ele>
        <time>2020-08-09T07:09:58.000Z</time>
      </trkpt>
      <trkpt lat="47.25484" lon="-2.32645">
        <ele>10.800000190735</ele>
        <time>2020-08-09T07:09:59.000Z</time>
      </trkpt>
      <trkpt lat="47.25482" lon="-2.32637">
        <ele>11.199999809265</ele>
        <time>2020-08-09T07:10:00.000Z</time>
      </trkpt>
      <trkpt lat="47.25481" lon="-2.3263">
        <ele>11.199999809265</ele>
        <time>2020-08-09T07:10:01.000Z</time>
      </trkpt>
      <trkpt lat="47.2547" lon="-2.32578">
        <ele>11.199999809265</ele>
        <time>2020-08-09T07:10:08.000Z</time>
      </trkpt>
      <trkpt lat="47.25471" lon="-2.32561">
        <ele>11.199999809265</ele>
        <time>2020-08-09T07:10:11.000Z</time>
      </trkpt>
      <trkpt lat="47.25474" lon="-2.32558">
        <ele>11.199999809265</ele>
        <time>2020-08-09T07:10:12.000Z</time>
      </trkpt>
      <trkpt lat="47.25492" lon="-2.32546">
        <ele>11.199999809265</ele>
        <time>2020-08-09T07:10:16.000Z</time>
      </trkpt>
      <trkpt lat="47.25522" lon="-2.32517">
        <ele>11.199999809265</ele>
        <time>2020-08-09T07:10:22.000Z</time>
      </trkpt>
      <trkpt lat="47.25561" lon="-2.32484">
        <ele>11.199999809265</ele>
        <time>2020-08-09T07:10:28.000Z</time>
      </trkpt>
      <trkpt lat="47.25574" lon="-2.32472">
        <ele>10.800000190735</ele>
        <time>2020-08-09T07:10:30.000Z</time>
      </trkpt>
      <trkpt lat="47.2558" lon="-2.32465">
        <ele>10.39999961853</ele>
        <time>2020-08-09T07:10:31.000Z</time>
      </trkpt>
      <trkpt lat="47.25586" lon="-2.32458">
        <ele>10</ele>
        <time>2020-08-09T07:10:32.000Z</time>
      </trkpt>
      <trkpt lat="47.25592" lon="-2.32452">
        <ele>9.3999996185303</ele>
        <time>2020-08-09T07:10:33.000Z</time>
      </trkpt>
      <trkpt lat="47.25597" lon="-2.32447">
        <ele>9</ele>
        <time>2020-08-09T07:10:34.000Z</time>
      </trkpt>
      <trkpt lat="47.25602" lon="-2.32442">
        <ele>8.6000003814697</ele>
        <time>2020-08-09T07:10:35.000Z</time>
      </trkpt>
      <trkpt lat="47.25606" lon="-2.32437">
        <ele>8.1999998092651</ele>
        <time>2020-08-09T07:10:36.000Z</time>
      </trkpt>
      <trkpt lat="47.25611" lon="-2.32433">
        <ele>7.8000001907349</ele>
        <time>2020-08-09T07:10:37.000Z</time>
      </trkpt>
      <trkpt lat="47.25616" lon="-2.32429">
        <ele>7.1999998092651</ele>
        <time>2020-08-09T07:10:38.000Z</time>
      </trkpt>
      <trkpt lat="47.25621" lon="-2.32425">
        <ele>6.8000001907349</ele>
        <time>2020-08-09T07:10:39.000Z</time>
      </trkpt>
      <trkpt lat="47.25626" lon="-2.3242">
        <ele>6.4000000953674</ele>
        <time>2020-08-09T07:10:40.000Z</time>
      </trkpt>
      <trkpt lat="47.2563" lon="-2.32416">
        <ele>6</ele>
        <time>2020-08-09T07:10:41.000Z</time>
      </trkpt>
      <trkpt lat="47.25635" lon="-2.32412">
        <ele>5.5999999046326</ele>
        <time>2020-08-09T07:10:42.000Z</time>
      </trkpt>
      <trkpt lat="47.2564" lon="-2.32408">
        <ele>5</ele>
        <time>2020-08-09T07:10:43.000Z</time>
      </trkpt>
      <trkpt lat="47.25644" lon="-2.32405">
        <ele>4.5999999046326</ele>
        <time>2020-08-09T07:10:44.000Z</time>
      </trkpt>
      <trkpt lat="47.25649" lon="-2.32402">
        <ele>4.5999999046326</ele>
        <time>2020-08-09T07:10:45.000Z</time>
      </trkpt>
      <trkpt lat="47.25653" lon="-2.32399">
        <ele>4.5999999046326</ele>
        <time>2020-08-09T07:10:46.000Z</time>
      </trkpt>
      <trkpt lat="47.25655" lon="-2.32378">
        <ele>4.5999999046326</ele>
        <time>2020-08-09T07:10:49.000Z</time>
      </trkpt>
      <trkpt lat="47.25654" lon="-2.32363">
        <ele>4.5999999046326</ele>
        <time>2020-08-09T07:10:51.000Z</time>
      </trkpt>
      <trkpt lat="47.2565" lon="-2.32328">
        <ele>4.5999999046326</ele>
        <time>2020-08-09T07:10:56.000Z</time>
      </trkpt>
      <trkpt lat="47.25648" lon="-2.32302">
        <ele>5</ele>
        <time>2020-08-09T07:11:00.000Z</time>
      </trkpt>
      <trkpt lat="47.25647" lon="-2.32296">
        <ele>5.5999999046326</ele>
        <time>2020-08-09T07:11:01.000Z</time>
      </trkpt>
      <trkpt lat="47.25647" lon="-2.32289">
        <ele>6</ele>
        <time>2020-08-09T07:11:02.000Z</time>
      </trkpt>
      <trkpt lat="47.25647" lon="-2.32283">
        <ele>6.4000000953674</ele>
        <time>2020-08-09T07:11:03.000Z</time>
      </trkpt>
      <trkpt lat="47.25646" lon="-2.32277">
        <ele>6.8000001907349</ele>
        <time>2020-08-09T07:11:04.000Z</time>
      </trkpt>
      <trkpt lat="47.25645" lon="-2.32253">
        <ele>7.8000001907349</ele>
        <time>2020-08-09T07:11:08.000Z</time>
      </trkpt>
      <trkpt lat="47.25644" lon="-2.32246">
        <ele>8.1999998092651</ele>
        <time>2020-08-09T07:11:09.000Z</time>
      </trkpt>
      <trkpt lat="47.25644" lon="-2.3224">
        <ele>8.8000001907349</ele>
        <time>2020-08-09T07:11:10.000Z</time>
      </trkpt>
      <trkpt lat="47.25644" lon="-2.32234">
        <ele>9.1999998092651</ele>
        <time>2020-08-09T07:11:11.000Z</time>
      </trkpt>
      <trkpt lat="47.25644" lon="-2.32222">
        <ele>9.1999998092651</ele>
        <time>2020-08-09T07:11:13.000Z</time>
      </trkpt>
      <trkpt lat="47.25643" lon="-2.32216">
        <ele>9.1999998092651</ele>
        <time>2020-08-09T07:11:14.000Z</time>
      </trkpt>
      <trkpt lat="47.25642" lon="-2.3221">
        <ele>9.6000003814697</ele>
        <time>2020-08-09T07:11:15.000Z</time>
      </trkpt>
      <trkpt lat="47.25641" lon="-2.32204">
        <ele>10.199999809265</ele>
        <time>2020-08-09T07:11:16.000Z</time>
      </trkpt>
      <trkpt lat="47.25639" lon="-2.32197">
        <ele>10.60000038147</ele>
        <time>2020-08-09T07:11:17.000Z</time>
      </trkpt>
      <trkpt lat="47.25638" lon="-2.32191">
        <ele>11</ele>
        <time>2020-08-09T07:11:18.000Z</time>
      </trkpt>
      <trkpt lat="47.25636" lon="-2.32184">
        <ele>11.39999961853</ele>
        <time>2020-08-09T07:11:19.000Z</time>
      </trkpt>
      <trkpt lat="47.25625" lon="-2.32144">
        <ele>11.39999961853</ele>
        <time>2020-08-09T07:11:25.000Z</time>
      </trkpt>
      <trkpt lat="47.25609" lon="-2.32098">
        <ele>11.39999961853</ele>
        <time>2020-08-09T07:11:32.000Z</time>
      </trkpt>
      <trkpt lat="47.256" lon="-2.32073">
        <ele>11.800000190735</ele>
        <time>2020-08-09T07:11:36.000Z</time>
      </trkpt>
      <trkpt lat="47.25598" lon="-2.32067">
        <ele>12.199999809265</ele>
        <time>2020-08-09T07:11:37.000Z</time>
      </trkpt>
      <trkpt lat="47.25596" lon="-2.3206">
        <ele>12.60000038147</ele>
        <time>2020-08-09T07:11:38.000Z</time>
      </trkpt>
      <trkpt lat="47.25594" lon="-2.32053">
        <ele>13</ele>
        <time>2020-08-09T07:11:39.000Z</time>
      </trkpt>
      <trkpt lat="47.25591" lon="-2.32046">
        <ele>13.60000038147</ele>
        <time>2020-08-09T07:11:40.000Z</time>
      </trkpt>
      <trkpt lat="47.25573" lon="-2.3199">
        <ele>13.60000038147</ele>
        <time>2020-08-09T07:11:48.000Z</time>
      </trkpt>
      <trkpt lat="47.25564" lon="-2.31941">
        <ele>13.60000038147</ele>
        <time>2020-08-09T07:11:55.000Z</time>
      </trkpt>
      <trkpt lat="47.25557" lon="-2.31916">
        <ele>13.60000038147</ele>
        <time>2020-08-09T07:12:00.000Z</time>
      </trkpt>
      <trkpt lat="47.25548" lon="-2.31919">
        <ele>13.60000038147</ele>
        <time>2020-08-09T07:12:03.000Z</time>
      </trkpt>
      <trkpt lat="47.25545" lon="-2.3192">
        <ele>13.60000038147</ele>
        <time>2020-08-09T07:12:04.000Z</time>
      </trkpt>
      <trkpt lat="47.25534" lon="-2.31921">
        <ele>13.60000038147</ele>
        <time>2020-08-09T07:12:07.000Z</time>
      </trkpt>
      <trkpt lat="47.25532" lon="-2.31916">
        <ele>13.60000038147</ele>
        <time>2020-08-09T07:12:08.000Z</time>
      </trkpt>
      <trkpt lat="47.25531" lon="-2.31904">
        <ele>14</ele>
        <time>2020-08-09T07:12:10.000Z</time>
      </trkpt>
      <trkpt lat="47.25531" lon="-2.31898">
        <ele>14.39999961853</ele>
        <time>2020-08-09T07:12:11.000Z</time>
      </trkpt>
      <trkpt lat="47.25531" lon="-2.31892">
        <ele>14.800000190735</ele>
        <time>2020-08-09T07:12:12.000Z</time>
      </trkpt>
      <trkpt lat="47.25531" lon="-2.31886">
        <ele>15.199999809265</ele>
        <time>2020-08-09T07:12:13.000Z</time>
      </trkpt>
      <trkpt lat="47.25531" lon="-2.31881">
        <ele>15.60000038147</ele>
        <time>2020-08-09T07:12:14.000Z</time>
      </trkpt>
      <trkpt lat="47.25524" lon="-2.31843">
        <ele>15.60000038147</ele>
        <time>2020-08-09T07:12:21.000Z</time>
      </trkpt>
      <trkpt lat="47.25525" lon="-2.31835">
        <ele>15.60000038147</ele>
        <time>2020-08-09T07:12:23.000Z</time>
      </trkpt>
      <trkpt lat="47.25526" lon="-2.31829">
        <ele>15.60000038147</ele>
        <time>2020-08-09T07:12:25.000Z</time>
      </trkpt>
      <trkpt lat="47.25525" lon="-2.31825">
        <ele>15.60000038147</ele>
        <time>2020-08-09T07:12:29.000Z</time>
      </trkpt>
      <trkpt lat="47.25525" lon="-2.31821">
        <ele>15.60000038147</ele>
        <time>2020-08-09T07:12:32.000Z</time>
      </trkpt>
      <trkpt lat="47.25524" lon="-2.31818">
        <ele>15.60000038147</ele>
        <time>2020-08-09T07:12:35.000Z</time>
      </trkpt>
      <trkpt lat="47.2553" lon="-2.31814">
        <ele>15.60000038147</ele>
        <time>2020-08-09T07:12:54.000Z</time>
      </trkpt>
      <trkpt lat="47.25534" lon="-2.3181">
        <ele>15.60000038147</ele>
        <time>2020-08-09T07:12:57.000Z</time>
      </trkpt>
      <trkpt lat="47.25546" lon="-2.31807">
        <ele>15.60000038147</ele>
        <time>2020-08-09T07:13:03.000Z</time>
      </trkpt>
      <trkpt lat="47.25546" lon="-2.31807">
        <ele>15.60000038147</ele>
        <time>2020-08-09T07:13:04.000Z</time>
      </trkpt>
      <trkpt lat="47.25548" lon="-2.31804">
        <ele>13.60000038147</ele>
        <time>2020-08-09T07:16:03.000Z</time>
      </trkpt>
      <trkpt lat="47.2555" lon="-2.31801">
        <ele>13.60000038147</ele>
        <time>2020-08-09T07:16:05.000Z</time>
      </trkpt>
      <trkpt lat="47.2556" lon="-2.31792">
        <ele>13.60000038147</ele>
        <time>2020-08-09T07:16:10.000Z</time>
      </trkpt>
      <trkpt lat="47.2557" lon="-2.31773">
        <ele>13.60000038147</ele>
        <time>2020-08-09T07:16:15.000Z</time>
      </trkpt>
      <trkpt lat="47.2558" lon="-2.31764">
        <ele>13.60000038147</ele>
        <time>2020-08-09T07:16:18.000Z</time>
      </trkpt>
      <trkpt lat="47.25586" lon="-2.31753">
        <ele>13.60000038147</ele>
        <time>2020-08-09T07:16:20.000Z</time>
      </trkpt>
      <trkpt lat="47.2559" lon="-2.3174">
        <ele>13.60000038147</ele>
        <time>2020-08-09T07:16:22.000Z</time>
      </trkpt>
      <trkpt lat="47.25594" lon="-2.31726">
        <ele>13.60000038147</ele>
        <time>2020-08-09T07:16:24.000Z</time>
      </trkpt>
      <trkpt lat="47.25606" lon="-2.31714">
        <ele>13.60000038147</ele>
        <time>2020-08-09T07:16:27.000Z</time>
      </trkpt>
      <trkpt lat="47.25621" lon="-2.31723">
        <ele>13.60000038147</ele>
        <time>2020-08-09T07:16:30.000Z</time>
      </trkpt>
      <trkpt lat="47.25627" lon="-2.31745">
        <ele>13.60000038147</ele>
        <time>2020-08-09T07:16:33.000Z</time>
      </trkpt>
      <trkpt lat="47.25627" lon="-2.31753">
        <ele>13.60000038147</ele>
        <time>2020-08-09T07:16:34.000Z</time>
      </trkpt>
      <trkpt lat="47.25629" lon="-2.31768">
        <ele>13.60000038147</ele>
        <time>2020-08-09T07:16:36.000Z</time>
      </trkpt>
      <trkpt lat="47.25631" lon="-2.31776">
        <ele>13.60000038147</ele>
        <time>2020-08-09T07:16:37.000Z</time>
      </trkpt>
      <trkpt lat="47.25634" lon="-2.31784">
        <ele>13.199999809265</ele>
        <time>2020-08-09T07:16:38.000Z</time>
      </trkpt>
      <trkpt lat="47.25638" lon="-2.31792">
        <ele>12.800000190735</ele>
        <time>2020-08-09T07:16:39.000Z</time>
      </trkpt>
      <trkpt lat="47.25641" lon="-2.31802">
        <ele>12.39999961853</ele>
        <time>2020-08-09T07:16:40.000Z</time>
      </trkpt>
      <trkpt lat="47.25645" lon="-2.31811">
        <ele>12</ele>
        <time>2020-08-09T07:16:41.000Z</time>
      </trkpt>
      <trkpt lat="47.25648" lon="-2.31821">
        <ele>11.39999961853</ele>
        <time>2020-08-09T07:16:42.000Z</time>
      </trkpt>
      <trkpt lat="47.25668" lon="-2.31884">
        <ele>11.39999961853</ele>
        <time>2020-08-09T07:16:48.000Z</time>
      </trkpt>
      <trkpt lat="47.25689" lon="-2.31967">
        <ele>11.39999961853</ele>
        <time>2020-08-09T07:16:56.000Z</time>
      </trkpt>
      <trkpt lat="47.25709" lon="-2.32047">
        <ele>11.39999961853</ele>
        <time>2020-08-09T07:17:04.000Z</time>
      </trkpt>
      <trkpt lat="47.25712" lon="-2.32057">
        <ele>11.39999961853</ele>
        <time>2020-08-09T07:17:05.000Z</time>
      </trkpt>
      <trkpt lat="47.25729" lon="-2.32127">
        <ele>11.39999961853</ele>
        <time>2020-08-09T07:17:12.000Z</time>
      </trkpt>
      <trkpt lat="47.25741" lon="-2.3219">
        <ele>11.39999961853</ele>
        <time>2020-08-09T07:17:18.000Z</time>
      </trkpt>
      <trkpt lat="47.25756" lon="-2.32268">
        <ele>11.39999961853</ele>
        <time>2020-08-09T07:17:25.000Z</time>
      </trkpt>
      <trkpt lat="47.25761" lon="-2.32291">
        <ele>11.39999961853</ele>
        <time>2020-08-09T07:17:27.000Z</time>
      </trkpt>
      <trkpt lat="47.25768" lon="-2.32328">
        <ele>11</ele>
        <time>2020-08-09T07:17:30.000Z</time>
      </trkpt>
      <trkpt lat="47.2577" lon="-2.32341">
        <ele>10.60000038147</ele>
        <time>2020-08-09T07:17:31.000Z</time>
      </trkpt>
      <trkpt lat="47.25772" lon="-2.32354">
        <ele>10</ele>
        <time>2020-08-09T07:17:32.000Z</time>
      </trkpt>
      <trkpt lat="47.25774" lon="-2.32367">
        <ele>9.6000003814697</ele>
        <time>2020-08-09T07:17:33.000Z</time>
      </trkpt>
      <trkpt lat="47.25777" lon="-2.32379">
        <ele>9.1999998092651</ele>
        <time>2020-08-09T07:17:34.000Z</time>
      </trkpt>
      <trkpt lat="47.25779" lon="-2.32393">
        <ele>8.6000003814697</ele>
        <time>2020-08-09T07:17:35.000Z</time>
      </trkpt>
      <trkpt lat="47.25782" lon="-2.32405">
        <ele>8.1999998092651</ele>
        <time>2020-08-09T07:17:36.000Z</time>
      </trkpt>
      <trkpt lat="47.25785" lon="-2.32417">
        <ele>7.5999999046326</ele>
        <time>2020-08-09T07:17:37.000Z</time>
      </trkpt>
      <trkpt lat="47.25788" lon="-2.32428">
        <ele>7</ele>
        <time>2020-08-09T07:17:38.000Z</time>
      </trkpt>
      <trkpt lat="47.25792" lon="-2.32437">
        <ele>6.4000000953674</ele>
        <time>2020-08-09T07:17:39.000Z</time>
      </trkpt>
      <trkpt lat="47.25797" lon="-2.32446">
        <ele>6</ele>
        <time>2020-08-09T07:17:40.000Z</time>
      </trkpt>
      <trkpt lat="47.25801" lon="-2.32452">
        <ele>5.4000000953674</ele>
        <time>2020-08-09T07:17:41.000Z</time>
      </trkpt>
      <trkpt lat="47.25804" lon="-2.32455">
        <ele>4.8000001907349</ele>
        <time>2020-08-09T07:17:42.000Z</time>
      </trkpt>
      <trkpt lat="47.25805" lon="-2.32457">
        <ele>3.7999999523163</ele>
        <time>2020-08-09T07:17:43.000Z</time>
      </trkpt>
      <trkpt lat="47.25806" lon="-2.32459">
        <ele>3.2000000476837</ele>
        <time>2020-08-09T07:17:44.000Z</time>
      </trkpt>
      <trkpt lat="47.25807" lon="-2.32461">
        <ele>2.7999999523163</ele>
        <time>2020-08-09T07:17:45.000Z</time>
      </trkpt>
      <trkpt lat="47.25807" lon="-2.32464">
        <ele>2.4000000953674</ele>
        <time>2020-08-09T07:17:46.000Z</time>
      </trkpt>
      <trkpt lat="47.25807" lon="-2.32467">
        <ele>1.7999999523163</ele>
        <time>2020-08-09T07:17:47.000Z</time>
      </trkpt>
      <trkpt lat="47.25812" lon="-2.32483">
        <ele>1.7999999523163</ele>
        <time>2020-08-09T07:17:50.000Z</time>
      </trkpt>
      <trkpt lat="47.25815" lon="-2.32487">
        <ele>1.7999999523163</ele>
        <time>2020-08-09T07:17:51.000Z</time>
      </trkpt>
      <trkpt lat="47.25834" lon="-2.32511">
        <ele>1.7999999523163</ele>
        <time>2020-08-09T07:17:56.000Z</time>
      </trkpt>
      <trkpt lat="47.25857" lon="-2.32544">
        <ele>1.7999999523163</ele>
        <time>2020-08-09T07:18:01.000Z</time>
      </trkpt>
      <trkpt lat="47.25881" lon="-2.32578">
        <ele>1.7999999523163</ele>
        <time>2020-08-09T07:18:06.000Z</time>
      </trkpt>
      <trkpt lat="47.25885" lon="-2.32585">
        <ele>1.7999999523163</ele>
        <time>2020-08-09T07:18:07.000Z</time>
      </trkpt>
      <trkpt lat="47.25896" lon="-2.32606">
        <ele>1.7999999523163</ele>
        <time>2020-08-09T07:18:10.000Z</time>
      </trkpt>
      <trkpt lat="47.25902" lon="-2.32612">
        <ele>1.7999999523163</ele>
        <time>2020-08-09T07:18:11.000Z</time>
      </trkpt>
      <trkpt lat="47.25923" lon="-2.32638">
        <ele>1.7999999523163</ele>
        <time>2020-08-09T07:18:15.000Z</time>
      </trkpt>
      <trkpt lat="47.25929" lon="-2.32643">
        <ele>1.7999999523163</ele>
        <time>2020-08-09T07:18:16.000Z</time>
      </trkpt>
      <trkpt lat="47.25963" lon="-2.32666">
        <ele>1.7999999523163</ele>
        <time>2020-08-09T07:18:22.000Z</time>
      </trkpt>
      <trkpt lat="47.25967" lon="-2.32668">
        <ele>1.7999999523163</ele>
        <time>2020-08-09T07:18:23.000Z</time>
      </trkpt>
      <trkpt lat="47.25976" lon="-2.32668">
        <ele>1.7999999523163</ele>
        <time>2020-08-09T07:18:25.000Z</time>
      </trkpt>
      <trkpt lat="47.26009" lon="-2.32659">
        <ele>1.7999999523163</ele>
        <time>2020-08-09T07:18:31.000Z</time>
      </trkpt>
      <trkpt lat="47.26044" lon="-2.32652">
        <ele>1.7999999523163</ele>
        <time>2020-08-09T07:18:37.000Z</time>
      </trkpt>
      <trkpt lat="47.26067" lon="-2.32647">
        <ele>2.2000000476837</ele>
        <time>2020-08-09T07:18:41.000Z</time>
      </trkpt>
      <trkpt lat="47.26074" lon="-2.32645">
        <ele>2.5999999046326</ele>
        <time>2020-08-09T07:18:42.000Z</time>
      </trkpt>
      <trkpt lat="47.2608" lon="-2.32645">
        <ele>3.2000000476837</ele>
        <time>2020-08-09T07:18:43.000Z</time>
      </trkpt>
      <trkpt lat="47.26086" lon="-2.32644">
        <ele>3.5999999046326</ele>
        <time>2020-08-09T07:18:44.000Z</time>
      </trkpt>
      <trkpt lat="47.26092" lon="-2.32643">
        <ele>4</ele>
        <time>2020-08-09T07:18:45.000Z</time>
      </trkpt>
      <trkpt lat="47.26137" lon="-2.32643">
        <ele>4</ele>
        <time>2020-08-09T07:18:52.000Z</time>
      </trkpt>
      <trkpt lat="47.26175" lon="-2.3266">
        <ele>4</ele>
        <time>2020-08-09T07:18:58.000Z</time>
      </trkpt>
      <trkpt lat="47.26186" lon="-2.32669">
        <ele>4</ele>
        <time>2020-08-09T07:19:00.000Z</time>
      </trkpt>
      <trkpt lat="47.26207" lon="-2.32692">
        <ele>4</ele>
        <time>2020-08-09T07:19:04.000Z</time>
      </trkpt>
      <trkpt lat="47.26246" lon="-2.3275">
        <ele>4</ele>
        <time>2020-08-09T07:19:12.000Z</time>
      </trkpt>
      <trkpt lat="47.26273" lon="-2.32803">
        <ele>4</ele>
        <time>2020-08-09T07:19:18.000Z</time>
      </trkpt>
      <trkpt lat="47.26277" lon="-2.32813">
        <ele>4</ele>
        <time>2020-08-09T07:19:19.000Z</time>
      </trkpt>
      <trkpt lat="47.26285" lon="-2.32842">
        <ele>3.5999999046326</ele>
        <time>2020-08-09T07:19:22.000Z</time>
      </trkpt>
      <trkpt lat="47.26288" lon="-2.32851">
        <ele>3.2000000476837</ele>
        <time>2020-08-09T07:19:23.000Z</time>
      </trkpt>
      <trkpt lat="47.26292" lon="-2.32858">
        <ele>2.7999999523163</ele>
        <time>2020-08-09T07:19:24.000Z</time>
      </trkpt>
      <trkpt lat="47.26297" lon="-2.32863">
        <ele>2.2000000476837</ele>
        <time>2020-08-09T07:19:25.000Z</time>
      </trkpt>
      <trkpt lat="47.26303" lon="-2.32866">
        <ele>1.7999999523163</ele>
        <time>2020-08-09T07:19:26.000Z</time>
      </trkpt>
      <trkpt lat="47.26319" lon="-2.3288">
        <ele>1.7999999523163</ele>
        <time>2020-08-09T07:19:29.000Z</time>
      </trkpt>
      <trkpt lat="47.26325" lon="-2.32895">
        <ele>1.7999999523163</ele>
        <time>2020-08-09T07:19:31.000Z</time>
      </trkpt>
      <trkpt lat="47.26331" lon="-2.32913">
        <ele>1.7999999523163</ele>
        <time>2020-08-09T07:19:33.000Z</time>
      </trkpt>
      <trkpt lat="47.26351" lon="-2.32968">
        <ele>1.7999999523163</ele>
        <time>2020-08-09T07:19:39.000Z</time>
      </trkpt>
      <trkpt lat="47.26355" lon="-2.32976">
        <ele>1.7999999523163</ele>
        <time>2020-08-09T07:19:40.000Z</time>
      </trkpt>
      <trkpt lat="47.26365" lon="-2.3299">
        <ele>1.7999999523163</ele>
        <time>2020-08-09T07:19:42.000Z</time>
      </trkpt>
      <trkpt lat="47.26369" lon="-2.33009">
        <ele>1.7999999523163</ele>
        <time>2020-08-09T07:19:44.000Z</time>
      </trkpt>
      <trkpt lat="47.2637" lon="-2.33037">
        <ele>1.7999999523163</ele>
        <time>2020-08-09T07:19:47.000Z</time>
      </trkpt>
      <trkpt lat="47.26371" lon="-2.33057">
        <ele>1.7999999523163</ele>
        <time>2020-08-09T07:19:49.000Z</time>
      </trkpt>
      <trkpt lat="47.26375" lon="-2.3313">
        <ele>1.7999999523163</ele>
        <time>2020-08-09T07:19:56.000Z</time>
      </trkpt>
      <trkpt lat="47.26379" lon="-2.33212">
        <ele>1.7999999523163</ele>
        <time>2020-08-09T07:20:04.000Z</time>
      </trkpt>
      <trkpt lat="47.2638" lon="-2.33222">
        <ele>1.7999999523163</ele>
        <time>2020-08-09T07:20:05.000Z</time>
      </trkpt>
      <trkpt lat="47.26383" lon="-2.3325">
        <ele>1.7999999523163</ele>
        <time>2020-08-09T07:20:08.000Z</time>
      </trkpt>
      <trkpt lat="47.2639" lon="-2.33264">
        <ele>1.7999999523163</ele>
        <time>2020-08-09T07:20:10.000Z</time>
      </trkpt>
      <trkpt lat="47.26407" lon="-2.33273">
        <ele>1.7999999523163</ele>
        <time>2020-08-09T07:20:13.000Z</time>
      </trkpt>
      <trkpt lat="47.26413" lon="-2.33275">
        <ele>1.7999999523163</ele>
        <time>2020-08-09T07:20:14.000Z</time>
      </trkpt>
      <trkpt lat="47.26419" lon="-2.33277">
        <ele>1.7999999523163</ele>
        <time>2020-08-09T07:20:15.000Z</time>
      </trkpt>
      <trkpt lat="47.26436" lon="-2.33279">
        <ele>1.7999999523163</ele>
        <time>2020-08-09T07:20:18.000Z</time>
      </trkpt>
      <trkpt lat="47.26482" lon="-2.3328">
        <ele>1.7999999523163</ele>
        <time>2020-08-09T07:20:25.000Z</time>
      </trkpt>
      <trkpt lat="47.26501" lon="-2.33283">
        <ele>1.7999999523163</ele>
        <time>2020-08-09T07:20:28.000Z</time>
      </trkpt>
      <trkpt lat="47.26511" lon="-2.33289">
        <ele>1.7999999523163</ele>
        <time>2020-08-09T07:20:30.000Z</time>
      </trkpt>
      <trkpt lat="47.26529" lon="-2.33291">
        <ele>1.7999999523163</ele>
        <time>2020-08-09T07:20:34.000Z</time>
      </trkpt>
      <trkpt lat="47.26538" lon="-2.33301">
        <ele>1.7999999523163</ele>
        <time>2020-08-09T07:20:37.000Z</time>
      </trkpt>
      <trkpt lat="47.26546" lon="-2.33295">
        <ele>1.7999999523163</ele>
        <time>2020-08-09T07:20:40.000Z</time>
      </trkpt>
      <trkpt lat="47.2655" lon="-2.3329">
        <ele>1.7999999523163</ele>
        <time>2020-08-09T07:20:41.000Z</time>
      </trkpt>
      <trkpt lat="47.26567" lon="-2.3327">
        <ele>1.7999999523163</ele>
        <time>2020-08-09T07:20:45.000Z</time>
      </trkpt>
      <trkpt lat="47.26612" lon="-2.33226">
        <ele>1.7999999523163</ele>
        <time>2020-08-09T07:20:54.000Z</time>
      </trkpt>
      <trkpt lat="47.26632" lon="-2.33206">
        <ele>2.5999999046326</ele>
        <time>2020-08-09T07:20:58.000Z</time>
      </trkpt>
      <trkpt lat="47.26637" lon="-2.33201">
        <ele>3</ele>
        <time>2020-08-09T07:20:59.000Z</time>
      </trkpt>
      <trkpt lat="47.26641" lon="-2.33196">
        <ele>3.5999999046326</ele>
        <time>2020-08-09T07:21:00.000Z</time>
      </trkpt>
      <trkpt lat="47.26646" lon="-2.33191">
        <ele>4</ele>
        <time>2020-08-09T07:21:01.000Z</time>
      </trkpt>
      <trkpt lat="47.26651" lon="-2.33186">
        <ele>4</ele>
        <time>2020-08-09T07:21:02.000Z</time>
      </trkpt>
      <trkpt lat="47.26694" lon="-2.33142">
        <ele>4</ele>
        <time>2020-08-09T07:21:11.000Z</time>
      </trkpt>
      <trkpt lat="47.26731" lon="-2.33104">
        <ele>4</ele>
        <time>2020-08-09T07:21:19.000Z</time>
      </trkpt>
      <trkpt lat="47.2675" lon="-2.33088">
        <ele>4</ele>
        <time>2020-08-09T07:21:24.000Z</time>
      </trkpt>
      <trkpt lat="47.26757" lon="-2.33091">
        <ele>4</ele>
        <time>2020-08-09T07:21:26.000Z</time>
      </trkpt>
      <trkpt lat="47.2676" lon="-2.33096">
        <ele>3.4000000953674</ele>
        <time>2020-08-09T07:21:27.000Z</time>
      </trkpt>
      <trkpt lat="47.26762" lon="-2.33102">
        <ele>3</ele>
        <time>2020-08-09T07:21:28.000Z</time>
      </trkpt>
      <trkpt lat="47.26764" lon="-2.33109">
        <ele>2.5999999046326</ele>
        <time>2020-08-09T07:21:29.000Z</time>
      </trkpt>
      <trkpt lat="47.26765" lon="-2.33118">
        <ele>2.2000000476837</ele>
        <time>2020-08-09T07:21:30.000Z</time>
      </trkpt>
      <trkpt lat="47.26765" lon="-2.33126">
        <ele>1.7999999523163</ele>
        <time>2020-08-09T07:21:31.000Z</time>
      </trkpt>
      <trkpt lat="47.26765" lon="-2.33133">
        <ele>1.7999999523163</ele>
        <time>2020-08-09T07:21:32.000Z</time>
      </trkpt>
      <trkpt lat="47.26764" lon="-2.33148">
        <ele>1.7999999523163</ele>
        <time>2020-08-09T07:21:34.000Z</time>
      </trkpt>
      <trkpt lat="47.26764" lon="-2.33156">
        <ele>1.7999999523163</ele>
        <time>2020-08-09T07:21:35.000Z</time>
      </trkpt>
      <trkpt lat="47.2676" lon="-2.33173">
        <ele>1.7999999523163</ele>
        <time>2020-08-09T07:21:37.000Z</time>
      </trkpt>
      <trkpt lat="47.26754" lon="-2.33191">
        <ele>1.7999999523163</ele>
        <time>2020-08-09T07:21:39.000Z</time>
      </trkpt>
      <trkpt lat="47.26736" lon="-2.33247">
        <ele>1.7999999523163</ele>
        <time>2020-08-09T07:21:45.000Z</time>
      </trkpt>
      <trkpt lat="47.26734" lon="-2.33256">
        <ele>1.7999999523163</ele>
        <time>2020-08-09T07:21:46.000Z</time>
      </trkpt>
      <trkpt lat="47.26733" lon="-2.33287">
        <ele>1.7999999523163</ele>
        <time>2020-08-09T07:21:49.000Z</time>
      </trkpt>
      <trkpt lat="47.26734" lon="-2.33297">
        <ele>1.7999999523163</ele>
        <time>2020-08-09T07:21:50.000Z</time>
      </trkpt>
      <trkpt lat="47.26738" lon="-2.33317">
        <ele>1.7999999523163</ele>
        <time>2020-08-09T07:21:52.000Z</time>
      </trkpt>
      <trkpt lat="47.26743" lon="-2.33335">
        <ele>1.7999999523163</ele>
        <time>2020-08-09T07:21:54.000Z</time>
      </trkpt>
      <trkpt lat="47.26754" lon="-2.33393">
        <ele>1.7999999523163</ele>
        <time>2020-08-09T07:22:00.000Z</time>
      </trkpt>
      <trkpt lat="47.26762" lon="-2.33471">
        <ele>1.7999999523163</ele>
        <time>2020-08-09T07:22:08.000Z</time>
      </trkpt>
      <trkpt lat="47.26771" lon="-2.33534">
        <ele>1.7999999523163</ele>
        <time>2020-08-09T07:22:15.000Z</time>
      </trkpt>
      <trkpt lat="47.26776" lon="-2.33559">
        <ele>1.7999999523163</ele>
        <time>2020-08-09T07:22:19.000Z</time>
      </trkpt>
      <trkpt lat="47.26779" lon="-2.33568">
        <ele>1.7999999523163</ele>
        <time>2020-08-09T07:22:23.000Z</time>
      </trkpt>
      <trkpt lat="47.2678" lon="-2.33569">
        <ele>1.7999999523163</ele>
        <time>2020-08-09T07:22:24.000Z</time>
      </trkpt>
      <trkpt lat="47.26788" lon="-2.33569">
        <ele>1.7999999523163</ele>
        <time>2020-08-09T07:22:27.000Z</time>
      </trkpt>
      <trkpt lat="47.2679" lon="-2.33568">
        <ele>1.7999999523163</ele>
        <time>2020-08-09T07:22:28.000Z</time>
      </trkpt>
      <trkpt lat="47.26806" lon="-2.33564">
        <ele>1.7999999523163</ele>
        <time>2020-08-09T07:22:33.000Z</time>
      </trkpt>
      <trkpt lat="47.26835" lon="-2.33547">
        <ele>1.7999999523163</ele>
        <time>2020-08-09T07:22:41.000Z</time>
      </trkpt>
      <trkpt lat="47.26848" lon="-2.3354">
        <ele>1.7999999523163</ele>
        <time>2020-08-09T07:22:44.000Z</time>
      </trkpt>
      <trkpt lat="47.26857" lon="-2.33537">
        <ele>1.7999999523163</ele>
        <time>2020-08-09T07:22:46.000Z</time>
      </trkpt>
      <trkpt lat="47.26867" lon="-2.33536">
        <ele>1.7999999523163</ele>
        <time>2020-08-09T07:22:48.000Z</time>
      </trkpt>
      <trkpt lat="47.26878" lon="-2.33538">
        <ele>1.7999999523163</ele>
        <time>2020-08-09T07:22:50.000Z</time>
      </trkpt>
      <trkpt lat="47.26886" lon="-2.33545">
        <ele>2.2000000476837</ele>
        <time>2020-08-09T07:22:52.000Z</time>
      </trkpt>
      <trkpt lat="47.2689" lon="-2.3355">
        <ele>2.7999999523163</ele>
        <time>2020-08-09T07:22:53.000Z</time>
      </trkpt>
      <trkpt lat="47.26893" lon="-2.33554">
        <ele>3.2000000476837</ele>
        <time>2020-08-09T07:22:54.000Z</time>
      </trkpt>
      <trkpt lat="47.26896" lon="-2.33559">
        <ele>3.5999999046326</ele>
        <time>2020-08-09T07:22:55.000Z</time>
      </trkpt>
      <trkpt lat="47.26898" lon="-2.33563">
        <ele>4</ele>
        <time>2020-08-09T07:22:56.000Z</time>
      </trkpt>
      <trkpt lat="47.26908" lon="-2.33577">
        <ele>4</ele>
        <time>2020-08-09T07:23:00.000Z</time>
      </trkpt>
      <trkpt lat="47.26914" lon="-2.33591">
        <ele>4</ele>
        <time>2020-08-09T07:23:06.000Z</time>
      </trkpt>
      <trkpt lat="47.26915" lon="-2.33592">
        <ele>5</ele>
        <time>2020-08-09T07:24:09.000Z</time>
      </trkpt>
      <trkpt lat="47.26918" lon="-2.336">
        <ele>5</ele>
        <time>2020-08-09T07:24:12.000Z</time>
      </trkpt>
      <trkpt lat="47.26919" lon="-2.33604">
        <ele>5</ele>
        <time>2020-08-09T07:24:13.000Z</time>
      </trkpt>
      <trkpt lat="47.26925" lon="-2.33627">
        <ele>5</ele>
        <time>2020-08-09T07:24:18.000Z</time>
      </trkpt>
      <trkpt lat="47.26932" lon="-2.33658">
        <ele>5</ele>
        <time>2020-08-09T07:24:25.000Z</time>
      </trkpt>
      <trkpt lat="47.26936" lon="-2.33693">
        <ele>5</ele>
        <time>2020-08-09T07:24:33.000Z</time>
      </trkpt>
      <trkpt lat="47.26939" lon="-2.33714">
        <ele>5.4000000953674</ele>
        <time>2020-08-09T07:24:38.000Z</time>
      </trkpt>
      <trkpt lat="47.2694" lon="-2.33718">
        <ele>5.8000001907349</ele>
        <time>2020-08-09T07:24:39.000Z</time>
      </trkpt>
      <trkpt lat="47.2694" lon="-2.33723">
        <ele>6.1999998092651</ele>
        <time>2020-08-09T07:24:40.000Z</time>
      </trkpt>
      <trkpt lat="47.26939" lon="-2.33727">
        <ele>7</ele>
        <time>2020-08-09T07:24:41.000Z</time>
      </trkpt>
      <trkpt lat="47.26935" lon="-2.33748">
        <ele>7</ele>
        <time>2020-08-09T07:24:45.000Z</time>
      </trkpt>
      <trkpt lat="47.26929" lon="-2.33787">
        <ele>7</ele>
        <time>2020-08-09T07:24:52.000Z</time>
      </trkpt>
      <trkpt lat="47.26936" lon="-2.33812">
        <ele>7</ele>
        <time>2020-08-09T07:24:57.000Z</time>
      </trkpt>
      <trkpt lat="47.26952" lon="-2.33829">
        <ele>7</ele>
        <time>2020-08-09T07:25:02.000Z</time>
      </trkpt>
      <trkpt lat="47.26974" lon="-2.33839">
        <ele>7</ele>
        <time>2020-08-09T07:25:08.000Z</time>
      </trkpt>
      <trkpt lat="47.26992" lon="-2.33849">
        <ele>7.4000000953674</ele>
        <time>2020-08-09T07:25:13.000Z</time>
      </trkpt>
      <trkpt lat="47.26995" lon="-2.33851">
        <ele>7.8000001907349</ele>
        <time>2020-08-09T07:25:14.000Z</time>
      </trkpt>
      <trkpt lat="47.26998" lon="-2.33853">
        <ele>8.1999998092651</ele>
        <time>2020-08-09T07:25:15.000Z</time>
      </trkpt>
      <trkpt lat="47.27002" lon="-2.33855">
        <ele>8.8000001907349</ele>
        <time>2020-08-09T07:25:16.000Z</time>
      </trkpt>
      <trkpt lat="47.27012" lon="-2.3386">
        <ele>9.1999998092651</ele>
        <time>2020-08-09T07:25:17.000Z</time>
      </trkpt>
      <trkpt lat="47.27021" lon="-2.33868">
        <ele>9.6000003814697</ele>
        <time>2020-08-09T07:25:23.000Z</time>
      </trkpt>
      <trkpt lat="47.27024" lon="-2.3387">
        <ele>10</ele>
        <time>2020-08-09T07:25:24.000Z</time>
      </trkpt>
      <trkpt lat="47.27027" lon="-2.33873">
        <ele>10.39999961853</ele>
        <time>2020-08-09T07:25:25.000Z</time>
      </trkpt>
      <trkpt lat="47.27031" lon="-2.33875">
        <ele>10.800000190735</ele>
        <time>2020-08-09T07:25:26.000Z</time>
      </trkpt>
      <trkpt lat="47.27034" lon="-2.33877">
        <ele>11.199999809265</ele>
        <time>2020-08-09T07:25:27.000Z</time>
      </trkpt>
      <trkpt lat="47.2706" lon="-2.33902">
        <ele>11.199999809265</ele>
        <time>2020-08-09T07:25:34.000Z</time>
      </trkpt>
      <trkpt lat="47.27071" lon="-2.33911">
        <ele>11.60000038147</ele>
        <time>2020-08-09T07:25:37.000Z</time>
      </trkpt>
      <trkpt lat="47.27074" lon="-2.33914">
        <ele>12</ele>
        <time>2020-08-09T07:25:38.000Z</time>
      </trkpt>
      <trkpt lat="47.27077" lon="-2.33917">
        <ele>12.39999961853</ele>
        <time>2020-08-09T07:25:39.000Z</time>
      </trkpt>
      <trkpt lat="47.2708" lon="-2.3392">
        <ele>12.800000190735</ele>
        <time>2020-08-09T07:25:40.000Z</time>
      </trkpt>
      <trkpt lat="47.27083" lon="-2.33923">
        <ele>13.39999961853</ele>
        <time>2020-08-09T07:25:41.000Z</time>
      </trkpt>
      <trkpt lat="47.27094" lon="-2.33936">
        <ele>13.800000190735</ele>
        <time>2020-08-09T07:25:45.000Z</time>
      </trkpt>
      <trkpt lat="47.27097" lon="-2.33939">
        <ele>14.199999809265</ele>
        <time>2020-08-09T07:25:46.000Z</time>
      </trkpt>
      <trkpt lat="47.271" lon="-2.33942">
        <ele>14.60000038147</ele>
        <time>2020-08-09T07:25:47.000Z</time>
      </trkpt>
      <trkpt lat="47.27103" lon="-2.33944">
        <ele>15</ele>
        <time>2020-08-09T07:25:48.000Z</time>
      </trkpt>
      <trkpt lat="47.27106" lon="-2.33946">
        <ele>15.39999961853</ele>
        <time>2020-08-09T07:25:49.000Z</time>
      </trkpt>
      <trkpt lat="47.27108" lon="-2.33949">
        <ele>15.39999961853</ele>
        <time>2020-08-09T07:25:50.000Z</time>
      </trkpt>
      <trkpt lat="47.27122" lon="-2.33962">
        <ele>15.800000190735</ele>
        <time>2020-08-09T07:25:55.000Z</time>
      </trkpt>
      <trkpt lat="47.27125" lon="-2.33965">
        <ele>16.60000038147</ele>
        <time>2020-08-09T07:25:56.000Z</time>
      </trkpt>
      <trkpt lat="47.27128" lon="-2.33969">
        <ele>17.200000762939</ele>
        <time>2020-08-09T07:25:57.000Z</time>
      </trkpt>
      <trkpt lat="47.27131" lon="-2.33971">
        <ele>17.60000038147</ele>
        <time>2020-08-09T07:25:58.000Z</time>
      </trkpt>
      <trkpt lat="47.27155" lon="-2.33995">
        <ele>17.60000038147</ele>
        <time>2020-08-09T07:26:06.000Z</time>
      </trkpt>
      <trkpt lat="47.27173" lon="-2.34011">
        <ele>17.60000038147</ele>
        <time>2020-08-09T07:26:12.000Z</time>
      </trkpt>
      <trkpt lat="47.27198" lon="-2.34038">
        <ele>17.60000038147</ele>
        <time>2020-08-09T07:26:20.000Z</time>
      </trkpt>
      <trkpt lat="47.27212" lon="-2.3405">
        <ele>18</ele>
        <time>2020-08-09T07:26:24.000Z</time>
      </trkpt>
      <trkpt lat="47.27215" lon="-2.34053">
        <ele>18.39999961853</ele>
        <time>2020-08-09T07:26:25.000Z</time>
      </trkpt>
      <trkpt lat="47.27219" lon="-2.34055">
        <ele>18.799999237061</ele>
        <time>2020-08-09T07:26:26.000Z</time>
      </trkpt>
      <trkpt lat="47.27223" lon="-2.34055">
        <ele>19.200000762939</ele>
        <time>2020-08-09T07:26:27.000Z</time>
      </trkpt>
      <trkpt lat="47.27227" lon="-2.34056">
        <ele>19.60000038147</ele>
        <time>2020-08-09T07:26:28.000Z</time>
      </trkpt>
      <trkpt lat="47.27238" lon="-2.34055">
        <ele>19.60000038147</ele>
        <time>2020-08-09T07:26:31.000Z</time>
      </trkpt>
      <trkpt lat="47.27254" lon="-2.34055">
        <ele>19.60000038147</ele>
        <time>2020-08-09T07:26:35.000Z</time>
      </trkpt>
      <trkpt lat="47.27271" lon="-2.34068">
        <ele>19.60000038147</ele>
        <time>2020-08-09T07:26:41.000Z</time>
      </trkpt>
      <trkpt lat="47.27278" lon="-2.34092">
        <ele>19.60000038147</ele>
        <time>2020-08-09T07:26:46.000Z</time>
      </trkpt>
      <trkpt lat="47.27288" lon="-2.34122">
        <ele>19.60000038147</ele>
        <time>2020-08-09T07:26:52.000Z</time>
      </trkpt>
      <trkpt lat="47.27309" lon="-2.3414">
        <ele>19.60000038147</ele>
        <time>2020-08-09T07:26:58.000Z</time>
      </trkpt>
      <trkpt lat="47.27339" lon="-2.34159">
        <ele>19.60000038147</ele>
        <time>2020-08-09T07:27:06.000Z</time>
      </trkpt>
      <trkpt lat="47.27371" lon="-2.34179">
        <ele>19.60000038147</ele>
        <time>2020-08-09T07:27:15.000Z</time>
      </trkpt>
      <trkpt lat="47.27392" lon="-2.34198">
        <ele>19.60000038147</ele>
        <time>2020-08-09T07:27:23.000Z</time>
      </trkpt>
      <trkpt lat="47.27399" lon="-2.34216">
        <ele>19.60000038147</ele>
        <time>2020-08-09T07:27:29.000Z</time>
      </trkpt>
      <trkpt lat="47.27403" lon="-2.34235">
        <ele>19.60000038147</ele>
        <time>2020-08-09T07:27:35.000Z</time>
      </trkpt>
      <trkpt lat="47.27408" lon="-2.34238">
        <ele>19.60000038147</ele>
        <time>2020-08-09T07:27:39.000Z</time>
      </trkpt>
      <trkpt lat="47.27413" lon="-2.34237">
        <ele>19.60000038147</ele>
        <time>2020-08-09T07:27:41.000Z</time>
      </trkpt>
      <trkpt lat="47.27435" lon="-2.34228">
        <ele>19.60000038147</ele>
        <time>2020-08-09T07:27:47.000Z</time>
      </trkpt>
      <trkpt lat="47.27463" lon="-2.34222">
        <ele>19.60000038147</ele>
        <time>2020-08-09T07:27:54.000Z</time>
      </trkpt>
      <trkpt lat="47.27492" lon="-2.34213">
        <ele>19.60000038147</ele>
        <time>2020-08-09T07:28:01.000Z</time>
      </trkpt>
      <trkpt lat="47.27522" lon="-2.34203">
        <ele>19.60000038147</ele>
        <time>2020-08-09T07:28:08.000Z</time>
      </trkpt>
      <trkpt lat="47.27547" lon="-2.34192">
        <ele>19.60000038147</ele>
        <time>2020-08-09T07:28:15.000Z</time>
      </trkpt>
      <trkpt lat="47.27554" lon="-2.34189">
        <ele>20</ele>
        <time>2020-08-09T07:28:19.000Z</time>
      </trkpt>
      <trkpt lat="47.27555" lon="-2.3419">
        <ele>20.39999961853</ele>
        <time>2020-08-09T07:28:20.000Z</time>
      </trkpt>
      <trkpt lat="47.27557" lon="-2.34192">
        <ele>20.799999237061</ele>
        <time>2020-08-09T07:28:21.000Z</time>
      </trkpt>
      <trkpt lat="47.27559" lon="-2.34194">
        <ele>21.200000762939</ele>
        <time>2020-08-09T07:28:22.000Z</time>
      </trkpt>
      <trkpt lat="47.2756" lon="-2.34197">
        <ele>21.60000038147</ele>
        <time>2020-08-09T07:28:23.000Z</time>
      </trkpt>
      <trkpt lat="47.27566" lon="-2.34209">
        <ele>21.60000038147</ele>
        <time>2020-08-09T07:28:26.000Z</time>
      </trkpt>
      <trkpt lat="47.2758" lon="-2.34244">
        <ele>21.60000038147</ele>
        <time>2020-08-09T07:28:33.000Z</time>
      </trkpt>
      <trkpt lat="47.27591" lon="-2.34273">
        <ele>21.60000038147</ele>
        <time>2020-08-09T07:28:40.000Z</time>
      </trkpt>
      <trkpt lat="47.27599" lon="-2.34285">
        <ele>21.60000038147</ele>
        <time>2020-08-09T07:28:46.000Z</time>
      </trkpt>
      <trkpt lat="47.27601" lon="-2.34289">
        <ele>21.60000038147</ele>
        <time>2020-08-09T07:28:49.000Z</time>
      </trkpt>
      <trkpt lat="47.27603" lon="-2.34291">
        <ele>21.60000038147</ele>
        <time>2020-08-09T07:28:52.000Z</time>
      </trkpt>
      <trkpt lat="47.27611" lon="-2.34301">
        <ele>21.60000038147</ele>
        <time>2020-08-09T07:28:59.000Z</time>
      </trkpt>
      <trkpt lat="47.27617" lon="-2.34311">
        <ele>21.60000038147</ele>
        <time>2020-08-09T07:29:06.000Z</time>
      </trkpt>
      <trkpt lat="47.27622" lon="-2.34321">
        <ele>21.60000038147</ele>
        <time>2020-08-09T07:29:13.000Z</time>
      </trkpt>
      <trkpt lat="47.27622" lon="-2.34323">
        <ele>21.60000038147</ele>
        <time>2020-08-09T07:29:14.000Z</time>
      </trkpt>
      <trkpt lat="47.27618" lon="-2.34321">
        <ele>21.60000038147</ele>
        <time>2020-08-09T07:29:19.000Z</time>
      </trkpt>
      <trkpt lat="47.27615" lon="-2.34305">
        <ele>21.60000038147</ele>
        <time>2020-08-09T07:29:24.000Z</time>
      </trkpt>
      <trkpt lat="47.27607" lon="-2.34294">
        <ele>21.60000038147</ele>
        <time>2020-08-09T07:29:27.000Z</time>
      </trkpt>
      <trkpt lat="47.27598" lon="-2.34282">
        <ele>21.60000038147</ele>
        <time>2020-08-09T07:29:30.000Z</time>
      </trkpt>
      <trkpt lat="47.27583" lon="-2.34252">
        <ele>21.60000038147</ele>
        <time>2020-08-09T07:29:37.000Z</time>
      </trkpt>
      <trkpt lat="47.27569" lon="-2.3422">
        <ele>21.60000038147</ele>
        <time>2020-08-09T07:29:45.000Z</time>
      </trkpt>
      <trkpt lat="47.27564" lon="-2.34199">
        <ele>21.60000038147</ele>
        <time>2020-08-09T07:29:52.000Z</time>
      </trkpt>
      <trkpt lat="47.27567" lon="-2.34189">
        <ele>21.60000038147</ele>
        <time>2020-08-09T07:29:56.000Z</time>
      </trkpt>
      <trkpt lat="47.27571" lon="-2.34184">
        <ele>21.60000038147</ele>
        <time>2020-08-09T07:29:58.000Z</time>
      </trkpt>
      <trkpt lat="47.27578" lon="-2.34179">
        <ele>21.60000038147</ele>
        <time>2020-08-09T07:30:00.000Z</time>
      </trkpt>
      <trkpt lat="47.27589" lon="-2.34173">
        <ele>21.60000038147</ele>
        <time>2020-08-09T07:30:03.000Z</time>
      </trkpt>
      <trkpt lat="47.27608" lon="-2.34159">
        <ele>21.60000038147</ele>
        <time>2020-08-09T07:30:09.000Z</time>
      </trkpt>
      <trkpt lat="47.27637" lon="-2.3414">
        <ele>22.200000762939</ele>
        <time>2020-08-09T07:30:17.000Z</time>
      </trkpt>
      <trkpt lat="47.27641" lon="-2.34138">
        <ele>22.60000038147</ele>
        <time>2020-08-09T07:30:18.000Z</time>
      </trkpt>
      <trkpt lat="47.27644" lon="-2.34135">
        <ele>23</ele>
        <time>2020-08-09T07:30:19.000Z</time>
      </trkpt>
      <trkpt lat="47.27648" lon="-2.34132">
        <ele>23.39999961853</ele>
        <time>2020-08-09T07:30:20.000Z</time>
      </trkpt>
      <trkpt lat="47.27651" lon="-2.3413">
        <ele>23.799999237061</ele>
        <time>2020-08-09T07:30:21.000Z</time>
      </trkpt>
      <trkpt lat="47.27661" lon="-2.34123">
        <ele>23.799999237061</ele>
        <time>2020-08-09T07:30:24.000Z</time>
      </trkpt>
      <trkpt lat="47.27692" lon="-2.34099">
        <ele>23.799999237061</ele>
        <time>2020-08-09T07:30:33.000Z</time>
      </trkpt>
      <trkpt lat="47.27717" lon="-2.34078">
        <ele>23.799999237061</ele>
        <time>2020-08-09T07:30:41.000Z</time>
      </trkpt>
      <trkpt lat="47.27747" lon="-2.34058">
        <ele>23.799999237061</ele>
        <time>2020-08-09T07:30:50.000Z</time>
      </trkpt>
      <trkpt lat="47.2777" lon="-2.34048">
        <ele>23.799999237061</ele>
        <time>2020-08-09T07:30:57.000Z</time>
      </trkpt>
      <trkpt lat="47.27773" lon="-2.34052">
        <ele>23.799999237061</ele>
        <time>2020-08-09T07:30:58.000Z</time>
      </trkpt>
      <trkpt lat="47.27777" lon="-2.34061">
        <ele>23.799999237061</ele>
        <time>2020-08-09T07:31:00.000Z</time>
      </trkpt>
      <trkpt lat="47.27786" lon="-2.34084">
        <ele>23.799999237061</ele>
        <time>2020-08-09T07:31:05.000Z</time>
      </trkpt>
      <trkpt lat="47.27809" lon="-2.34116">
        <ele>23.799999237061</ele>
        <time>2020-08-09T07:31:13.000Z</time>
      </trkpt>
      <trkpt lat="47.2783" lon="-2.34143">
        <ele>23.799999237061</ele>
        <time>2020-08-09T07:31:20.000Z</time>
      </trkpt>
      <trkpt lat="47.27833" lon="-2.34148">
        <ele>23.799999237061</ele>
        <time>2020-08-09T07:31:21.000Z</time>
      </trkpt>
      <trkpt lat="47.27846" lon="-2.34167">
        <ele>23.799999237061</ele>
        <time>2020-08-09T07:31:25.000Z</time>
      </trkpt>
      <trkpt lat="47.27854" lon="-2.34183">
        <ele>23.799999237061</ele>
        <time>2020-08-09T07:31:28.000Z</time>
      </trkpt>
      <trkpt lat="47.2786" lon="-2.342">
        <ele>23.799999237061</ele>
        <time>2020-08-09T07:31:31.000Z</time>
      </trkpt>
      <trkpt lat="47.27862" lon="-2.34205">
        <ele>23.799999237061</ele>
        <time>2020-08-09T07:31:32.000Z</time>
      </trkpt>
      <trkpt lat="47.27871" lon="-2.34227">
        <ele>23.799999237061</ele>
        <time>2020-08-09T07:31:36.000Z</time>
      </trkpt>
      <trkpt lat="47.27873" lon="-2.34232">
        <ele>23.799999237061</ele>
        <time>2020-08-09T07:31:37.000Z</time>
      </trkpt>
      <trkpt lat="47.27889" lon="-2.34261">
        <ele>23.799999237061</ele>
        <time>2020-08-09T07:31:43.000Z</time>
      </trkpt>
      <trkpt lat="47.27893" lon="-2.34265">
        <ele>23.799999237061</ele>
        <time>2020-08-09T07:31:44.000Z</time>
      </trkpt>
      <trkpt lat="47.27896" lon="-2.34268">
        <ele>23.799999237061</ele>
        <time>2020-08-09T07:31:45.000Z</time>
      </trkpt>
      <trkpt lat="47.2791" lon="-2.3427">
        <ele>23.799999237061</ele>
        <time>2020-08-09T07:31:48.000Z</time>
      </trkpt>
      <trkpt lat="47.27919" lon="-2.34266">
        <ele>23.799999237061</ele>
        <time>2020-08-09T07:31:50.000Z</time>
      </trkpt>
      <trkpt lat="47.27937" lon="-2.34258">
        <ele>23.799999237061</ele>
        <time>2020-08-09T07:31:54.000Z</time>
      </trkpt>
      <trkpt lat="47.27946" lon="-2.34255">
        <ele>23.799999237061</ele>
        <time>2020-08-09T07:31:56.000Z</time>
      </trkpt>
      <trkpt lat="47.2796" lon="-2.34255">
        <ele>23.799999237061</ele>
        <time>2020-08-09T07:31:59.000Z</time>
      </trkpt>
      <trkpt lat="47.27965" lon="-2.34256">
        <ele>23.799999237061</ele>
        <time>2020-08-09T07:32:00.000Z</time>
      </trkpt>
      <trkpt lat="47.27986" lon="-2.34266">
        <ele>23.799999237061</ele>
        <time>2020-08-09T07:32:05.000Z</time>
      </trkpt>
      <trkpt lat="47.28022" lon="-2.34287">
        <ele>23.799999237061</ele>
        <time>2020-08-09T07:32:13.000Z</time>
      </trkpt>
      <trkpt lat="47.28059" lon="-2.34304">
        <ele>23.799999237061</ele>
        <time>2020-08-09T07:32:20.000Z</time>
      </trkpt>
      <trkpt lat="47.28094" lon="-2.34307">
        <ele>23.799999237061</ele>
        <time>2020-08-09T07:32:26.000Z</time>
      </trkpt>
      <trkpt lat="47.28133" lon="-2.34311">
        <ele>23.799999237061</ele>
        <time>2020-08-09T07:32:33.000Z</time>
      </trkpt>
      <trkpt lat="47.28166" lon="-2.34318">
        <ele>23.799999237061</ele>
        <time>2020-08-09T07:32:40.000Z</time>
      </trkpt>
      <trkpt lat="47.28184" lon="-2.34315">
        <ele>23.799999237061</ele>
        <time>2020-08-09T07:32:44.000Z</time>
      </trkpt>
      <trkpt lat="47.2819" lon="-2.34314">
        <ele>23.799999237061</ele>
        <time>2020-08-09T07:32:45.000Z</time>
      </trkpt>
      <trkpt lat="47.28205" lon="-2.34306">
        <ele>24.200000762939</ele>
        <time>2020-08-09T07:32:48.000Z</time>
      </trkpt>
      <trkpt lat="47.28211" lon="-2.34303">
        <ele>24.60000038147</ele>
        <time>2020-08-09T07:32:49.000Z</time>
      </trkpt>
      <trkpt lat="47.28216" lon="-2.34299">
        <ele>25</ele>
        <time>2020-08-09T07:32:50.000Z</time>
      </trkpt>
      <trkpt lat="47.28221" lon="-2.34296">
        <ele>25.39999961853</ele>
        <time>2020-08-09T07:32:51.000Z</time>
      </trkpt>
      <trkpt lat="47.28226" lon="-2.34293">
        <ele>25.799999237061</ele>
        <time>2020-08-09T07:32:52.000Z</time>
      </trkpt>
      <trkpt lat="47.28268" lon="-2.34277">
        <ele>25.799999237061</ele>
        <time>2020-08-09T07:33:00.000Z</time>
      </trkpt>
      <trkpt lat="47.28304" lon="-2.34259">
        <ele>25.799999237061</ele>
        <time>2020-08-09T07:33:07.000Z</time>
      </trkpt>
      <trkpt lat="47.2834" lon="-2.34237">
        <ele>25.799999237061</ele>
        <time>2020-08-09T07:33:14.000Z</time>
      </trkpt>
      <trkpt lat="47.28377" lon="-2.34215">
        <ele>25.799999237061</ele>
        <time>2020-08-09T07:33:21.000Z</time>
      </trkpt>
      <trkpt lat="47.28413" lon="-2.34194">
        <ele>25.799999237061</ele>
        <time>2020-08-09T07:33:28.000Z</time>
      </trkpt>
      <trkpt lat="47.28418" lon="-2.34193">
        <ele>25.39999961853</ele>
        <time>2020-08-09T07:33:29.000Z</time>
      </trkpt>
      <trkpt lat="47.28423" lon="-2.34192">
        <ele>25</ele>
        <time>2020-08-09T07:33:30.000Z</time>
      </trkpt>
      <trkpt lat="47.28428" lon="-2.34191">
        <ele>24.60000038147</ele>
        <time>2020-08-09T07:33:31.000Z</time>
      </trkpt>
      <trkpt lat="47.28433" lon="-2.34191">
        <ele>24.200000762939</ele>
        <time>2020-08-09T07:33:32.000Z</time>
      </trkpt>
      <trkpt lat="47.28439" lon="-2.34192">
        <ele>23.799999237061</ele>
        <time>2020-08-09T07:33:33.000Z</time>
      </trkpt>
      <trkpt lat="47.2845" lon="-2.34196">
        <ele>23.799999237061</ele>
        <time>2020-08-09T07:33:35.000Z</time>
      </trkpt>
      <trkpt lat="47.28492" lon="-2.34213">
        <ele>23.799999237061</ele>
        <time>2020-08-09T07:33:43.000Z</time>
      </trkpt>
      <trkpt lat="47.28508" lon="-2.34216">
        <ele>23.799999237061</ele>
        <time>2020-08-09T07:33:46.000Z</time>
      </trkpt>
      <trkpt lat="47.28524" lon="-2.3422">
        <ele>23.799999237061</ele>
        <time>2020-08-09T07:33:49.000Z</time>
      </trkpt>
      <trkpt lat="47.28529" lon="-2.34222">
        <ele>23.799999237061</ele>
        <time>2020-08-09T07:33:50.000Z</time>
      </trkpt>
      <trkpt lat="47.28555" lon="-2.34231">
        <ele>23.799999237061</ele>
        <time>2020-08-09T07:33:55.000Z</time>
      </trkpt>
      <trkpt lat="47.2856" lon="-2.34234">
        <ele>23.799999237061</ele>
        <time>2020-08-09T07:33:56.000Z</time>
      </trkpt>
      <trkpt lat="47.28574" lon="-2.34241">
        <ele>23.799999237061</ele>
        <time>2020-08-09T07:33:59.000Z</time>
      </trkpt>
      <trkpt lat="47.28583" lon="-2.34244">
        <ele>23.799999237061</ele>
        <time>2020-08-09T07:34:01.000Z</time>
      </trkpt>
      <trkpt lat="47.28593" lon="-2.34247">
        <ele>23.799999237061</ele>
        <time>2020-08-09T07:34:03.000Z</time>
      </trkpt>
      <trkpt lat="47.2861" lon="-2.34251">
        <ele>24.200000762939</ele>
        <time>2020-08-09T07:34:07.000Z</time>
      </trkpt>
      <trkpt lat="47.28614" lon="-2.34254">
        <ele>24.60000038147</ele>
        <time>2020-08-09T07:34:08.000Z</time>
      </trkpt>
      <trkpt lat="47.28617" lon="-2.34256">
        <ele>25.39999961853</ele>
        <time>2020-08-09T07:34:09.000Z</time>
      </trkpt>
      <trkpt lat="47.2862" lon="-2.3426">
        <ele>25.799999237061</ele>
        <time>2020-08-09T07:34:10.000Z</time>
      </trkpt>
      <trkpt lat="47.28623" lon="-2.34271">
        <ele>25.799999237061</ele>
        <time>2020-08-09T07:34:12.000Z</time>
      </trkpt>
      <trkpt lat="47.28619" lon="-2.34294">
        <ele>25.799999237061</ele>
        <time>2020-08-09T07:34:16.000Z</time>
      </trkpt>
      <trkpt lat="47.28604" lon="-2.34344">
        <ele>25.799999237061</ele>
        <time>2020-08-09T07:34:24.000Z</time>
      </trkpt>
      <trkpt lat="47.28594" lon="-2.34368">
        <ele>25.799999237061</ele>
        <time>2020-08-09T07:34:28.000Z</time>
      </trkpt>
      <trkpt lat="47.28585" lon="-2.34385">
        <ele>25.799999237061</ele>
        <time>2020-08-09T07:34:31.000Z</time>
      </trkpt>
      <trkpt lat="47.28582" lon="-2.3439">
        <ele>25.799999237061</ele>
        <time>2020-08-09T07:34:32.000Z</time>
      </trkpt>
      <trkpt lat="47.28565" lon="-2.34406">
        <ele>25.799999237061</ele>
        <time>2020-08-09T07:34:36.000Z</time>
      </trkpt>
      <trkpt lat="47.28555" lon="-2.34411">
        <ele>25.799999237061</ele>
        <time>2020-08-09T07:34:38.000Z</time>
      </trkpt>
      <trkpt lat="47.28529" lon="-2.34421">
        <ele>25.799999237061</ele>
        <time>2020-08-09T07:34:43.000Z</time>
      </trkpt>
      <trkpt lat="47.28485" lon="-2.34433">
        <ele>25.799999237061</ele>
        <time>2020-08-09T07:34:51.000Z</time>
      </trkpt>
      <trkpt lat="47.28449" lon="-2.34442">
        <ele>25.799999237061</ele>
        <time>2020-08-09T07:34:58.000Z</time>
      </trkpt>
      <trkpt lat="47.28411" lon="-2.34458">
        <ele>25.799999237061</ele>
        <time>2020-08-09T07:35:06.000Z</time>
      </trkpt>
      <trkpt lat="47.28376" lon="-2.34485">
        <ele>25.799999237061</ele>
        <time>2020-08-09T07:35:14.000Z</time>
      </trkpt>
      <trkpt lat="47.2835" lon="-2.3452">
        <ele>25.799999237061</ele>
        <time>2020-08-09T07:35:21.000Z</time>
      </trkpt>
      <trkpt lat="47.28318" lon="-2.34568">
        <ele>25.799999237061</ele>
        <time>2020-08-09T07:35:30.000Z</time>
      </trkpt>
      <trkpt lat="47.28281" lon="-2.34623">
        <ele>25.799999237061</ele>
        <time>2020-08-09T07:35:40.000Z</time>
      </trkpt>
      <trkpt lat="47.2825" lon="-2.34672">
        <ele>25.799999237061</ele>
        <time>2020-08-09T07:35:48.000Z</time>
      </trkpt>
      <trkpt lat="47.28218" lon="-2.3472">
        <ele>25.799999237061</ele>
        <time>2020-08-09T07:35:56.000Z</time>
      </trkpt>
      <trkpt lat="47.28189" lon="-2.3477">
        <ele>25.39999961853</ele>
        <time>2020-08-09T07:36:04.000Z</time>
      </trkpt>
      <trkpt lat="47.28187" lon="-2.34777">
        <ele>25</ele>
        <time>2020-08-09T07:36:05.000Z</time>
      </trkpt>
      <trkpt lat="47.28185" lon="-2.34785">
        <ele>24.60000038147</ele>
        <time>2020-08-09T07:36:06.000Z</time>
      </trkpt>
      <trkpt lat="47.28183" lon="-2.34794">
        <ele>24.200000762939</ele>
        <time>2020-08-09T07:36:07.000Z</time>
      </trkpt>
      <trkpt lat="47.28182" lon="-2.34801">
        <ele>23.799999237061</ele>
        <time>2020-08-09T07:36:08.000Z</time>
      </trkpt>
      <trkpt lat="47.28181" lon="-2.34821">
        <ele>23.799999237061</ele>
        <time>2020-08-09T07:36:10.000Z</time>
      </trkpt>
      <trkpt lat="47.28187" lon="-2.34864">
        <ele>23.799999237061</ele>
        <time>2020-08-09T07:36:15.000Z</time>
      </trkpt>
      <trkpt lat="47.28202" lon="-2.3492">
        <ele>23.799999237061</ele>
        <time>2020-08-09T07:36:22.000Z</time>
      </trkpt>
      <trkpt lat="47.28225" lon="-2.34984">
        <ele>23.799999237061</ele>
        <time>2020-08-09T07:36:31.000Z</time>
      </trkpt>
      <trkpt lat="47.28252" lon="-2.35031">
        <ele>23.799999237061</ele>
        <time>2020-08-09T07:36:39.000Z</time>
      </trkpt>
      <trkpt lat="47.28287" lon="-2.3507">
        <ele>23.799999237061</ele>
        <time>2020-08-09T07:36:47.000Z</time>
      </trkpt>
      <trkpt lat="47.28293" lon="-2.35073">
        <ele>23.799999237061</ele>
        <time>2020-08-09T07:36:48.000Z</time>
      </trkpt>
      <trkpt lat="47.2831" lon="-2.35079">
        <ele>23.799999237061</ele>
        <time>2020-08-09T07:36:51.000Z</time>
      </trkpt>
      <trkpt lat="47.28315" lon="-2.3508">
        <ele>23.799999237061</ele>
        <time>2020-08-09T07:36:52.000Z</time>
      </trkpt>
      <trkpt lat="47.28327" lon="-2.35084">
        <ele>23.799999237061</ele>
        <time>2020-08-09T07:36:54.000Z</time>
      </trkpt>
      <trkpt lat="47.28342" lon="-2.35095">
        <ele>23.799999237061</ele>
        <time>2020-08-09T07:36:57.000Z</time>
      </trkpt>
      <trkpt lat="47.28355" lon="-2.35122">
        <ele>23.799999237061</ele>
        <time>2020-08-09T07:37:01.000Z</time>
      </trkpt>
      <trkpt lat="47.28358" lon="-2.3513">
        <ele>23.799999237061</ele>
        <time>2020-08-09T07:37:02.000Z</time>
      </trkpt>
      <trkpt lat="47.28367" lon="-2.35157">
        <ele>23.799999237061</ele>
        <time>2020-08-09T07:37:06.000Z</time>
      </trkpt>
      <trkpt lat="47.28382" lon="-2.35207">
        <ele>23.799999237061</ele>
        <time>2020-08-09T07:37:13.000Z</time>
      </trkpt>
      <trkpt lat="47.28387" lon="-2.35228">
        <ele>23.799999237061</ele>
        <time>2020-08-09T07:37:16.000Z</time>
      </trkpt>
      <trkpt lat="47.28384" lon="-2.35241">
        <ele>23.799999237061</ele>
        <time>2020-08-09T07:37:18.000Z</time>
      </trkpt>
      <trkpt lat="47.28377" lon="-2.35253">
        <ele>23.799999237061</ele>
        <time>2020-08-09T07:37:20.000Z</time>
      </trkpt>
      <trkpt lat="47.2837" lon="-2.35264">
        <ele>23.799999237061</ele>
        <time>2020-08-09T07:37:22.000Z</time>
      </trkpt>
      <trkpt lat="47.28345" lon="-2.353">
        <ele>23.799999237061</ele>
        <time>2020-08-09T07:37:29.000Z</time>
      </trkpt>
      <trkpt lat="47.28346" lon="-2.35314">
        <ele>23.799999237061</ele>
        <time>2020-08-09T07:37:32.000Z</time>
      </trkpt>
      <trkpt lat="47.28349" lon="-2.35323">
        <ele>23.799999237061</ele>
        <time>2020-08-09T07:37:34.000Z</time>
      </trkpt>
      <trkpt lat="47.28355" lon="-2.35339">
        <ele>23.799999237061</ele>
        <time>2020-08-09T07:37:37.000Z</time>
      </trkpt>
      <trkpt lat="47.28359" lon="-2.35349">
        <ele>23.39999961853</ele>
        <time>2020-08-09T07:37:39.000Z</time>
      </trkpt>
      <trkpt lat="47.2836" lon="-2.35352">
        <ele>22.799999237061</ele>
        <time>2020-08-09T07:37:40.000Z</time>
      </trkpt>
      <trkpt lat="47.28362" lon="-2.35355">
        <ele>22.39999961853</ele>
        <time>2020-08-09T07:37:41.000Z</time>
      </trkpt>
      <trkpt lat="47.28363" lon="-2.35357">
        <ele>22</ele>
        <time>2020-08-09T07:37:42.000Z</time>
      </trkpt>
      <trkpt lat="47.28364" lon="-2.35359">
        <ele>21.60000038147</ele>
        <time>2020-08-09T07:37:43.000Z</time>
      </trkpt>
      <trkpt lat="47.28366" lon="-2.35363">
        <ele>21.60000038147</ele>
        <time>2020-08-09T07:37:48.000Z</time>
      </trkpt>
      <trkpt lat="47.28368" lon="-2.35366">
        <ele>22</ele>
        <time>2020-08-09T07:37:50.000Z</time>
      </trkpt>
      <trkpt lat="47.28369" lon="-2.35368">
        <ele>22.39999961853</ele>
        <time>2020-08-09T07:37:51.000Z</time>
      </trkpt>
      <trkpt lat="47.2837" lon="-2.3537">
        <ele>23.200000762939</ele>
        <time>2020-08-09T07:37:52.000Z</time>
      </trkpt>
      <trkpt lat="47.28371" lon="-2.35371">
        <ele>23.60000038147</ele>
        <time>2020-08-09T07:37:53.000Z</time>
      </trkpt>
      <trkpt lat="47.28372" lon="-2.35373">
        <ele>23.60000038147</ele>
        <time>2020-08-09T07:37:54.000Z</time>
      </trkpt>
      <trkpt lat="47.28373" lon="-2.35378">
        <ele>24.200000762939</ele>
        <time>2020-08-09T07:37:57.000Z</time>
      </trkpt>
      <trkpt lat="47.28374" lon="-2.35381">
        <ele>24.60000038147</ele>
        <time>2020-08-09T07:37:58.000Z</time>
      </trkpt>
      <trkpt lat="47.28374" lon="-2.35383">
        <ele>25</ele>
        <time>2020-08-09T07:37:59.000Z</time>
      </trkpt>
      <trkpt lat="47.28375" lon="-2.35385">
        <ele>25.39999961853</ele>
        <time>2020-08-09T07:38:00.000Z</time>
      </trkpt>
      <trkpt lat="47.28376" lon="-2.35386">
        <ele>26</ele>
        <time>2020-08-09T07:38:01.000Z</time>
      </trkpt>
      <trkpt lat="47.28378" lon="-2.35391">
        <ele>26.39999961853</ele>
        <time>2020-08-09T07:38:03.000Z</time>
      </trkpt>
      <trkpt lat="47.28379" lon="-2.35394">
        <ele>26.799999237061</ele>
        <time>2020-08-09T07:38:04.000Z</time>
      </trkpt>
      <trkpt lat="47.28381" lon="-2.35397">
        <ele>27.39999961853</ele>
        <time>2020-08-09T07:38:05.000Z</time>
      </trkpt>
      <trkpt lat="47.28382" lon="-2.35399">
        <ele>27.799999237061</ele>
        <time>2020-08-09T07:38:06.000Z</time>
      </trkpt>
      <trkpt lat="47.28382" lon="-2.35401">
        <ele>28.200000762939</ele>
        <time>2020-08-09T07:38:07.000Z</time>
      </trkpt>
      <trkpt lat="47.28384" lon="-2.35405">
        <ele>28.60000038147</ele>
        <time>2020-08-09T07:38:09.000Z</time>
      </trkpt>
      <trkpt lat="47.28385" lon="-2.35406">
        <ele>29.200000762939</ele>
        <time>2020-08-09T07:38:10.000Z</time>
      </trkpt>
      <trkpt lat="47.28387" lon="-2.35408">
        <ele>29.60000038147</ele>
        <time>2020-08-09T07:38:11.000Z</time>
      </trkpt>
      <trkpt lat="47.28388" lon="-2.35409">
        <ele>30</ele>
        <time>2020-08-09T07:38:12.000Z</time>
      </trkpt>
      <trkpt lat="47.28389" lon="-2.3541">
        <ele>30.39999961853</ele>
        <time>2020-08-09T07:38:13.000Z</time>
      </trkpt>
      <trkpt lat="47.28391" lon="-2.35414">
        <ele>30.39999961853</ele>
        <time>2020-08-09T07:38:17.000Z</time>
      </trkpt>
      <trkpt lat="47.28397" lon="-2.35423">
        <ele>30.39999961853</ele>
        <time>2020-08-09T07:39:40.000Z</time>
      </trkpt>
      <trkpt lat="47.28399" lon="-2.35424">
        <ele>30.39999961853</ele>
        <time>2020-08-09T07:39:41.000Z</time>
      </trkpt>
      <trkpt lat="47.28402" lon="-2.35424">
        <ele>30.39999961853</ele>
        <time>2020-08-09T07:39:43.000Z</time>
      </trkpt>
      <trkpt lat="47.28406" lon="-2.35424">
        <ele>30.39999961853</ele>
        <time>2020-08-09T07:39:45.000Z</time>
      </trkpt>
      <trkpt lat="47.28414" lon="-2.35417">
        <ele>30.39999961853</ele>
        <time>2020-08-09T07:39:48.000Z</time>
      </trkpt>
      <trkpt lat="47.2842" lon="-2.35414">
        <ele>30.39999961853</ele>
        <time>2020-08-09T07:39:50.000Z</time>
      </trkpt>
      <trkpt lat="47.28426" lon="-2.35412">
        <ele>30.799999237061</ele>
        <time>2020-08-09T07:39:53.000Z</time>
      </trkpt>
      <trkpt lat="47.28427" lon="-2.35411">
        <ele>31.60000038147</ele>
        <time>2020-08-09T07:39:54.000Z</time>
      </trkpt>
      <trkpt lat="47.28428" lon="-2.3541">
        <ele>32.200000762939</ele>
        <time>2020-08-09T07:39:55.000Z</time>
      </trkpt>
      <trkpt lat="47.2843" lon="-2.3541">
        <ele>32.599998474121</ele>
        <time>2020-08-09T07:39:56.000Z</time>
      </trkpt>
      <trkpt lat="47.28442" lon="-2.35412">
        <ele>32.599998474121</ele>
        <time>2020-08-09T07:40:01.000Z</time>
      </trkpt>
      <trkpt lat="47.28447" lon="-2.35408">
        <ele>32.599998474121</ele>
        <time>2020-08-09T07:40:04.000Z</time>
      </trkpt>
      <trkpt lat="47.2845" lon="-2.35402">
        <ele>32</ele>
        <time>2020-08-09T07:40:06.000Z</time>
      </trkpt>
      <trkpt lat="47.28451" lon="-2.35398">
        <ele>31.60000038147</ele>
        <time>2020-08-09T07:40:07.000Z</time>
      </trkpt>
      <trkpt lat="47.28451" lon="-2.35393">
        <ele>31.200000762939</ele>
        <time>2020-08-09T07:40:08.000Z</time>
      </trkpt>
      <trkpt lat="47.28451" lon="-2.35387">
        <ele>30.799999237061</ele>
        <time>2020-08-09T07:40:09.000Z</time>
      </trkpt>
      <trkpt lat="47.28452" lon="-2.35382">
        <ele>30.200000762939</ele>
        <time>2020-08-09T07:40:10.000Z</time>
      </trkpt>
      <trkpt lat="47.28453" lon="-2.35373">
        <ele>29.799999237061</ele>
        <time>2020-08-09T07:40:12.000Z</time>
      </trkpt>
      <trkpt lat="47.28454" lon="-2.35369">
        <ele>29.39999961853</ele>
        <time>2020-08-09T07:40:13.000Z</time>
      </trkpt>
      <trkpt lat="47.28456" lon="-2.35365">
        <ele>29</ele>
        <time>2020-08-09T07:40:14.000Z</time>
      </trkpt>
      <trkpt lat="47.28456" lon="-2.35361">
        <ele>28.39999961853</ele>
        <time>2020-08-09T07:40:15.000Z</time>
      </trkpt>
      <trkpt lat="47.28457" lon="-2.35358">
        <ele>28</ele>
        <time>2020-08-09T07:40:16.000Z</time>
      </trkpt>
      <trkpt lat="47.28457" lon="-2.35355">
        <ele>27.60000038147</ele>
        <time>2020-08-09T07:40:17.000Z</time>
      </trkpt>
      <trkpt lat="47.28457" lon="-2.35352">
        <ele>27.200000762939</ele>
        <time>2020-08-09T07:40:18.000Z</time>
      </trkpt>
      <trkpt lat="47.28458" lon="-2.3535">
        <ele>26.39999961853</ele>
        <time>2020-08-09T07:40:19.000Z</time>
      </trkpt>
      <trkpt lat="47.28459" lon="-2.35349">
        <ele>26</ele>
        <time>2020-08-09T07:40:20.000Z</time>
      </trkpt>
      <trkpt lat="47.28462" lon="-2.35348">
        <ele>26</ele>
        <time>2020-08-09T07:40:22.000Z</time>
      </trkpt>
      <trkpt lat="47.28464" lon="-2.35349">
        <ele>25.39999961853</ele>
        <time>2020-08-09T07:40:23.000Z</time>
      </trkpt>
      <trkpt lat="47.28466" lon="-2.35352">
        <ele>25</ele>
        <time>2020-08-09T07:40:24.000Z</time>
      </trkpt>
      <trkpt lat="47.28468" lon="-2.35354">
        <ele>24.60000038147</ele>
        <time>2020-08-09T07:40:25.000Z</time>
      </trkpt>
      <trkpt lat="47.2847" lon="-2.35359">
        <ele>24.200000762939</ele>
        <time>2020-08-09T07:40:26.000Z</time>
      </trkpt>
      <trkpt lat="47.28472" lon="-2.35362">
        <ele>23.799999237061</ele>
        <time>2020-08-09T07:40:27.000Z</time>
      </trkpt>
      <trkpt lat="47.28475" lon="-2.35368">
        <ele>23.799999237061</ele>
        <time>2020-08-09T07:40:28.000Z</time>
      </trkpt>
      <trkpt lat="47.28483" lon="-2.35399">
        <ele>23.799999237061</ele>
        <time>2020-08-09T07:40:33.000Z</time>
      </trkpt>
      <trkpt lat="47.2849" lon="-2.35422">
        <ele>24.200000762939</ele>
        <time>2020-08-09T07:40:39.000Z</time>
      </trkpt>
      <trkpt lat="47.28492" lon="-2.35426">
        <ele>24.60000038147</ele>
        <time>2020-08-09T07:40:40.000Z</time>
      </trkpt>
      <trkpt lat="47.28493" lon="-2.35429">
        <ele>25</ele>
        <time>2020-08-09T07:40:41.000Z</time>
      </trkpt>
      <trkpt lat="47.28494" lon="-2.35433">
        <ele>25.39999961853</ele>
        <time>2020-08-09T07:40:42.000Z</time>
      </trkpt>
      <trkpt lat="47.28495" lon="-2.35436">
        <ele>25.799999237061</ele>
        <time>2020-08-09T07:40:43.000Z</time>
      </trkpt>
      <trkpt lat="47.28499" lon="-2.35444">
        <ele>26.200000762939</ele>
        <time>2020-08-09T07:40:46.000Z</time>
      </trkpt>
      <trkpt lat="47.28501" lon="-2.35446">
        <ele>26.60000038147</ele>
        <time>2020-08-09T07:40:47.000Z</time>
      </trkpt>
      <trkpt lat="47.28503" lon="-2.35448">
        <ele>27</ele>
        <time>2020-08-09T07:40:48.000Z</time>
      </trkpt>
      <trkpt lat="47.28505" lon="-2.3545">
        <ele>27.39999961853</ele>
        <time>2020-08-09T07:40:49.000Z</time>
      </trkpt>
      <trkpt lat="47.28508" lon="-2.35452">
        <ele>27.799999237061</ele>
        <time>2020-08-09T07:40:50.000Z</time>
      </trkpt>
      <trkpt lat="47.28513" lon="-2.35457">
        <ele>27.799999237061</ele>
        <time>2020-08-09T07:40:53.000Z</time>
      </trkpt>
      <trkpt lat="47.28518" lon="-2.35466">
        <ele>27.799999237061</ele>
        <time>2020-08-09T07:40:59.000Z</time>
      </trkpt>
      <trkpt lat="47.28524" lon="-2.35476">
        <ele>27.799999237061</ele>
        <time>2020-08-09T07:41:16.000Z</time>
      </trkpt>
      <trkpt lat="47.28534" lon="-2.35485">
        <ele>27.799999237061</ele>
        <time>2020-08-09T07:41:21.000Z</time>
      </trkpt>
      <trkpt lat="47.28549" lon="-2.35491">
        <ele>27.799999237061</ele>
        <time>2020-08-09T07:41:27.000Z</time>
      </trkpt>
      <trkpt lat="47.28552" lon="-2.35491">
        <ele>27.799999237061</ele>
        <time>2020-08-09T07:41:28.000Z</time>
      </trkpt>
      <trkpt lat="47.28567" lon="-2.35491">
        <ele>27.799999237061</ele>
        <time>2020-08-09T07:41:33.000Z</time>
      </trkpt>
      <trkpt lat="47.28579" lon="-2.35505">
        <ele>27.799999237061</ele>
        <time>2020-08-09T07:41:39.000Z</time>
      </trkpt>
      <trkpt lat="47.28584" lon="-2.35541">
        <ele>27.799999237061</ele>
        <time>2020-08-09T07:41:45.000Z</time>
      </trkpt>
      <trkpt lat="47.28586" lon="-2.35577">
        <ele>27.799999237061</ele>
        <time>2020-08-09T07:41:51.000Z</time>
      </trkpt>
      <trkpt lat="47.28591" lon="-2.3561">
        <ele>27.799999237061</ele>
        <time>2020-08-09T07:41:57.000Z</time>
      </trkpt>
      <trkpt lat="47.28597" lon="-2.35661">
        <ele>27.799999237061</ele>
        <time>2020-08-09T07:42:06.000Z</time>
      </trkpt>
      <trkpt lat="47.286" lon="-2.35697">
        <ele>27.799999237061</ele>
        <time>2020-08-09T07:42:13.000Z</time>
      </trkpt>
      <trkpt lat="47.28604" lon="-2.35738">
        <ele>27.799999237061</ele>
        <time>2020-08-09T07:42:20.000Z</time>
      </trkpt>
      <trkpt lat="47.28601" lon="-2.35766">
        <ele>27.799999237061</ele>
        <time>2020-08-09T07:42:26.000Z</time>
      </trkpt>
      <trkpt lat="47.28585" lon="-2.35798">
        <ele>27.799999237061</ele>
        <time>2020-08-09T07:42:33.000Z</time>
      </trkpt>
      <trkpt lat="47.28571" lon="-2.35821">
        <ele>27.799999237061</ele>
        <time>2020-08-09T07:42:39.000Z</time>
      </trkpt>
      <trkpt lat="47.28568" lon="-2.35823">
        <ele>28.200000762939</ele>
        <time>2020-08-09T07:42:40.000Z</time>
      </trkpt>
      <trkpt lat="47.28567" lon="-2.35825">
        <ele>28.60000038147</ele>
        <time>2020-08-09T07:42:41.000Z</time>
      </trkpt>
      <trkpt lat="47.28565" lon="-2.35826">
        <ele>29.200000762939</ele>
        <time>2020-08-09T07:42:42.000Z</time>
      </trkpt>
      <trkpt lat="47.28565" lon="-2.35829">
        <ele>29.60000038147</ele>
        <time>2020-08-09T07:42:43.000Z</time>
      </trkpt>
      <trkpt lat="47.28564" lon="-2.35831">
        <ele>30</ele>
        <time>2020-08-09T07:42:44.000Z</time>
      </trkpt>
      <trkpt lat="47.28565" lon="-2.3584">
        <ele>30</ele>
        <time>2020-08-09T07:42:47.000Z</time>
      </trkpt>
      <trkpt lat="47.28566" lon="-2.35846">
        <ele>30</ele>
        <time>2020-08-09T07:42:49.000Z</time>
      </trkpt>
      <trkpt lat="47.28572" lon="-2.35863">
        <ele>30</ele>
        <time>2020-08-09T07:42:54.000Z</time>
      </trkpt>
      <trkpt lat="47.28576" lon="-2.35885">
        <ele>30.39999961853</ele>
        <time>2020-08-09T07:43:00.000Z</time>
      </trkpt>
      <trkpt lat="47.28578" lon="-2.35889">
        <ele>30.799999237061</ele>
        <time>2020-08-09T07:43:01.000Z</time>
      </trkpt>
      <trkpt lat="47.28579" lon="-2.35893">
        <ele>31.200000762939</ele>
        <time>2020-08-09T07:43:02.000Z</time>
      </trkpt>
      <trkpt lat="47.2858" lon="-2.35897">
        <ele>31.60000038147</ele>
        <time>2020-08-09T07:43:03.000Z</time>
      </trkpt>
      <trkpt lat="47.28582" lon="-2.35901">
        <ele>32</ele>
        <time>2020-08-09T07:43:04.000Z</time>
      </trkpt>
      <trkpt lat="47.28584" lon="-2.35909">
        <ele>32</ele>
        <time>2020-08-09T07:43:06.000Z</time>
      </trkpt>
      <trkpt lat="47.28594" lon="-2.35931">
        <ele>32</ele>
        <time>2020-08-09T07:43:13.000Z</time>
      </trkpt>
      <trkpt lat="47.286" lon="-2.3595">
        <ele>32</ele>
        <time>2020-08-09T07:43:19.000Z</time>
      </trkpt>
      <trkpt lat="47.28609" lon="-2.35966">
        <ele>32</ele>
        <time>2020-08-09T07:43:24.000Z</time>
      </trkpt>
      <trkpt lat="47.28621" lon="-2.35991">
        <ele>32</ele>
        <time>2020-08-09T07:43:31.000Z</time>
      </trkpt>
      <trkpt lat="47.28628" lon="-2.36007">
        <ele>32.400001525879</ele>
        <time>2020-08-09T07:43:36.000Z</time>
      </trkpt>
      <trkpt lat="47.28629" lon="-2.36011">
        <ele>32.799999237061</ele>
        <time>2020-08-09T07:43:37.000Z</time>
      </trkpt>
      <trkpt lat="47.28631" lon="-2.36015">
        <ele>33.200000762939</ele>
        <time>2020-08-09T07:43:38.000Z</time>
      </trkpt>
      <trkpt lat="47.28632" lon="-2.3602">
        <ele>33.599998474121</ele>
        <time>2020-08-09T07:43:39.000Z</time>
      </trkpt>
      <trkpt lat="47.28633" lon="-2.36024">
        <ele>34</ele>
        <time>2020-08-09T07:43:40.000Z</time>
      </trkpt>
      <trkpt lat="47.28645" lon="-2.3605">
        <ele>34</ele>
        <time>2020-08-09T07:43:47.000Z</time>
      </trkpt>
      <trkpt lat="47.28653" lon="-2.36076">
        <ele>34</ele>
        <time>2020-08-09T07:43:53.000Z</time>
      </trkpt>
      <trkpt lat="47.28665" lon="-2.36097">
        <ele>34.400001525879</ele>
        <time>2020-08-09T07:43:58.000Z</time>
      </trkpt>
      <trkpt lat="47.28666" lon="-2.36102">
        <ele>34.799999237061</ele>
        <time>2020-08-09T07:43:59.000Z</time>
      </trkpt>
      <trkpt lat="47.28668" lon="-2.36108">
        <ele>35.200000762939</ele>
        <time>2020-08-09T07:44:00.000Z</time>
      </trkpt>
      <trkpt lat="47.2867" lon="-2.36113">
        <ele>36.200000762939</ele>
        <time>2020-08-09T07:44:01.000Z</time>
      </trkpt>
      <trkpt lat="47.28675" lon="-2.36132">
        <ele>36.200000762939</ele>
        <time>2020-08-09T07:44:05.000Z</time>
      </trkpt>
      <trkpt lat="47.28677" lon="-2.3614">
        <ele>36.200000762939</ele>
        <time>2020-08-09T07:44:10.000Z</time>
      </trkpt>
      <trkpt lat="47.28677" lon="-2.36143">
        <ele>36.200000762939</ele>
        <time>2020-08-09T07:44:12.000Z</time>
      </trkpt>
      <trkpt lat="47.28684" lon="-2.36175">
        <ele>36.200000762939</ele>
        <time>2020-08-09T07:44:36.000Z</time>
      </trkpt>
      <trkpt lat="47.28688" lon="-2.3618">
        <ele>36.200000762939</ele>
        <time>2020-08-09T07:44:38.000Z</time>
      </trkpt>
      <trkpt lat="47.28697" lon="-2.36199">
        <ele>36.200000762939</ele>
        <time>2020-08-09T07:44:43.000Z</time>
      </trkpt>
      <trkpt lat="47.28705" lon="-2.36216">
        <ele>36.200000762939</ele>
        <time>2020-08-09T07:44:48.000Z</time>
      </trkpt>
      <trkpt lat="47.28724" lon="-2.36218">
        <ele>36.200000762939</ele>
        <time>2020-08-09T07:44:53.000Z</time>
      </trkpt>
      <trkpt lat="47.28738" lon="-2.36214">
        <ele>36.200000762939</ele>
        <time>2020-08-09T07:44:56.000Z</time>
      </trkpt>
      <trkpt lat="47.2875" lon="-2.36214">
        <ele>36.200000762939</ele>
        <time>2020-08-09T07:44:59.000Z</time>
      </trkpt>
      <trkpt lat="47.28754" lon="-2.36215">
        <ele>36.200000762939</ele>
        <time>2020-08-09T07:45:00.000Z</time>
      </trkpt>
      <trkpt lat="47.28771" lon="-2.36211">
        <ele>36.200000762939</ele>
        <time>2020-08-09T07:45:04.000Z</time>
      </trkpt>
      <trkpt lat="47.28811" lon="-2.36183">
        <ele>36.200000762939</ele>
        <time>2020-08-09T07:45:11.000Z</time>
      </trkpt>
      <trkpt lat="47.28821" lon="-2.36171">
        <ele>36.200000762939</ele>
        <time>2020-08-09T07:45:13.000Z</time>
      </trkpt>
      <trkpt lat="47.28834" lon="-2.36153">
        <ele>36.200000762939</ele>
        <time>2020-08-09T07:45:16.000Z</time>
      </trkpt>
      <trkpt lat="47.28866" lon="-2.36117">
        <ele>36.200000762939</ele>
        <time>2020-08-09T07:45:23.000Z</time>
      </trkpt>
      <trkpt lat="47.28894" lon="-2.3609">
        <ele>36.200000762939</ele>
        <time>2020-08-09T07:45:29.000Z</time>
      </trkpt>
      <trkpt lat="47.28934" lon="-2.36057">
        <ele>36.200000762939</ele>
        <time>2020-08-09T07:45:37.000Z</time>
      </trkpt>
      <trkpt lat="47.28966" lon="-2.36034">
        <ele>36.200000762939</ele>
        <time>2020-08-09T07:45:44.000Z</time>
      </trkpt>
      <trkpt lat="47.28993" lon="-2.36007">
        <ele>36.200000762939</ele>
        <time>2020-08-09T07:45:51.000Z</time>
      </trkpt>
      <trkpt lat="47.2902" lon="-2.35978">
        <ele>36.200000762939</ele>
        <time>2020-08-09T07:45:58.000Z</time>
      </trkpt>
      <trkpt lat="47.29047" lon="-2.35948">
        <ele>36.200000762939</ele>
        <time>2020-08-09T07:46:05.000Z</time>
      </trkpt>
      <trkpt lat="47.29081" lon="-2.3591">
        <ele>36.200000762939</ele>
        <time>2020-08-09T07:46:14.000Z</time>
      </trkpt>
      <trkpt lat="47.29113" lon="-2.35872">
        <ele>36.200000762939</ele>
        <time>2020-08-09T07:46:22.000Z</time>
      </trkpt>
      <trkpt lat="47.29154" lon="-2.35828">
        <ele>36.200000762939</ele>
        <time>2020-08-09T07:46:32.000Z</time>
      </trkpt>
      <trkpt lat="47.29192" lon="-2.35804">
        <ele>36.200000762939</ele>
        <time>2020-08-09T07:46:40.000Z</time>
      </trkpt>
      <trkpt lat="47.29222" lon="-2.35778">
        <ele>36.200000762939</ele>
        <time>2020-08-09T07:46:47.000Z</time>
      </trkpt>
      <trkpt lat="47.2924" lon="-2.35758">
        <ele>36.200000762939</ele>
        <time>2020-08-09T07:46:52.000Z</time>
      </trkpt>
      <trkpt lat="47.29246" lon="-2.35749">
        <ele>36.200000762939</ele>
        <time>2020-08-09T07:46:54.000Z</time>
      </trkpt>
      <trkpt lat="47.29251" lon="-2.35737">
        <ele>36.200000762939</ele>
        <time>2020-08-09T07:46:58.000Z</time>
      </trkpt>
      <trkpt lat="47.29252" lon="-2.35735">
        <ele>36.200000762939</ele>
        <time>2020-08-09T07:47:01.000Z</time>
      </trkpt>
      <trkpt lat="47.29254" lon="-2.35733">
        <ele>36.200000762939</ele>
        <time>2020-08-09T07:47:12.000Z</time>
      </trkpt>
      <trkpt lat="47.29255" lon="-2.35732">
        <ele>36.200000762939</ele>
        <time>2020-08-09T07:47:13.000Z</time>
      </trkpt>
      <trkpt lat="47.29265" lon="-2.35733">
        <ele>36.200000762939</ele>
        <time>2020-08-09T07:47:18.000Z</time>
      </trkpt>
      <trkpt lat="47.29279" lon="-2.35745">
        <ele>36.200000762939</ele>
        <time>2020-08-09T07:47:22.000Z</time>
      </trkpt>
      <trkpt lat="47.29307" lon="-2.35771">
        <ele>36.200000762939</ele>
        <time>2020-08-09T07:47:29.000Z</time>
      </trkpt>
      <trkpt lat="47.29336" lon="-2.35798">
        <ele>36.200000762939</ele>
        <time>2020-08-09T07:47:36.000Z</time>
      </trkpt>
      <trkpt lat="47.29364" lon="-2.35825">
        <ele>36.200000762939</ele>
        <time>2020-08-09T07:47:43.000Z</time>
      </trkpt>
      <trkpt lat="47.29391" lon="-2.35849">
        <ele>36.200000762939</ele>
        <time>2020-08-09T07:47:50.000Z</time>
      </trkpt>
      <trkpt lat="47.29413" lon="-2.35875">
        <ele>36.200000762939</ele>
        <time>2020-08-09T07:47:57.000Z</time>
      </trkpt>
      <trkpt lat="47.29423" lon="-2.35887">
        <ele>36.200000762939</ele>
        <time>2020-08-09T07:48:00.000Z</time>
      </trkpt>
      <trkpt lat="47.29434" lon="-2.35899">
        <ele>36.200000762939</ele>
        <time>2020-08-09T07:48:03.000Z</time>
      </trkpt>
      <trkpt lat="47.29438" lon="-2.35902">
        <ele>36.200000762939</ele>
        <time>2020-08-09T07:48:04.000Z</time>
      </trkpt>
      <trkpt lat="47.29451" lon="-2.35904">
        <ele>36.200000762939</ele>
        <time>2020-08-09T07:48:07.000Z</time>
      </trkpt>
      <trkpt lat="47.29462" lon="-2.359">
        <ele>36.200000762939</ele>
        <time>2020-08-09T07:48:10.000Z</time>
      </trkpt>
      <trkpt lat="47.2947" lon="-2.359">
        <ele>36.200000762939</ele>
        <time>2020-08-09T07:48:12.000Z</time>
      </trkpt>
      <trkpt lat="47.29499" lon="-2.35899">
        <ele>36.200000762939</ele>
        <time>2020-08-09T07:48:20.000Z</time>
      </trkpt>
      <trkpt lat="47.29502" lon="-2.35902">
        <ele>36.200000762939</ele>
        <time>2020-08-09T07:48:21.000Z</time>
      </trkpt>
      <trkpt lat="47.29505" lon="-2.35912">
        <ele>36.200000762939</ele>
        <time>2020-08-09T07:48:23.000Z</time>
      </trkpt>
      <trkpt lat="47.29508" lon="-2.35921">
        <ele>36.200000762939</ele>
        <time>2020-08-09T07:48:25.000Z</time>
      </trkpt>
      <trkpt lat="47.29512" lon="-2.35934">
        <ele>36.200000762939</ele>
        <time>2020-08-09T07:48:29.000Z</time>
      </trkpt>
      <trkpt lat="47.29515" lon="-2.35941">
        <ele>36.200000762939</ele>
        <time>2020-08-09T07:48:33.000Z</time>
      </trkpt>
      <trkpt lat="47.29518" lon="-2.35941">
        <ele>36.200000762939</ele>
        <time>2020-08-09T07:48:35.000Z</time>
      </trkpt>
      <trkpt lat="47.29523" lon="-2.35937">
        <ele>36.200000762939</ele>
        <time>2020-08-09T07:48:37.000Z</time>
      </trkpt>
      <trkpt lat="47.29533" lon="-2.35933">
        <ele>36.200000762939</ele>
        <time>2020-08-09T07:48:40.000Z</time>
      </trkpt>
      <trkpt lat="47.29537" lon="-2.35931">
        <ele>36.200000762939</ele>
        <time>2020-08-09T07:48:41.000Z</time>
      </trkpt>
      <trkpt lat="47.29561" lon="-2.35918">
        <ele>36.200000762939</ele>
        <time>2020-08-09T07:48:47.000Z</time>
      </trkpt>
      <trkpt lat="47.29593" lon="-2.35899">
        <ele>36.200000762939</ele>
        <time>2020-08-09T07:48:54.000Z</time>
      </trkpt>
      <trkpt lat="47.29616" lon="-2.35884">
        <ele>36.200000762939</ele>
        <time>2020-08-09T07:48:59.000Z</time>
      </trkpt>
      <trkpt lat="47.29626" lon="-2.35878">
        <ele>36.200000762939</ele>
        <time>2020-08-09T07:49:01.000Z</time>
      </trkpt>
      <trkpt lat="47.29646" lon="-2.35865">
        <ele>36.200000762939</ele>
        <time>2020-08-09T07:49:05.000Z</time>
      </trkpt>
      <trkpt lat="47.29653" lon="-2.3585">
        <ele>36.200000762939</ele>
        <time>2020-08-09T07:49:07.000Z</time>
      </trkpt>
      <trkpt lat="47.29659" lon="-2.35838">
        <ele>36.200000762939</ele>
        <time>2020-08-09T07:49:09.000Z</time>
      </trkpt>
      <trkpt lat="47.29668" lon="-2.35838">
        <ele>36.200000762939</ele>
        <time>2020-08-09T07:49:11.000Z</time>
      </trkpt>
      <trkpt lat="47.29672" lon="-2.35852">
        <ele>36.200000762939</ele>
        <time>2020-08-09T07:49:14.000Z</time>
      </trkpt>
      <trkpt lat="47.29663" lon="-2.3586">
        <ele>36.200000762939</ele>
        <time>2020-08-09T07:49:17.000Z</time>
      </trkpt>
      <trkpt lat="47.29659" lon="-2.35859">
        <ele>36.200000762939</ele>
        <time>2020-08-09T07:49:18.000Z</time>
      </trkpt>
      <trkpt lat="47.29656" lon="-2.35855">
        <ele>36.200000762939</ele>
        <time>2020-08-09T07:49:19.000Z</time>
      </trkpt>
      <trkpt lat="47.29655" lon="-2.35843">
        <ele>36.200000762939</ele>
        <time>2020-08-09T07:49:21.000Z</time>
      </trkpt>
      <trkpt lat="47.29661" lon="-2.35837">
        <ele>36.200000762939</ele>
        <time>2020-08-09T07:49:23.000Z</time>
      </trkpt>
      <trkpt lat="47.2967" lon="-2.35837">
        <ele>36.200000762939</ele>
        <time>2020-08-09T07:49:25.000Z</time>
      </trkpt>
      <trkpt lat="47.29686" lon="-2.35838">
        <ele>36.200000762939</ele>
        <time>2020-08-09T07:49:28.000Z</time>
      </trkpt>
      <trkpt lat="47.29693" lon="-2.35837">
        <ele>36.200000762939</ele>
        <time>2020-08-09T07:49:29.000Z</time>
      </trkpt>
      <trkpt lat="47.29711" lon="-2.3583">
        <ele>36.200000762939</ele>
        <time>2020-08-09T07:49:32.000Z</time>
      </trkpt>
      <trkpt lat="47.29744" lon="-2.35811">
        <ele>36.200000762939</ele>
        <time>2020-08-09T07:49:38.000Z</time>
      </trkpt>
      <trkpt lat="47.29749" lon="-2.35809">
        <ele>36.599998474121</ele>
        <time>2020-08-09T07:49:39.000Z</time>
      </trkpt>
      <trkpt lat="47.29754" lon="-2.35807">
        <ele>37</ele>
        <time>2020-08-09T07:49:40.000Z</time>
      </trkpt>
      <trkpt lat="47.29759" lon="-2.35805">
        <ele>37.400001525879</ele>
        <time>2020-08-09T07:49:41.000Z</time>
      </trkpt>
      <trkpt lat="47.29763" lon="-2.35803">
        <ele>37.799999237061</ele>
        <time>2020-08-09T07:49:42.000Z</time>
      </trkpt>
      <trkpt lat="47.29769" lon="-2.35802">
        <ele>38.200000762939</ele>
        <time>2020-08-09T07:49:43.000Z</time>
      </trkpt>
      <trkpt lat="47.29785" lon="-2.35796">
        <ele>38.200000762939</ele>
        <time>2020-08-09T07:49:46.000Z</time>
      </trkpt>
      <trkpt lat="47.29838" lon="-2.35778">
        <ele>38.200000762939</ele>
        <time>2020-08-09T07:49:56.000Z</time>
      </trkpt>
      <trkpt lat="47.29882" lon="-2.35763">
        <ele>38.200000762939</ele>
        <time>2020-08-09T07:50:03.000Z</time>
      </trkpt>
      <trkpt lat="47.29887" lon="-2.3576">
        <ele>38.200000762939</ele>
        <time>2020-08-09T07:50:04.000Z</time>
      </trkpt>
      <trkpt lat="47.29893" lon="-2.35753">
        <ele>38.200000762939</ele>
        <time>2020-08-09T07:50:06.000Z</time>
      </trkpt>
      <trkpt lat="47.29894" lon="-2.35733">
        <ele>38.200000762939</ele>
        <time>2020-08-09T07:50:10.000Z</time>
      </trkpt>
      <trkpt lat="47.29892" lon="-2.35721">
        <ele>38.200000762939</ele>
        <time>2020-08-09T07:50:12.000Z</time>
      </trkpt>
      <trkpt lat="47.29886" lon="-2.357">
        <ele>38.200000762939</ele>
        <time>2020-08-09T07:50:15.000Z</time>
      </trkpt>
      <trkpt lat="47.29879" lon="-2.35669">
        <ele>38.200000762939</ele>
        <time>2020-08-09T07:50:19.000Z</time>
      </trkpt>
      <trkpt lat="47.29877" lon="-2.35654">
        <ele>38.200000762939</ele>
        <time>2020-08-09T07:50:21.000Z</time>
      </trkpt>
      <trkpt lat="47.29874" lon="-2.35638">
        <ele>38.200000762939</ele>
        <time>2020-08-09T07:50:23.000Z</time>
      </trkpt>
      <trkpt lat="47.29865" lon="-2.35598">
        <ele>38.200000762939</ele>
        <time>2020-08-09T07:50:28.000Z</time>
      </trkpt>
      <trkpt lat="47.29856" lon="-2.35568">
        <ele>37.799999237061</ele>
        <time>2020-08-09T07:50:32.000Z</time>
      </trkpt>
      <trkpt lat="47.29853" lon="-2.35561">
        <ele>37.400001525879</ele>
        <time>2020-08-09T07:50:33.000Z</time>
      </trkpt>
      <trkpt lat="47.29851" lon="-2.35554">
        <ele>37</ele>
        <time>2020-08-09T07:50:34.000Z</time>
      </trkpt>
      <trkpt lat="47.29849" lon="-2.35546">
        <ele>36</ele>
        <time>2020-08-09T07:50:35.000Z</time>
      </trkpt>
      <trkpt lat="47.29832" lon="-2.35483">
        <ele>36</ele>
        <time>2020-08-09T07:50:43.000Z</time>
      </trkpt>
      <trkpt lat="47.29829" lon="-2.35469">
        <ele>36</ele>
        <time>2020-08-09T07:50:45.000Z</time>
      </trkpt>
      <trkpt lat="47.29831" lon="-2.35455">
        <ele>36</ele>
        <time>2020-08-09T07:50:47.000Z</time>
      </trkpt>
      <trkpt lat="47.29843" lon="-2.35439">
        <ele>36</ele>
        <time>2020-08-09T07:50:50.000Z</time>
      </trkpt>
      <trkpt lat="47.29848" lon="-2.35434">
        <ele>36</ele>
        <time>2020-08-09T07:50:51.000Z</time>
      </trkpt>
      <trkpt lat="47.29853" lon="-2.35429">
        <ele>35.599998474121</ele>
        <time>2020-08-09T07:50:52.000Z</time>
      </trkpt>
      <trkpt lat="47.29859" lon="-2.35424">
        <ele>35.200000762939</ele>
        <time>2020-08-09T07:50:53.000Z</time>
      </trkpt>
      <trkpt lat="47.29864" lon="-2.35419">
        <ele>34.799999237061</ele>
        <time>2020-08-09T07:50:54.000Z</time>
      </trkpt>
      <trkpt lat="47.29869" lon="-2.35414">
        <ele>34.400001525879</ele>
        <time>2020-08-09T07:50:55.000Z</time>
      </trkpt>
      <trkpt lat="47.29874" lon="-2.35409">
        <ele>34</ele>
        <time>2020-08-09T07:50:56.000Z</time>
      </trkpt>
      <trkpt lat="47.29888" lon="-2.35394">
        <ele>34</ele>
        <time>2020-08-09T07:50:59.000Z</time>
      </trkpt>
      <trkpt lat="47.29922" lon="-2.35356">
        <ele>34</ele>
        <time>2020-08-09T07:51:06.000Z</time>
      </trkpt>
      <trkpt lat="47.29948" lon="-2.35323">
        <ele>34</ele>
        <time>2020-08-09T07:51:12.000Z</time>
      </trkpt>
      <trkpt lat="47.29979" lon="-2.35284">
        <ele>34</ele>
        <time>2020-08-09T07:51:19.000Z</time>
      </trkpt>
      <trkpt lat="47.30003" lon="-2.35259">
        <ele>34</ele>
        <time>2020-08-09T07:51:25.000Z</time>
      </trkpt>
      <trkpt lat="47.30008" lon="-2.35257">
        <ele>33.599998474121</ele>
        <time>2020-08-09T07:51:27.000Z</time>
      </trkpt>
      <trkpt lat="47.3001" lon="-2.35256">
        <ele>33.200000762939</ele>
        <time>2020-08-09T07:51:28.000Z</time>
      </trkpt>
      <trkpt lat="47.30012" lon="-2.35254">
        <ele>32.599998474121</ele>
        <time>2020-08-09T07:51:29.000Z</time>
      </trkpt>
      <trkpt lat="47.30013" lon="-2.35253">
        <ele>32.200000762939</ele>
        <time>2020-08-09T07:51:30.000Z</time>
      </trkpt>
      <trkpt lat="47.30014" lon="-2.35253">
        <ele>31.799999237061</ele>
        <time>2020-08-09T07:51:31.000Z</time>
      </trkpt>
      <trkpt lat="47.3002" lon="-2.35248">
        <ele>31.799999237061</ele>
        <time>2020-08-09T07:51:36.000Z</time>
      </trkpt>
      <trkpt lat="47.30022" lon="-2.35246">
        <ele>31.799999237061</ele>
        <time>2020-08-09T07:51:38.000Z</time>
      </trkpt>
      <trkpt lat="47.30025" lon="-2.35247">
        <ele>31.799999237061</ele>
        <time>2020-08-09T07:51:40.000Z</time>
      </trkpt>
      <trkpt lat="47.30026" lon="-2.35247">
        <ele>31.799999237061</ele>
        <time>2020-08-09T07:51:41.000Z</time>
      </trkpt>
      <trkpt lat="47.30039" lon="-2.35237">
        <ele>31.799999237061</ele>
        <time>2020-08-09T07:51:46.000Z</time>
      </trkpt>
      <trkpt lat="47.30043" lon="-2.35235">
        <ele>31.799999237061</ele>
        <time>2020-08-09T07:51:47.000Z</time>
      </trkpt>
      <trkpt lat="47.3006" lon="-2.35227">
        <ele>31.799999237061</ele>
        <time>2020-08-09T07:51:51.000Z</time>
      </trkpt>
      <trkpt lat="47.30068" lon="-2.35221">
        <ele>31.799999237061</ele>
        <time>2020-08-09T07:51:53.000Z</time>
      </trkpt>
      <trkpt lat="47.30076" lon="-2.35217">
        <ele>31.799999237061</ele>
        <time>2020-08-09T07:51:55.000Z</time>
      </trkpt>
      <trkpt lat="47.30098" lon="-2.3521">
        <ele>31.799999237061</ele>
        <time>2020-08-09T07:52:00.000Z</time>
      </trkpt>
      <trkpt lat="47.30103" lon="-2.35208">
        <ele>31.799999237061</ele>
        <time>2020-08-09T07:52:01.000Z</time>
      </trkpt>
      <trkpt lat="47.30123" lon="-2.35199">
        <ele>31.799999237061</ele>
        <time>2020-08-09T07:52:05.000Z</time>
      </trkpt>
      <trkpt lat="47.30148" lon="-2.35195">
        <ele>31.799999237061</ele>
        <time>2020-08-09T07:52:10.000Z</time>
      </trkpt>
      <trkpt lat="47.30166" lon="-2.35181">
        <ele>31.799999237061</ele>
        <time>2020-08-09T07:52:14.000Z</time>
      </trkpt>
      <trkpt lat="47.30186" lon="-2.35174">
        <ele>31.799999237061</ele>
        <time>2020-08-09T07:52:19.000Z</time>
      </trkpt>
      <trkpt lat="47.30198" lon="-2.35169">
        <ele>31.799999237061</ele>
        <time>2020-08-09T07:52:22.000Z</time>
      </trkpt>
      <trkpt lat="47.30201" lon="-2.35165">
        <ele>31.799999237061</ele>
        <time>2020-08-09T07:52:23.000Z</time>
      </trkpt>
      <trkpt lat="47.30206" lon="-2.35146">
        <ele>31.799999237061</ele>
        <time>2020-08-09T07:52:26.000Z</time>
      </trkpt>
      <trkpt lat="47.30206" lon="-2.35133">
        <ele>31.799999237061</ele>
        <time>2020-08-09T07:52:28.000Z</time>
      </trkpt>
      <trkpt lat="47.30207" lon="-2.35115">
        <ele>32.200000762939</ele>
        <time>2020-08-09T07:52:31.000Z</time>
      </trkpt>
      <trkpt lat="47.30207" lon="-2.35109">
        <ele>32.799999237061</ele>
        <time>2020-08-09T07:52:32.000Z</time>
      </trkpt>
      <trkpt lat="47.30208" lon="-2.35103">
        <ele>33.200000762939</ele>
        <time>2020-08-09T07:52:33.000Z</time>
      </trkpt>
      <trkpt lat="47.30208" lon="-2.35096">
        <ele>33.599998474121</ele>
        <time>2020-08-09T07:52:34.000Z</time>
      </trkpt>
      <trkpt lat="47.30208" lon="-2.3509">
        <ele>34</ele>
        <time>2020-08-09T07:52:35.000Z</time>
      </trkpt>
      <trkpt lat="47.30208" lon="-2.35052">
        <ele>34</ele>
        <time>2020-08-09T07:52:41.000Z</time>
      </trkpt>
      <trkpt lat="47.30208" lon="-2.35017">
        <ele>34</ele>
        <time>2020-08-09T07:52:47.000Z</time>
      </trkpt>
      <trkpt lat="47.30207" lon="-2.3499">
        <ele>34.400001525879</ele>
        <time>2020-08-09T07:52:52.000Z</time>
      </trkpt>
      <trkpt lat="47.30207" lon="-2.34985">
        <ele>34.799999237061</ele>
        <time>2020-08-09T07:52:53.000Z</time>
      </trkpt>
      <trkpt lat="47.30207" lon="-2.3498">
        <ele>35.400001525879</ele>
        <time>2020-08-09T07:52:54.000Z</time>
      </trkpt>
      <trkpt lat="47.30208" lon="-2.34974">
        <ele>35.799999237061</ele>
        <time>2020-08-09T07:52:55.000Z</time>
      </trkpt>
      <trkpt lat="47.30208" lon="-2.34967">
        <ele>36.200000762939</ele>
        <time>2020-08-09T07:52:56.000Z</time>
      </trkpt>
      <trkpt lat="47.30209" lon="-2.34955">
        <ele>36.200000762939</ele>
        <time>2020-08-09T07:52:58.000Z</time>
      </trkpt>
      <trkpt lat="47.30209" lon="-2.34949">
        <ele>36.200000762939</ele>
        <time>2020-08-09T07:52:59.000Z</time>
      </trkpt>
      <trkpt lat="47.30208" lon="-2.34924">
        <ele>36.200000762939</ele>
        <time>2020-08-09T07:53:03.000Z</time>
      </trkpt>
      <trkpt lat="47.30212" lon="-2.34905">
        <ele>36.200000762939</ele>
        <time>2020-08-09T07:53:07.000Z</time>
      </trkpt>
      <trkpt lat="47.30228" lon="-2.34888">
        <ele>36.200000762939</ele>
        <time>2020-08-09T07:53:11.000Z</time>
      </trkpt>
      <trkpt lat="47.30233" lon="-2.34884">
        <ele>36.599998474121</ele>
        <time>2020-08-09T07:53:12.000Z</time>
      </trkpt>
      <trkpt lat="47.30237" lon="-2.34881">
        <ele>37</ele>
        <time>2020-08-09T07:53:13.000Z</time>
      </trkpt>
      <trkpt lat="47.30241" lon="-2.34879">
        <ele>37.400001525879</ele>
        <time>2020-08-09T07:53:14.000Z</time>
      </trkpt>
      <trkpt lat="47.30245" lon="-2.34876">
        <ele>37.799999237061</ele>
        <time>2020-08-09T07:53:15.000Z</time>
      </trkpt>
      <trkpt lat="47.30248" lon="-2.34874">
        <ele>38.400001525879</ele>
        <time>2020-08-09T07:53:16.000Z</time>
      </trkpt>
      <trkpt lat="47.30252" lon="-2.34873">
        <ele>38.400001525879</ele>
        <time>2020-08-09T07:53:17.000Z</time>
      </trkpt>
      <trkpt lat="47.30277" lon="-2.34861">
        <ele>38.400001525879</ele>
        <time>2020-08-09T07:53:23.000Z</time>
      </trkpt>
      <trkpt lat="47.30281" lon="-2.34858">
        <ele>38.400001525879</ele>
        <time>2020-08-09T07:53:24.000Z</time>
      </trkpt>
      <trkpt lat="47.30292" lon="-2.3485">
        <ele>38.400001525879</ele>
        <time>2020-08-09T07:53:27.000Z</time>
      </trkpt>
      <trkpt lat="47.30295" lon="-2.34846">
        <ele>38.400001525879</ele>
        <time>2020-08-09T07:53:28.000Z</time>
      </trkpt>
      <trkpt lat="47.30315" lon="-2.34818">
        <ele>38.400001525879</ele>
        <time>2020-08-09T07:53:35.000Z</time>
      </trkpt>
      <trkpt lat="47.30334" lon="-2.34783">
        <ele>38.400001525879</ele>
        <time>2020-08-09T07:53:42.000Z</time>
      </trkpt>
      <trkpt lat="47.30355" lon="-2.34765">
        <ele>38.400001525879</ele>
        <time>2020-08-09T07:53:47.000Z</time>
      </trkpt>
      <trkpt lat="47.30368" lon="-2.34757">
        <ele>38.400001525879</ele>
        <time>2020-08-09T07:53:50.000Z</time>
      </trkpt>
      <trkpt lat="47.30376" lon="-2.34751">
        <ele>38.400001525879</ele>
        <time>2020-08-09T07:53:52.000Z</time>
      </trkpt>
      <trkpt lat="47.30385" lon="-2.34745">
        <ele>38.400001525879</ele>
        <time>2020-08-09T07:53:54.000Z</time>
      </trkpt>
      <trkpt lat="47.30399" lon="-2.34738">
        <ele>38.400001525879</ele>
        <time>2020-08-09T07:53:57.000Z</time>
      </trkpt>
      <trkpt lat="47.30418" lon="-2.34726">
        <ele>38.400001525879</ele>
        <time>2020-08-09T07:54:02.000Z</time>
      </trkpt>
      <trkpt lat="47.30422" lon="-2.34723">
        <ele>38.400001525879</ele>
        <time>2020-08-09T07:54:03.000Z</time>
      </trkpt>
      <trkpt lat="47.30438" lon="-2.34706">
        <ele>38.400001525879</ele>
        <time>2020-08-09T07:54:07.000Z</time>
      </trkpt>
      <trkpt lat="47.30442" lon="-2.34702">
        <ele>38.400001525879</ele>
        <time>2020-08-09T07:54:08.000Z</time>
      </trkpt>
      <trkpt lat="47.30459" lon="-2.34688">
        <ele>38.400001525879</ele>
        <time>2020-08-09T07:54:12.000Z</time>
      </trkpt>
      <trkpt lat="47.30476" lon="-2.3467">
        <ele>38.400001525879</ele>
        <time>2020-08-09T07:54:16.000Z</time>
      </trkpt>
      <trkpt lat="47.30479" lon="-2.34667">
        <ele>38.400001525879</ele>
        <time>2020-08-09T07:54:17.000Z</time>
      </trkpt>
      <trkpt lat="47.30494" lon="-2.3465">
        <ele>38.400001525879</ele>
        <time>2020-08-09T07:54:22.000Z</time>
      </trkpt>
      <trkpt lat="47.30505" lon="-2.34628">
        <ele>38.400001525879</ele>
        <time>2020-08-09T07:54:28.000Z</time>
      </trkpt>
      <trkpt lat="47.30518" lon="-2.34609">
        <ele>38.400001525879</ele>
        <time>2020-08-09T07:54:33.000Z</time>
      </trkpt>
      <trkpt lat="47.30538" lon="-2.34581">
        <ele>38.400001525879</ele>
        <time>2020-08-09T07:54:39.000Z</time>
      </trkpt>
      <trkpt lat="47.30561" lon="-2.34543">
        <ele>38.400001525879</ele>
        <time>2020-08-09T07:54:46.000Z</time>
      </trkpt>
      <trkpt lat="47.30565" lon="-2.34538">
        <ele>38.400001525879</ele>
        <time>2020-08-09T07:54:47.000Z</time>
      </trkpt>
      <trkpt lat="47.30576" lon="-2.34517">
        <ele>38.400001525879</ele>
        <time>2020-08-09T07:54:51.000Z</time>
      </trkpt>
      <trkpt lat="47.30584" lon="-2.34501">
        <ele>38.799999237061</ele>
        <time>2020-08-09T07:54:54.000Z</time>
      </trkpt>
      <trkpt lat="47.30586" lon="-2.34495">
        <ele>39.200000762939</ele>
        <time>2020-08-09T07:54:55.000Z</time>
      </trkpt>
      <trkpt lat="47.30589" lon="-2.3449">
        <ele>39.599998474121</ele>
        <time>2020-08-09T07:54:56.000Z</time>
      </trkpt>
      <trkpt lat="47.30591" lon="-2.34484">
        <ele>40</ele>
        <time>2020-08-09T07:54:57.000Z</time>
      </trkpt>
      <trkpt lat="47.30594" lon="-2.34479">
        <ele>40.400001525879</ele>
        <time>2020-08-09T07:54:58.000Z</time>
      </trkpt>
      <trkpt lat="47.30614" lon="-2.3445">
        <ele>40.400001525879</ele>
        <time>2020-08-09T07:55:03.000Z</time>
      </trkpt>
      <trkpt lat="47.30639" lon="-2.34419">
        <ele>40.400001525879</ele>
        <time>2020-08-09T07:55:09.000Z</time>
      </trkpt>
      <trkpt lat="47.30655" lon="-2.34397">
        <ele>40.400001525879</ele>
        <time>2020-08-09T07:55:15.000Z</time>
      </trkpt>
      <trkpt lat="47.30671" lon="-2.34371">
        <ele>40.400001525879</ele>
        <time>2020-08-09T07:55:21.000Z</time>
      </trkpt>
      <trkpt lat="47.30691" lon="-2.34336">
        <ele>40.400001525879</ele>
        <time>2020-08-09T07:55:27.000Z</time>
      </trkpt>
      <trkpt lat="47.30708" lon="-2.34303">
        <ele>40.400001525879</ele>
        <time>2020-08-09T07:55:32.000Z</time>
      </trkpt>
      <trkpt lat="47.3071" lon="-2.34296">
        <ele>40.400001525879</ele>
        <time>2020-08-09T07:55:33.000Z</time>
      </trkpt>
      <trkpt lat="47.30715" lon="-2.34281">
        <ele>40.400001525879</ele>
        <time>2020-08-09T07:55:35.000Z</time>
      </trkpt>
      <trkpt lat="47.30717" lon="-2.34266">
        <ele>40.400001525879</ele>
        <time>2020-08-09T07:55:37.000Z</time>
      </trkpt>
      <trkpt lat="47.30726" lon="-2.3424">
        <ele>40.400001525879</ele>
        <time>2020-08-09T07:55:41.000Z</time>
      </trkpt>
      <trkpt lat="47.30735" lon="-2.34237">
        <ele>40.400001525879</ele>
        <time>2020-08-09T07:55:43.000Z</time>
      </trkpt>
      <trkpt lat="47.30752" lon="-2.3423">
        <ele>40.400001525879</ele>
        <time>2020-08-09T07:55:47.000Z</time>
      </trkpt>
      <trkpt lat="47.30762" lon="-2.34217">
        <ele>40.400001525879</ele>
        <time>2020-08-09T07:55:50.000Z</time>
      </trkpt>
      <trkpt lat="47.30764" lon="-2.34212">
        <ele>40.400001525879</ele>
        <time>2020-08-09T07:55:51.000Z</time>
      </trkpt>
      <trkpt lat="47.30767" lon="-2.3419">
        <ele>40.400001525879</ele>
        <time>2020-08-09T07:55:55.000Z</time>
      </trkpt>
      <trkpt lat="47.30767" lon="-2.34184">
        <ele>40.400001525879</ele>
        <time>2020-08-09T07:55:56.000Z</time>
      </trkpt>
      <trkpt lat="47.30772" lon="-2.34132">
        <ele>40.400001525879</ele>
        <time>2020-08-09T07:56:04.000Z</time>
      </trkpt>
      <trkpt lat="47.30772" lon="-2.34086">
        <ele>40.400001525879</ele>
        <time>2020-08-09T07:56:11.000Z</time>
      </trkpt>
      <trkpt lat="47.30772" lon="-2.34079">
        <ele>40</ele>
        <time>2020-08-09T07:56:12.000Z</time>
      </trkpt>
      <trkpt lat="47.30773" lon="-2.34072">
        <ele>39.599998474121</ele>
        <time>2020-08-09T07:56:13.000Z</time>
      </trkpt>
      <trkpt lat="47.30773" lon="-2.34065">
        <ele>39.200000762939</ele>
        <time>2020-08-09T07:56:14.000Z</time>
      </trkpt>
      <trkpt lat="47.30773" lon="-2.34057">
        <ele>38.799999237061</ele>
        <time>2020-08-09T07:56:15.000Z</time>
      </trkpt>
      <trkpt lat="47.30774" lon="-2.3405">
        <ele>38.400001525879</ele>
        <time>2020-08-09T07:56:16.000Z</time>
      </trkpt>
      <trkpt lat="47.30775" lon="-2.34042">
        <ele>38.400001525879</ele>
        <time>2020-08-09T07:56:17.000Z</time>
      </trkpt>
      <trkpt lat="47.30779" lon="-2.34001">
        <ele>38.400001525879</ele>
        <time>2020-08-09T07:56:23.000Z</time>
      </trkpt>
      <trkpt lat="47.30782" lon="-2.33976">
        <ele>38.400001525879</ele>
        <time>2020-08-09T07:56:28.000Z</time>
      </trkpt>
      <trkpt lat="47.30794" lon="-2.33971">
        <ele>38.400001525879</ele>
        <time>2020-08-09T07:56:31.000Z</time>
      </trkpt>
      <trkpt lat="47.30798" lon="-2.33969">
        <ele>38.400001525879</ele>
        <time>2020-08-09T07:56:32.000Z</time>
      </trkpt>
      <trkpt lat="47.30803" lon="-2.33967">
        <ele>38.400001525879</ele>
        <time>2020-08-09T07:56:33.000Z</time>
      </trkpt>
      <trkpt lat="47.30822" lon="-2.33961">
        <ele>38.400001525879</ele>
        <time>2020-08-09T07:56:37.000Z</time>
      </trkpt>
      <trkpt lat="47.30826" lon="-2.3396">
        <ele>38.400001525879</ele>
        <time>2020-08-09T07:56:38.000Z</time>
      </trkpt>
      <trkpt lat="47.30846" lon="-2.33955">
        <ele>38.400001525879</ele>
        <time>2020-08-09T07:56:43.000Z</time>
      </trkpt>
      <trkpt lat="47.30873" lon="-2.3395">
        <ele>38.400001525879</ele>
        <time>2020-08-09T07:56:50.000Z</time>
      </trkpt>
      <trkpt lat="47.30901" lon="-2.33948">
        <ele>38.400001525879</ele>
        <time>2020-08-09T07:56:57.000Z</time>
      </trkpt>
      <trkpt lat="47.30935" lon="-2.33949">
        <ele>38.400001525879</ele>
        <time>2020-08-09T07:57:05.000Z</time>
      </trkpt>
      <trkpt lat="47.30959" lon="-2.33953">
        <ele>38.400001525879</ele>
        <time>2020-08-09T07:57:11.000Z</time>
      </trkpt>
      <trkpt lat="47.30969" lon="-2.33954">
        <ele>38.400001525879</ele>
        <time>2020-08-09T07:57:13.000Z</time>
      </trkpt>
      <trkpt lat="47.30987" lon="-2.33954">
        <ele>38.400001525879</ele>
        <time>2020-08-09T07:57:17.000Z</time>
      </trkpt>
      <trkpt lat="47.30992" lon="-2.33955">
        <ele>38.400001525879</ele>
        <time>2020-08-09T07:57:18.000Z</time>
      </trkpt>
      <trkpt lat="47.3101" lon="-2.33954">
        <ele>38.400001525879</ele>
        <time>2020-08-09T07:57:22.000Z</time>
      </trkpt>
      <trkpt lat="47.31035" lon="-2.3395">
        <ele>38</ele>
        <time>2020-08-09T07:57:27.000Z</time>
      </trkpt>
      <trkpt lat="47.31039" lon="-2.33949">
        <ele>37.599998474121</ele>
        <time>2020-08-09T07:57:28.000Z</time>
      </trkpt>
      <trkpt lat="47.31043" lon="-2.33948">
        <ele>37.200000762939</ele>
        <time>2020-08-09T07:57:29.000Z</time>
      </trkpt>
      <trkpt lat="47.31046" lon="-2.33948">
        <ele>36.799999237061</ele>
        <time>2020-08-09T07:57:30.000Z</time>
      </trkpt>
      <trkpt lat="47.31048" lon="-2.33948">
        <ele>36.400001525879</ele>
        <time>2020-08-09T07:57:31.000Z</time>
      </trkpt>
      <trkpt lat="47.3105" lon="-2.33948">
        <ele>36.400001525879</ele>
        <time>2020-08-09T07:57:32.000Z</time>
      </trkpt>
      <trkpt lat="47.3106" lon="-2.33947">
        <ele>36.400001525879</ele>
        <time>2020-08-09T07:57:38.000Z</time>
      </trkpt>
      <trkpt lat="47.31061" lon="-2.3395">
        <ele>34.400001525879</ele>
        <time>2020-08-09T07:58:09.000Z</time>
      </trkpt>
      <trkpt lat="47.31064" lon="-2.33959">
        <ele>34.400001525879</ele>
        <time>2020-08-09T07:58:12.000Z</time>
      </trkpt>
      <trkpt lat="47.31065" lon="-2.33987">
        <ele>34.400001525879</ele>
        <time>2020-08-09T07:58:17.000Z</time>
      </trkpt>
      <trkpt lat="47.31068" lon="-2.34038">
        <ele>34.400001525879</ele>
        <time>2020-08-09T07:58:24.000Z</time>
      </trkpt>
      <trkpt lat="47.31078" lon="-2.34086">
        <ele>34.400001525879</ele>
        <time>2020-08-09T07:58:30.000Z</time>
      </trkpt>
      <trkpt lat="47.31096" lon="-2.34128">
        <ele>34.400001525879</ele>
        <time>2020-08-09T07:58:35.000Z</time>
      </trkpt>
      <trkpt lat="47.31105" lon="-2.34145">
        <ele>34</ele>
        <time>2020-08-09T07:58:37.000Z</time>
      </trkpt>
      <trkpt lat="47.31109" lon="-2.34153">
        <ele>33.599998474121</ele>
        <time>2020-08-09T07:58:38.000Z</time>
      </trkpt>
      <trkpt lat="47.31114" lon="-2.34163">
        <ele>33.200000762939</ele>
        <time>2020-08-09T07:58:39.000Z</time>
      </trkpt>
      <trkpt lat="47.31119" lon="-2.34173">
        <ele>32.799999237061</ele>
        <time>2020-08-09T07:58:40.000Z</time>
      </trkpt>
      <trkpt lat="47.31124" lon="-2.34183">
        <ele>32.400001525879</ele>
        <time>2020-08-09T07:58:41.000Z</time>
      </trkpt>
      <trkpt lat="47.31141" lon="-2.34215">
        <ele>31.799999237061</ele>
        <time>2020-08-09T07:58:44.000Z</time>
      </trkpt>
      <trkpt lat="47.31146" lon="-2.34225">
        <ele>31.39999961853</ele>
        <time>2020-08-09T07:58:45.000Z</time>
      </trkpt>
      <trkpt lat="47.31152" lon="-2.34236">
        <ele>30.799999237061</ele>
        <time>2020-08-09T07:58:46.000Z</time>
      </trkpt>
      <trkpt lat="47.31158" lon="-2.34247">
        <ele>30.200000762939</ele>
        <time>2020-08-09T07:58:47.000Z</time>
      </trkpt>
      <trkpt lat="47.31163" lon="-2.34259">
        <ele>29.799999237061</ele>
        <time>2020-08-09T07:58:48.000Z</time>
      </trkpt>
      <trkpt lat="47.31174" lon="-2.34279">
        <ele>28.799999237061</ele>
        <time>2020-08-09T07:58:50.000Z</time>
      </trkpt>
      <trkpt lat="47.31178" lon="-2.34289">
        <ele>28.200000762939</ele>
        <time>2020-08-09T07:58:51.000Z</time>
      </trkpt>
      <trkpt lat="47.31183" lon="-2.34299">
        <ele>27.60000038147</ele>
        <time>2020-08-09T07:58:52.000Z</time>
      </trkpt>
      <trkpt lat="47.31187" lon="-2.34308">
        <ele>27.200000762939</ele>
        <time>2020-08-09T07:58:53.000Z</time>
      </trkpt>
      <trkpt lat="47.31191" lon="-2.34317">
        <ele>27.200000762939</ele>
        <time>2020-08-09T07:58:54.000Z</time>
      </trkpt>
      <trkpt lat="47.31196" lon="-2.34325">
        <ele>27.200000762939</ele>
        <time>2020-08-09T07:58:55.000Z</time>
      </trkpt>
      <trkpt lat="47.31213" lon="-2.34344">
        <ele>27.200000762939</ele>
        <time>2020-08-09T07:58:58.000Z</time>
      </trkpt>
      <trkpt lat="47.31226" lon="-2.3435">
        <ele>27.200000762939</ele>
        <time>2020-08-09T07:59:00.000Z</time>
      </trkpt>
      <trkpt lat="47.31243" lon="-2.34357">
        <ele>27.200000762939</ele>
        <time>2020-08-09T07:59:03.000Z</time>
      </trkpt>
      <trkpt lat="47.31248" lon="-2.3436">
        <ele>27.200000762939</ele>
        <time>2020-08-09T07:59:04.000Z</time>
      </trkpt>
      <trkpt lat="47.31257" lon="-2.34371">
        <ele>27.200000762939</ele>
        <time>2020-08-09T07:59:06.000Z</time>
      </trkpt>
      <trkpt lat="47.31268" lon="-2.34401">
        <ele>27.200000762939</ele>
        <time>2020-08-09T07:59:10.000Z</time>
      </trkpt>
      <trkpt lat="47.3127" lon="-2.3441">
        <ele>27.200000762939</ele>
        <time>2020-08-09T07:59:11.000Z</time>
      </trkpt>
      <trkpt lat="47.31273" lon="-2.34435">
        <ele>27.60000038147</ele>
        <time>2020-08-09T07:59:14.000Z</time>
      </trkpt>
      <trkpt lat="47.31275" lon="-2.34445">
        <ele>28.39999961853</ele>
        <time>2020-08-09T07:59:15.000Z</time>
      </trkpt>
      <trkpt lat="47.31276" lon="-2.34455">
        <ele>29</ele>
        <time>2020-08-09T07:59:16.000Z</time>
      </trkpt>
      <trkpt lat="47.31276" lon="-2.34464">
        <ele>29.39999961853</ele>
        <time>2020-08-09T07:59:17.000Z</time>
      </trkpt>
      <trkpt lat="47.31281" lon="-2.34514">
        <ele>29.799999237061</ele>
        <time>2020-08-09T07:59:22.000Z</time>
      </trkpt>
      <trkpt lat="47.31282" lon="-2.34523">
        <ele>30.200000762939</ele>
        <time>2020-08-09T07:59:23.000Z</time>
      </trkpt>
      <trkpt lat="47.31283" lon="-2.34533">
        <ele>30.60000038147</ele>
        <time>2020-08-09T07:59:24.000Z</time>
      </trkpt>
      <trkpt lat="47.31284" lon="-2.34542">
        <ele>31</ele>
        <time>2020-08-09T07:59:25.000Z</time>
      </trkpt>
      <trkpt lat="47.31285" lon="-2.34552">
        <ele>31.39999961853</ele>
        <time>2020-08-09T07:59:26.000Z</time>
      </trkpt>
      <trkpt lat="47.31291" lon="-2.34601">
        <ele>31.799999237061</ele>
        <time>2020-08-09T07:59:31.000Z</time>
      </trkpt>
      <trkpt lat="47.31292" lon="-2.3461">
        <ele>32.400001525879</ele>
        <time>2020-08-09T07:59:32.000Z</time>
      </trkpt>
      <trkpt lat="47.31293" lon="-2.3462">
        <ele>32.799999237061</ele>
        <time>2020-08-09T07:59:33.000Z</time>
      </trkpt>
      <trkpt lat="47.31294" lon="-2.34628">
        <ele>33.200000762939</ele>
        <time>2020-08-09T07:59:34.000Z</time>
      </trkpt>
      <trkpt lat="47.31294" lon="-2.34636">
        <ele>33.599998474121</ele>
        <time>2020-08-09T07:59:35.000Z</time>
      </trkpt>
      <trkpt lat="47.31295" lon="-2.34643">
        <ele>33.599998474121</ele>
        <time>2020-08-09T07:59:36.000Z</time>
      </trkpt>
      <trkpt lat="47.313" lon="-2.34659">
        <ele>33.599998474121</ele>
        <time>2020-08-09T07:59:39.000Z</time>
      </trkpt>
      <trkpt lat="47.31303" lon="-2.34662">
        <ele>33.599998474121</ele>
        <time>2020-08-09T07:59:40.000Z</time>
      </trkpt>
      <trkpt lat="47.31303" lon="-2.34675">
        <ele>33.599998474121</ele>
        <time>2020-08-09T07:59:43.000Z</time>
      </trkpt>
      <trkpt lat="47.31293" lon="-2.34684">
        <ele>33.599998474121</ele>
        <time>2020-08-09T07:59:46.000Z</time>
      </trkpt>
      <trkpt lat="47.31289" lon="-2.34689">
        <ele>33.599998474121</ele>
        <time>2020-08-09T07:59:47.000Z</time>
      </trkpt>
      <trkpt lat="47.31282" lon="-2.34699">
        <ele>33.599998474121</ele>
        <time>2020-08-09T07:59:49.000Z</time>
      </trkpt>
      <trkpt lat="47.3128" lon="-2.34712">
        <ele>33.599998474121</ele>
        <time>2020-08-09T07:59:51.000Z</time>
      </trkpt>
      <trkpt lat="47.3128" lon="-2.3472">
        <ele>34</ele>
        <time>2020-08-09T07:59:52.000Z</time>
      </trkpt>
      <trkpt lat="47.31281" lon="-2.34726">
        <ele>34.400001525879</ele>
        <time>2020-08-09T07:59:53.000Z</time>
      </trkpt>
      <trkpt lat="47.31282" lon="-2.34734">
        <ele>34.799999237061</ele>
        <time>2020-08-09T07:59:54.000Z</time>
      </trkpt>
      <trkpt lat="47.31283" lon="-2.34741">
        <ele>35.200000762939</ele>
        <time>2020-08-09T07:59:55.000Z</time>
      </trkpt>
      <trkpt lat="47.31284" lon="-2.34749">
        <ele>35.599998474121</ele>
        <time>2020-08-09T07:59:56.000Z</time>
      </trkpt>
      <trkpt lat="47.31293" lon="-2.34799">
        <ele>35.599998474121</ele>
        <time>2020-08-09T08:00:03.000Z</time>
      </trkpt>
      <trkpt lat="47.31305" lon="-2.34866">
        <ele>35.599998474121</ele>
        <time>2020-08-09T08:00:12.000Z</time>
      </trkpt>
      <trkpt lat="47.31317" lon="-2.34908">
        <ele>35.599998474121</ele>
        <time>2020-08-09T08:00:18.000Z</time>
      </trkpt>
      <trkpt lat="47.31331" lon="-2.34951">
        <ele>35.599998474121</ele>
        <time>2020-08-09T08:00:24.000Z</time>
      </trkpt>
      <trkpt lat="47.31339" lon="-2.34988">
        <ele>35.599998474121</ele>
        <time>2020-08-09T08:00:29.000Z</time>
      </trkpt>
      <trkpt lat="47.31341" lon="-2.34993">
        <ele>35.599998474121</ele>
        <time>2020-08-09T08:00:30.000Z</time>
      </trkpt>
      <trkpt lat="47.31344" lon="-2.34998">
        <ele>35.599998474121</ele>
        <time>2020-08-09T08:00:33.000Z</time>
      </trkpt>
      <trkpt lat="47.31346" lon="-2.35">
        <ele>35.599998474121</ele>
        <time>2020-08-09T08:00:35.000Z</time>
      </trkpt>
      <trkpt lat="47.31346" lon="-2.35007">
        <ele>35.599998474121</ele>
        <time>2020-08-09T08:00:38.000Z</time>
      </trkpt>
      <trkpt lat="47.31344" lon="-2.35026">
        <ele>35.599998474121</ele>
        <time>2020-08-09T08:00:42.000Z</time>
      </trkpt>
      <trkpt lat="47.31345" lon="-2.35041">
        <ele>35.599998474121</ele>
        <time>2020-08-09T08:00:44.000Z</time>
      </trkpt>
      <trkpt lat="47.31345" lon="-2.35068">
        <ele>35.599998474121</ele>
        <time>2020-08-09T08:00:47.000Z</time>
      </trkpt>
      <trkpt lat="47.31344" lon="-2.35123">
        <ele>35.599998474121</ele>
        <time>2020-08-09T08:00:53.000Z</time>
      </trkpt>
      <trkpt lat="47.3134" lon="-2.35194">
        <ele>35.599998474121</ele>
        <time>2020-08-09T08:01:01.000Z</time>
      </trkpt>
      <trkpt lat="47.31338" lon="-2.35236">
        <ele>35.599998474121</ele>
        <time>2020-08-09T08:01:06.000Z</time>
      </trkpt>
      <trkpt lat="47.31338" lon="-2.35251">
        <ele>35.599998474121</ele>
        <time>2020-08-09T08:01:08.000Z</time>
      </trkpt>
      <trkpt lat="47.31339" lon="-2.35296">
        <ele>35.599998474121</ele>
        <time>2020-08-09T08:01:14.000Z</time>
      </trkpt>
      <trkpt lat="47.31338" lon="-2.35345">
        <ele>35.599998474121</ele>
        <time>2020-08-09T08:01:20.000Z</time>
      </trkpt>
      <trkpt lat="47.31337" lon="-2.35381">
        <ele>35.599998474121</ele>
        <time>2020-08-09T08:01:25.000Z</time>
      </trkpt>
      <trkpt lat="47.31336" lon="-2.35389">
        <ele>35.599998474121</ele>
        <time>2020-08-09T08:01:26.000Z</time>
      </trkpt>
      <trkpt lat="47.31332" lon="-2.35425">
        <ele>35.599998474121</ele>
        <time>2020-08-09T08:01:31.000Z</time>
      </trkpt>
      <trkpt lat="47.31331" lon="-2.35447">
        <ele>35.599998474121</ele>
        <time>2020-08-09T08:01:34.000Z</time>
      </trkpt>
      <trkpt lat="47.31332" lon="-2.35472">
        <ele>35.599998474121</ele>
        <time>2020-08-09T08:01:37.000Z</time>
      </trkpt>
      <trkpt lat="47.3133" lon="-2.35515">
        <ele>35.599998474121</ele>
        <time>2020-08-09T08:01:43.000Z</time>
      </trkpt>
      <trkpt lat="47.31328" lon="-2.35542">
        <ele>35.599998474121</ele>
        <time>2020-08-09T08:01:48.000Z</time>
      </trkpt>
      <trkpt lat="47.31325" lon="-2.35574">
        <ele>35.599998474121</ele>
        <time>2020-08-09T08:01:55.000Z</time>
      </trkpt>
      <trkpt lat="47.31327" lon="-2.35608">
        <ele>35.599998474121</ele>
        <time>2020-08-09T08:02:02.000Z</time>
      </trkpt>
      <trkpt lat="47.31329" lon="-2.35635">
        <ele>36</ele>
        <time>2020-08-09T08:02:06.000Z</time>
      </trkpt>
      <trkpt lat="47.31329" lon="-2.35642">
        <ele>36.400001525879</ele>
        <time>2020-08-09T08:02:07.000Z</time>
      </trkpt>
      <trkpt lat="47.31329" lon="-2.35648">
        <ele>37.400001525879</ele>
        <time>2020-08-09T08:02:08.000Z</time>
      </trkpt>
      <trkpt lat="47.31329" lon="-2.35653">
        <ele>37.799999237061</ele>
        <time>2020-08-09T08:02:09.000Z</time>
      </trkpt>
      <trkpt lat="47.3133" lon="-2.35685">
        <ele>37.799999237061</ele>
        <time>2020-08-09T08:02:14.000Z</time>
      </trkpt>
      <trkpt lat="47.31329" lon="-2.35731">
        <ele>37.799999237061</ele>
        <time>2020-08-09T08:02:21.000Z</time>
      </trkpt>
      <trkpt lat="47.31332" lon="-2.35778">
        <ele>37.799999237061</ele>
        <time>2020-08-09T08:02:28.000Z</time>
      </trkpt>
      <trkpt lat="47.31336" lon="-2.3581">
        <ele>37.799999237061</ele>
        <time>2020-08-09T08:02:32.000Z</time>
      </trkpt>
      <trkpt lat="47.31336" lon="-2.35825">
        <ele>37.799999237061</ele>
        <time>2020-08-09T08:02:34.000Z</time>
      </trkpt>
      <trkpt lat="47.31339" lon="-2.3585">
        <ele>37.799999237061</ele>
        <time>2020-08-09T08:02:37.000Z</time>
      </trkpt>
      <trkpt lat="47.31343" lon="-2.35868">
        <ele>37.799999237061</ele>
        <time>2020-08-09T08:02:39.000Z</time>
      </trkpt>
      <trkpt lat="47.31349" lon="-2.35885">
        <ele>37.799999237061</ele>
        <time>2020-08-09T08:02:41.000Z</time>
      </trkpt>
      <trkpt lat="47.31361" lon="-2.35908">
        <ele>37.799999237061</ele>
        <time>2020-08-09T08:02:44.000Z</time>
      </trkpt>
      <trkpt lat="47.31388" lon="-2.35955">
        <ele>37.799999237061</ele>
        <time>2020-08-09T08:02:50.000Z</time>
      </trkpt>
      <trkpt lat="47.31395" lon="-2.35972">
        <ele>37.799999237061</ele>
        <time>2020-08-09T08:02:52.000Z</time>
      </trkpt>
      <trkpt lat="47.314" lon="-2.35986">
        <ele>37.799999237061</ele>
        <time>2020-08-09T08:02:54.000Z</time>
      </trkpt>
      <trkpt lat="47.31403" lon="-2.35993">
        <ele>37.799999237061</ele>
        <time>2020-08-09T08:02:55.000Z</time>
      </trkpt>
      <trkpt lat="47.31416" lon="-2.36027">
        <ele>37.799999237061</ele>
        <time>2020-08-09T08:03:00.000Z</time>
      </trkpt>
      <trkpt lat="47.31427" lon="-2.36061">
        <ele>38.200000762939</ele>
        <time>2020-08-09T08:03:05.000Z</time>
      </trkpt>
      <trkpt lat="47.3143" lon="-2.36068">
        <ele>38.599998474121</ele>
        <time>2020-08-09T08:03:06.000Z</time>
      </trkpt>
      <trkpt lat="47.31432" lon="-2.36077">
        <ele>39.200000762939</ele>
        <time>2020-08-09T08:03:07.000Z</time>
      </trkpt>
      <trkpt lat="47.31435" lon="-2.36084">
        <ele>39.599998474121</ele>
        <time>2020-08-09T08:03:08.000Z</time>
      </trkpt>
      <trkpt lat="47.31437" lon="-2.36091">
        <ele>40</ele>
        <time>2020-08-09T08:03:09.000Z</time>
      </trkpt>
      <trkpt lat="47.3144" lon="-2.36097">
        <ele>40</ele>
        <time>2020-08-09T08:03:10.000Z</time>
      </trkpt>
      <trkpt lat="47.31447" lon="-2.36113">
        <ele>40</ele>
        <time>2020-08-09T08:03:13.000Z</time>
      </trkpt>
      <trkpt lat="47.31459" lon="-2.36144">
        <ele>40</ele>
        <time>2020-08-09T08:03:19.000Z</time>
      </trkpt>
      <trkpt lat="47.31464" lon="-2.36161">
        <ele>40</ele>
        <time>2020-08-09T08:03:24.000Z</time>
      </trkpt>
      <trkpt lat="47.31469" lon="-2.3617">
        <ele>40</ele>
        <time>2020-08-09T08:03:30.000Z</time>
      </trkpt>
      <trkpt lat="47.3147" lon="-2.36169">
        <ele>40</ele>
        <time>2020-08-09T08:03:52.000Z</time>
      </trkpt>
      <trkpt lat="47.31477" lon="-2.36161">
        <ele>40</ele>
        <time>2020-08-09T08:03:57.000Z</time>
      </trkpt>
      <trkpt lat="47.31493" lon="-2.36143">
        <ele>40</ele>
        <time>2020-08-09T08:04:02.000Z</time>
      </trkpt>
      <trkpt lat="47.31518" lon="-2.36112">
        <ele>40</ele>
        <time>2020-08-09T08:04:08.000Z</time>
      </trkpt>
      <trkpt lat="47.31548" lon="-2.36079">
        <ele>40</ele>
        <time>2020-08-09T08:04:15.000Z</time>
      </trkpt>
      <trkpt lat="47.31552" lon="-2.36075">
        <ele>40</ele>
        <time>2020-08-09T08:04:16.000Z</time>
      </trkpt>
      <trkpt lat="47.31564" lon="-2.36067">
        <ele>40</ele>
        <time>2020-08-09T08:04:19.000Z</time>
      </trkpt>
      <trkpt lat="47.31574" lon="-2.3606">
        <ele>40</ele>
        <time>2020-08-09T08:04:21.000Z</time>
      </trkpt>
      <trkpt lat="47.31589" lon="-2.36044">
        <ele>40</ele>
        <time>2020-08-09T08:04:24.000Z</time>
      </trkpt>
      <trkpt lat="47.31619" lon="-2.36014">
        <ele>40</ele>
        <time>2020-08-09T08:04:29.000Z</time>
      </trkpt>
      <trkpt lat="47.31625" lon="-2.36009">
        <ele>40</ele>
        <time>2020-08-09T08:04:30.000Z</time>
      </trkpt>
      <trkpt lat="47.3164" lon="-2.35993">
        <ele>40</ele>
        <time>2020-08-09T08:04:33.000Z</time>
      </trkpt>
      <trkpt lat="47.31644" lon="-2.35987">
        <ele>40</ele>
        <time>2020-08-09T08:04:34.000Z</time>
      </trkpt>
      <trkpt lat="47.31649" lon="-2.35983">
        <ele>40</ele>
        <time>2020-08-09T08:04:35.000Z</time>
      </trkpt>
      <trkpt lat="47.31666" lon="-2.35972">
        <ele>40</ele>
        <time>2020-08-09T08:04:38.000Z</time>
      </trkpt>
      <trkpt lat="47.31707" lon="-2.35944">
        <ele>40</ele>
        <time>2020-08-09T08:04:44.000Z</time>
      </trkpt>
      <trkpt lat="47.31728" lon="-2.35931">
        <ele>39.599998474121</ele>
        <time>2020-08-09T08:04:47.000Z</time>
      </trkpt>
      <trkpt lat="47.31735" lon="-2.35926">
        <ele>39.200000762939</ele>
        <time>2020-08-09T08:04:48.000Z</time>
      </trkpt>
      <trkpt lat="47.31742" lon="-2.35922">
        <ele>38.599998474121</ele>
        <time>2020-08-09T08:04:49.000Z</time>
      </trkpt>
      <trkpt lat="47.31748" lon="-2.35918">
        <ele>38.200000762939</ele>
        <time>2020-08-09T08:04:50.000Z</time>
      </trkpt>
      <trkpt lat="47.31755" lon="-2.35915">
        <ele>37.799999237061</ele>
        <time>2020-08-09T08:04:51.000Z</time>
      </trkpt>
      <trkpt lat="47.31761" lon="-2.35912">
        <ele>37.400001525879</ele>
        <time>2020-08-09T08:04:52.000Z</time>
      </trkpt>
      <trkpt lat="47.31767" lon="-2.35909">
        <ele>37</ele>
        <time>2020-08-09T08:04:53.000Z</time>
      </trkpt>
      <trkpt lat="47.31772" lon="-2.35905">
        <ele>36.599998474121</ele>
        <time>2020-08-09T08:04:54.000Z</time>
      </trkpt>
      <trkpt lat="47.31778" lon="-2.35901">
        <ele>36</ele>
        <time>2020-08-09T08:04:55.000Z</time>
      </trkpt>
      <trkpt lat="47.31784" lon="-2.35897">
        <ele>35.599998474121</ele>
        <time>2020-08-09T08:04:56.000Z</time>
      </trkpt>
      <trkpt lat="47.31794" lon="-2.3589">
        <ele>35.599998474121</ele>
        <time>2020-08-09T08:04:58.000Z</time>
      </trkpt>
      <trkpt lat="47.31814" lon="-2.35881">
        <ele>35.599998474121</ele>
        <time>2020-08-09T08:05:02.000Z</time>
      </trkpt>
      <trkpt lat="47.31818" lon="-2.35878">
        <ele>35.599998474121</ele>
        <time>2020-08-09T08:05:03.000Z</time>
      </trkpt>
      <trkpt lat="47.31821" lon="-2.35873">
        <ele>35.599998474121</ele>
        <time>2020-08-09T08:05:04.000Z</time>
      </trkpt>
      <trkpt lat="47.31823" lon="-2.35861">
        <ele>35.599998474121</ele>
        <time>2020-08-09T08:05:06.000Z</time>
      </trkpt>
      <trkpt lat="47.31816" lon="-2.35837">
        <ele>35.599998474121</ele>
        <time>2020-08-09T08:05:10.000Z</time>
      </trkpt>
      <trkpt lat="47.31807" lon="-2.35826">
        <ele>35.599998474121</ele>
        <time>2020-08-09T08:05:13.000Z</time>
      </trkpt>
      <trkpt lat="47.31804" lon="-2.35823">
        <ele>35.599998474121</ele>
        <time>2020-08-09T08:05:14.000Z</time>
      </trkpt>
      <trkpt lat="47.31786" lon="-2.35797">
        <ele>35.599998474121</ele>
        <time>2020-08-09T08:05:20.000Z</time>
      </trkpt>
      <trkpt lat="47.31785" lon="-2.3579">
        <ele>35.599998474121</ele>
        <time>2020-08-09T08:05:21.000Z</time>
      </trkpt>
      <trkpt lat="47.31783" lon="-2.35768">
        <ele>35.599998474121</ele>
        <time>2020-08-09T08:05:24.000Z</time>
      </trkpt>
      <trkpt lat="47.31784" lon="-2.35734">
        <ele>34.799999237061</ele>
        <time>2020-08-09T08:05:28.000Z</time>
      </trkpt>
      <trkpt lat="47.31784" lon="-2.35725">
        <ele>34.400001525879</ele>
        <time>2020-08-09T08:05:29.000Z</time>
      </trkpt>
      <trkpt lat="47.31784" lon="-2.35716">
        <ele>33.799999237061</ele>
        <time>2020-08-09T08:05:30.000Z</time>
      </trkpt>
      <trkpt lat="47.31785" lon="-2.35707">
        <ele>33.400001525879</ele>
        <time>2020-08-09T08:05:31.000Z</time>
      </trkpt>
      <trkpt lat="47.31787" lon="-2.35661">
        <ele>33</ele>
        <time>2020-08-09T08:05:36.000Z</time>
      </trkpt>
      <trkpt lat="47.31789" lon="-2.35652">
        <ele>32.599998474121</ele>
        <time>2020-08-09T08:05:37.000Z</time>
      </trkpt>
      <trkpt lat="47.31792" lon="-2.35645">
        <ele>32.200000762939</ele>
        <time>2020-08-09T08:05:38.000Z</time>
      </trkpt>
      <trkpt lat="47.31794" lon="-2.35635">
        <ele>31.799999237061</ele>
        <time>2020-08-09T08:05:39.000Z</time>
      </trkpt>
      <trkpt lat="47.31796" lon="-2.35627">
        <ele>31.39999961853</ele>
        <time>2020-08-09T08:05:40.000Z</time>
      </trkpt>
      <trkpt lat="47.31801" lon="-2.35613">
        <ele>31.39999961853</ele>
        <time>2020-08-09T08:05:42.000Z</time>
      </trkpt>
      <trkpt lat="47.31812" lon="-2.35589">
        <ele>31.39999961853</ele>
        <time>2020-08-09T08:05:46.000Z</time>
      </trkpt>
      <trkpt lat="47.31817" lon="-2.35585">
        <ele>31.39999961853</ele>
        <time>2020-08-09T08:05:47.000Z</time>
      </trkpt>
      <trkpt lat="47.31821" lon="-2.3558">
        <ele>31.39999961853</ele>
        <time>2020-08-09T08:05:48.000Z</time>
      </trkpt>
      <trkpt lat="47.31826" lon="-2.35569">
        <ele>31</ele>
        <time>2020-08-09T08:05:50.000Z</time>
      </trkpt>
      <trkpt lat="47.31828" lon="-2.35562">
        <ele>30.60000038147</ele>
        <time>2020-08-09T08:05:51.000Z</time>
      </trkpt>
      <trkpt lat="47.31828" lon="-2.35556">
        <ele>29.60000038147</ele>
        <time>2020-08-09T08:05:52.000Z</time>
      </trkpt>
      <trkpt lat="47.31827" lon="-2.35549">
        <ele>29.200000762939</ele>
        <time>2020-08-09T08:05:53.000Z</time>
      </trkpt>
      <trkpt lat="47.31825" lon="-2.35538">
        <ele>29.200000762939</ele>
        <time>2020-08-09T08:05:55.000Z</time>
      </trkpt>
      <trkpt lat="47.31819" lon="-2.35513">
        <ele>29.200000762939</ele>
        <time>2020-08-09T08:05:59.000Z</time>
      </trkpt>
      <trkpt lat="47.31798" lon="-2.35465">
        <ele>29.200000762939</ele>
        <time>2020-08-09T08:06:07.000Z</time>
      </trkpt>
      <trkpt lat="47.31785" lon="-2.35441">
        <ele>29.200000762939</ele>
        <time>2020-08-09T08:06:12.000Z</time>
      </trkpt>
      <trkpt lat="47.31781" lon="-2.35434">
        <ele>29.60000038147</ele>
        <time>2020-08-09T08:06:13.000Z</time>
      </trkpt>
      <trkpt lat="47.31777" lon="-2.35428">
        <ele>30</ele>
        <time>2020-08-09T08:06:14.000Z</time>
      </trkpt>
      <trkpt lat="47.31774" lon="-2.35422">
        <ele>30.39999961853</ele>
        <time>2020-08-09T08:06:15.000Z</time>
      </trkpt>
      <trkpt lat="47.31771" lon="-2.35416">
        <ele>30.799999237061</ele>
        <time>2020-08-09T08:06:16.000Z</time>
      </trkpt>
      <trkpt lat="47.31768" lon="-2.35409">
        <ele>31.39999961853</ele>
        <time>2020-08-09T08:06:17.000Z</time>
      </trkpt>
      <trkpt lat="47.31758" lon="-2.35391">
        <ele>31.39999961853</ele>
        <time>2020-08-09T08:06:20.000Z</time>
      </trkpt>
      <trkpt lat="47.31755" lon="-2.3538">
        <ele>31.39999961853</ele>
        <time>2020-08-09T08:06:22.000Z</time>
      </trkpt>
      <trkpt lat="47.31758" lon="-2.3537">
        <ele>31.39999961853</ele>
        <time>2020-08-09T08:06:24.000Z</time>
      </trkpt>
      <trkpt lat="47.31762" lon="-2.35366">
        <ele>31.799999237061</ele>
        <time>2020-08-09T08:06:25.000Z</time>
      </trkpt>
      <trkpt lat="47.31764" lon="-2.3536">
        <ele>32.200000762939</ele>
        <time>2020-08-09T08:06:26.000Z</time>
      </trkpt>
      <trkpt lat="47.31766" lon="-2.35355">
        <ele>32.599998474121</ele>
        <time>2020-08-09T08:06:27.000Z</time>
      </trkpt>
      <trkpt lat="47.3177" lon="-2.35351">
        <ele>33</ele>
        <time>2020-08-09T08:06:28.000Z</time>
      </trkpt>
      <trkpt lat="47.31774" lon="-2.35347">
        <ele>33.400001525879</ele>
        <time>2020-08-09T08:06:29.000Z</time>
      </trkpt>
      <trkpt lat="47.31796" lon="-2.3533">
        <ele>33.400001525879</ele>
        <time>2020-08-09T08:06:33.000Z</time>
      </trkpt>
      <trkpt lat="47.31835" lon="-2.35305">
        <ele>33.400001525879</ele>
        <time>2020-08-09T08:06:39.000Z</time>
      </trkpt>
      <trkpt lat="47.31873" lon="-2.35276">
        <ele>33.400001525879</ele>
        <time>2020-08-09T08:06:44.000Z</time>
      </trkpt>
      <trkpt lat="47.31888" lon="-2.35262">
        <ele>32.799999237061</ele>
        <time>2020-08-09T08:06:46.000Z</time>
      </trkpt>
      <trkpt lat="47.31896" lon="-2.35255">
        <ele>32.400001525879</ele>
        <time>2020-08-09T08:06:47.000Z</time>
      </trkpt>
      <trkpt lat="47.31903" lon="-2.35248">
        <ele>32</ele>
        <time>2020-08-09T08:06:48.000Z</time>
      </trkpt>
      <trkpt lat="47.3191" lon="-2.35242">
        <ele>31.39999961853</ele>
        <time>2020-08-09T08:06:49.000Z</time>
      </trkpt>
      <trkpt lat="47.31917" lon="-2.35235">
        <ele>31</ele>
        <time>2020-08-09T08:06:50.000Z</time>
      </trkpt>
      <trkpt lat="47.31924" lon="-2.35229">
        <ele>31</ele>
        <time>2020-08-09T08:06:51.000Z</time>
      </trkpt>
      <trkpt lat="47.31944" lon="-2.35209">
        <ele>30.60000038147</ele>
        <time>2020-08-09T08:06:54.000Z</time>
      </trkpt>
      <trkpt lat="47.31951" lon="-2.35202">
        <ele>30.200000762939</ele>
        <time>2020-08-09T08:06:55.000Z</time>
      </trkpt>
      <trkpt lat="47.31957" lon="-2.35197">
        <ele>29.799999237061</ele>
        <time>2020-08-09T08:06:56.000Z</time>
      </trkpt>
      <trkpt lat="47.31963" lon="-2.35191">
        <ele>29.39999961853</ele>
        <time>2020-08-09T08:06:57.000Z</time>
      </trkpt>
      <trkpt lat="47.31969" lon="-2.35185">
        <ele>29</ele>
        <time>2020-08-09T08:06:58.000Z</time>
      </trkpt>
      <trkpt lat="47.31974" lon="-2.3518">
        <ele>29</ele>
        <time>2020-08-09T08:06:59.000Z</time>
      </trkpt>
      <trkpt lat="47.31995" lon="-2.35159">
        <ele>29</ele>
        <time>2020-08-09T08:07:03.000Z</time>
      </trkpt>
      <trkpt lat="47.32001" lon="-2.35154">
        <ele>29</ele>
        <time>2020-08-09T08:07:04.000Z</time>
      </trkpt>
      <trkpt lat="47.32015" lon="-2.35142">
        <ele>29</ele>
        <time>2020-08-09T08:07:07.000Z</time>
      </trkpt>
      <trkpt lat="47.3202" lon="-2.35138">
        <ele>28.60000038147</ele>
        <time>2020-08-09T08:07:08.000Z</time>
      </trkpt>
      <trkpt lat="47.32025" lon="-2.35134">
        <ele>28.200000762939</ele>
        <time>2020-08-09T08:07:09.000Z</time>
      </trkpt>
      <trkpt lat="47.32029" lon="-2.35127">
        <ele>27.799999237061</ele>
        <time>2020-08-09T08:07:10.000Z</time>
      </trkpt>
      <trkpt lat="47.32031" lon="-2.3512">
        <ele>27.39999961853</ele>
        <time>2020-08-09T08:07:11.000Z</time>
      </trkpt>
      <trkpt lat="47.32032" lon="-2.35113">
        <ele>27</ele>
        <time>2020-08-09T08:07:12.000Z</time>
      </trkpt>
      <trkpt lat="47.32031" lon="-2.35085">
        <ele>27</ele>
        <time>2020-08-09T08:07:16.000Z</time>
      </trkpt>
      <trkpt lat="47.32029" lon="-2.35079">
        <ele>27</ele>
        <time>2020-08-09T08:07:17.000Z</time>
      </trkpt>
      <trkpt lat="47.32031" lon="-2.35066">
        <ele>27</ele>
        <time>2020-08-09T08:07:20.000Z</time>
      </trkpt>
      <trkpt lat="47.32035" lon="-2.35052">
        <ele>27</ele>
        <time>2020-08-09T08:07:23.000Z</time>
      </trkpt>
      <trkpt lat="47.32035" lon="-2.35048">
        <ele>27</ele>
        <time>2020-08-09T08:07:25.000Z</time>
      </trkpt>
      <trkpt lat="47.32036" lon="-2.35047">
        <ele>27</ele>
        <time>2020-08-09T08:07:26.000Z</time>
      </trkpt>
      <trkpt lat="47.32042" lon="-2.35051">
        <ele>27</ele>
        <time>2020-08-09T08:08:18.000Z</time>
      </trkpt>
      <trkpt lat="47.32043" lon="-2.35056">
        <ele>27</ele>
        <time>2020-08-09T08:08:20.000Z</time>
      </trkpt>
      <trkpt lat="47.32048" lon="-2.35058">
        <ele>27</ele>
        <time>2020-08-09T08:08:23.000Z</time>
      </trkpt>
      <trkpt lat="47.32053" lon="-2.35059">
        <ele>27</ele>
        <time>2020-08-09T08:08:25.000Z</time>
      </trkpt>
      <trkpt lat="47.32065" lon="-2.3506">
        <ele>27</ele>
        <time>2020-08-09T08:08:30.000Z</time>
      </trkpt>
      <trkpt lat="47.32081" lon="-2.35061">
        <ele>27</ele>
        <time>2020-08-09T08:08:35.000Z</time>
      </trkpt>
      <trkpt lat="47.32108" lon="-2.35061">
        <ele>27</ele>
        <time>2020-08-09T08:08:42.000Z</time>
      </trkpt>
      <trkpt lat="47.32135" lon="-2.35058">
        <ele>27</ele>
        <time>2020-08-09T08:08:49.000Z</time>
      </trkpt>
      <trkpt lat="47.3217" lon="-2.35056">
        <ele>27</ele>
        <time>2020-08-09T08:08:57.000Z</time>
      </trkpt>
      <trkpt lat="47.32206" lon="-2.35055">
        <ele>27</ele>
        <time>2020-08-09T08:09:04.000Z</time>
      </trkpt>
      <trkpt lat="47.32234" lon="-2.35052">
        <ele>27.799999237061</ele>
        <time>2020-08-09T08:09:10.000Z</time>
      </trkpt>
      <trkpt lat="47.32239" lon="-2.35051">
        <ele>28.200000762939</ele>
        <time>2020-08-09T08:09:11.000Z</time>
      </trkpt>
      <trkpt lat="47.32244" lon="-2.3505">
        <ele>28.60000038147</ele>
        <time>2020-08-09T08:09:12.000Z</time>
      </trkpt>
      <trkpt lat="47.32248" lon="-2.35049">
        <ele>29</ele>
        <time>2020-08-09T08:09:13.000Z</time>
      </trkpt>
      <trkpt lat="47.32269" lon="-2.35046">
        <ele>29</ele>
        <time>2020-08-09T08:09:18.000Z</time>
      </trkpt>
      <trkpt lat="47.32302" lon="-2.35046">
        <ele>29.39999961853</ele>
        <time>2020-08-09T08:09:24.000Z</time>
      </trkpt>
      <trkpt lat="47.32308" lon="-2.35046">
        <ele>29.799999237061</ele>
        <time>2020-08-09T08:09:25.000Z</time>
      </trkpt>
      <trkpt lat="47.32314" lon="-2.35046">
        <ele>30.200000762939</ele>
        <time>2020-08-09T08:09:26.000Z</time>
      </trkpt>
      <trkpt lat="47.32319" lon="-2.35046">
        <ele>30.60000038147</ele>
        <time>2020-08-09T08:09:27.000Z</time>
      </trkpt>
      <trkpt lat="47.32324" lon="-2.35047">
        <ele>31</ele>
        <time>2020-08-09T08:09:28.000Z</time>
      </trkpt>
      <trkpt lat="47.32335" lon="-2.35047">
        <ele>31</ele>
        <time>2020-08-09T08:09:30.000Z</time>
      </trkpt>
      <trkpt lat="47.3237" lon="-2.35048">
        <ele>31</ele>
        <time>2020-08-09T08:09:37.000Z</time>
      </trkpt>
      <trkpt lat="47.32406" lon="-2.35045">
        <ele>31</ele>
        <time>2020-08-09T08:09:44.000Z</time>
      </trkpt>
      <trkpt lat="47.32435" lon="-2.3504">
        <ele>31</ele>
        <time>2020-08-09T08:09:50.000Z</time>
      </trkpt>
      <trkpt lat="47.32446" lon="-2.35038">
        <ele>31.39999961853</ele>
        <time>2020-08-09T08:09:52.000Z</time>
      </trkpt>
      <trkpt lat="47.32452" lon="-2.35037">
        <ele>31.799999237061</ele>
        <time>2020-08-09T08:09:53.000Z</time>
      </trkpt>
      <trkpt lat="47.32457" lon="-2.35035">
        <ele>32.200000762939</ele>
        <time>2020-08-09T08:09:54.000Z</time>
      </trkpt>
      <trkpt lat="47.32463" lon="-2.35034">
        <ele>32.599998474121</ele>
        <time>2020-08-09T08:09:55.000Z</time>
      </trkpt>
      <trkpt lat="47.32468" lon="-2.35033">
        <ele>33.200000762939</ele>
        <time>2020-08-09T08:09:56.000Z</time>
      </trkpt>
      <trkpt lat="47.32479" lon="-2.3503">
        <ele>33.200000762939</ele>
        <time>2020-08-09T08:09:58.000Z</time>
      </trkpt>
      <trkpt lat="47.32521" lon="-2.3502">
        <ele>33.200000762939</ele>
        <time>2020-08-09T08:10:06.000Z</time>
      </trkpt>
      <trkpt lat="47.32555" lon="-2.35006">
        <ele>33.200000762939</ele>
        <time>2020-08-09T08:10:13.000Z</time>
      </trkpt>
      <trkpt lat="47.32581" lon="-2.34996">
        <ele>32.599998474121</ele>
        <time>2020-08-09T08:10:18.000Z</time>
      </trkpt>
      <trkpt lat="47.32586" lon="-2.34994">
        <ele>32.200000762939</ele>
        <time>2020-08-09T08:10:19.000Z</time>
      </trkpt>
      <trkpt lat="47.32591" lon="-2.34991">
        <ele>31.799999237061</ele>
        <time>2020-08-09T08:10:20.000Z</time>
      </trkpt>
      <trkpt lat="47.32595" lon="-2.34989">
        <ele>31.39999961853</ele>
        <time>2020-08-09T08:10:21.000Z</time>
      </trkpt>
      <trkpt lat="47.32599" lon="-2.34987">
        <ele>31</ele>
        <time>2020-08-09T08:10:22.000Z</time>
      </trkpt>
      <trkpt lat="47.32619" lon="-2.34976">
        <ele>31</ele>
        <time>2020-08-09T08:10:26.000Z</time>
      </trkpt>
      <trkpt lat="47.32639" lon="-2.34967">
        <ele>31</ele>
        <time>2020-08-09T08:10:31.000Z</time>
      </trkpt>
      <trkpt lat="47.32652" lon="-2.34962">
        <ele>30.60000038147</ele>
        <time>2020-08-09T08:10:34.000Z</time>
      </trkpt>
      <trkpt lat="47.32655" lon="-2.3496">
        <ele>30.200000762939</ele>
        <time>2020-08-09T08:10:35.000Z</time>
      </trkpt>
      <trkpt lat="47.32658" lon="-2.34959">
        <ele>29.799999237061</ele>
        <time>2020-08-09T08:10:36.000Z</time>
      </trkpt>
      <trkpt lat="47.32661" lon="-2.34956">
        <ele>29.39999961853</ele>
        <time>2020-08-09T08:10:37.000Z</time>
      </trkpt>
      <trkpt lat="47.32664" lon="-2.34954">
        <ele>29</ele>
        <time>2020-08-09T08:10:38.000Z</time>
      </trkpt>
      <trkpt lat="47.32683" lon="-2.34937">
        <ele>29</ele>
        <time>2020-08-09T08:10:43.000Z</time>
      </trkpt>
      <trkpt lat="47.32709" lon="-2.34917">
        <ele>29</ele>
        <time>2020-08-09T08:10:48.000Z</time>
      </trkpt>
      <trkpt lat="47.32745" lon="-2.34891">
        <ele>29</ele>
        <time>2020-08-09T08:10:55.000Z</time>
      </trkpt>
      <trkpt lat="47.32791" lon="-2.34857">
        <ele>29</ele>
        <time>2020-08-09T08:11:03.000Z</time>
      </trkpt>
      <trkpt lat="47.32828" lon="-2.34828">
        <ele>29</ele>
        <time>2020-08-09T08:11:10.000Z</time>
      </trkpt>
      <trkpt lat="47.32853" lon="-2.34812">
        <ele>29</ele>
        <time>2020-08-09T08:11:15.000Z</time>
      </trkpt>
      <trkpt lat="47.32863" lon="-2.34802">
        <ele>29</ele>
        <time>2020-08-09T08:11:17.000Z</time>
      </trkpt>
      <trkpt lat="47.3288" lon="-2.34789">
        <ele>28.60000038147</ele>
        <time>2020-08-09T08:11:20.000Z</time>
      </trkpt>
      <trkpt lat="47.32886" lon="-2.34785">
        <ele>28</ele>
        <time>2020-08-09T08:11:21.000Z</time>
      </trkpt>
      <trkpt lat="47.32891" lon="-2.34783">
        <ele>27.60000038147</ele>
        <time>2020-08-09T08:11:22.000Z</time>
      </trkpt>
      <trkpt lat="47.32896" lon="-2.34782">
        <ele>27.200000762939</ele>
        <time>2020-08-09T08:11:23.000Z</time>
      </trkpt>
      <trkpt lat="47.329" lon="-2.34784">
        <ele>26.799999237061</ele>
        <time>2020-08-09T08:11:24.000Z</time>
      </trkpt>
      <trkpt lat="47.3291" lon="-2.34795">
        <ele>26.799999237061</ele>
        <time>2020-08-09T08:11:28.000Z</time>
      </trkpt>
      <trkpt lat="47.32913" lon="-2.34802">
        <ele>26.799999237061</ele>
        <time>2020-08-09T08:11:30.000Z</time>
      </trkpt>
      <trkpt lat="47.3292" lon="-2.34814">
        <ele>26.799999237061</ele>
        <time>2020-08-09T08:11:33.000Z</time>
      </trkpt>
      <trkpt lat="47.32935" lon="-2.34845">
        <ele>26.799999237061</ele>
        <time>2020-08-09T08:11:39.000Z</time>
      </trkpt>
      <trkpt lat="47.32947" lon="-2.34872">
        <ele>26.799999237061</ele>
        <time>2020-08-09T08:11:44.000Z</time>
      </trkpt>
      <trkpt lat="47.32963" lon="-2.34915">
        <ele>26.799999237061</ele>
        <time>2020-08-09T08:11:50.000Z</time>
      </trkpt>
      <trkpt lat="47.3297" lon="-2.3494">
        <ele>26.799999237061</ele>
        <time>2020-08-09T08:11:54.000Z</time>
      </trkpt>
      <trkpt lat="47.32972" lon="-2.34946">
        <ele>26.799999237061</ele>
        <time>2020-08-09T08:11:55.000Z</time>
      </trkpt>
      <trkpt lat="47.32974" lon="-2.34953">
        <ele>26.799999237061</ele>
        <time>2020-08-09T08:11:56.000Z</time>
      </trkpt>
      <trkpt lat="47.32985" lon="-2.34976">
        <ele>26.799999237061</ele>
        <time>2020-08-09T08:12:00.000Z</time>
      </trkpt>
      <trkpt lat="47.3299" lon="-2.34986">
        <ele>26.799999237061</ele>
        <time>2020-08-09T08:12:02.000Z</time>
      </trkpt>
      <trkpt lat="47.33001" lon="-2.35008">
        <ele>26.799999237061</ele>
        <time>2020-08-09T08:12:06.000Z</time>
      </trkpt>
      <trkpt lat="47.33005" lon="-2.35018">
        <ele>27.200000762939</ele>
        <time>2020-08-09T08:12:08.000Z</time>
      </trkpt>
      <trkpt lat="47.33007" lon="-2.35023">
        <ele>27.60000038147</ele>
        <time>2020-08-09T08:12:09.000Z</time>
      </trkpt>
      <trkpt lat="47.33008" lon="-2.35028">
        <ele>28</ele>
        <time>2020-08-09T08:12:10.000Z</time>
      </trkpt>
      <trkpt lat="47.33009" lon="-2.35033">
        <ele>28.39999961853</ele>
        <time>2020-08-09T08:12:11.000Z</time>
      </trkpt>
      <trkpt lat="47.33011" lon="-2.35039">
        <ele>28.799999237061</ele>
        <time>2020-08-09T08:12:12.000Z</time>
      </trkpt>
      <trkpt lat="47.33012" lon="-2.35044">
        <ele>28.799999237061</ele>
        <time>2020-08-09T08:12:13.000Z</time>
      </trkpt>
      <trkpt lat="47.33014" lon="-2.35086">
        <ele>28.799999237061</ele>
        <time>2020-08-09T08:12:20.000Z</time>
      </trkpt>
      <trkpt lat="47.33015" lon="-2.35131">
        <ele>28.799999237061</ele>
        <time>2020-08-09T08:12:27.000Z</time>
      </trkpt>
      <trkpt lat="47.33022" lon="-2.35162">
        <ele>28.799999237061</ele>
        <time>2020-08-09T08:12:33.000Z</time>
      </trkpt>
      <trkpt lat="47.33024" lon="-2.35172">
        <ele>28.799999237061</ele>
        <time>2020-08-09T08:12:37.000Z</time>
      </trkpt>
      <trkpt lat="47.33028" lon="-2.35175">
        <ele>28.799999237061</ele>
        <time>2020-08-09T08:13:30.000Z</time>
      </trkpt>
      <trkpt lat="47.33039" lon="-2.35167">
        <ele>28.799999237061</ele>
        <time>2020-08-09T08:13:35.000Z</time>
      </trkpt>
      <trkpt lat="47.33046" lon="-2.35155">
        <ele>28.799999237061</ele>
        <time>2020-08-09T08:13:38.000Z</time>
      </trkpt>
      <trkpt lat="47.33051" lon="-2.35145">
        <ele>28.799999237061</ele>
        <time>2020-08-09T08:13:40.000Z</time>
      </trkpt>
      <trkpt lat="47.33066" lon="-2.35125">
        <ele>28.799999237061</ele>
        <time>2020-08-09T08:13:45.000Z</time>
      </trkpt>
      <trkpt lat="47.33081" lon="-2.35104">
        <ele>28.799999237061</ele>
        <time>2020-08-09T08:13:50.000Z</time>
      </trkpt>
      <trkpt lat="47.33089" lon="-2.35094">
        <ele>28.799999237061</ele>
        <time>2020-08-09T08:13:52.000Z</time>
      </trkpt>
      <trkpt lat="47.33099" lon="-2.35084">
        <ele>28.799999237061</ele>
        <time>2020-08-09T08:13:55.000Z</time>
      </trkpt>
      <trkpt lat="47.33112" lon="-2.35061">
        <ele>28.799999237061</ele>
        <time>2020-08-09T08:14:00.000Z</time>
      </trkpt>
      <trkpt lat="47.33125" lon="-2.35043">
        <ele>28.799999237061</ele>
        <time>2020-08-09T08:14:05.000Z</time>
      </trkpt>
      <trkpt lat="47.33138" lon="-2.35021">
        <ele>28.799999237061</ele>
        <time>2020-08-09T08:14:10.000Z</time>
      </trkpt>
      <trkpt lat="47.33148" lon="-2.35008">
        <ele>28.799999237061</ele>
        <time>2020-08-09T08:14:14.000Z</time>
      </trkpt>
      <trkpt lat="47.3316" lon="-2.35013">
        <ele>28.799999237061</ele>
        <time>2020-08-09T08:14:18.000Z</time>
      </trkpt>
      <trkpt lat="47.33174" lon="-2.35017">
        <ele>28.799999237061</ele>
        <time>2020-08-09T08:14:23.000Z</time>
      </trkpt>
      <trkpt lat="47.33178" lon="-2.35014">
        <ele>28.799999237061</ele>
        <time>2020-08-09T08:14:25.000Z</time>
      </trkpt>
      <trkpt lat="47.33186" lon="-2.35002">
        <ele>28.799999237061</ele>
        <time>2020-08-09T08:14:28.000Z</time>
      </trkpt>
      <trkpt lat="47.33189" lon="-2.34996">
        <ele>28.799999237061</ele>
        <time>2020-08-09T08:14:29.000Z</time>
      </trkpt>
      <trkpt lat="47.33203" lon="-2.34977">
        <ele>28.799999237061</ele>
        <time>2020-08-09T08:14:33.000Z</time>
      </trkpt>
      <trkpt lat="47.33212" lon="-2.34969">
        <ele>28.799999237061</ele>
        <time>2020-08-09T08:14:35.000Z</time>
      </trkpt>
      <trkpt lat="47.33226" lon="-2.3496">
        <ele>28.799999237061</ele>
        <time>2020-08-09T08:14:38.000Z</time>
      </trkpt>
      <trkpt lat="47.33247" lon="-2.34952">
        <ele>28.799999237061</ele>
        <time>2020-08-09T08:14:43.000Z</time>
      </trkpt>
      <trkpt lat="47.33274" lon="-2.34945">
        <ele>28.799999237061</ele>
        <time>2020-08-09T08:14:49.000Z</time>
      </trkpt>
      <trkpt lat="47.33305" lon="-2.34945">
        <ele>28.799999237061</ele>
        <time>2020-08-09T08:14:57.000Z</time>
      </trkpt>
      <trkpt lat="47.33314" lon="-2.34938">
        <ele>28.799999237061</ele>
        <time>2020-08-09T08:15:01.000Z</time>
      </trkpt>
      <trkpt lat="47.33316" lon="-2.34938">
        <ele>28.799999237061</ele>
        <time>2020-08-09T08:15:02.000Z</time>
      </trkpt>
      <trkpt lat="47.33326" lon="-2.34939">
        <ele>28.799999237061</ele>
        <time>2020-08-09T08:15:06.000Z</time>
      </trkpt>
      <trkpt lat="47.33344" lon="-2.34942">
        <ele>28.799999237061</ele>
        <time>2020-08-09T08:15:11.000Z</time>
      </trkpt>
      <trkpt lat="47.33363" lon="-2.34936">
        <ele>28.799999237061</ele>
        <time>2020-08-09T08:15:17.000Z</time>
      </trkpt>
      <trkpt lat="47.33381" lon="-2.34934">
        <ele>28.799999237061</ele>
        <time>2020-08-09T08:15:21.000Z</time>
      </trkpt>
      <trkpt lat="47.3341" lon="-2.34924">
        <ele>29.200000762939</ele>
        <time>2020-08-09T08:15:28.000Z</time>
      </trkpt>
      <trkpt lat="47.33415" lon="-2.34922">
        <ele>29.60000038147</ele>
        <time>2020-08-09T08:15:29.000Z</time>
      </trkpt>
      <trkpt lat="47.33419" lon="-2.3492">
        <ele>30</ele>
        <time>2020-08-09T08:15:30.000Z</time>
      </trkpt>
      <trkpt lat="47.33423" lon="-2.34918">
        <ele>30.60000038147</ele>
        <time>2020-08-09T08:15:31.000Z</time>
      </trkpt>
      <trkpt lat="47.33428" lon="-2.34916">
        <ele>31</ele>
        <time>2020-08-09T08:15:32.000Z</time>
      </trkpt>
      <trkpt lat="47.33448" lon="-2.34907">
        <ele>31</ele>
        <time>2020-08-09T08:15:37.000Z</time>
      </trkpt>
      <trkpt lat="47.33476" lon="-2.34899">
        <ele>31</ele>
        <time>2020-08-09T08:15:44.000Z</time>
      </trkpt>
      <trkpt lat="47.335" lon="-2.34898">
        <ele>31</ele>
        <time>2020-08-09T08:15:50.000Z</time>
      </trkpt>
      <trkpt lat="47.33527" lon="-2.3491">
        <ele>31</ele>
        <time>2020-08-09T08:15:55.000Z</time>
      </trkpt>
      <trkpt lat="47.33556" lon="-2.3492">
        <ele>31</ele>
        <time>2020-08-09T08:16:01.000Z</time>
      </trkpt>
      <trkpt lat="47.33589" lon="-2.34932">
        <ele>31</ele>
        <time>2020-08-09T08:16:07.000Z</time>
      </trkpt>
      <trkpt lat="47.33617" lon="-2.34946">
        <ele>31</ele>
        <time>2020-08-09T08:16:12.000Z</time>
      </trkpt>
      <trkpt lat="47.33626" lon="-2.34951">
        <ele>30.39999961853</ele>
        <time>2020-08-09T08:16:14.000Z</time>
      </trkpt>
      <trkpt lat="47.3363" lon="-2.34954">
        <ele>30</ele>
        <time>2020-08-09T08:16:15.000Z</time>
      </trkpt>
      <trkpt lat="47.33635" lon="-2.34957">
        <ele>29.60000038147</ele>
        <time>2020-08-09T08:16:16.000Z</time>
      </trkpt>
      <trkpt lat="47.33639" lon="-2.3496">
        <ele>29.200000762939</ele>
        <time>2020-08-09T08:16:17.000Z</time>
      </trkpt>
      <trkpt lat="47.33643" lon="-2.34962">
        <ele>28.799999237061</ele>
        <time>2020-08-09T08:16:18.000Z</time>
      </trkpt>
      <trkpt lat="47.33648" lon="-2.34962">
        <ele>28.799999237061</ele>
        <time>2020-08-09T08:16:19.000Z</time>
      </trkpt>
      <trkpt lat="47.33662" lon="-2.34961">
        <ele>28.799999237061</ele>
        <time>2020-08-09T08:16:22.000Z</time>
      </trkpt>
      <trkpt lat="47.33666" lon="-2.34963">
        <ele>28.799999237061</ele>
        <time>2020-08-09T08:16:23.000Z</time>
      </trkpt>
      <trkpt lat="47.33669" lon="-2.34964">
        <ele>28.39999961853</ele>
        <time>2020-08-09T08:16:24.000Z</time>
      </trkpt>
      <trkpt lat="47.33671" lon="-2.34965">
        <ele>28</ele>
        <time>2020-08-09T08:16:25.000Z</time>
      </trkpt>
      <trkpt lat="47.33673" lon="-2.34966">
        <ele>27.60000038147</ele>
        <time>2020-08-09T08:16:26.000Z</time>
      </trkpt>
      <trkpt lat="47.33673" lon="-2.34966">
        <ele>27.200000762939</ele>
        <time>2020-08-09T08:16:27.000Z</time>
      </trkpt>
      <trkpt lat="47.33682" lon="-2.34975">
        <ele>26.799999237061</ele>
        <time>2020-08-09T08:17:15.000Z</time>
      </trkpt>
      <trkpt lat="47.33688" lon="-2.34982">
        <ele>26.799999237061</ele>
        <time>2020-08-09T08:17:17.000Z</time>
      </trkpt>
      <trkpt lat="47.33706" lon="-2.35006">
        <ele>26.799999237061</ele>
        <time>2020-08-09T08:17:22.000Z</time>
      </trkpt>
      <trkpt lat="47.33734" lon="-2.35047">
        <ele>26.799999237061</ele>
        <time>2020-08-09T08:17:29.000Z</time>
      </trkpt>
      <trkpt lat="47.33743" lon="-2.35057">
        <ele>26.799999237061</ele>
        <time>2020-08-09T08:17:31.000Z</time>
      </trkpt>
      <trkpt lat="47.33759" lon="-2.3507">
        <ele>26.799999237061</ele>
        <time>2020-08-09T08:17:34.000Z</time>
      </trkpt>
      <trkpt lat="47.33797" lon="-2.35092">
        <ele>26.799999237061</ele>
        <time>2020-08-09T08:17:41.000Z</time>
      </trkpt>
      <trkpt lat="47.3383" lon="-2.35114">
        <ele>26.799999237061</ele>
        <time>2020-08-09T08:17:48.000Z</time>
      </trkpt>
      <trkpt lat="47.3385" lon="-2.35127">
        <ele>27.200000762939</ele>
        <time>2020-08-09T08:17:52.000Z</time>
      </trkpt>
      <trkpt lat="47.33855" lon="-2.35131">
        <ele>27.60000038147</ele>
        <time>2020-08-09T08:17:53.000Z</time>
      </trkpt>
      <trkpt lat="47.3386" lon="-2.35135">
        <ele>28</ele>
        <time>2020-08-09T08:17:54.000Z</time>
      </trkpt>
      <trkpt lat="47.33864" lon="-2.35139">
        <ele>28.39999961853</ele>
        <time>2020-08-09T08:17:55.000Z</time>
      </trkpt>
      <trkpt lat="47.33869" lon="-2.35143">
        <ele>29</ele>
        <time>2020-08-09T08:17:56.000Z</time>
      </trkpt>
      <trkpt lat="47.3389" lon="-2.35161">
        <ele>29</ele>
        <time>2020-08-09T08:18:01.000Z</time>
      </trkpt>
      <trkpt lat="47.33919" lon="-2.35186">
        <ele>29</ele>
        <time>2020-08-09T08:18:08.000Z</time>
      </trkpt>
      <trkpt lat="47.33939" lon="-2.35212">
        <ele>29</ele>
        <time>2020-08-09T08:18:14.000Z</time>
      </trkpt>
      <trkpt lat="47.33942" lon="-2.35218">
        <ele>29</ele>
        <time>2020-08-09T08:18:15.000Z</time>
      </trkpt>
      <trkpt lat="47.33944" lon="-2.35224">
        <ele>29</ele>
        <time>2020-08-09T08:18:16.000Z</time>
      </trkpt>
      <trkpt lat="47.33954" lon="-2.35256">
        <ele>29</ele>
        <time>2020-08-09T08:18:21.000Z</time>
      </trkpt>
      <trkpt lat="47.3396" lon="-2.35268">
        <ele>29</ele>
        <time>2020-08-09T08:18:23.000Z</time>
      </trkpt>
      <trkpt lat="47.33969" lon="-2.35279">
        <ele>29</ele>
        <time>2020-08-09T08:18:25.000Z</time>
      </trkpt>
      <trkpt lat="47.33998" lon="-2.35308">
        <ele>29</ele>
        <time>2020-08-09T08:18:30.000Z</time>
      </trkpt>
      <trkpt lat="47.34004" lon="-2.35313">
        <ele>28.60000038147</ele>
        <time>2020-08-09T08:18:31.000Z</time>
      </trkpt>
      <trkpt lat="47.34011" lon="-2.35319">
        <ele>28</ele>
        <time>2020-08-09T08:18:32.000Z</time>
      </trkpt>
      <trkpt lat="47.34016" lon="-2.35324">
        <ele>27.60000038147</ele>
        <time>2020-08-09T08:18:33.000Z</time>
      </trkpt>
      <trkpt lat="47.34022" lon="-2.35329">
        <ele>27.200000762939</ele>
        <time>2020-08-09T08:18:34.000Z</time>
      </trkpt>
      <trkpt lat="47.34028" lon="-2.35334">
        <ele>26.799999237061</ele>
        <time>2020-08-09T08:18:35.000Z</time>
      </trkpt>
      <trkpt lat="47.34033" lon="-2.35339">
        <ele>26.799999237061</ele>
        <time>2020-08-09T08:18:36.000Z</time>
      </trkpt>
      <trkpt lat="47.34038" lon="-2.35344">
        <ele>26.799999237061</ele>
        <time>2020-08-09T08:18:37.000Z</time>
      </trkpt>
      <trkpt lat="47.34057" lon="-2.35368">
        <ele>26.799999237061</ele>
        <time>2020-08-09T08:18:41.000Z</time>
      </trkpt>
      <trkpt lat="47.34064" lon="-2.35383">
        <ele>26.799999237061</ele>
        <time>2020-08-09T08:18:43.000Z</time>
      </trkpt>
      <trkpt lat="47.34071" lon="-2.35398">
        <ele>26.39999961853</ele>
        <time>2020-08-09T08:18:45.000Z</time>
      </trkpt>
      <trkpt lat="47.34075" lon="-2.35406">
        <ele>26</ele>
        <time>2020-08-09T08:18:46.000Z</time>
      </trkpt>
      <trkpt lat="47.34079" lon="-2.35414">
        <ele>25.60000038147</ele>
        <time>2020-08-09T08:18:47.000Z</time>
      </trkpt>
      <trkpt lat="47.34082" lon="-2.35422">
        <ele>25.200000762939</ele>
        <time>2020-08-09T08:18:48.000Z</time>
      </trkpt>
      <trkpt lat="47.34084" lon="-2.35429">
        <ele>24.799999237061</ele>
        <time>2020-08-09T08:18:49.000Z</time>
      </trkpt>
      <trkpt lat="47.34089" lon="-2.35444">
        <ele>24.799999237061</ele>
        <time>2020-08-09T08:18:51.000Z</time>
      </trkpt>
      <trkpt lat="47.3411" lon="-2.35497">
        <ele>24.799999237061</ele>
        <time>2020-08-09T08:18:59.000Z</time>
      </trkpt>
      <trkpt lat="47.34126" lon="-2.35547">
        <ele>24.799999237061</ele>
        <time>2020-08-09T08:19:06.000Z</time>
      </trkpt>
      <trkpt lat="47.34142" lon="-2.35594">
        <ele>24.799999237061</ele>
        <time>2020-08-09T08:19:13.000Z</time>
      </trkpt>
      <trkpt lat="47.34154" lon="-2.35615">
        <ele>24.799999237061</ele>
        <time>2020-08-09T08:19:17.000Z</time>
      </trkpt>
      <trkpt lat="47.34159" lon="-2.35626">
        <ele>24.799999237061</ele>
        <time>2020-08-09T08:19:19.000Z</time>
      </trkpt>
      <trkpt lat="47.34181" lon="-2.35663">
        <ele>24.799999237061</ele>
        <time>2020-08-09T08:19:26.000Z</time>
      </trkpt>
      <trkpt lat="47.34191" lon="-2.3568">
        <ele>24.39999961853</ele>
        <time>2020-08-09T08:19:29.000Z</time>
      </trkpt>
      <trkpt lat="47.34195" lon="-2.35685">
        <ele>24</ele>
        <time>2020-08-09T08:19:30.000Z</time>
      </trkpt>
      <trkpt lat="47.34198" lon="-2.35689">
        <ele>23.60000038147</ele>
        <time>2020-08-09T08:19:31.000Z</time>
      </trkpt>
      <trkpt lat="47.342" lon="-2.35692">
        <ele>23</ele>
        <time>2020-08-09T08:19:32.000Z</time>
      </trkpt>
      <trkpt lat="47.34202" lon="-2.35693">
        <ele>22.60000038147</ele>
        <time>2020-08-09T08:19:33.000Z</time>
      </trkpt>
      <trkpt lat="47.34203" lon="-2.35695">
        <ele>22</ele>
        <time>2020-08-09T08:19:34.000Z</time>
      </trkpt>
      <trkpt lat="47.34205" lon="-2.35697">
        <ele>21.60000038147</ele>
        <time>2020-08-09T08:19:35.000Z</time>
      </trkpt>
      <trkpt lat="47.34206" lon="-2.35699">
        <ele>21</ele>
        <time>2020-08-09T08:19:36.000Z</time>
      </trkpt>
      <trkpt lat="47.34207" lon="-2.35701">
        <ele>20.60000038147</ele>
        <time>2020-08-09T08:19:37.000Z</time>
      </trkpt>
      <trkpt lat="47.34208" lon="-2.35709">
        <ele>20.60000038147</ele>
        <time>2020-08-09T08:19:41.000Z</time>
      </trkpt>
      <trkpt lat="47.34208" lon="-2.35713">
        <ele>20.200000762939</ele>
        <time>2020-08-09T08:19:44.000Z</time>
      </trkpt>
      <trkpt lat="47.34209" lon="-2.35715">
        <ele>19.799999237061</ele>
        <time>2020-08-09T08:19:45.000Z</time>
      </trkpt>
      <trkpt lat="47.34209" lon="-2.35718">
        <ele>19.39999961853</ele>
        <time>2020-08-09T08:19:46.000Z</time>
      </trkpt>
      <trkpt lat="47.3421" lon="-2.3572">
        <ele>19</ele>
        <time>2020-08-09T08:19:47.000Z</time>
      </trkpt>
      <trkpt lat="47.34211" lon="-2.35723">
        <ele>18.60000038147</ele>
        <time>2020-08-09T08:19:48.000Z</time>
      </trkpt>
      <trkpt lat="47.34215" lon="-2.35728">
        <ele>18</ele>
        <time>2020-08-09T08:19:50.000Z</time>
      </trkpt>
      <trkpt lat="47.34218" lon="-2.35731">
        <ele>17.60000038147</ele>
        <time>2020-08-09T08:19:51.000Z</time>
      </trkpt>
      <trkpt lat="47.34221" lon="-2.35738">
        <ele>16.60000038147</ele>
        <time>2020-08-09T08:19:52.000Z</time>
      </trkpt>
      <trkpt lat="47.34223" lon="-2.35745">
        <ele>16.200000762939</ele>
        <time>2020-08-09T08:19:53.000Z</time>
      </trkpt>
      <trkpt lat="47.34228" lon="-2.35768">
        <ele>16.200000762939</ele>
        <time>2020-08-09T08:19:56.000Z</time>
      </trkpt>
      <trkpt lat="47.34235" lon="-2.35791">
        <ele>16.200000762939</ele>
        <time>2020-08-09T08:19:59.000Z</time>
      </trkpt>
      <trkpt lat="47.34242" lon="-2.35813">
        <ele>16.200000762939</ele>
        <time>2020-08-09T08:20:02.000Z</time>
      </trkpt>
      <trkpt lat="47.3425" lon="-2.35851">
        <ele>16.200000762939</ele>
        <time>2020-08-09T08:20:07.000Z</time>
      </trkpt>
      <trkpt lat="47.34251" lon="-2.35859">
        <ele>16.200000762939</ele>
        <time>2020-08-09T08:20:08.000Z</time>
      </trkpt>
      <trkpt lat="47.34251" lon="-2.35867">
        <ele>16.200000762939</ele>
        <time>2020-08-09T08:20:09.000Z</time>
      </trkpt>
      <trkpt lat="47.34248" lon="-2.35896">
        <ele>16.200000762939</ele>
        <time>2020-08-09T08:20:13.000Z</time>
      </trkpt>
      <trkpt lat="47.34244" lon="-2.35944">
        <ele>16.200000762939</ele>
        <time>2020-08-09T08:20:21.000Z</time>
      </trkpt>
      <trkpt lat="47.3425" lon="-2.35949">
        <ele>16.200000762939</ele>
        <time>2020-08-09T08:20:23.000Z</time>
      </trkpt>
      <trkpt lat="47.34254" lon="-2.3595">
        <ele>16.200000762939</ele>
        <time>2020-08-09T08:20:24.000Z</time>
      </trkpt>
      <trkpt lat="47.34262" lon="-2.35951">
        <ele>16.200000762939</ele>
        <time>2020-08-09T08:20:26.000Z</time>
      </trkpt>
      <trkpt lat="47.34271" lon="-2.3595">
        <ele>16.200000762939</ele>
        <time>2020-08-09T08:20:28.000Z</time>
      </trkpt>
      <trkpt lat="47.34275" lon="-2.3595">
        <ele>16.200000762939</ele>
        <time>2020-08-09T08:20:29.000Z</time>
      </trkpt>
      <trkpt lat="47.3428" lon="-2.3595">
        <ele>16.60000038147</ele>
        <time>2020-08-09T08:20:30.000Z</time>
      </trkpt>
      <trkpt lat="47.34285" lon="-2.3595">
        <ele>17</ele>
        <time>2020-08-09T08:20:31.000Z</time>
      </trkpt>
      <trkpt lat="47.34289" lon="-2.3595">
        <ele>17.39999961853</ele>
        <time>2020-08-09T08:20:32.000Z</time>
      </trkpt>
      <trkpt lat="47.34294" lon="-2.3595">
        <ele>17.799999237061</ele>
        <time>2020-08-09T08:20:33.000Z</time>
      </trkpt>
      <trkpt lat="47.34298" lon="-2.35951">
        <ele>18.200000762939</ele>
        <time>2020-08-09T08:20:34.000Z</time>
      </trkpt>
      <trkpt lat="47.34307" lon="-2.35954">
        <ele>18.60000038147</ele>
        <time>2020-08-09T08:20:36.000Z</time>
      </trkpt>
      <trkpt lat="47.34311" lon="-2.35955">
        <ele>19</ele>
        <time>2020-08-09T08:20:37.000Z</time>
      </trkpt>
      <trkpt lat="47.34316" lon="-2.35955">
        <ele>19.39999961853</ele>
        <time>2020-08-09T08:20:38.000Z</time>
      </trkpt>
      <trkpt lat="47.3432" lon="-2.35957">
        <ele>19.799999237061</ele>
        <time>2020-08-09T08:20:39.000Z</time>
      </trkpt>
      <trkpt lat="47.34324" lon="-2.35958">
        <ele>20.39999961853</ele>
        <time>2020-08-09T08:20:40.000Z</time>
      </trkpt>
      <trkpt lat="47.34356" lon="-2.35974">
        <ele>20.39999961853</ele>
        <time>2020-08-09T08:20:47.000Z</time>
      </trkpt>
      <trkpt lat="47.3436" lon="-2.35976">
        <ele>20.799999237061</ele>
        <time>2020-08-09T08:20:48.000Z</time>
      </trkpt>
      <trkpt lat="47.34363" lon="-2.35977">
        <ele>21.200000762939</ele>
        <time>2020-08-09T08:20:49.000Z</time>
      </trkpt>
      <trkpt lat="47.34368" lon="-2.35979">
        <ele>21.60000038147</ele>
        <time>2020-08-09T08:20:50.000Z</time>
      </trkpt>
      <trkpt lat="47.34372" lon="-2.3598">
        <ele>22</ele>
        <time>2020-08-09T08:20:51.000Z</time>
      </trkpt>
      <trkpt lat="47.34375" lon="-2.35982">
        <ele>22.39999961853</ele>
        <time>2020-08-09T08:20:52.000Z</time>
      </trkpt>
      <trkpt lat="47.34401" lon="-2.35992">
        <ele>22.39999961853</ele>
        <time>2020-08-09T08:20:59.000Z</time>
      </trkpt>
      <trkpt lat="47.3441" lon="-2.35992">
        <ele>22.39999961853</ele>
        <time>2020-08-09T08:21:01.000Z</time>
      </trkpt>
      <trkpt lat="47.34419" lon="-2.35988">
        <ele>22.39999961853</ele>
        <time>2020-08-09T08:21:03.000Z</time>
      </trkpt>
      <trkpt lat="47.34426" lon="-2.35981">
        <ele>22.39999961853</ele>
        <time>2020-08-09T08:21:05.000Z</time>
      </trkpt>
      <trkpt lat="47.34446" lon="-2.35964">
        <ele>22.39999961853</ele>
        <time>2020-08-09T08:21:10.000Z</time>
      </trkpt>
      <trkpt lat="47.34472" lon="-2.35944">
        <ele>22</ele>
        <time>2020-08-09T08:21:15.000Z</time>
      </trkpt>
      <trkpt lat="47.34477" lon="-2.3594">
        <ele>21.39999961853</ele>
        <time>2020-08-09T08:21:16.000Z</time>
      </trkpt>
      <trkpt lat="47.34483" lon="-2.35937">
        <ele>21</ele>
        <time>2020-08-09T08:21:17.000Z</time>
      </trkpt>
      <trkpt lat="47.34489" lon="-2.35934">
        <ele>20.60000038147</ele>
        <time>2020-08-09T08:21:18.000Z</time>
      </trkpt>
      <trkpt lat="47.34495" lon="-2.35931">
        <ele>20.200000762939</ele>
        <time>2020-08-09T08:21:19.000Z</time>
      </trkpt>
      <trkpt lat="47.34514" lon="-2.35924">
        <ele>20.200000762939</ele>
        <time>2020-08-09T08:21:22.000Z</time>
      </trkpt>
      <trkpt lat="47.34526" lon="-2.35919">
        <ele>19.799999237061</ele>
        <time>2020-08-09T08:21:24.000Z</time>
      </trkpt>
      <trkpt lat="47.34532" lon="-2.35916">
        <ele>19.39999961853</ele>
        <time>2020-08-09T08:21:25.000Z</time>
      </trkpt>
      <trkpt lat="47.34538" lon="-2.35914">
        <ele>19</ele>
        <time>2020-08-09T08:21:26.000Z</time>
      </trkpt>
      <trkpt lat="47.34544" lon="-2.35912">
        <ele>18.60000038147</ele>
        <time>2020-08-09T08:21:27.000Z</time>
      </trkpt>
      <trkpt lat="47.3455" lon="-2.35909">
        <ele>18.200000762939</ele>
        <time>2020-08-09T08:21:28.000Z</time>
      </trkpt>
      <trkpt lat="47.34561" lon="-2.35904">
        <ele>18.200000762939</ele>
        <time>2020-08-09T08:21:30.000Z</time>
      </trkpt>
      <trkpt lat="47.34592" lon="-2.35879">
        <ele>18.200000762939</ele>
        <time>2020-08-09T08:21:36.000Z</time>
      </trkpt>
      <trkpt lat="47.34603" lon="-2.35871">
        <ele>17.799999237061</ele>
        <time>2020-08-09T08:21:38.000Z</time>
      </trkpt>
      <trkpt lat="47.34608" lon="-2.35867">
        <ele>17.39999961853</ele>
        <time>2020-08-09T08:21:39.000Z</time>
      </trkpt>
      <trkpt lat="47.34612" lon="-2.35863">
        <ele>17</ele>
        <time>2020-08-09T08:21:40.000Z</time>
      </trkpt>
      <trkpt lat="47.34617" lon="-2.3586">
        <ele>16.60000038147</ele>
        <time>2020-08-09T08:21:41.000Z</time>
      </trkpt>
      <trkpt lat="47.34622" lon="-2.35856">
        <ele>16.200000762939</ele>
        <time>2020-08-09T08:21:42.000Z</time>
      </trkpt>
      <trkpt lat="47.34632" lon="-2.35847">
        <ele>16.200000762939</ele>
        <time>2020-08-09T08:21:44.000Z</time>
      </trkpt>
      <trkpt lat="47.34658" lon="-2.35827">
        <ele>16.200000762939</ele>
        <time>2020-08-09T08:21:50.000Z</time>
      </trkpt>
      <trkpt lat="47.34693" lon="-2.358">
        <ele>16.200000762939</ele>
        <time>2020-08-09T08:21:58.000Z</time>
      </trkpt>
      <trkpt lat="47.34724" lon="-2.35775">
        <ele>16.200000762939</ele>
        <time>2020-08-09T08:22:05.000Z</time>
      </trkpt>
      <trkpt lat="47.34746" lon="-2.3576">
        <ele>16.200000762939</ele>
        <time>2020-08-09T08:22:11.000Z</time>
      </trkpt>
      <trkpt lat="47.34755" lon="-2.35755">
        <ele>16.200000762939</ele>
        <time>2020-08-09T08:22:16.000Z</time>
      </trkpt>
      <trkpt lat="47.34768" lon="-2.35748">
        <ele>16.200000762939</ele>
        <time>2020-08-09T08:22:23.000Z</time>
      </trkpt>
      <trkpt lat="47.34788" lon="-2.35738">
        <ele>16.200000762939</ele>
        <time>2020-08-09T08:22:30.000Z</time>
      </trkpt>
      <trkpt lat="47.3481" lon="-2.35727">
        <ele>16.200000762939</ele>
        <time>2020-08-09T08:22:37.000Z</time>
      </trkpt>
      <trkpt lat="47.34814" lon="-2.35727">
        <ele>16.200000762939</ele>
        <time>2020-08-09T08:22:38.000Z</time>
      </trkpt>
      <trkpt lat="47.34825" lon="-2.35723">
        <ele>16.200000762939</ele>
        <time>2020-08-09T08:22:41.000Z</time>
      </trkpt>
      <trkpt lat="47.34828" lon="-2.35716">
        <ele>16.200000762939</ele>
        <time>2020-08-09T08:22:42.000Z</time>
      </trkpt>
      <trkpt lat="47.34835" lon="-2.35703">
        <ele>16.200000762939</ele>
        <time>2020-08-09T08:22:44.000Z</time>
      </trkpt>
      <trkpt lat="47.3485" lon="-2.35671">
        <ele>16.200000762939</ele>
        <time>2020-08-09T08:22:50.000Z</time>
      </trkpt>
      <trkpt lat="47.3485" lon="-2.35664">
        <ele>16.200000762939</ele>
        <time>2020-08-09T08:22:52.000Z</time>
      </trkpt>
      <trkpt lat="47.34846" lon="-2.3566">
        <ele>16.200000762939</ele>
        <time>2020-08-09T08:22:54.000Z</time>
      </trkpt>
      <trkpt lat="47.34838" lon="-2.35657">
        <ele>16.60000038147</ele>
        <time>2020-08-09T08:22:56.000Z</time>
      </trkpt>
      <trkpt lat="47.34834" lon="-2.35654">
        <ele>17</ele>
        <time>2020-08-09T08:22:57.000Z</time>
      </trkpt>
      <trkpt lat="47.3483" lon="-2.35652">
        <ele>17.39999961853</ele>
        <time>2020-08-09T08:22:58.000Z</time>
      </trkpt>
      <trkpt lat="47.34825" lon="-2.35648">
        <ele>17.799999237061</ele>
        <time>2020-08-09T08:22:59.000Z</time>
      </trkpt>
      <trkpt lat="47.34821" lon="-2.35645">
        <ele>18.200000762939</ele>
        <time>2020-08-09T08:23:00.000Z</time>
      </trkpt>
      <trkpt lat="47.34802" lon="-2.35628">
        <ele>18.200000762939</ele>
        <time>2020-08-09T08:23:04.000Z</time>
      </trkpt>
      <trkpt lat="47.34793" lon="-2.35619">
        <ele>18.200000762939</ele>
        <time>2020-08-09T08:23:06.000Z</time>
      </trkpt>
      <trkpt lat="47.34784" lon="-2.35608">
        <ele>18.200000762939</ele>
        <time>2020-08-09T08:23:08.000Z</time>
      </trkpt>
      <trkpt lat="47.34767" lon="-2.35586">
        <ele>18.200000762939</ele>
        <time>2020-08-09T08:23:12.000Z</time>
      </trkpt>
      <trkpt lat="47.34762" lon="-2.35581">
        <ele>18.200000762939</ele>
        <time>2020-08-09T08:23:13.000Z</time>
      </trkpt>
      <trkpt lat="47.3474" lon="-2.35551">
        <ele>18.200000762939</ele>
        <time>2020-08-09T08:23:18.000Z</time>
      </trkpt>
      <trkpt lat="47.34727" lon="-2.35531">
        <ele>17.799999237061</ele>
        <time>2020-08-09T08:23:21.000Z</time>
      </trkpt>
      <trkpt lat="47.34722" lon="-2.35525">
        <ele>17.39999961853</ele>
        <time>2020-08-09T08:23:22.000Z</time>
      </trkpt>
      <trkpt lat="47.34718" lon="-2.35518">
        <ele>17</ele>
        <time>2020-08-09T08:23:23.000Z</time>
      </trkpt>
      <trkpt lat="47.34714" lon="-2.35512">
        <ele>16.60000038147</ele>
        <time>2020-08-09T08:23:24.000Z</time>
      </trkpt>
      <trkpt lat="47.3471" lon="-2.35506">
        <ele>16.200000762939</ele>
        <time>2020-08-09T08:23:25.000Z</time>
      </trkpt>
      <trkpt lat="47.34685" lon="-2.35465">
        <ele>16.200000762939</ele>
        <time>2020-08-09T08:23:32.000Z</time>
      </trkpt>
      <trkpt lat="47.34662" lon="-2.35429">
        <ele>16.200000762939</ele>
        <time>2020-08-09T08:23:39.000Z</time>
      </trkpt>
      <trkpt lat="47.3465" lon="-2.35414">
        <ele>16.200000762939</ele>
        <time>2020-08-09T08:23:44.000Z</time>
      </trkpt>
      <trkpt lat="47.34627" lon="-2.35391">
        <ele>16.200000762939</ele>
        <time>2020-08-09T08:23:52.000Z</time>
      </trkpt>
      <trkpt lat="47.34617" lon="-2.35392">
        <ele>16.200000762939</ele>
        <time>2020-08-09T08:23:57.000Z</time>
      </trkpt>
      <trkpt lat="47.34611" lon="-2.35391">
        <ele>16.200000762939</ele>
        <time>2020-08-09T08:24:00.000Z</time>
      </trkpt>
      <trkpt lat="47.34608" lon="-2.3539">
        <ele>16.200000762939</ele>
        <time>2020-08-09T08:24:02.000Z</time>
      </trkpt>
      <trkpt lat="47.34601" lon="-2.35388">
        <ele>16.200000762939</ele>
        <time>2020-08-09T08:24:07.000Z</time>
      </trkpt>
      <trkpt lat="47.346" lon="-2.35387">
        <ele>16.200000762939</ele>
        <time>2020-08-09T08:24:08.000Z</time>
      </trkpt>
      <trkpt lat="47.34599" lon="-2.35386">
        <ele>16.200000762939</ele>
        <time>2020-08-09T08:24:09.000Z</time>
      </trkpt>
      <trkpt lat="47.346" lon="-2.35386">
        <ele>16.200000762939</ele>
        <time>2020-08-09T08:24:10.000Z</time>
      </trkpt>
      <trkpt lat="47.346" lon="-2.35385">
        <ele>16.200000762939</ele>
        <time>2020-08-09T08:24:11.000Z</time>
      </trkpt>
      <trkpt lat="47.34594" lon="-2.35375">
        <ele>15.199999809265</ele>
        <time>2020-08-09T08:40:56.000Z</time>
      </trkpt>
      <trkpt lat="47.34598" lon="-2.35371">
        <ele>15.199999809265</ele>
        <time>2020-08-09T08:40:59.000Z</time>
      </trkpt>
      <trkpt lat="47.34601" lon="-2.35364">
        <ele>15.199999809265</ele>
        <time>2020-08-09T08:41:03.000Z</time>
      </trkpt>
      <trkpt lat="47.34603" lon="-2.35365">
        <ele>15.199999809265</ele>
        <time>2020-08-09T08:41:04.000Z</time>
      </trkpt>
      <trkpt lat="47.34617" lon="-2.35375">
        <ele>15.199999809265</ele>
        <time>2020-08-09T08:41:10.000Z</time>
      </trkpt>
      <trkpt lat="47.34633" lon="-2.35391">
        <ele>15.199999809265</ele>
        <time>2020-08-09T08:41:16.000Z</time>
      </trkpt>
      <trkpt lat="47.34645" lon="-2.35403">
        <ele>15.199999809265</ele>
        <time>2020-08-09T08:41:21.000Z</time>
      </trkpt>
      <trkpt lat="47.34649" lon="-2.35405">
        <ele>15.199999809265</ele>
        <time>2020-08-09T08:41:23.000Z</time>
      </trkpt>
      <trkpt lat="47.34656" lon="-2.35405">
        <ele>15.199999809265</ele>
        <time>2020-08-09T08:41:26.000Z</time>
      </trkpt>
      <trkpt lat="47.34662" lon="-2.35404">
        <ele>15.199999809265</ele>
        <time>2020-08-09T08:41:29.000Z</time>
      </trkpt>
      <trkpt lat="47.34666" lon="-2.35402">
        <ele>15.199999809265</ele>
        <time>2020-08-09T08:41:31.000Z</time>
      </trkpt>
      <trkpt lat="47.34684" lon="-2.35401">
        <ele>15.199999809265</ele>
        <time>2020-08-09T08:41:37.000Z</time>
      </trkpt>
      <trkpt lat="47.34696" lon="-2.35399">
        <ele>15.199999809265</ele>
        <time>2020-08-09T08:41:42.000Z</time>
      </trkpt>
      <trkpt lat="47.34706" lon="-2.35392">
        <ele>15.199999809265</ele>
        <time>2020-08-09T08:41:47.000Z</time>
      </trkpt>
      <trkpt lat="47.34712" lon="-2.35384">
        <ele>15.199999809265</ele>
        <time>2020-08-09T08:41:50.000Z</time>
      </trkpt>
      <trkpt lat="47.34718" lon="-2.35375">
        <ele>15.199999809265</ele>
        <time>2020-08-09T08:41:53.000Z</time>
      </trkpt>
      <trkpt lat="47.34726" lon="-2.35357">
        <ele>15.199999809265</ele>
        <time>2020-08-09T08:41:59.000Z</time>
      </trkpt>
      <trkpt lat="47.34726" lon="-2.35339">
        <ele>15.199999809265</ele>
        <time>2020-08-09T08:42:05.000Z</time>
      </trkpt>
      <trkpt lat="47.34725" lon="-2.35332">
        <ele>15.60000038147</ele>
        <time>2020-08-09T08:42:07.000Z</time>
      </trkpt>
      <trkpt lat="47.34726" lon="-2.35328">
        <ele>16</ele>
        <time>2020-08-09T08:42:08.000Z</time>
      </trkpt>
      <trkpt lat="47.34726" lon="-2.35325">
        <ele>16.39999961853</ele>
        <time>2020-08-09T08:42:09.000Z</time>
      </trkpt>
      <trkpt lat="47.34728" lon="-2.3532">
        <ele>16.799999237061</ele>
        <time>2020-08-09T08:42:10.000Z</time>
      </trkpt>
      <trkpt lat="47.3473" lon="-2.35316">
        <ele>17.200000762939</ele>
        <time>2020-08-09T08:42:11.000Z</time>
      </trkpt>
      <trkpt lat="47.34742" lon="-2.35293">
        <ele>17.200000762939</ele>
        <time>2020-08-09T08:42:16.000Z</time>
      </trkpt>
      <trkpt lat="47.34745" lon="-2.35287">
        <ele>16.799999237061</ele>
        <time>2020-08-09T08:42:17.000Z</time>
      </trkpt>
      <trkpt lat="47.34746" lon="-2.35283">
        <ele>16.39999961853</ele>
        <time>2020-08-09T08:42:18.000Z</time>
      </trkpt>
      <trkpt lat="47.34747" lon="-2.35279">
        <ele>16</ele>
        <time>2020-08-09T08:42:19.000Z</time>
      </trkpt>
      <trkpt lat="47.34747" lon="-2.35275">
        <ele>15.60000038147</ele>
        <time>2020-08-09T08:42:20.000Z</time>
      </trkpt>
      <trkpt lat="47.34749" lon="-2.3527">
        <ele>15.199999809265</ele>
        <time>2020-08-09T08:42:21.000Z</time>
      </trkpt>
      <trkpt lat="47.34756" lon="-2.35231">
        <ele>15.199999809265</ele>
        <time>2020-08-09T08:42:28.000Z</time>
      </trkpt>
      <trkpt lat="47.34756" lon="-2.35215">
        <ele>15.199999809265</ele>
        <time>2020-08-09T08:42:32.000Z</time>
      </trkpt>
      <trkpt lat="47.34757" lon="-2.35194">
        <ele>15.199999809265</ele>
        <time>2020-08-09T08:42:37.000Z</time>
      </trkpt>
      <trkpt lat="47.34761" lon="-2.35172">
        <ele>15.199999809265</ele>
        <time>2020-08-09T08:42:42.000Z</time>
      </trkpt>
      <trkpt lat="47.34755" lon="-2.35155">
        <ele>15.199999809265</ele>
        <time>2020-08-09T08:42:46.000Z</time>
      </trkpt>
      <trkpt lat="47.34747" lon="-2.35137">
        <ele>15.199999809265</ele>
        <time>2020-08-09T08:42:51.000Z</time>
      </trkpt>
      <trkpt lat="47.34739" lon="-2.35127">
        <ele>15.199999809265</ele>
        <time>2020-08-09T08:42:55.000Z</time>
      </trkpt>
      <trkpt lat="47.34729" lon="-2.35095">
        <ele>15.199999809265</ele>
        <time>2020-08-09T08:43:02.000Z</time>
      </trkpt>
      <trkpt lat="47.34712" lon="-2.35073">
        <ele>15.199999809265</ele>
        <time>2020-08-09T08:43:08.000Z</time>
      </trkpt>
      <trkpt lat="47.34699" lon="-2.35054">
        <ele>15.199999809265</ele>
        <time>2020-08-09T08:43:13.000Z</time>
      </trkpt>
      <trkpt lat="47.34677" lon="-2.35037">
        <ele>15.199999809265</ele>
        <time>2020-08-09T08:43:19.000Z</time>
      </trkpt>
      <trkpt lat="47.34653" lon="-2.35032">
        <ele>15.199999809265</ele>
        <time>2020-08-09T08:43:25.000Z</time>
      </trkpt>
      <trkpt lat="47.34643" lon="-2.35018">
        <ele>15.199999809265</ele>
        <time>2020-08-09T08:43:29.000Z</time>
      </trkpt>
      <trkpt lat="47.3462" lon="-2.34984">
        <ele>15.199999809265</ele>
        <time>2020-08-09T08:43:37.000Z</time>
      </trkpt>
      <trkpt lat="47.34604" lon="-2.34958">
        <ele>15.199999809265</ele>
        <time>2020-08-09T08:43:42.000Z</time>
      </trkpt>
      <trkpt lat="47.34583" lon="-2.34921">
        <ele>15.199999809265</ele>
        <time>2020-08-09T08:43:49.000Z</time>
      </trkpt>
      <trkpt lat="47.34578" lon="-2.3491">
        <ele>15.199999809265</ele>
        <time>2020-08-09T08:43:54.000Z</time>
      </trkpt>
      <trkpt lat="47.34582" lon="-2.34887">
        <ele>15.199999809265</ele>
        <time>2020-08-09T08:44:00.000Z</time>
      </trkpt>
      <trkpt lat="47.34594" lon="-2.34855">
        <ele>15.199999809265</ele>
        <time>2020-08-09T08:44:05.000Z</time>
      </trkpt>
      <trkpt lat="47.34613" lon="-2.34813">
        <ele>15.199999809265</ele>
        <time>2020-08-09T08:44:11.000Z</time>
      </trkpt>
      <trkpt lat="47.34629" lon="-2.3477">
        <ele>15.199999809265</ele>
        <time>2020-08-09T08:44:17.000Z</time>
      </trkpt>
      <trkpt lat="47.34631" lon="-2.34762">
        <ele>15.199999809265</ele>
        <time>2020-08-09T08:44:18.000Z</time>
      </trkpt>
      <trkpt lat="47.34633" lon="-2.34754">
        <ele>15.199999809265</ele>
        <time>2020-08-09T08:44:19.000Z</time>
      </trkpt>
      <trkpt lat="47.34636" lon="-2.34718">
        <ele>15.199999809265</ele>
        <time>2020-08-09T08:44:23.000Z</time>
      </trkpt>
      <trkpt lat="47.34636" lon="-2.34708">
        <ele>15.199999809265</ele>
        <time>2020-08-09T08:44:24.000Z</time>
      </trkpt>
      <trkpt lat="47.34631" lon="-2.34675">
        <ele>15.199999809265</ele>
        <time>2020-08-09T08:44:28.000Z</time>
      </trkpt>
      <trkpt lat="47.34623" lon="-2.34631">
        <ele>15.199999809265</ele>
        <time>2020-08-09T08:44:34.000Z</time>
      </trkpt>
      <trkpt lat="47.34622" lon="-2.34624">
        <ele>16</ele>
        <time>2020-08-09T08:44:35.000Z</time>
      </trkpt>
      <trkpt lat="47.34621" lon="-2.34616">
        <ele>16.39999961853</ele>
        <time>2020-08-09T08:44:36.000Z</time>
      </trkpt>
      <trkpt lat="47.3462" lon="-2.34609">
        <ele>17</ele>
        <time>2020-08-09T08:44:37.000Z</time>
      </trkpt>
      <trkpt lat="47.34619" lon="-2.34601">
        <ele>17.39999961853</ele>
        <time>2020-08-09T08:44:38.000Z</time>
      </trkpt>
      <trkpt lat="47.34617" lon="-2.34594">
        <ele>17.39999961853</ele>
        <time>2020-08-09T08:44:39.000Z</time>
      </trkpt>
      <trkpt lat="47.34615" lon="-2.34586">
        <ele>17.799999237061</ele>
        <time>2020-08-09T08:44:40.000Z</time>
      </trkpt>
      <trkpt lat="47.34613" lon="-2.34579">
        <ele>18.200000762939</ele>
        <time>2020-08-09T08:44:41.000Z</time>
      </trkpt>
      <trkpt lat="47.34611" lon="-2.3457">
        <ele>18.60000038147</ele>
        <time>2020-08-09T08:44:42.000Z</time>
      </trkpt>
      <trkpt lat="47.3461" lon="-2.34562">
        <ele>19</ele>
        <time>2020-08-09T08:44:43.000Z</time>
      </trkpt>
      <trkpt lat="47.34609" lon="-2.34554">
        <ele>19.39999961853</ele>
        <time>2020-08-09T08:44:44.000Z</time>
      </trkpt>
      <trkpt lat="47.34605" lon="-2.34529">
        <ele>19.39999961853</ele>
        <time>2020-08-09T08:44:47.000Z</time>
      </trkpt>
      <trkpt lat="47.34597" lon="-2.34465">
        <ele>19.39999961853</ele>
        <time>2020-08-09T08:44:55.000Z</time>
      </trkpt>
      <trkpt lat="47.34597" lon="-2.34429">
        <ele>19.39999961853</ele>
        <time>2020-08-09T08:45:00.000Z</time>
      </trkpt>
      <trkpt lat="47.34604" lon="-2.34394">
        <ele>19.39999961853</ele>
        <time>2020-08-09T08:45:06.000Z</time>
      </trkpt>
      <trkpt lat="47.34611" lon="-2.34364">
        <ele>19.39999961853</ele>
        <time>2020-08-09T08:45:12.000Z</time>
      </trkpt>
      <trkpt lat="47.34614" lon="-2.34353">
        <ele>19.39999961853</ele>
        <time>2020-08-09T08:45:14.000Z</time>
      </trkpt>
      <trkpt lat="47.34621" lon="-2.34331">
        <ele>19.39999961853</ele>
        <time>2020-08-09T08:45:18.000Z</time>
      </trkpt>
      <trkpt lat="47.34621" lon="-2.34325">
        <ele>19.39999961853</ele>
        <time>2020-08-09T08:45:20.000Z</time>
      </trkpt>
      <trkpt lat="47.34621" lon="-2.34324">
        <ele>19.39999961853</ele>
        <time>2020-08-09T08:45:21.000Z</time>
      </trkpt>
      <trkpt lat="47.34622" lon="-2.34321">
        <ele>19.39999961853</ele>
        <time>2020-08-09T08:45:24.000Z</time>
      </trkpt>
      <trkpt lat="47.34624" lon="-2.34316">
        <ele>19.39999961853</ele>
        <time>2020-08-09T08:46:18.000Z</time>
      </trkpt>
      <trkpt lat="47.34625" lon="-2.34313">
        <ele>19.39999961853</ele>
        <time>2020-08-09T08:46:19.000Z</time>
      </trkpt>
      <trkpt lat="47.3463" lon="-2.34294">
        <ele>19.39999961853</ele>
        <time>2020-08-09T08:46:25.000Z</time>
      </trkpt>
      <trkpt lat="47.34634" lon="-2.34273">
        <ele>19</ele>
        <time>2020-08-09T08:46:29.000Z</time>
      </trkpt>
      <trkpt lat="47.34636" lon="-2.34267">
        <ele>18.60000038147</ele>
        <time>2020-08-09T08:46:30.000Z</time>
      </trkpt>
      <trkpt lat="47.34639" lon="-2.3426">
        <ele>18.200000762939</ele>
        <time>2020-08-09T08:46:31.000Z</time>
      </trkpt>
      <trkpt lat="47.34642" lon="-2.34253">
        <ele>17.799999237061</ele>
        <time>2020-08-09T08:46:32.000Z</time>
      </trkpt>
      <trkpt lat="47.34645" lon="-2.34245">
        <ele>17.39999961853</ele>
        <time>2020-08-09T08:46:33.000Z</time>
      </trkpt>
      <trkpt lat="47.3465" lon="-2.34229">
        <ele>17.39999961853</ele>
        <time>2020-08-09T08:46:35.000Z</time>
      </trkpt>
      <trkpt lat="47.34671" lon="-2.34166">
        <ele>17.39999961853</ele>
        <time>2020-08-09T08:46:43.000Z</time>
      </trkpt>
      <trkpt lat="47.34666" lon="-2.34153">
        <ele>17.39999961853</ele>
        <time>2020-08-09T08:46:46.000Z</time>
      </trkpt>
      <trkpt lat="47.34659" lon="-2.3415">
        <ele>17</ele>
        <time>2020-08-09T08:46:48.000Z</time>
      </trkpt>
      <trkpt lat="47.34654" lon="-2.34149">
        <ele>16.60000038147</ele>
        <time>2020-08-09T08:46:49.000Z</time>
      </trkpt>
      <trkpt lat="47.3465" lon="-2.34147">
        <ele>16</ele>
        <time>2020-08-09T08:46:50.000Z</time>
      </trkpt>
      <trkpt lat="47.34646" lon="-2.34144">
        <ele>15.60000038147</ele>
        <time>2020-08-09T08:46:51.000Z</time>
      </trkpt>
      <trkpt lat="47.34642" lon="-2.34141">
        <ele>15.199999809265</ele>
        <time>2020-08-09T08:46:52.000Z</time>
      </trkpt>
      <trkpt lat="47.34634" lon="-2.34132">
        <ele>15.199999809265</ele>
        <time>2020-08-09T08:46:54.000Z</time>
      </trkpt>
      <trkpt lat="47.34631" lon="-2.34126">
        <ele>15.199999809265</ele>
        <time>2020-08-09T08:46:55.000Z</time>
      </trkpt>
      <trkpt lat="47.34622" lon="-2.34104">
        <ele>15.199999809265</ele>
        <time>2020-08-09T08:46:58.000Z</time>
      </trkpt>
      <trkpt lat="47.34618" lon="-2.34087">
        <ele>15.199999809265</ele>
        <time>2020-08-09T08:47:00.000Z</time>
      </trkpt>
      <trkpt lat="47.34611" lon="-2.3406">
        <ele>15.199999809265</ele>
        <time>2020-08-09T08:47:03.000Z</time>
      </trkpt>
      <trkpt lat="47.34602" lon="-2.34015">
        <ele>14.800000190735</ele>
        <time>2020-08-09T08:47:08.000Z</time>
      </trkpt>
      <trkpt lat="47.34599" lon="-2.34006">
        <ele>14.39999961853</ele>
        <time>2020-08-09T08:47:09.000Z</time>
      </trkpt>
      <trkpt lat="47.34597" lon="-2.33998">
        <ele>14</ele>
        <time>2020-08-09T08:47:10.000Z</time>
      </trkpt>
      <trkpt lat="47.34595" lon="-2.33991">
        <ele>13.60000038147</ele>
        <time>2020-08-09T08:47:11.000Z</time>
      </trkpt>
      <trkpt lat="47.34593" lon="-2.33983">
        <ele>13.199999809265</ele>
        <time>2020-08-09T08:47:12.000Z</time>
      </trkpt>
      <trkpt lat="47.34588" lon="-2.33963">
        <ele>13.199999809265</ele>
        <time>2020-08-09T08:47:15.000Z</time>
      </trkpt>
      <trkpt lat="47.34576" lon="-2.33926">
        <ele>13.199999809265</ele>
        <time>2020-08-09T08:47:21.000Z</time>
      </trkpt>
      <trkpt lat="47.34562" lon="-2.3389">
        <ele>13.199999809265</ele>
        <time>2020-08-09T08:47:27.000Z</time>
      </trkpt>
      <trkpt lat="47.3455" lon="-2.33849">
        <ele>13.199999809265</ele>
        <time>2020-08-09T08:47:33.000Z</time>
      </trkpt>
      <trkpt lat="47.34543" lon="-2.33806">
        <ele>13.199999809265</ele>
        <time>2020-08-09T08:47:39.000Z</time>
      </trkpt>
      <trkpt lat="47.34537" lon="-2.33777">
        <ele>13.199999809265</ele>
        <time>2020-08-09T08:47:43.000Z</time>
      </trkpt>
      <trkpt lat="47.34534" lon="-2.33765">
        <ele>13.199999809265</ele>
        <time>2020-08-09T08:47:45.000Z</time>
      </trkpt>
      <trkpt lat="47.3453" lon="-2.33743">
        <ele>13.199999809265</ele>
        <time>2020-08-09T08:47:48.000Z</time>
      </trkpt>
      <trkpt lat="47.34528" lon="-2.33727">
        <ele>13.199999809265</ele>
        <time>2020-08-09T08:47:50.000Z</time>
      </trkpt>
      <trkpt lat="47.34522" lon="-2.33679">
        <ele>13.199999809265</ele>
        <time>2020-08-09T08:47:57.000Z</time>
      </trkpt>
      <trkpt lat="47.34515" lon="-2.33643">
        <ele>13.199999809265</ele>
        <time>2020-08-09T08:48:03.000Z</time>
      </trkpt>
      <trkpt lat="47.3451" lon="-2.3362">
        <ele>13.199999809265</ele>
        <time>2020-08-09T08:48:07.000Z</time>
      </trkpt>
      <trkpt lat="47.34509" lon="-2.33616">
        <ele>13.199999809265</ele>
        <time>2020-08-09T08:48:08.000Z</time>
      </trkpt>
      <trkpt lat="47.34505" lon="-2.3359">
        <ele>13.199999809265</ele>
        <time>2020-08-09T08:48:14.000Z</time>
      </trkpt>
      <trkpt lat="47.34505" lon="-2.33588">
        <ele>13.199999809265</ele>
        <time>2020-08-09T08:48:15.000Z</time>
      </trkpt>
      <trkpt lat="47.34505" lon="-2.33587">
        <ele>13.199999809265</ele>
        <time>2020-08-09T08:48:17.000Z</time>
      </trkpt>
      <trkpt lat="47.34502" lon="-2.33581">
        <ele>13.199999809265</ele>
        <time>2020-08-09T08:48:47.000Z</time>
      </trkpt>
      <trkpt lat="47.34496" lon="-2.33574">
        <ele>13.199999809265</ele>
        <time>2020-08-09T08:48:50.000Z</time>
      </trkpt>
      <trkpt lat="47.3449" lon="-2.33551">
        <ele>13.199999809265</ele>
        <time>2020-08-09T08:48:54.000Z</time>
      </trkpt>
      <trkpt lat="47.34489" lon="-2.33533">
        <ele>12.800000190735</ele>
        <time>2020-08-09T08:48:57.000Z</time>
      </trkpt>
      <trkpt lat="47.34489" lon="-2.33528">
        <ele>12.39999961853</ele>
        <time>2020-08-09T08:48:58.000Z</time>
      </trkpt>
      <trkpt lat="47.34488" lon="-2.33523">
        <ele>12</ele>
        <time>2020-08-09T08:48:59.000Z</time>
      </trkpt>
      <trkpt lat="47.34487" lon="-2.33518">
        <ele>11.60000038147</ele>
        <time>2020-08-09T08:49:00.000Z</time>
      </trkpt>
      <trkpt lat="47.34486" lon="-2.33512">
        <ele>11.199999809265</ele>
        <time>2020-08-09T08:49:01.000Z</time>
      </trkpt>
      <trkpt lat="47.34481" lon="-2.33486">
        <ele>11.199999809265</ele>
        <time>2020-08-09T08:49:06.000Z</time>
      </trkpt>
      <trkpt lat="47.34476" lon="-2.33452">
        <ele>11.199999809265</ele>
        <time>2020-08-09T08:49:12.000Z</time>
      </trkpt>
      <trkpt lat="47.34473" lon="-2.33428">
        <ele>11.199999809265</ele>
        <time>2020-08-09T08:49:17.000Z</time>
      </trkpt>
      <trkpt lat="47.34467" lon="-2.3339">
        <ele>11.199999809265</ele>
        <time>2020-08-09T08:49:24.000Z</time>
      </trkpt>
      <trkpt lat="47.34462" lon="-2.33353">
        <ele>11.199999809265</ele>
        <time>2020-08-09T08:49:30.000Z</time>
      </trkpt>
      <trkpt lat="47.34456" lon="-2.33312">
        <ele>11.199999809265</ele>
        <time>2020-08-09T08:49:37.000Z</time>
      </trkpt>
      <trkpt lat="47.34445" lon="-2.333">
        <ele>10.800000190735</ele>
        <time>2020-08-09T08:49:41.000Z</time>
      </trkpt>
      <trkpt lat="47.34441" lon="-2.33298">
        <ele>10.199999809265</ele>
        <time>2020-08-09T08:49:42.000Z</time>
      </trkpt>
      <trkpt lat="47.34436" lon="-2.33296">
        <ele>9.8000001907349</ele>
        <time>2020-08-09T08:49:43.000Z</time>
      </trkpt>
      <trkpt lat="47.34433" lon="-2.33294">
        <ele>9.3999996185303</ele>
        <time>2020-08-09T08:49:44.000Z</time>
      </trkpt>
      <trkpt lat="47.34431" lon="-2.3329">
        <ele>9</ele>
        <time>2020-08-09T08:49:45.000Z</time>
      </trkpt>
      <trkpt lat="47.34429" lon="-2.33286">
        <ele>9</ele>
        <time>2020-08-09T08:49:46.000Z</time>
      </trkpt>
      <trkpt lat="47.34424" lon="-2.3327">
        <ele>9</ele>
        <time>2020-08-09T08:49:49.000Z</time>
      </trkpt>
      <trkpt lat="47.34422" lon="-2.33258">
        <ele>9</ele>
        <time>2020-08-09T08:49:51.000Z</time>
      </trkpt>
      <trkpt lat="47.34412" lon="-2.33207">
        <ele>9</ele>
        <time>2020-08-09T08:49:58.000Z</time>
      </trkpt>
      <trkpt lat="47.34404" lon="-2.33162">
        <ele>9</ele>
        <time>2020-08-09T08:50:04.000Z</time>
      </trkpt>
      <trkpt lat="47.344" lon="-2.3314">
        <ele>8.6000003814697</ele>
        <time>2020-08-09T08:50:08.000Z</time>
      </trkpt>
      <trkpt lat="47.34399" lon="-2.33136">
        <ele>8.1999998092651</ele>
        <time>2020-08-09T08:50:09.000Z</time>
      </trkpt>
      <trkpt lat="47.34398" lon="-2.33131">
        <ele>7.8000001907349</ele>
        <time>2020-08-09T08:50:10.000Z</time>
      </trkpt>
      <trkpt lat="47.34397" lon="-2.33127">
        <ele>7.4000000953674</ele>
        <time>2020-08-09T08:50:11.000Z</time>
      </trkpt>
      <trkpt lat="47.34396" lon="-2.33122">
        <ele>7</ele>
        <time>2020-08-09T08:50:12.000Z</time>
      </trkpt>
      <trkpt lat="47.34392" lon="-2.33101">
        <ele>7</ele>
        <time>2020-08-09T08:50:17.000Z</time>
      </trkpt>
      <trkpt lat="47.34385" lon="-2.33071">
        <ele>7</ele>
        <time>2020-08-09T08:50:23.000Z</time>
      </trkpt>
      <trkpt lat="47.34371" lon="-2.33021">
        <ele>7</ele>
        <time>2020-08-09T08:50:32.000Z</time>
      </trkpt>
      <trkpt lat="47.34369" lon="-2.33008">
        <ele>7</ele>
        <time>2020-08-09T08:50:34.000Z</time>
      </trkpt>
      <trkpt lat="47.34365" lon="-2.32989">
        <ele>7</ele>
        <time>2020-08-09T08:50:37.000Z</time>
      </trkpt>
      <trkpt lat="47.34356" lon="-2.32936">
        <ele>7</ele>
        <time>2020-08-09T08:50:45.000Z</time>
      </trkpt>
      <trkpt lat="47.34359" lon="-2.3292">
        <ele>7</ele>
        <time>2020-08-09T08:50:48.000Z</time>
      </trkpt>
      <trkpt lat="47.34377" lon="-2.32893">
        <ele>7</ele>
        <time>2020-08-09T08:50:54.000Z</time>
      </trkpt>
      <trkpt lat="47.34405" lon="-2.32868">
        <ele>7</ele>
        <time>2020-08-09T08:51:01.000Z</time>
      </trkpt>
      <trkpt lat="47.34435" lon="-2.32845">
        <ele>7</ele>
        <time>2020-08-09T08:51:08.000Z</time>
      </trkpt>
      <trkpt lat="47.34456" lon="-2.32826">
        <ele>7</ele>
        <time>2020-08-09T08:51:14.000Z</time>
      </trkpt>
      <trkpt lat="47.34458" lon="-2.32816">
        <ele>7.4000000953674</ele>
        <time>2020-08-09T08:51:16.000Z</time>
      </trkpt>
      <trkpt lat="47.34458" lon="-2.32809">
        <ele>7.8000001907349</ele>
        <time>2020-08-09T08:51:17.000Z</time>
      </trkpt>
      <trkpt lat="47.34457" lon="-2.32803">
        <ele>8.1999998092651</ele>
        <time>2020-08-09T08:51:18.000Z</time>
      </trkpt>
      <trkpt lat="47.34455" lon="-2.32795">
        <ele>8.6000003814697</ele>
        <time>2020-08-09T08:51:19.000Z</time>
      </trkpt>
      <trkpt lat="47.34455" lon="-2.32788">
        <ele>9</ele>
        <time>2020-08-09T08:51:20.000Z</time>
      </trkpt>
      <trkpt lat="47.34456" lon="-2.32765">
        <ele>9</ele>
        <time>2020-08-09T08:51:24.000Z</time>
      </trkpt>
      <trkpt lat="47.34458" lon="-2.3276">
        <ele>9.3999996185303</ele>
        <time>2020-08-09T08:51:25.000Z</time>
      </trkpt>
      <trkpt lat="47.3446" lon="-2.32756">
        <ele>9.8000001907349</ele>
        <time>2020-08-09T08:51:26.000Z</time>
      </trkpt>
      <trkpt lat="47.34462" lon="-2.32753">
        <ele>10.39999961853</ele>
        <time>2020-08-09T08:51:27.000Z</time>
      </trkpt>
      <trkpt lat="47.34465" lon="-2.32749">
        <ele>10.800000190735</ele>
        <time>2020-08-09T08:51:28.000Z</time>
      </trkpt>
      <trkpt lat="47.34469" lon="-2.32746">
        <ele>11.199999809265</ele>
        <time>2020-08-09T08:51:29.000Z</time>
      </trkpt>
      <trkpt lat="47.34491" lon="-2.32734">
        <ele>11.199999809265</ele>
        <time>2020-08-09T08:51:34.000Z</time>
      </trkpt>
      <trkpt lat="47.34499" lon="-2.32729">
        <ele>11.199999809265</ele>
        <time>2020-08-09T08:51:36.000Z</time>
      </trkpt>
      <trkpt lat="47.34518" lon="-2.32719">
        <ele>11.199999809265</ele>
        <time>2020-08-09T08:51:40.000Z</time>
      </trkpt>
      <trkpt lat="47.34552" lon="-2.32695">
        <ele>11.199999809265</ele>
        <time>2020-08-09T08:51:47.000Z</time>
      </trkpt>
      <trkpt lat="47.34588" lon="-2.32663">
        <ele>11.199999809265</ele>
        <time>2020-08-09T08:51:55.000Z</time>
      </trkpt>
      <trkpt lat="47.3461" lon="-2.32635">
        <ele>11.199999809265</ele>
        <time>2020-08-09T08:52:00.000Z</time>
      </trkpt>
      <trkpt lat="47.34622" lon="-2.32615">
        <ele>10.800000190735</ele>
        <time>2020-08-09T08:52:03.000Z</time>
      </trkpt>
      <trkpt lat="47.34626" lon="-2.32608">
        <ele>10.39999961853</ele>
        <time>2020-08-09T08:52:04.000Z</time>
      </trkpt>
      <trkpt lat="47.34629" lon="-2.326">
        <ele>10</ele>
        <time>2020-08-09T08:52:05.000Z</time>
      </trkpt>
      <trkpt lat="47.34632" lon="-2.32594">
        <ele>9.6000003814697</ele>
        <time>2020-08-09T08:52:06.000Z</time>
      </trkpt>
      <trkpt lat="47.34634" lon="-2.32588">
        <ele>9.1999998092651</ele>
        <time>2020-08-09T08:52:07.000Z</time>
      </trkpt>
      <trkpt lat="47.34655" lon="-2.32539">
        <ele>9.1999998092651</ele>
        <time>2020-08-09T08:52:14.000Z</time>
      </trkpt>
      <trkpt lat="47.34667" lon="-2.32508">
        <ele>9.1999998092651</ele>
        <time>2020-08-09T08:52:19.000Z</time>
      </trkpt>
      <trkpt lat="47.34669" lon="-2.32501">
        <ele>9.1999998092651</ele>
        <time>2020-08-09T08:52:20.000Z</time>
      </trkpt>
      <trkpt lat="47.34674" lon="-2.32482">
        <ele>9.1999998092651</ele>
        <time>2020-08-09T08:52:23.000Z</time>
      </trkpt>
      <trkpt lat="47.34678" lon="-2.3247">
        <ele>9.1999998092651</ele>
        <time>2020-08-09T08:52:25.000Z</time>
      </trkpt>
      <trkpt lat="47.34693" lon="-2.32432">
        <ele>9.1999998092651</ele>
        <time>2020-08-09T08:52:31.000Z</time>
      </trkpt>
      <trkpt lat="47.34697" lon="-2.32411">
        <ele>9.6000003814697</ele>
        <time>2020-08-09T08:52:34.000Z</time>
      </trkpt>
      <trkpt lat="47.34699" lon="-2.32404">
        <ele>10</ele>
        <time>2020-08-09T08:52:35.000Z</time>
      </trkpt>
      <trkpt lat="47.34701" lon="-2.32397">
        <ele>10.39999961853</ele>
        <time>2020-08-09T08:52:36.000Z</time>
      </trkpt>
      <trkpt lat="47.34703" lon="-2.3239">
        <ele>10.800000190735</ele>
        <time>2020-08-09T08:52:37.000Z</time>
      </trkpt>
      <trkpt lat="47.34704" lon="-2.32382">
        <ele>11.199999809265</ele>
        <time>2020-08-09T08:52:38.000Z</time>
      </trkpt>
      <trkpt lat="47.34718" lon="-2.32337">
        <ele>11.199999809265</ele>
        <time>2020-08-09T08:52:44.000Z</time>
      </trkpt>
      <trkpt lat="47.34734" lon="-2.32295">
        <ele>10.39999961853</ele>
        <time>2020-08-09T08:52:49.000Z</time>
      </trkpt>
      <trkpt lat="47.34738" lon="-2.32287">
        <ele>9.8000001907349</ele>
        <time>2020-08-09T08:52:50.000Z</time>
      </trkpt>
      <trkpt lat="47.34742" lon="-2.32279">
        <ele>9.3999996185303</ele>
        <time>2020-08-09T08:52:51.000Z</time>
      </trkpt>
      <trkpt lat="47.34746" lon="-2.32271">
        <ele>9</ele>
        <time>2020-08-09T08:52:52.000Z</time>
      </trkpt>
      <trkpt lat="47.34762" lon="-2.32242">
        <ele>9</ele>
        <time>2020-08-09T08:52:56.000Z</time>
      </trkpt>
      <trkpt lat="47.3477" lon="-2.32218">
        <ele>9</ele>
        <time>2020-08-09T08:52:59.000Z</time>
      </trkpt>
      <trkpt lat="47.34773" lon="-2.32201">
        <ele>9</ele>
        <time>2020-08-09T08:53:01.000Z</time>
      </trkpt>
      <trkpt lat="47.34769" lon="-2.32178">
        <ele>8.6000003814697</ele>
        <time>2020-08-09T08:53:04.000Z</time>
      </trkpt>
      <trkpt lat="47.34768" lon="-2.32171">
        <ele>8.1999998092651</ele>
        <time>2020-08-09T08:53:05.000Z</time>
      </trkpt>
      <trkpt lat="47.34766" lon="-2.32165">
        <ele>7.8000001907349</ele>
        <time>2020-08-09T08:53:06.000Z</time>
      </trkpt>
      <trkpt lat="47.34764" lon="-2.32159">
        <ele>7.4000000953674</ele>
        <time>2020-08-09T08:53:07.000Z</time>
      </trkpt>
      <trkpt lat="47.34762" lon="-2.32152">
        <ele>7</ele>
        <time>2020-08-09T08:53:08.000Z</time>
      </trkpt>
      <trkpt lat="47.34755" lon="-2.32139">
        <ele>7</ele>
        <time>2020-08-09T08:53:11.000Z</time>
      </trkpt>
      <trkpt lat="47.34746" lon="-2.32121">
        <ele>7</ele>
        <time>2020-08-09T08:53:17.000Z</time>
      </trkpt>
      <trkpt lat="47.34744" lon="-2.32101">
        <ele>7</ele>
        <time>2020-08-09T08:53:24.000Z</time>
      </trkpt>
      <trkpt lat="47.34751" lon="-2.32079">
        <ele>7</ele>
        <time>2020-08-09T08:53:29.000Z</time>
      </trkpt>
      <trkpt lat="47.34771" lon="-2.32046">
        <ele>7</ele>
        <time>2020-08-09T08:53:36.000Z</time>
      </trkpt>
      <trkpt lat="47.34774" lon="-2.3204">
        <ele>7</ele>
        <time>2020-08-09T08:53:37.000Z</time>
      </trkpt>
      <trkpt lat="47.34783" lon="-2.32016">
        <ele>7</ele>
        <time>2020-08-09T08:53:40.000Z</time>
      </trkpt>
      <trkpt lat="47.348" lon="-2.31968">
        <ele>7</ele>
        <time>2020-08-09T08:53:47.000Z</time>
      </trkpt>
      <trkpt lat="47.3481" lon="-2.31938">
        <ele>6.5999999046326</ele>
        <time>2020-08-09T08:53:52.000Z</time>
      </trkpt>
      <trkpt lat="47.34812" lon="-2.31932">
        <ele>6.1999998092651</ele>
        <time>2020-08-09T08:53:53.000Z</time>
      </trkpt>
      <trkpt lat="47.34814" lon="-2.31926">
        <ele>5.8000001907349</ele>
        <time>2020-08-09T08:53:54.000Z</time>
      </trkpt>
      <trkpt lat="47.34817" lon="-2.31921">
        <ele>5.4000000953674</ele>
        <time>2020-08-09T08:53:55.000Z</time>
      </trkpt>
      <trkpt lat="47.34819" lon="-2.31916">
        <ele>5</ele>
        <time>2020-08-09T08:53:56.000Z</time>
      </trkpt>
      <trkpt lat="47.34825" lon="-2.319">
        <ele>5</ele>
        <time>2020-08-09T08:54:00.000Z</time>
      </trkpt>
      <trkpt lat="47.34832" lon="-2.31886">
        <ele>5</ele>
        <time>2020-08-09T08:54:06.000Z</time>
      </trkpt>
      <trkpt lat="47.34834" lon="-2.3188">
        <ele>5</ele>
        <time>2020-08-09T08:54:08.000Z</time>
      </trkpt>
      <trkpt lat="47.34832" lon="-2.31872">
        <ele>5</ele>
        <time>2020-08-09T08:54:10.000Z</time>
      </trkpt>
      <trkpt lat="47.34822" lon="-2.31863">
        <ele>5</ele>
        <time>2020-08-09T08:54:14.000Z</time>
      </trkpt>
      <trkpt lat="47.34818" lon="-2.31858">
        <ele>5</ele>
        <time>2020-08-09T08:54:19.000Z</time>
      </trkpt>
      <trkpt lat="47.34811" lon="-2.31858">
        <ele>5</ele>
        <time>2020-08-09T08:54:30.000Z</time>
      </trkpt>
      <trkpt lat="47.34806" lon="-2.31853">
        <ele>5</ele>
        <time>2020-08-09T08:54:33.000Z</time>
      </trkpt>
      <trkpt lat="47.34791" lon="-2.31834">
        <ele>5</ele>
        <time>2020-08-09T08:54:39.000Z</time>
      </trkpt>
      <trkpt lat="47.34772" lon="-2.31811">
        <ele>5</ele>
        <time>2020-08-09T08:54:46.000Z</time>
      </trkpt>
      <trkpt lat="47.34758" lon="-2.3179">
        <ele>5</ele>
        <time>2020-08-09T08:54:52.000Z</time>
      </trkpt>
      <trkpt lat="47.34742" lon="-2.31768">
        <ele>5</ele>
        <time>2020-08-09T08:54:58.000Z</time>
      </trkpt>
      <trkpt lat="47.34717" lon="-2.31736">
        <ele>5</ele>
        <time>2020-08-09T08:55:07.000Z</time>
      </trkpt>
      <trkpt lat="47.34709" lon="-2.31713">
        <ele>5</ele>
        <time>2020-08-09T08:55:12.000Z</time>
      </trkpt>
      <trkpt lat="47.34713" lon="-2.31688">
        <ele>5</ele>
        <time>2020-08-09T08:55:16.000Z</time>
      </trkpt>
      <trkpt lat="47.34716" lon="-2.31653">
        <ele>5</ele>
        <time>2020-08-09T08:55:22.000Z</time>
      </trkpt>
      <trkpt lat="47.3472" lon="-2.31609">
        <ele>5</ele>
        <time>2020-08-09T08:55:29.000Z</time>
      </trkpt>
      <trkpt lat="47.3472" lon="-2.3159">
        <ele>5</ele>
        <time>2020-08-09T08:55:32.000Z</time>
      </trkpt>
      <trkpt lat="47.34716" lon="-2.31578">
        <ele>5</ele>
        <time>2020-08-09T08:55:34.000Z</time>
      </trkpt>
      <trkpt lat="47.34703" lon="-2.31566">
        <ele>5</ele>
        <time>2020-08-09T08:55:38.000Z</time>
      </trkpt>
      <trkpt lat="47.34685" lon="-2.31568">
        <ele>5</ele>
        <time>2020-08-09T08:55:42.000Z</time>
      </trkpt>
      <trkpt lat="47.34655" lon="-2.31572">
        <ele>5</ele>
        <time>2020-08-09T08:55:48.000Z</time>
      </trkpt>
      <trkpt lat="47.34634" lon="-2.3158">
        <ele>5</ele>
        <time>2020-08-09T08:55:52.000Z</time>
      </trkpt>
      <trkpt lat="47.34624" lon="-2.31583">
        <ele>5</ele>
        <time>2020-08-09T08:55:54.000Z</time>
      </trkpt>
      <trkpt lat="47.34585" lon="-2.31595">
        <ele>5</ele>
        <time>2020-08-09T08:56:01.000Z</time>
      </trkpt>
      <trkpt lat="47.34545" lon="-2.316">
        <ele>5</ele>
        <time>2020-08-09T08:56:08.000Z</time>
      </trkpt>
      <trkpt lat="47.34511" lon="-2.31597">
        <ele>5</ele>
        <time>2020-08-09T08:56:14.000Z</time>
      </trkpt>
      <trkpt lat="47.34496" lon="-2.31592">
        <ele>5</ele>
        <time>2020-08-09T08:56:17.000Z</time>
      </trkpt>
      <trkpt lat="47.3449" lon="-2.31588">
        <ele>5</ele>
        <time>2020-08-09T08:56:18.000Z</time>
      </trkpt>
      <trkpt lat="47.34469" lon="-2.31564">
        <ele>5</ele>
        <time>2020-08-09T08:56:23.000Z</time>
      </trkpt>
      <trkpt lat="47.34431" lon="-2.31524">
        <ele>5</ele>
        <time>2020-08-09T08:56:31.000Z</time>
      </trkpt>
      <trkpt lat="47.34393" lon="-2.31492">
        <ele>5</ele>
        <time>2020-08-09T08:56:38.000Z</time>
      </trkpt>
      <trkpt lat="47.34354" lon="-2.31455">
        <ele>5</ele>
        <time>2020-08-09T08:56:45.000Z</time>
      </trkpt>
      <trkpt lat="47.34327" lon="-2.3143">
        <ele>5</ele>
        <time>2020-08-09T08:56:50.000Z</time>
      </trkpt>
      <trkpt lat="47.34301" lon="-2.31409">
        <ele>5</ele>
        <time>2020-08-09T08:56:55.000Z</time>
      </trkpt>
      <trkpt lat="47.34297" lon="-2.31404">
        <ele>5</ele>
        <time>2020-08-09T08:56:56.000Z</time>
      </trkpt>
      <trkpt lat="47.34286" lon="-2.31393">
        <ele>5</ele>
        <time>2020-08-09T08:57:00.000Z</time>
      </trkpt>
      <trkpt lat="47.34285" lon="-2.31391">
        <ele>5</ele>
        <time>2020-08-09T08:57:03.000Z</time>
      </trkpt>
      <trkpt lat="47.34281" lon="-2.3139">
        <ele>5</ele>
        <time>2020-08-09T08:57:24.000Z</time>
      </trkpt>
      <trkpt lat="47.34272" lon="-2.31383">
        <ele>5</ele>
        <time>2020-08-09T08:57:28.000Z</time>
      </trkpt>
      <trkpt lat="47.34271" lon="-2.31379">
        <ele>5</ele>
        <time>2020-08-09T08:57:30.000Z</time>
      </trkpt>
      <trkpt lat="47.3427" lon="-2.31378">
        <ele>5</ele>
        <time>2020-08-09T08:57:32.000Z</time>
      </trkpt>
      <trkpt lat="47.3427" lon="-2.31376">
        <ele>5</ele>
        <time>2020-08-09T08:57:35.000Z</time>
      </trkpt>
      <trkpt lat="47.34267" lon="-2.31375">
        <ele>5</ele>
        <time>2020-08-09T08:57:39.000Z</time>
      </trkpt>
      <trkpt lat="47.34266" lon="-2.31373">
        <ele>5</ele>
        <time>2020-08-09T08:57:40.000Z</time>
      </trkpt>
      <trkpt lat="47.34266" lon="-2.31373">
        <ele>5</ele>
        <time>2020-08-09T08:57:41.000Z</time>
      </trkpt>
      <trkpt lat="47.34264" lon="-2.3137">
        <ele>5</ele>
        <time>2020-08-09T08:57:53.000Z</time>
      </trkpt>
      <trkpt lat="47.34263" lon="-2.31369">
        <ele>5</ele>
        <time>2020-08-09T08:57:54.000Z</time>
      </trkpt>
      <trkpt lat="47.34261" lon="-2.31368">
        <ele>5</ele>
        <time>2020-08-09T08:57:55.000Z</time>
      </trkpt>
      <trkpt lat="47.34247" lon="-2.31355">
        <ele>5</ele>
        <time>2020-08-09T08:58:00.000Z</time>
      </trkpt>
      <trkpt lat="47.34229" lon="-2.31339">
        <ele>5</ele>
        <time>2020-08-09T08:58:06.000Z</time>
      </trkpt>
      <trkpt lat="47.3421" lon="-2.31321">
        <ele>5</ele>
        <time>2020-08-09T08:58:11.000Z</time>
      </trkpt>
      <trkpt lat="47.34176" lon="-2.3129">
        <ele>5</ele>
        <time>2020-08-09T08:58:19.000Z</time>
      </trkpt>
      <trkpt lat="47.34159" lon="-2.31273">
        <ele>5</ele>
        <time>2020-08-09T08:58:23.000Z</time>
      </trkpt>
      <trkpt lat="47.34146" lon="-2.31261">
        <ele>5</ele>
        <time>2020-08-09T08:58:26.000Z</time>
      </trkpt>
      <trkpt lat="47.34113" lon="-2.31227">
        <ele>5</ele>
        <time>2020-08-09T08:58:35.000Z</time>
      </trkpt>
      <trkpt lat="47.34081" lon="-2.31199">
        <ele>5</ele>
        <time>2020-08-09T08:58:43.000Z</time>
      </trkpt>
      <trkpt lat="47.34052" lon="-2.31176">
        <ele>5</ele>
        <time>2020-08-09T08:58:50.000Z</time>
      </trkpt>
      <trkpt lat="47.34035" lon="-2.31164">
        <ele>5</ele>
        <time>2020-08-09T08:58:54.000Z</time>
      </trkpt>
      <trkpt lat="47.34022" lon="-2.31154">
        <ele>5</ele>
        <time>2020-08-09T08:58:57.000Z</time>
      </trkpt>
      <trkpt lat="47.33996" lon="-2.31136">
        <ele>5</ele>
        <time>2020-08-09T08:59:03.000Z</time>
      </trkpt>
      <trkpt lat="47.33979" lon="-2.31127">
        <ele>5</ele>
        <time>2020-08-09T08:59:07.000Z</time>
      </trkpt>
      <trkpt lat="47.33971" lon="-2.31124">
        <ele>5</ele>
        <time>2020-08-09T08:59:09.000Z</time>
      </trkpt>
      <trkpt lat="47.33954" lon="-2.31117">
        <ele>5</ele>
        <time>2020-08-09T08:59:13.000Z</time>
      </trkpt>
      <trkpt lat="47.33941" lon="-2.31112">
        <ele>5</ele>
        <time>2020-08-09T08:59:16.000Z</time>
      </trkpt>
      <trkpt lat="47.33912" lon="-2.31108">
        <ele>5</ele>
        <time>2020-08-09T08:59:22.000Z</time>
      </trkpt>
      <trkpt lat="47.33903" lon="-2.31108">
        <ele>5</ele>
        <time>2020-08-09T08:59:24.000Z</time>
      </trkpt>
      <trkpt lat="47.33889" lon="-2.31114">
        <ele>5</ele>
        <time>2020-08-09T08:59:27.000Z</time>
      </trkpt>
      <trkpt lat="47.3388" lon="-2.31118">
        <ele>5</ele>
        <time>2020-08-09T08:59:29.000Z</time>
      </trkpt>
      <trkpt lat="47.33865" lon="-2.31124">
        <ele>5</ele>
        <time>2020-08-09T08:59:32.000Z</time>
      </trkpt>
      <trkpt lat="47.33844" lon="-2.31136">
        <ele>5</ele>
        <time>2020-08-09T08:59:37.000Z</time>
      </trkpt>
      <trkpt lat="47.33841" lon="-2.31139">
        <ele>5</ele>
        <time>2020-08-09T08:59:38.000Z</time>
      </trkpt>
      <trkpt lat="47.33829" lon="-2.3115">
        <ele>5</ele>
        <time>2020-08-09T08:59:41.000Z</time>
      </trkpt>
      <trkpt lat="47.33825" lon="-2.31154">
        <ele>5</ele>
        <time>2020-08-09T08:59:42.000Z</time>
      </trkpt>
      <trkpt lat="47.33813" lon="-2.31162">
        <ele>5</ele>
        <time>2020-08-09T08:59:45.000Z</time>
      </trkpt>
      <trkpt lat="47.33797" lon="-2.31172">
        <ele>5</ele>
        <time>2020-08-09T08:59:49.000Z</time>
      </trkpt>
      <trkpt lat="47.33772" lon="-2.31189">
        <ele>5</ele>
        <time>2020-08-09T08:59:56.000Z</time>
      </trkpt>
      <trkpt lat="47.3374" lon="-2.3121">
        <ele>5</ele>
        <time>2020-08-09T09:00:04.000Z</time>
      </trkpt>
      <trkpt lat="47.33714" lon="-2.31226">
        <ele>5</ele>
        <time>2020-08-09T09:00:10.000Z</time>
      </trkpt>
      <trkpt lat="47.33705" lon="-2.31229">
        <ele>5</ele>
        <time>2020-08-09T09:00:12.000Z</time>
      </trkpt>
      <trkpt lat="47.33688" lon="-2.31238">
        <ele>5</ele>
        <time>2020-08-09T09:00:16.000Z</time>
      </trkpt>
      <trkpt lat="47.33676" lon="-2.31241">
        <ele>5</ele>
        <time>2020-08-09T09:00:19.000Z</time>
      </trkpt>
      <trkpt lat="47.33652" lon="-2.31252">
        <ele>5</ele>
        <time>2020-08-09T09:00:25.000Z</time>
      </trkpt>
      <trkpt lat="47.33625" lon="-2.31263">
        <ele>5</ele>
        <time>2020-08-09T09:00:31.000Z</time>
      </trkpt>
      <trkpt lat="47.33603" lon="-2.31273">
        <ele>5</ele>
        <time>2020-08-09T09:00:36.000Z</time>
      </trkpt>
      <trkpt lat="47.33577" lon="-2.31286">
        <ele>5</ele>
        <time>2020-08-09T09:00:42.000Z</time>
      </trkpt>
      <trkpt lat="47.33572" lon="-2.31286">
        <ele>5</ele>
        <time>2020-08-09T09:00:43.000Z</time>
      </trkpt>
      <trkpt lat="47.33556" lon="-2.31276">
        <ele>5</ele>
        <time>2020-08-09T09:00:47.000Z</time>
      </trkpt>
      <trkpt lat="47.33539" lon="-2.31254">
        <ele>5</ele>
        <time>2020-08-09T09:00:52.000Z</time>
      </trkpt>
      <trkpt lat="47.33536" lon="-2.31249">
        <ele>5</ele>
        <time>2020-08-09T09:00:53.000Z</time>
      </trkpt>
      <trkpt lat="47.33533" lon="-2.31244">
        <ele>5</ele>
        <time>2020-08-09T09:00:54.000Z</time>
      </trkpt>
      <trkpt lat="47.33522" lon="-2.31227">
        <ele>5</ele>
        <time>2020-08-09T09:00:58.000Z</time>
      </trkpt>
      <trkpt lat="47.33503" lon="-2.312">
        <ele>5</ele>
        <time>2020-08-09T09:01:04.000Z</time>
      </trkpt>
      <trkpt lat="47.33494" lon="-2.31186">
        <ele>5</ele>
        <time>2020-08-09T09:01:07.000Z</time>
      </trkpt>
      <trkpt lat="47.33485" lon="-2.31168">
        <ele>5</ele>
        <time>2020-08-09T09:01:11.000Z</time>
      </trkpt>
      <trkpt lat="47.3347" lon="-2.31146">
        <ele>5</ele>
        <time>2020-08-09T09:01:16.000Z</time>
      </trkpt>
      <trkpt lat="47.33467" lon="-2.3114">
        <ele>5</ele>
        <time>2020-08-09T09:01:17.000Z</time>
      </trkpt>
      <trkpt lat="47.33452" lon="-2.31106">
        <ele>5</ele>
        <time>2020-08-09T09:01:23.000Z</time>
      </trkpt>
      <trkpt lat="47.33449" lon="-2.31099">
        <ele>5</ele>
        <time>2020-08-09T09:01:24.000Z</time>
      </trkpt>
      <trkpt lat="47.33443" lon="-2.31079">
        <ele>5</ele>
        <time>2020-08-09T09:01:27.000Z</time>
      </trkpt>
      <trkpt lat="47.33441" lon="-2.31067">
        <ele>5</ele>
        <time>2020-08-09T09:01:29.000Z</time>
      </trkpt>
      <trkpt lat="47.33431" lon="-2.31037">
        <ele>5</ele>
        <time>2020-08-09T09:01:35.000Z</time>
      </trkpt>
      <trkpt lat="47.33416" lon="-2.31004">
        <ele>5</ele>
        <time>2020-08-09T09:01:41.000Z</time>
      </trkpt>
      <trkpt lat="47.33401" lon="-2.30977">
        <ele>5</ele>
        <time>2020-08-09T09:01:46.000Z</time>
      </trkpt>
      <trkpt lat="47.33387" lon="-2.30952">
        <ele>5</ele>
        <time>2020-08-09T09:01:51.000Z</time>
      </trkpt>
      <trkpt lat="47.33381" lon="-2.3094">
        <ele>5</ele>
        <time>2020-08-09T09:01:53.000Z</time>
      </trkpt>
      <trkpt lat="47.33373" lon="-2.3092">
        <ele>5.4000000953674</ele>
        <time>2020-08-09T09:01:56.000Z</time>
      </trkpt>
      <trkpt lat="47.3337" lon="-2.30913">
        <ele>5.8000001907349</ele>
        <time>2020-08-09T09:01:57.000Z</time>
      </trkpt>
      <trkpt lat="47.33368" lon="-2.30906">
        <ele>6.1999998092651</ele>
        <time>2020-08-09T09:01:58.000Z</time>
      </trkpt>
      <trkpt lat="47.33366" lon="-2.30899">
        <ele>6.5999999046326</ele>
        <time>2020-08-09T09:01:59.000Z</time>
      </trkpt>
      <trkpt lat="47.33364" lon="-2.30893">
        <ele>7</ele>
        <time>2020-08-09T09:02:00.000Z</time>
      </trkpt>
      <trkpt lat="47.33361" lon="-2.30876">
        <ele>7</ele>
        <time>2020-08-09T09:02:04.000Z</time>
      </trkpt>
      <trkpt lat="47.33361" lon="-2.30859">
        <ele>7</ele>
        <time>2020-08-09T09:02:10.000Z</time>
      </trkpt>
      <trkpt lat="47.33359" lon="-2.30834">
        <ele>7</ele>
        <time>2020-08-09T09:02:16.000Z</time>
      </trkpt>
      <trkpt lat="47.33359" lon="-2.30827">
        <ele>6.5999999046326</ele>
        <time>2020-08-09T09:02:18.000Z</time>
      </trkpt>
      <trkpt lat="47.33358" lon="-2.30823">
        <ele>6.1999998092651</ele>
        <time>2020-08-09T09:02:19.000Z</time>
      </trkpt>
      <trkpt lat="47.33358" lon="-2.3082">
        <ele>5.8000001907349</ele>
        <time>2020-08-09T09:02:20.000Z</time>
      </trkpt>
      <trkpt lat="47.33358" lon="-2.30817">
        <ele>5.1999998092651</ele>
        <time>2020-08-09T09:02:21.000Z</time>
      </trkpt>
      <trkpt lat="47.33357" lon="-2.30813">
        <ele>4.8000001907349</ele>
        <time>2020-08-09T09:02:22.000Z</time>
      </trkpt>
      <trkpt lat="47.33353" lon="-2.30793">
        <ele>4.8000001907349</ele>
        <time>2020-08-09T09:02:26.000Z</time>
      </trkpt>
      <trkpt lat="47.33347" lon="-2.30778">
        <ele>4.8000001907349</ele>
        <time>2020-08-09T09:02:29.000Z</time>
      </trkpt>
      <trkpt lat="47.33342" lon="-2.30767">
        <ele>4.8000001907349</ele>
        <time>2020-08-09T09:02:31.000Z</time>
      </trkpt>
      <trkpt lat="47.33337" lon="-2.30758">
        <ele>4.8000001907349</ele>
        <time>2020-08-09T09:02:33.000Z</time>
      </trkpt>
      <trkpt lat="47.33334" lon="-2.30753">
        <ele>4.8000001907349</ele>
        <time>2020-08-09T09:02:34.000Z</time>
      </trkpt>
      <trkpt lat="47.33332" lon="-2.30741">
        <ele>4.8000001907349</ele>
        <time>2020-08-09T09:02:36.000Z</time>
      </trkpt>
      <trkpt lat="47.33334" lon="-2.3071">
        <ele>4.8000001907349</ele>
        <time>2020-08-09T09:02:41.000Z</time>
      </trkpt>
      <trkpt lat="47.33345" lon="-2.3068">
        <ele>4.8000001907349</ele>
        <time>2020-08-09T09:02:47.000Z</time>
      </trkpt>
      <trkpt lat="47.33351" lon="-2.3067">
        <ele>4.8000001907349</ele>
        <time>2020-08-09T09:02:49.000Z</time>
      </trkpt>
      <trkpt lat="47.33354" lon="-2.30649">
        <ele>4.8000001907349</ele>
        <time>2020-08-09T09:02:52.000Z</time>
      </trkpt>
      <trkpt lat="47.33355" lon="-2.30642">
        <ele>4.8000001907349</ele>
        <time>2020-08-09T09:02:53.000Z</time>
      </trkpt>
      <trkpt lat="47.33359" lon="-2.30611">
        <ele>4.8000001907349</ele>
        <time>2020-08-09T09:02:58.000Z</time>
      </trkpt>
      <trkpt lat="47.33361" lon="-2.30605">
        <ele>4.8000001907349</ele>
        <time>2020-08-09T09:02:59.000Z</time>
      </trkpt>
      <trkpt lat="47.3337" lon="-2.30586">
        <ele>4.8000001907349</ele>
        <time>2020-08-09T09:03:04.000Z</time>
      </trkpt>
      <trkpt lat="47.33375" lon="-2.30577">
        <ele>4.8000001907349</ele>
        <time>2020-08-09T09:03:11.000Z</time>
      </trkpt>
      <trkpt lat="47.33376" lon="-2.30577">
        <ele>4.8000001907349</ele>
        <time>2020-08-09T09:03:12.000Z</time>
      </trkpt>
      <trkpt lat="47.33376" lon="-2.30575">
        <ele>4.8000001907349</ele>
        <time>2020-08-09T09:03:31.000Z</time>
      </trkpt>
      <trkpt lat="47.33376" lon="-2.30573">
        <ele>4.8000001907349</ele>
        <time>2020-08-09T09:03:32.000Z</time>
      </trkpt>
      <trkpt lat="47.33377" lon="-2.30567">
        <ele>4.8000001907349</ele>
        <time>2020-08-09T09:03:36.000Z</time>
      </trkpt>
      <trkpt lat="47.33374" lon="-2.30551">
        <ele>4.8000001907349</ele>
        <time>2020-08-09T09:04:10.000Z</time>
      </trkpt>
      <trkpt lat="47.33362" lon="-2.30543">
        <ele>4.8000001907349</ele>
        <time>2020-08-09T09:04:16.000Z</time>
      </trkpt>
      <trkpt lat="47.33358" lon="-2.30533">
        <ele>4.8000001907349</ele>
        <time>2020-08-09T09:04:19.000Z</time>
      </trkpt>
      <trkpt lat="47.33355" lon="-2.30528">
        <ele>4.8000001907349</ele>
        <time>2020-08-09T09:04:21.000Z</time>
      </trkpt>
      <trkpt lat="47.33353" lon="-2.30515">
        <ele>4.8000001907349</ele>
        <time>2020-08-09T09:04:27.000Z</time>
      </trkpt>
      <trkpt lat="47.33355" lon="-2.3051">
        <ele>4.8000001907349</ele>
        <time>2020-08-09T09:04:31.000Z</time>
      </trkpt>
      <trkpt lat="47.33355" lon="-2.30508">
        <ele>4.8000001907349</ele>
        <time>2020-08-09T09:04:33.000Z</time>
      </trkpt>
      <trkpt lat="47.33346" lon="-2.30503">
        <ele>4.8000001907349</ele>
        <time>2020-08-09T09:05:01.000Z</time>
      </trkpt>
      <trkpt lat="47.33345" lon="-2.30503">
        <ele>4.8000001907349</ele>
        <time>2020-08-09T09:05:02.000Z</time>
      </trkpt>
      <trkpt lat="47.33338" lon="-2.30501">
        <ele>4.8000001907349</ele>
        <time>2020-08-09T09:05:09.000Z</time>
      </trkpt>
      <trkpt lat="47.33331" lon="-2.30504">
        <ele>4.8000001907349</ele>
        <time>2020-08-09T09:05:14.000Z</time>
      </trkpt>
      <trkpt lat="47.33328" lon="-2.30504">
        <ele>4.8000001907349</ele>
        <time>2020-08-09T09:05:16.000Z</time>
      </trkpt>
      <trkpt lat="47.33315" lon="-2.30504">
        <ele>4.8000001907349</ele>
        <time>2020-08-09T09:05:22.000Z</time>
      </trkpt>
      <trkpt lat="47.33301" lon="-2.30507">
        <ele>4.8000001907349</ele>
        <time>2020-08-09T09:05:28.000Z</time>
      </trkpt>
      <trkpt lat="47.3328" lon="-2.30511">
        <ele>4.8000001907349</ele>
        <time>2020-08-09T09:05:36.000Z</time>
      </trkpt>
      <trkpt lat="47.33257" lon="-2.30514">
        <ele>4.8000001907349</ele>
        <time>2020-08-09T09:05:43.000Z</time>
      </trkpt>
      <trkpt lat="47.33237" lon="-2.3052">
        <ele>4.8000001907349</ele>
        <time>2020-08-09T09:05:50.000Z</time>
      </trkpt>
      <trkpt lat="47.33215" lon="-2.30527">
        <ele>4.8000001907349</ele>
        <time>2020-08-09T09:05:57.000Z</time>
      </trkpt>
      <trkpt lat="47.33188" lon="-2.30538">
        <ele>4.8000001907349</ele>
        <time>2020-08-09T09:06:04.000Z</time>
      </trkpt>
      <trkpt lat="47.33162" lon="-2.30546">
        <ele>4.8000001907349</ele>
        <time>2020-08-09T09:06:11.000Z</time>
      </trkpt>
      <trkpt lat="47.33142" lon="-2.30555">
        <ele>4.8000001907349</ele>
        <time>2020-08-09T09:06:16.000Z</time>
      </trkpt>
      <trkpt lat="47.33131" lon="-2.30558">
        <ele>4.8000001907349</ele>
        <time>2020-08-09T09:06:18.000Z</time>
      </trkpt>
      <trkpt lat="47.33103" lon="-2.30572">
        <ele>4.8000001907349</ele>
        <time>2020-08-09T09:06:25.000Z</time>
      </trkpt>
      <trkpt lat="47.33094" lon="-2.30593">
        <ele>4.8000001907349</ele>
        <time>2020-08-09T09:06:29.000Z</time>
      </trkpt>
      <trkpt lat="47.33088" lon="-2.30634">
        <ele>4.8000001907349</ele>
        <time>2020-08-09T09:06:35.000Z</time>
      </trkpt>
      <trkpt lat="47.33079" lon="-2.3068">
        <ele>4.8000001907349</ele>
        <time>2020-08-09T09:06:42.000Z</time>
      </trkpt>
      <trkpt lat="47.33072" lon="-2.30718">
        <ele>5.1999998092651</ele>
        <time>2020-08-09T09:06:48.000Z</time>
      </trkpt>
      <trkpt lat="47.3307" lon="-2.30725">
        <ele>5.5999999046326</ele>
        <time>2020-08-09T09:06:49.000Z</time>
      </trkpt>
      <trkpt lat="47.33067" lon="-2.30733">
        <ele>6</ele>
        <time>2020-08-09T09:06:50.000Z</time>
      </trkpt>
      <trkpt lat="47.33066" lon="-2.3074">
        <ele>6.4000000953674</ele>
        <time>2020-08-09T09:06:51.000Z</time>
      </trkpt>
      <trkpt lat="47.33065" lon="-2.30747">
        <ele>6.8000001907349</ele>
        <time>2020-08-09T09:06:52.000Z</time>
      </trkpt>
      <trkpt lat="47.3306" lon="-2.30777">
        <ele>6.8000001907349</ele>
        <time>2020-08-09T09:06:56.000Z</time>
      </trkpt>
      <trkpt lat="47.3305" lon="-2.30803">
        <ele>6.8000001907349</ele>
        <time>2020-08-09T09:07:00.000Z</time>
      </trkpt>
      <trkpt lat="47.33046" lon="-2.30807">
        <ele>6.8000001907349</ele>
        <time>2020-08-09T09:07:01.000Z</time>
      </trkpt>
      <trkpt lat="47.3303" lon="-2.30808">
        <ele>6.8000001907349</ele>
        <time>2020-08-09T09:07:04.000Z</time>
      </trkpt>
      <trkpt lat="47.33025" lon="-2.30808">
        <ele>6.8000001907349</ele>
        <time>2020-08-09T09:07:05.000Z</time>
      </trkpt>
      <trkpt lat="47.33011" lon="-2.30807">
        <ele>6.8000001907349</ele>
        <time>2020-08-09T09:07:08.000Z</time>
      </trkpt>
      <trkpt lat="47.33001" lon="-2.30807">
        <ele>6.8000001907349</ele>
        <time>2020-08-09T09:07:10.000Z</time>
      </trkpt>
      <trkpt lat="47.32971" lon="-2.30806">
        <ele>6.8000001907349</ele>
        <time>2020-08-09T09:07:17.000Z</time>
      </trkpt>
      <trkpt lat="47.32966" lon="-2.30806">
        <ele>6.8000001907349</ele>
        <time>2020-08-09T09:07:18.000Z</time>
      </trkpt>
      <trkpt lat="47.32948" lon="-2.30807">
        <ele>7.4000000953674</ele>
        <time>2020-08-09T09:07:22.000Z</time>
      </trkpt>
      <trkpt lat="47.32943" lon="-2.30808">
        <ele>7.8000001907349</ele>
        <time>2020-08-09T09:07:23.000Z</time>
      </trkpt>
      <trkpt lat="47.32939" lon="-2.30808">
        <ele>8.1999998092651</ele>
        <time>2020-08-09T09:07:24.000Z</time>
      </trkpt>
      <trkpt lat="47.32936" lon="-2.30808">
        <ele>8.6000003814697</ele>
        <time>2020-08-09T09:07:25.000Z</time>
      </trkpt>
      <trkpt lat="47.32932" lon="-2.30808">
        <ele>9</ele>
        <time>2020-08-09T09:07:26.000Z</time>
      </trkpt>
      <trkpt lat="47.32921" lon="-2.30809">
        <ele>9</ele>
        <time>2020-08-09T09:07:30.000Z</time>
      </trkpt>
      <trkpt lat="47.32917" lon="-2.30814">
        <ele>9</ele>
        <time>2020-08-09T09:07:35.000Z</time>
      </trkpt>
      <trkpt lat="47.32917" lon="-2.30814">
        <ele>9</ele>
        <time>2020-08-09T09:07:36.000Z</time>
      </trkpt>
      <trkpt lat="47.32916" lon="-2.30818">
        <ele>9</ele>
        <time>2020-08-09T09:07:43.000Z</time>
      </trkpt>
      <trkpt lat="47.32915" lon="-2.30823">
        <ele>9</ele>
        <time>2020-08-09T09:07:45.000Z</time>
      </trkpt>
      <trkpt lat="47.32914" lon="-2.30837">
        <ele>9</ele>
        <time>2020-08-09T09:07:49.000Z</time>
      </trkpt>
      <trkpt lat="47.32913" lon="-2.30844">
        <ele>9</ele>
        <time>2020-08-09T09:07:51.000Z</time>
      </trkpt>
      <trkpt lat="47.3291" lon="-2.30873">
        <ele>9</ele>
        <time>2020-08-09T09:07:58.000Z</time>
      </trkpt>
      <trkpt lat="47.32911" lon="-2.30904">
        <ele>9</ele>
        <time>2020-08-09T09:08:05.000Z</time>
      </trkpt>
      <trkpt lat="47.32908" lon="-2.30939">
        <ele>9</ele>
        <time>2020-08-09T09:08:12.000Z</time>
      </trkpt>
      <trkpt lat="47.32899" lon="-2.30973">
        <ele>9</ele>
        <time>2020-08-09T09:08:18.000Z</time>
      </trkpt>
      <trkpt lat="47.32896" lon="-2.31002">
        <ele>9</ele>
        <time>2020-08-09T09:08:23.000Z</time>
      </trkpt>
      <trkpt lat="47.32896" lon="-2.31053">
        <ele>9</ele>
        <time>2020-08-09T09:08:30.000Z</time>
      </trkpt>
      <trkpt lat="47.32896" lon="-2.31083">
        <ele>9</ele>
        <time>2020-08-09T09:08:34.000Z</time>
      </trkpt>
      <trkpt lat="47.32889" lon="-2.31093">
        <ele>9</ele>
        <time>2020-08-09T09:08:36.000Z</time>
      </trkpt>
      <trkpt lat="47.3288" lon="-2.31097">
        <ele>9</ele>
        <time>2020-08-09T09:08:38.000Z</time>
      </trkpt>
      <trkpt lat="47.32871" lon="-2.311">
        <ele>9</ele>
        <time>2020-08-09T09:08:40.000Z</time>
      </trkpt>
      <trkpt lat="47.32867" lon="-2.31101">
        <ele>9</ele>
        <time>2020-08-09T09:08:41.000Z</time>
      </trkpt>
      <trkpt lat="47.32856" lon="-2.31091">
        <ele>9</ele>
        <time>2020-08-09T09:08:44.000Z</time>
      </trkpt>
      <trkpt lat="47.32849" lon="-2.31076">
        <ele>9</ele>
        <time>2020-08-09T09:08:47.000Z</time>
      </trkpt>
      <trkpt lat="47.32845" lon="-2.31064">
        <ele>9</ele>
        <time>2020-08-09T09:08:49.000Z</time>
      </trkpt>
      <trkpt lat="47.32839" lon="-2.31053">
        <ele>9</ele>
        <time>2020-08-09T09:08:51.000Z</time>
      </trkpt>
      <trkpt lat="47.32829" lon="-2.31042">
        <ele>9</ele>
        <time>2020-08-09T09:08:54.000Z</time>
      </trkpt>
      <trkpt lat="47.3282" lon="-2.31035">
        <ele>9</ele>
        <time>2020-08-09T09:08:59.000Z</time>
      </trkpt>
      <trkpt lat="47.32813" lon="-2.3103">
        <ele>9</ele>
        <time>2020-08-09T09:09:05.000Z</time>
      </trkpt>
      <trkpt lat="47.32812" lon="-2.31028">
        <ele>9</ele>
        <time>2020-08-09T09:09:06.000Z</time>
      </trkpt>
      <trkpt lat="47.32814" lon="-2.31027">
        <ele>9</ele>
        <time>2020-08-09T09:09:07.000Z</time>
      </trkpt>
      <trkpt lat="47.32818" lon="-2.31029">
        <ele>9</ele>
        <time>2020-08-09T09:09:09.000Z</time>
      </trkpt>
      <trkpt lat="47.32825" lon="-2.3104">
        <ele>9</ele>
        <time>2020-08-09T09:09:12.000Z</time>
      </trkpt>
      <trkpt lat="47.32827" lon="-2.31043">
        <ele>9</ele>
        <time>2020-08-09T09:09:13.000Z</time>
      </trkpt>
      <trkpt lat="47.3285" lon="-2.31073">
        <ele>9</ele>
        <time>2020-08-09T09:09:21.000Z</time>
      </trkpt>
      <trkpt lat="47.3286" lon="-2.31106">
        <ele>9</ele>
        <time>2020-08-09T09:09:27.000Z</time>
      </trkpt>
      <trkpt lat="47.32874" lon="-2.31145">
        <ele>9</ele>
        <time>2020-08-09T09:09:35.000Z</time>
      </trkpt>
      <trkpt lat="47.32875" lon="-2.31152">
        <ele>9</ele>
        <time>2020-08-09T09:09:36.000Z</time>
      </trkpt>
      <trkpt lat="47.32873" lon="-2.31172">
        <ele>9</ele>
        <time>2020-08-09T09:09:39.000Z</time>
      </trkpt>
      <trkpt lat="47.32869" lon="-2.31223">
        <ele>9</ele>
        <time>2020-08-09T09:09:46.000Z</time>
      </trkpt>
      <trkpt lat="47.32858" lon="-2.31242">
        <ele>9</ele>
        <time>2020-08-09T09:09:50.000Z</time>
      </trkpt>
      <trkpt lat="47.32854" lon="-2.31249">
        <ele>9</ele>
        <time>2020-08-09T09:09:51.000Z</time>
      </trkpt>
      <trkpt lat="47.32853" lon="-2.31263">
        <ele>9</ele>
        <time>2020-08-09T09:09:53.000Z</time>
      </trkpt>
      <trkpt lat="47.32856" lon="-2.31274">
        <ele>9</ele>
        <time>2020-08-09T09:09:55.000Z</time>
      </trkpt>
      <trkpt lat="47.32859" lon="-2.31284">
        <ele>9</ele>
        <time>2020-08-09T09:09:57.000Z</time>
      </trkpt>
      <trkpt lat="47.32862" lon="-2.31309">
        <ele>9</ele>
        <time>2020-08-09T09:10:02.000Z</time>
      </trkpt>
      <trkpt lat="47.32852" lon="-2.31316">
        <ele>9</ele>
        <time>2020-08-09T09:10:05.000Z</time>
      </trkpt>
      <trkpt lat="47.32847" lon="-2.31318">
        <ele>9</ele>
        <time>2020-08-09T09:10:06.000Z</time>
      </trkpt>
      <trkpt lat="47.32823" lon="-2.31325">
        <ele>9</ele>
        <time>2020-08-09T09:10:11.000Z</time>
      </trkpt>
      <trkpt lat="47.32797" lon="-2.31332">
        <ele>9</ele>
        <time>2020-08-09T09:10:17.000Z</time>
      </trkpt>
      <trkpt lat="47.32789" lon="-2.31335">
        <ele>9.3999996185303</ele>
        <time>2020-08-09T09:10:19.000Z</time>
      </trkpt>
      <trkpt lat="47.32785" lon="-2.31337">
        <ele>9.8000001907349</ele>
        <time>2020-08-09T09:10:20.000Z</time>
      </trkpt>
      <trkpt lat="47.32781" lon="-2.31339">
        <ele>10.199999809265</ele>
        <time>2020-08-09T09:10:21.000Z</time>
      </trkpt>
      <trkpt lat="47.32778" lon="-2.31341">
        <ele>10.60000038147</ele>
        <time>2020-08-09T09:10:22.000Z</time>
      </trkpt>
      <trkpt lat="47.32775" lon="-2.31343">
        <ele>11.199999809265</ele>
        <time>2020-08-09T09:10:23.000Z</time>
      </trkpt>
      <trkpt lat="47.32771" lon="-2.31345">
        <ele>11.199999809265</ele>
        <time>2020-08-09T09:10:24.000Z</time>
      </trkpt>
      <trkpt lat="47.32753" lon="-2.31355">
        <ele>11.199999809265</ele>
        <time>2020-08-09T09:10:29.000Z</time>
      </trkpt>
      <trkpt lat="47.32749" lon="-2.31356">
        <ele>11.199999809265</ele>
        <time>2020-08-09T09:10:30.000Z</time>
      </trkpt>
      <trkpt lat="47.3274" lon="-2.31358">
        <ele>11.199999809265</ele>
        <time>2020-08-09T09:10:32.000Z</time>
      </trkpt>
      <trkpt lat="47.32724" lon="-2.31356">
        <ele>11.199999809265</ele>
        <time>2020-08-09T09:10:36.000Z</time>
      </trkpt>
      <trkpt lat="47.32691" lon="-2.3136">
        <ele>11.199999809265</ele>
        <time>2020-08-09T09:10:44.000Z</time>
      </trkpt>
      <trkpt lat="47.32679" lon="-2.31364">
        <ele>11.60000038147</ele>
        <time>2020-08-09T09:10:47.000Z</time>
      </trkpt>
      <trkpt lat="47.32675" lon="-2.31366">
        <ele>12</ele>
        <time>2020-08-09T09:10:48.000Z</time>
      </trkpt>
      <trkpt lat="47.3267" lon="-2.31367">
        <ele>12.800000190735</ele>
        <time>2020-08-09T09:10:49.000Z</time>
      </trkpt>
      <trkpt lat="47.32666" lon="-2.31369">
        <ele>13.199999809265</ele>
        <time>2020-08-09T09:10:50.000Z</time>
      </trkpt>
      <trkpt lat="47.32661" lon="-2.31371">
        <ele>13.199999809265</ele>
        <time>2020-08-09T09:10:51.000Z</time>
      </trkpt>
      <trkpt lat="47.3263" lon="-2.31381">
        <ele>13.199999809265</ele>
        <time>2020-08-09T09:10:58.000Z</time>
      </trkpt>
      <trkpt lat="47.32605" lon="-2.31388">
        <ele>13.199999809265</ele>
        <time>2020-08-09T09:11:05.000Z</time>
      </trkpt>
      <trkpt lat="47.32587" lon="-2.31392">
        <ele>13.60000038147</ele>
        <time>2020-08-09T09:11:10.000Z</time>
      </trkpt>
      <trkpt lat="47.32584" lon="-2.31392">
        <ele>14</ele>
        <time>2020-08-09T09:11:11.000Z</time>
      </trkpt>
      <trkpt lat="47.3258" lon="-2.31393">
        <ele>14.39999961853</ele>
        <time>2020-08-09T09:11:12.000Z</time>
      </trkpt>
      <trkpt lat="47.32577" lon="-2.31393">
        <ele>15.199999809265</ele>
        <time>2020-08-09T09:11:13.000Z</time>
      </trkpt>
      <trkpt lat="47.32554" lon="-2.31399">
        <ele>15.199999809265</ele>
        <time>2020-08-09T09:11:19.000Z</time>
      </trkpt>
      <trkpt lat="47.32541" lon="-2.31403">
        <ele>15.199999809265</ele>
        <time>2020-08-09T09:11:24.000Z</time>
      </trkpt>
      <trkpt lat="47.32539" lon="-2.31407">
        <ele>15.199999809265</ele>
        <time>2020-08-09T09:11:28.000Z</time>
      </trkpt>
      <trkpt lat="47.32538" lon="-2.31407">
        <ele>15.199999809265</ele>
        <time>2020-08-09T09:11:29.000Z</time>
      </trkpt>
      <trkpt lat="47.32538" lon="-2.31402">
        <ele>15.199999809265</ele>
        <time>2020-08-09T09:11:34.000Z</time>
      </trkpt>
      <trkpt lat="47.32541" lon="-2.31403">
        <ele>15.199999809265</ele>
        <time>2020-08-09T09:11:36.000Z</time>
      </trkpt>
      <trkpt lat="47.32547" lon="-2.31402">
        <ele>15.199999809265</ele>
        <time>2020-08-09T09:11:39.000Z</time>
      </trkpt>
      <trkpt lat="47.32553" lon="-2.31393">
        <ele>15.199999809265</ele>
        <time>2020-08-09T09:11:42.000Z</time>
      </trkpt>
      <trkpt lat="47.32554" lon="-2.31387">
        <ele>15.199999809265</ele>
        <time>2020-08-09T09:11:43.000Z</time>
      </trkpt>
      <trkpt lat="47.32556" lon="-2.31374">
        <ele>15.199999809265</ele>
        <time>2020-08-09T09:11:45.000Z</time>
      </trkpt>
      <trkpt lat="47.32557" lon="-2.31354">
        <ele>15.199999809265</ele>
        <time>2020-08-09T09:11:48.000Z</time>
      </trkpt>
      <trkpt lat="47.32562" lon="-2.31328">
        <ele>15.199999809265</ele>
        <time>2020-08-09T09:11:52.000Z</time>
      </trkpt>
      <trkpt lat="47.32565" lon="-2.31322">
        <ele>15.199999809265</ele>
        <time>2020-08-09T09:11:53.000Z</time>
      </trkpt>
      <trkpt lat="47.3257" lon="-2.31308">
        <ele>15.199999809265</ele>
        <time>2020-08-09T09:11:55.000Z</time>
      </trkpt>
      <trkpt lat="47.32572" lon="-2.31293">
        <ele>15.199999809265</ele>
        <time>2020-08-09T09:11:57.000Z</time>
      </trkpt>
      <trkpt lat="47.32572" lon="-2.31285">
        <ele>15.199999809265</ele>
        <time>2020-08-09T09:11:58.000Z</time>
      </trkpt>
      <trkpt lat="47.32573" lon="-2.3125">
        <ele>15.199999809265</ele>
        <time>2020-08-09T09:12:02.000Z</time>
      </trkpt>
      <trkpt lat="47.32574" lon="-2.31217">
        <ele>15.199999809265</ele>
        <time>2020-08-09T09:12:06.000Z</time>
      </trkpt>
      <trkpt lat="47.3257" lon="-2.31203">
        <ele>15.199999809265</ele>
        <time>2020-08-09T09:12:08.000Z</time>
      </trkpt>
      <trkpt lat="47.32562" lon="-2.31178">
        <ele>15.199999809265</ele>
        <time>2020-08-09T09:12:13.000Z</time>
      </trkpt>
      <trkpt lat="47.32565" lon="-2.31152">
        <ele>15.199999809265</ele>
        <time>2020-08-09T09:12:18.000Z</time>
      </trkpt>
      <trkpt lat="47.32568" lon="-2.31109">
        <ele>15.199999809265</ele>
        <time>2020-08-09T09:12:26.000Z</time>
      </trkpt>
      <trkpt lat="47.32568" lon="-2.31077">
        <ele>15.199999809265</ele>
        <time>2020-08-09T09:12:31.000Z</time>
      </trkpt>
      <trkpt lat="47.32568" lon="-2.31063">
        <ele>15.199999809265</ele>
        <time>2020-08-09T09:12:33.000Z</time>
      </trkpt>
      <trkpt lat="47.32566" lon="-2.31045">
        <ele>15.199999809265</ele>
        <time>2020-08-09T09:12:36.000Z</time>
      </trkpt>
      <trkpt lat="47.32565" lon="-2.31039">
        <ele>15.60000038147</ele>
        <time>2020-08-09T09:12:37.000Z</time>
      </trkpt>
      <trkpt lat="47.32565" lon="-2.31033">
        <ele>16</ele>
        <time>2020-08-09T09:12:38.000Z</time>
      </trkpt>
      <trkpt lat="47.32564" lon="-2.31028">
        <ele>16.39999961853</ele>
        <time>2020-08-09T09:12:39.000Z</time>
      </trkpt>
      <trkpt lat="47.32563" lon="-2.31022">
        <ele>16.799999237061</ele>
        <time>2020-08-09T09:12:40.000Z</time>
      </trkpt>
      <trkpt lat="47.32563" lon="-2.31016">
        <ele>17.39999961853</ele>
        <time>2020-08-09T09:12:41.000Z</time>
      </trkpt>
      <trkpt lat="47.32562" lon="-2.31003">
        <ele>17.39999961853</ele>
        <time>2020-08-09T09:12:43.000Z</time>
      </trkpt>
      <trkpt lat="47.32561" lon="-2.3099">
        <ele>17.39999961853</ele>
        <time>2020-08-09T09:12:45.000Z</time>
      </trkpt>
      <trkpt lat="47.32563" lon="-2.30962">
        <ele>17.39999961853</ele>
        <time>2020-08-09T09:12:49.000Z</time>
      </trkpt>
      <trkpt lat="47.32566" lon="-2.30907">
        <ele>17.39999961853</ele>
        <time>2020-08-09T09:12:56.000Z</time>
      </trkpt>
      <trkpt lat="47.32567" lon="-2.30897">
        <ele>17.39999961853</ele>
        <time>2020-08-09T09:12:57.000Z</time>
      </trkpt>
      <trkpt lat="47.32565" lon="-2.3084">
        <ele>17.39999961853</ele>
        <time>2020-08-09T09:13:03.000Z</time>
      </trkpt>
      <trkpt lat="47.32558" lon="-2.30761">
        <ele>17.39999961853</ele>
        <time>2020-08-09T09:13:11.000Z</time>
      </trkpt>
      <trkpt lat="47.32547" lon="-2.30692">
        <ele>17.39999961853</ele>
        <time>2020-08-09T09:13:18.000Z</time>
      </trkpt>
      <trkpt lat="47.32542" lon="-2.30652">
        <ele>17.39999961853</ele>
        <time>2020-08-09T09:13:23.000Z</time>
      </trkpt>
      <trkpt lat="47.32533" lon="-2.3061">
        <ele>17.39999961853</ele>
        <time>2020-08-09T09:13:29.000Z</time>
      </trkpt>
      <trkpt lat="47.32528" lon="-2.3058">
        <ele>17.39999961853</ele>
        <time>2020-08-09T09:13:33.000Z</time>
      </trkpt>
      <trkpt lat="47.32527" lon="-2.30574">
        <ele>17.39999961853</ele>
        <time>2020-08-09T09:13:34.000Z</time>
      </trkpt>
      <trkpt lat="47.32519" lon="-2.30521">
        <ele>17.39999961853</ele>
        <time>2020-08-09T09:13:41.000Z</time>
      </trkpt>
      <trkpt lat="47.32508" lon="-2.30469">
        <ele>17.39999961853</ele>
        <time>2020-08-09T09:13:48.000Z</time>
      </trkpt>
      <trkpt lat="47.32503" lon="-2.3044">
        <ele>17.39999961853</ele>
        <time>2020-08-09T09:13:52.000Z</time>
      </trkpt>
      <trkpt lat="47.32501" lon="-2.30421">
        <ele>17.39999961853</ele>
        <time>2020-08-09T09:13:55.000Z</time>
      </trkpt>
      <trkpt lat="47.32508" lon="-2.30413">
        <ele>17.39999961853</ele>
        <time>2020-08-09T09:13:57.000Z</time>
      </trkpt>
      <trkpt lat="47.32518" lon="-2.30409">
        <ele>17.39999961853</ele>
        <time>2020-08-09T09:13:59.000Z</time>
      </trkpt>
      <trkpt lat="47.32533" lon="-2.30403">
        <ele>17.39999961853</ele>
        <time>2020-08-09T09:14:02.000Z</time>
      </trkpt>
      <trkpt lat="47.32541" lon="-2.30396">
        <ele>17.39999961853</ele>
        <time>2020-08-09T09:14:04.000Z</time>
      </trkpt>
      <trkpt lat="47.32543" lon="-2.3039">
        <ele>17.39999961853</ele>
        <time>2020-08-09T09:14:05.000Z</time>
      </trkpt>
      <trkpt lat="47.3254" lon="-2.30372">
        <ele>17.39999961853</ele>
        <time>2020-08-09T09:14:08.000Z</time>
      </trkpt>
      <trkpt lat="47.32539" lon="-2.30366">
        <ele>17.39999961853</ele>
        <time>2020-08-09T09:14:09.000Z</time>
      </trkpt>
      <trkpt lat="47.32536" lon="-2.30354">
        <ele>17.39999961853</ele>
        <time>2020-08-09T09:14:11.000Z</time>
      </trkpt>
      <trkpt lat="47.32533" lon="-2.30342">
        <ele>17.39999961853</ele>
        <time>2020-08-09T09:14:13.000Z</time>
      </trkpt>
      <trkpt lat="47.32531" lon="-2.30329">
        <ele>17.39999961853</ele>
        <time>2020-08-09T09:14:15.000Z</time>
      </trkpt>
      <trkpt lat="47.32522" lon="-2.30286">
        <ele>17.39999961853</ele>
        <time>2020-08-09T09:14:22.000Z</time>
      </trkpt>
      <trkpt lat="47.32517" lon="-2.30254">
        <ele>17.799999237061</ele>
        <time>2020-08-09T09:14:27.000Z</time>
      </trkpt>
      <trkpt lat="47.32516" lon="-2.30248">
        <ele>18.200000762939</ele>
        <time>2020-08-09T09:14:28.000Z</time>
      </trkpt>
      <trkpt lat="47.32515" lon="-2.30241">
        <ele>18.60000038147</ele>
        <time>2020-08-09T09:14:29.000Z</time>
      </trkpt>
      <trkpt lat="47.32515" lon="-2.30235">
        <ele>19</ele>
        <time>2020-08-09T09:14:30.000Z</time>
      </trkpt>
      <trkpt lat="47.32514" lon="-2.30228">
        <ele>19.39999961853</ele>
        <time>2020-08-09T09:14:31.000Z</time>
      </trkpt>
      <trkpt lat="47.32513" lon="-2.30221">
        <ele>19.39999961853</ele>
        <time>2020-08-09T09:14:32.000Z</time>
      </trkpt>
      <trkpt lat="47.32509" lon="-2.30198">
        <ele>19.39999961853</ele>
        <time>2020-08-09T09:14:35.000Z</time>
      </trkpt>
      <trkpt lat="47.32504" lon="-2.30165">
        <ele>19.799999237061</ele>
        <time>2020-08-09T09:14:39.000Z</time>
      </trkpt>
      <trkpt lat="47.32504" lon="-2.30156">
        <ele>20.200000762939</ele>
        <time>2020-08-09T09:14:40.000Z</time>
      </trkpt>
      <trkpt lat="47.32503" lon="-2.30149">
        <ele>20.60000038147</ele>
        <time>2020-08-09T09:14:41.000Z</time>
      </trkpt>
      <trkpt lat="47.32502" lon="-2.30141">
        <ele>21</ele>
        <time>2020-08-09T09:14:42.000Z</time>
      </trkpt>
      <trkpt lat="47.32501" lon="-2.30134">
        <ele>21.39999961853</ele>
        <time>2020-08-09T09:14:43.000Z</time>
      </trkpt>
      <trkpt lat="47.32496" lon="-2.301">
        <ele>21.39999961853</ele>
        <time>2020-08-09T09:14:48.000Z</time>
      </trkpt>
      <trkpt lat="47.32494" lon="-2.30064">
        <ele>21.39999961853</ele>
        <time>2020-08-09T09:14:54.000Z</time>
      </trkpt>
      <trkpt lat="47.32493" lon="-2.30058">
        <ele>21.39999961853</ele>
        <time>2020-08-09T09:14:55.000Z</time>
      </trkpt>
      <trkpt lat="47.32487" lon="-2.30039">
        <ele>21.39999961853</ele>
        <time>2020-08-09T09:14:58.000Z</time>
      </trkpt>
      <trkpt lat="47.32482" lon="-2.30019">
        <ele>21.39999961853</ele>
        <time>2020-08-09T09:15:01.000Z</time>
      </trkpt>
      <trkpt lat="47.32474" lon="-2.29999">
        <ele>21.39999961853</ele>
        <time>2020-08-09T09:15:04.000Z</time>
      </trkpt>
      <trkpt lat="47.32464" lon="-2.29983">
        <ele>21.39999961853</ele>
        <time>2020-08-09T09:15:07.000Z</time>
      </trkpt>
      <trkpt lat="47.32446" lon="-2.29957">
        <ele>21.39999961853</ele>
        <time>2020-08-09T09:15:13.000Z</time>
      </trkpt>
      <trkpt lat="47.32444" lon="-2.29951">
        <ele>21.39999961853</ele>
        <time>2020-08-09T09:15:15.000Z</time>
      </trkpt>
      <trkpt lat="47.32444" lon="-2.29948">
        <ele>21.39999961853</ele>
        <time>2020-08-09T09:15:17.000Z</time>
      </trkpt>
      <trkpt lat="47.32444" lon="-2.29948">
        <ele>21.39999961853</ele>
        <time>2020-08-09T09:15:18.000Z</time>
      </trkpt>
      <trkpt lat="47.32442" lon="-2.29946">
        <ele>19.200000762939</ele>
        <time>2020-08-09T09:15:47.000Z</time>
      </trkpt>
      <trkpt lat="47.32438" lon="-2.29948">
        <ele>19.200000762939</ele>
        <time>2020-08-09T09:15:49.000Z</time>
      </trkpt>
      <trkpt lat="47.32429" lon="-2.29955">
        <ele>19.200000762939</ele>
        <time>2020-08-09T09:15:53.000Z</time>
      </trkpt>
      <trkpt lat="47.32426" lon="-2.29958">
        <ele>19.200000762939</ele>
        <time>2020-08-09T09:15:54.000Z</time>
      </trkpt>
      <trkpt lat="47.3242" lon="-2.29965">
        <ele>19.200000762939</ele>
        <time>2020-08-09T09:15:56.000Z</time>
      </trkpt>
      <trkpt lat="47.32409" lon="-2.29974">
        <ele>19.200000762939</ele>
        <time>2020-08-09T09:15:59.000Z</time>
      </trkpt>
      <trkpt lat="47.32388" lon="-2.29989">
        <ele>19.200000762939</ele>
        <time>2020-08-09T09:16:05.000Z</time>
      </trkpt>
      <trkpt lat="47.3237" lon="-2.3">
        <ele>19.200000762939</ele>
        <time>2020-08-09T09:16:10.000Z</time>
      </trkpt>
      <trkpt lat="47.32339" lon="-2.30024">
        <ele>19.200000762939</ele>
        <time>2020-08-09T09:16:19.000Z</time>
      </trkpt>
      <trkpt lat="47.32317" lon="-2.30046">
        <ele>19.200000762939</ele>
        <time>2020-08-09T09:16:26.000Z</time>
      </trkpt>
      <trkpt lat="47.32296" lon="-2.3007">
        <ele>18.799999237061</ele>
        <time>2020-08-09T09:16:33.000Z</time>
      </trkpt>
      <trkpt lat="47.32293" lon="-2.30073">
        <ele>18.39999961853</ele>
        <time>2020-08-09T09:16:34.000Z</time>
      </trkpt>
      <trkpt lat="47.32291" lon="-2.30077">
        <ele>18</ele>
        <time>2020-08-09T09:16:35.000Z</time>
      </trkpt>
      <trkpt lat="47.32288" lon="-2.3008">
        <ele>17.200000762939</ele>
        <time>2020-08-09T09:16:36.000Z</time>
      </trkpt>
      <trkpt lat="47.32273" lon="-2.30099">
        <ele>17.200000762939</ele>
        <time>2020-08-09T09:16:41.000Z</time>
      </trkpt>
      <trkpt lat="47.32259" lon="-2.30116">
        <ele>17.200000762939</ele>
        <time>2020-08-09T09:16:47.000Z</time>
      </trkpt>
      <trkpt lat="47.32249" lon="-2.30127">
        <ele>17.200000762939</ele>
        <time>2020-08-09T09:16:52.000Z</time>
      </trkpt>
      <trkpt lat="47.32248" lon="-2.30131">
        <ele>17.200000762939</ele>
        <time>2020-08-09T09:16:53.000Z</time>
      </trkpt>
      <trkpt lat="47.32241" lon="-2.30132">
        <ele>17.200000762939</ele>
        <time>2020-08-09T09:16:57.000Z</time>
      </trkpt>
      <trkpt lat="47.32242" lon="-2.30126">
        <ele>17.200000762939</ele>
        <time>2020-08-09T09:17:01.000Z</time>
      </trkpt>
      <trkpt lat="47.32245" lon="-2.30124">
        <ele>17.200000762939</ele>
        <time>2020-08-09T09:17:03.000Z</time>
      </trkpt>
      <trkpt lat="47.32251" lon="-2.3012">
        <ele>17.200000762939</ele>
        <time>2020-08-09T09:17:07.000Z</time>
      </trkpt>
      <trkpt lat="47.32257" lon="-2.3011">
        <ele>17.200000762939</ele>
        <time>2020-08-09T09:17:14.000Z</time>
      </trkpt>
      <trkpt lat="47.32258" lon="-2.30109">
        <ele>17.200000762939</ele>
        <time>2020-08-09T09:17:16.000Z</time>
      </trkpt>
      <trkpt lat="47.32265" lon="-2.30105">
        <ele>17.200000762939</ele>
        <time>2020-08-09T09:17:59.000Z</time>
      </trkpt>
      <trkpt lat="47.32266" lon="-2.30104">
        <ele>17.200000762939</ele>
        <time>2020-08-09T09:18:00.000Z</time>
      </trkpt>
      <trkpt lat="47.32273" lon="-2.30096">
        <ele>17.200000762939</ele>
        <time>2020-08-09T09:18:05.000Z</time>
      </trkpt>
      <trkpt lat="47.32286" lon="-2.30081">
        <ele>17.200000762939</ele>
        <time>2020-08-09T09:18:12.000Z</time>
      </trkpt>
      <trkpt lat="47.32301" lon="-2.30063">
        <ele>17.200000762939</ele>
        <time>2020-08-09T09:18:20.000Z</time>
      </trkpt>
      <trkpt lat="47.32316" lon="-2.30043">
        <ele>17.200000762939</ele>
        <time>2020-08-09T09:18:27.000Z</time>
      </trkpt>
      <trkpt lat="47.32332" lon="-2.30028">
        <ele>17.200000762939</ele>
        <time>2020-08-09T09:18:33.000Z</time>
      </trkpt>
      <trkpt lat="47.32347" lon="-2.30014">
        <ele>17.200000762939</ele>
        <time>2020-08-09T09:18:39.000Z</time>
      </trkpt>
      <trkpt lat="47.32363" lon="-2.30003">
        <ele>17.200000762939</ele>
        <time>2020-08-09T09:18:45.000Z</time>
      </trkpt>
      <trkpt lat="47.32391" lon="-2.29983">
        <ele>17.200000762939</ele>
        <time>2020-08-09T09:18:53.000Z</time>
      </trkpt>
      <trkpt lat="47.32419" lon="-2.29963">
        <ele>17.200000762939</ele>
        <time>2020-08-09T09:19:02.000Z</time>
      </trkpt>
      <trkpt lat="47.32441" lon="-2.29946">
        <ele>17.200000762939</ele>
        <time>2020-08-09T09:19:09.000Z</time>
      </trkpt>
      <trkpt lat="47.32444" lon="-2.29943">
        <ele>17.60000038147</ele>
        <time>2020-08-09T09:19:10.000Z</time>
      </trkpt>
      <trkpt lat="47.32447" lon="-2.29939">
        <ele>18</ele>
        <time>2020-08-09T09:19:11.000Z</time>
      </trkpt>
      <trkpt lat="47.32449" lon="-2.29935">
        <ele>18.39999961853</ele>
        <time>2020-08-09T09:19:12.000Z</time>
      </trkpt>
      <trkpt lat="47.32449" lon="-2.29929">
        <ele>18.799999237061</ele>
        <time>2020-08-09T09:19:13.000Z</time>
      </trkpt>
      <trkpt lat="47.32449" lon="-2.29923">
        <ele>19.200000762939</ele>
        <time>2020-08-09T09:19:14.000Z</time>
      </trkpt>
      <trkpt lat="47.32445" lon="-2.29898">
        <ele>19.200000762939</ele>
        <time>2020-08-09T09:19:18.000Z</time>
      </trkpt>
      <trkpt lat="47.32443" lon="-2.29886">
        <ele>19.200000762939</ele>
        <time>2020-08-09T09:19:20.000Z</time>
      </trkpt>
      <trkpt lat="47.3244" lon="-2.29871">
        <ele>19.200000762939</ele>
        <time>2020-08-09T09:19:23.000Z</time>
      </trkpt>
      <trkpt lat="47.32447" lon="-2.2986">
        <ele>19.200000762939</ele>
        <time>2020-08-09T09:19:26.000Z</time>
      </trkpt>
      <trkpt lat="47.3245" lon="-2.29856">
        <ele>19.200000762939</ele>
        <time>2020-08-09T09:19:27.000Z</time>
      </trkpt>
      <trkpt lat="47.32468" lon="-2.29842">
        <ele>19.200000762939</ele>
        <time>2020-08-09T09:19:31.000Z</time>
      </trkpt>
      <trkpt lat="47.32497" lon="-2.29815">
        <ele>19.200000762939</ele>
        <time>2020-08-09T09:19:37.000Z</time>
      </trkpt>
      <trkpt lat="47.32524" lon="-2.29791">
        <ele>19.200000762939</ele>
        <time>2020-08-09T09:19:43.000Z</time>
      </trkpt>
      <trkpt lat="47.32524" lon="-2.29774">
        <ele>19.200000762939</ele>
        <time>2020-08-09T09:19:46.000Z</time>
      </trkpt>
      <trkpt lat="47.3252" lon="-2.29756">
        <ele>19.200000762939</ele>
        <time>2020-08-09T09:19:49.000Z</time>
      </trkpt>
      <trkpt lat="47.32515" lon="-2.29741">
        <ele>19.200000762939</ele>
        <time>2020-08-09T09:19:51.000Z</time>
      </trkpt>
      <trkpt lat="47.32498" lon="-2.29677">
        <ele>19.200000762939</ele>
        <time>2020-08-09T09:19:59.000Z</time>
      </trkpt>
      <trkpt lat="47.32484" lon="-2.29621">
        <ele>19.200000762939</ele>
        <time>2020-08-09T09:20:05.000Z</time>
      </trkpt>
      <trkpt lat="47.32479" lon="-2.29601">
        <ele>18.799999237061</ele>
        <time>2020-08-09T09:20:07.000Z</time>
      </trkpt>
      <trkpt lat="47.32477" lon="-2.29591">
        <ele>18.39999961853</ele>
        <time>2020-08-09T09:20:08.000Z</time>
      </trkpt>
      <trkpt lat="47.32475" lon="-2.29581">
        <ele>18</ele>
        <time>2020-08-09T09:20:09.000Z</time>
      </trkpt>
      <trkpt lat="47.32472" lon="-2.2957">
        <ele>17.39999961853</ele>
        <time>2020-08-09T09:20:10.000Z</time>
      </trkpt>
      <trkpt lat="47.32469" lon="-2.2956">
        <ele>17</ele>
        <time>2020-08-09T09:20:11.000Z</time>
      </trkpt>
      <trkpt lat="47.32451" lon="-2.29506">
        <ele>16.60000038147</ele>
        <time>2020-08-09T09:20:16.000Z</time>
      </trkpt>
      <trkpt lat="47.32448" lon="-2.29495">
        <ele>16.200000762939</ele>
        <time>2020-08-09T09:20:17.000Z</time>
      </trkpt>
      <trkpt lat="47.32444" lon="-2.29484">
        <ele>15.800000190735</ele>
        <time>2020-08-09T09:20:18.000Z</time>
      </trkpt>
      <trkpt lat="47.32441" lon="-2.29474">
        <ele>15.199999809265</ele>
        <time>2020-08-09T09:20:19.000Z</time>
      </trkpt>
      <trkpt lat="47.32438" lon="-2.29463">
        <ele>14.800000190735</ele>
        <time>2020-08-09T09:20:20.000Z</time>
      </trkpt>
      <trkpt lat="47.32435" lon="-2.29444">
        <ele>14.39999961853</ele>
        <time>2020-08-09T09:20:22.000Z</time>
      </trkpt>
      <trkpt lat="47.32434" lon="-2.29433">
        <ele>14</ele>
        <time>2020-08-09T09:20:23.000Z</time>
      </trkpt>
      <trkpt lat="47.32432" lon="-2.29422">
        <ele>13.39999961853</ele>
        <time>2020-08-09T09:20:24.000Z</time>
      </trkpt>
      <trkpt lat="47.3243" lon="-2.29412">
        <ele>12.800000190735</ele>
        <time>2020-08-09T09:20:25.000Z</time>
      </trkpt>
      <trkpt lat="47.32427" lon="-2.29401">
        <ele>12.199999809265</ele>
        <time>2020-08-09T09:20:26.000Z</time>
      </trkpt>
      <trkpt lat="47.32425" lon="-2.2939">
        <ele>11.800000190735</ele>
        <time>2020-08-09T09:20:27.000Z</time>
      </trkpt>
      <trkpt lat="47.32423" lon="-2.29379">
        <ele>11.199999809265</ele>
        <time>2020-08-09T09:20:28.000Z</time>
      </trkpt>
      <trkpt lat="47.32421" lon="-2.29368">
        <ele>10.60000038147</ele>
        <time>2020-08-09T09:20:29.000Z</time>
      </trkpt>
      <trkpt lat="47.32419" lon="-2.29337">
        <ele>10.199999809265</ele>
        <time>2020-08-09T09:20:32.000Z</time>
      </trkpt>
      <trkpt lat="47.32418" lon="-2.29327">
        <ele>9.6000003814697</ele>
        <time>2020-08-09T09:20:33.000Z</time>
      </trkpt>
      <trkpt lat="47.32416" lon="-2.29317">
        <ele>9.1999998092651</ele>
        <time>2020-08-09T09:20:34.000Z</time>
      </trkpt>
      <trkpt lat="47.32414" lon="-2.29307">
        <ele>8.8000001907349</ele>
        <time>2020-08-09T09:20:35.000Z</time>
      </trkpt>
      <trkpt lat="47.32412" lon="-2.29297">
        <ele>8.3999996185303</ele>
        <time>2020-08-09T09:20:36.000Z</time>
      </trkpt>
      <trkpt lat="47.32407" lon="-2.29278">
        <ele>8.3999996185303</ele>
        <time>2020-08-09T09:20:38.000Z</time>
      </trkpt>
      <trkpt lat="47.32393" lon="-2.2926">
        <ele>8.3999996185303</ele>
        <time>2020-08-09T09:20:41.000Z</time>
      </trkpt>
      <trkpt lat="47.32387" lon="-2.29256">
        <ele>8.3999996185303</ele>
        <time>2020-08-09T09:20:42.000Z</time>
      </trkpt>
      <trkpt lat="47.32357" lon="-2.29242">
        <ele>8.3999996185303</ele>
        <time>2020-08-09T09:20:47.000Z</time>
      </trkpt>
      <trkpt lat="47.32327" lon="-2.29228">
        <ele>8.3999996185303</ele>
        <time>2020-08-09T09:20:53.000Z</time>
      </trkpt>
      <trkpt lat="47.32303" lon="-2.29218">
        <ele>8.3999996185303</ele>
        <time>2020-08-09T09:20:59.000Z</time>
      </trkpt>
      <trkpt lat="47.32281" lon="-2.29221">
        <ele>8.3999996185303</ele>
        <time>2020-08-09T09:21:04.000Z</time>
      </trkpt>
      <trkpt lat="47.32249" lon="-2.29226">
        <ele>8.3999996185303</ele>
        <time>2020-08-09T09:21:11.000Z</time>
      </trkpt>
      <trkpt lat="47.32243" lon="-2.29216">
        <ele>8.3999996185303</ele>
        <time>2020-08-09T09:21:14.000Z</time>
      </trkpt>
      <trkpt lat="47.32223" lon="-2.29188">
        <ele>8.3999996185303</ele>
        <time>2020-08-09T09:21:21.000Z</time>
      </trkpt>
      <trkpt lat="47.32199" lon="-2.29153">
        <ele>8.3999996185303</ele>
        <time>2020-08-09T09:21:29.000Z</time>
      </trkpt>
      <trkpt lat="47.32171" lon="-2.29124">
        <ele>8.3999996185303</ele>
        <time>2020-08-09T09:21:37.000Z</time>
      </trkpt>
      <trkpt lat="47.32154" lon="-2.29096">
        <ele>8.3999996185303</ele>
        <time>2020-08-09T09:21:43.000Z</time>
      </trkpt>
      <trkpt lat="47.32138" lon="-2.29052">
        <ele>8.3999996185303</ele>
        <time>2020-08-09T09:21:49.000Z</time>
      </trkpt>
      <trkpt lat="47.32132" lon="-2.29036">
        <ele>8.3999996185303</ele>
        <time>2020-08-09T09:21:51.000Z</time>
      </trkpt>
      <trkpt lat="47.32123" lon="-2.29015">
        <ele>8.3999996185303</ele>
        <time>2020-08-09T09:21:54.000Z</time>
      </trkpt>
      <trkpt lat="47.32106" lon="-2.28979">
        <ele>8.3999996185303</ele>
        <time>2020-08-09T09:21:59.000Z</time>
      </trkpt>
      <trkpt lat="47.321" lon="-2.28973">
        <ele>8.3999996185303</ele>
        <time>2020-08-09T09:22:00.000Z</time>
      </trkpt>
      <trkpt lat="47.32082" lon="-2.2896">
        <ele>8</ele>
        <time>2020-08-09T09:22:03.000Z</time>
      </trkpt>
      <trkpt lat="47.32076" lon="-2.28957">
        <ele>7.5999999046326</ele>
        <time>2020-08-09T09:22:04.000Z</time>
      </trkpt>
      <trkpt lat="47.3207" lon="-2.28954">
        <ele>7.1999998092651</ele>
        <time>2020-08-09T09:22:05.000Z</time>
      </trkpt>
      <trkpt lat="47.32065" lon="-2.2895">
        <ele>6.8000001907349</ele>
        <time>2020-08-09T09:22:06.000Z</time>
      </trkpt>
      <trkpt lat="47.32059" lon="-2.28947">
        <ele>6.4000000953674</ele>
        <time>2020-08-09T09:22:07.000Z</time>
      </trkpt>
      <trkpt lat="47.32054" lon="-2.28941">
        <ele>6.4000000953674</ele>
        <time>2020-08-09T09:22:08.000Z</time>
      </trkpt>
      <trkpt lat="47.32051" lon="-2.28933">
        <ele>6.4000000953674</ele>
        <time>2020-08-09T09:22:09.000Z</time>
      </trkpt>
      <trkpt lat="47.32046" lon="-2.28903">
        <ele>6.4000000953674</ele>
        <time>2020-08-09T09:22:13.000Z</time>
      </trkpt>
      <trkpt lat="47.32038" lon="-2.2887">
        <ele>6.4000000953674</ele>
        <time>2020-08-09T09:22:19.000Z</time>
      </trkpt>
      <trkpt lat="47.32038" lon="-2.2887">
        <ele>6.4000000953674</ele>
        <time>2020-08-09T09:22:20.000Z</time>
      </trkpt>
      <trkpt lat="47.32035" lon="-2.2887">
        <ele>6.4000000953674</ele>
        <time>2020-08-09T09:22:24.000Z</time>
      </trkpt>
      <trkpt lat="47.32034" lon="-2.2887">
        <ele>6.4000000953674</ele>
        <time>2020-08-09T09:22:25.000Z</time>
      </trkpt>
      <trkpt lat="47.32027" lon="-2.28875">
        <ele>6.4000000953674</ele>
        <time>2020-08-09T09:22:31.000Z</time>
      </trkpt>
      <trkpt lat="47.32013" lon="-2.28884">
        <ele>6.4000000953674</ele>
        <time>2020-08-09T09:22:37.000Z</time>
      </trkpt>
      <trkpt lat="47.31991" lon="-2.28888">
        <ele>6.4000000953674</ele>
        <time>2020-08-09T09:22:44.000Z</time>
      </trkpt>
      <trkpt lat="47.31977" lon="-2.28891">
        <ele>6.4000000953674</ele>
        <time>2020-08-09T09:22:49.000Z</time>
      </trkpt>
      <trkpt lat="47.31957" lon="-2.28897">
        <ele>6.4000000953674</ele>
        <time>2020-08-09T09:22:55.000Z</time>
      </trkpt>
      <trkpt lat="47.31937" lon="-2.28907">
        <ele>6.4000000953674</ele>
        <time>2020-08-09T09:23:01.000Z</time>
      </trkpt>
      <trkpt lat="47.31923" lon="-2.28919">
        <ele>6.4000000953674</ele>
        <time>2020-08-09T09:23:05.000Z</time>
      </trkpt>
      <trkpt lat="47.31916" lon="-2.28926">
        <ele>6.4000000953674</ele>
        <time>2020-08-09T09:23:07.000Z</time>
      </trkpt>
      <trkpt lat="47.31899" lon="-2.28936">
        <ele>6.4000000953674</ele>
        <time>2020-08-09T09:23:12.000Z</time>
      </trkpt>
      <trkpt lat="47.31872" lon="-2.28941">
        <ele>6.4000000953674</ele>
        <time>2020-08-09T09:23:19.000Z</time>
      </trkpt>
      <trkpt lat="47.31863" lon="-2.28948">
        <ele>6.4000000953674</ele>
        <time>2020-08-09T09:23:22.000Z</time>
      </trkpt>
      <trkpt lat="47.31862" lon="-2.28952">
        <ele>6.4000000953674</ele>
        <time>2020-08-09T09:23:23.000Z</time>
      </trkpt>
      <trkpt lat="47.31862" lon="-2.28974">
        <ele>6.4000000953674</ele>
        <time>2020-08-09T09:23:27.000Z</time>
      </trkpt>
      <trkpt lat="47.3186" lon="-2.28998">
        <ele>6.4000000953674</ele>
        <time>2020-08-09T09:23:30.000Z</time>
      </trkpt>
      <trkpt lat="47.31856" lon="-2.2902">
        <ele>6.4000000953674</ele>
        <time>2020-08-09T09:23:33.000Z</time>
      </trkpt>
      <trkpt lat="47.3185" lon="-2.2905">
        <ele>6.8000001907349</ele>
        <time>2020-08-09T09:23:37.000Z</time>
      </trkpt>
      <trkpt lat="47.31849" lon="-2.29058">
        <ele>7.1999998092651</ele>
        <time>2020-08-09T09:23:38.000Z</time>
      </trkpt>
      <trkpt lat="47.31847" lon="-2.29064">
        <ele>7.5999999046326</ele>
        <time>2020-08-09T09:23:39.000Z</time>
      </trkpt>
      <trkpt lat="47.31845" lon="-2.2907">
        <ele>8</ele>
        <time>2020-08-09T09:23:40.000Z</time>
      </trkpt>
      <trkpt lat="47.31844" lon="-2.29077">
        <ele>8.3999996185303</ele>
        <time>2020-08-09T09:23:41.000Z</time>
      </trkpt>
      <trkpt lat="47.31839" lon="-2.2911">
        <ele>8.3999996185303</ele>
        <time>2020-08-09T09:23:46.000Z</time>
      </trkpt>
      <trkpt lat="47.31834" lon="-2.29145">
        <ele>8.3999996185303</ele>
        <time>2020-08-09T09:23:52.000Z</time>
      </trkpt>
      <trkpt lat="47.31832" lon="-2.29158">
        <ele>8.3999996185303</ele>
        <time>2020-08-09T09:23:54.000Z</time>
      </trkpt>
      <trkpt lat="47.31828" lon="-2.29185">
        <ele>8.8000001907349</ele>
        <time>2020-08-09T09:23:58.000Z</time>
      </trkpt>
      <trkpt lat="47.31828" lon="-2.29191">
        <ele>9.1999998092651</ele>
        <time>2020-08-09T09:23:59.000Z</time>
      </trkpt>
      <trkpt lat="47.31827" lon="-2.29198">
        <ele>9.8000001907349</ele>
        <time>2020-08-09T09:24:00.000Z</time>
      </trkpt>
      <trkpt lat="47.31827" lon="-2.29204">
        <ele>10.199999809265</ele>
        <time>2020-08-09T09:24:01.000Z</time>
      </trkpt>
      <trkpt lat="47.31827" lon="-2.2921">
        <ele>10.60000038147</ele>
        <time>2020-08-09T09:24:02.000Z</time>
      </trkpt>
      <trkpt lat="47.31826" lon="-2.29222">
        <ele>10.60000038147</ele>
        <time>2020-08-09T09:24:04.000Z</time>
      </trkpt>
      <trkpt lat="47.31829" lon="-2.29252">
        <ele>10.60000038147</ele>
        <time>2020-08-09T09:24:09.000Z</time>
      </trkpt>
      <trkpt lat="47.31831" lon="-2.29266">
        <ele>11</ele>
        <time>2020-08-09T09:24:11.000Z</time>
      </trkpt>
      <trkpt lat="47.31831" lon="-2.29272">
        <ele>11.800000190735</ele>
        <time>2020-08-09T09:24:12.000Z</time>
      </trkpt>
      <trkpt lat="47.31832" lon="-2.29279">
        <ele>12.199999809265</ele>
        <time>2020-08-09T09:24:13.000Z</time>
      </trkpt>
      <trkpt lat="47.31833" lon="-2.29285">
        <ele>12.60000038147</ele>
        <time>2020-08-09T09:24:14.000Z</time>
      </trkpt>
      <trkpt lat="47.31834" lon="-2.29298">
        <ele>12.60000038147</ele>
        <time>2020-08-09T09:24:16.000Z</time>
      </trkpt>
      <trkpt lat="47.31837" lon="-2.29339">
        <ele>13</ele>
        <time>2020-08-09T09:24:22.000Z</time>
      </trkpt>
      <trkpt lat="47.31837" lon="-2.29346">
        <ele>13.39999961853</ele>
        <time>2020-08-09T09:24:23.000Z</time>
      </trkpt>
      <trkpt lat="47.31839" lon="-2.29352">
        <ele>14</ele>
        <time>2020-08-09T09:24:24.000Z</time>
      </trkpt>
      <trkpt lat="47.3184" lon="-2.29359">
        <ele>14.39999961853</ele>
        <time>2020-08-09T09:24:25.000Z</time>
      </trkpt>
      <trkpt lat="47.31842" lon="-2.29366">
        <ele>14.800000190735</ele>
        <time>2020-08-09T09:24:26.000Z</time>
      </trkpt>
      <trkpt lat="47.31847" lon="-2.29386">
        <ele>14.800000190735</ele>
        <time>2020-08-09T09:24:29.000Z</time>
      </trkpt>
      <trkpt lat="47.31851" lon="-2.29414">
        <ele>14.800000190735</ele>
        <time>2020-08-09T09:24:33.000Z</time>
      </trkpt>
      <trkpt lat="47.31852" lon="-2.29433">
        <ele>14.800000190735</ele>
        <time>2020-08-09T09:24:36.000Z</time>
      </trkpt>
      <trkpt lat="47.3185" lon="-2.29446">
        <ele>14.800000190735</ele>
        <time>2020-08-09T09:24:38.000Z</time>
      </trkpt>
      <trkpt lat="47.31848" lon="-2.29466">
        <ele>14.800000190735</ele>
        <time>2020-08-09T09:24:41.000Z</time>
      </trkpt>
      <trkpt lat="47.31848" lon="-2.29473">
        <ele>14.800000190735</ele>
        <time>2020-08-09T09:24:42.000Z</time>
      </trkpt>
      <trkpt lat="47.31851" lon="-2.29501">
        <ele>14.800000190735</ele>
        <time>2020-08-09T09:24:46.000Z</time>
      </trkpt>
      <trkpt lat="47.31853" lon="-2.29509">
        <ele>14.800000190735</ele>
        <time>2020-08-09T09:24:47.000Z</time>
      </trkpt>
      <trkpt lat="47.31864" lon="-2.29547">
        <ele>14.800000190735</ele>
        <time>2020-08-09T09:24:53.000Z</time>
      </trkpt>
      <trkpt lat="47.31873" lon="-2.29586">
        <ele>14.800000190735</ele>
        <time>2020-08-09T09:25:00.000Z</time>
      </trkpt>
      <trkpt lat="47.3187" lon="-2.29604">
        <ele>14.800000190735</ele>
        <time>2020-08-09T09:25:03.000Z</time>
      </trkpt>
      <trkpt lat="47.31864" lon="-2.29613">
        <ele>14.800000190735</ele>
        <time>2020-08-09T09:25:05.000Z</time>
      </trkpt>
      <trkpt lat="47.31855" lon="-2.29625">
        <ele>14.800000190735</ele>
        <time>2020-08-09T09:25:08.000Z</time>
      </trkpt>
      <trkpt lat="47.3184" lon="-2.29634">
        <ele>14.800000190735</ele>
        <time>2020-08-09T09:25:13.000Z</time>
      </trkpt>
      <trkpt lat="47.31824" lon="-2.29644">
        <ele>14.800000190735</ele>
        <time>2020-08-09T09:25:18.000Z</time>
      </trkpt>
      <trkpt lat="47.31793" lon="-2.29663">
        <ele>14.800000190735</ele>
        <time>2020-08-09T09:25:25.000Z</time>
      </trkpt>
      <trkpt lat="47.31779" lon="-2.29672">
        <ele>15.199999809265</ele>
        <time>2020-08-09T09:25:28.000Z</time>
      </trkpt>
      <trkpt lat="47.31774" lon="-2.29676">
        <ele>15.60000038147</ele>
        <time>2020-08-09T09:25:29.000Z</time>
      </trkpt>
      <trkpt lat="47.3177" lon="-2.29679">
        <ele>16</ele>
        <time>2020-08-09T09:25:30.000Z</time>
      </trkpt>
      <trkpt lat="47.31766" lon="-2.29683">
        <ele>16.39999961853</ele>
        <time>2020-08-09T09:25:31.000Z</time>
      </trkpt>
      <trkpt lat="47.31761" lon="-2.29686">
        <ele>16.799999237061</ele>
        <time>2020-08-09T09:25:32.000Z</time>
      </trkpt>
      <trkpt lat="47.31757" lon="-2.29689">
        <ele>16.799999237061</ele>
        <time>2020-08-09T09:25:33.000Z</time>
      </trkpt>
      <trkpt lat="47.31724" lon="-2.29716">
        <ele>16.799999237061</ele>
        <time>2020-08-09T09:25:41.000Z</time>
      </trkpt>
      <trkpt lat="47.31705" lon="-2.29733">
        <ele>16.799999237061</ele>
        <time>2020-08-09T09:25:46.000Z</time>
      </trkpt>
      <trkpt lat="47.31701" lon="-2.29735">
        <ele>16.799999237061</ele>
        <time>2020-08-09T09:25:47.000Z</time>
      </trkpt>
      <trkpt lat="47.31675" lon="-2.29742">
        <ele>16.799999237061</ele>
        <time>2020-08-09T09:25:52.000Z</time>
      </trkpt>
      <trkpt lat="47.31658" lon="-2.29733">
        <ele>16.799999237061</ele>
        <time>2020-08-09T09:25:56.000Z</time>
      </trkpt>
      <trkpt lat="47.3165" lon="-2.29722">
        <ele>16.799999237061</ele>
        <time>2020-08-09T09:25:58.000Z</time>
      </trkpt>
      <trkpt lat="47.31643" lon="-2.2971">
        <ele>16.799999237061</ele>
        <time>2020-08-09T09:26:00.000Z</time>
      </trkpt>
      <trkpt lat="47.3164" lon="-2.29701">
        <ele>16.799999237061</ele>
        <time>2020-08-09T09:26:01.000Z</time>
      </trkpt>
      <trkpt lat="47.3163" lon="-2.29666">
        <ele>16.799999237061</ele>
        <time>2020-08-09T09:26:06.000Z</time>
      </trkpt>
      <trkpt lat="47.31624" lon="-2.29647">
        <ele>16.799999237061</ele>
        <time>2020-08-09T09:26:09.000Z</time>
      </trkpt>
      <trkpt lat="47.31612" lon="-2.29625">
        <ele>16.799999237061</ele>
        <time>2020-08-09T09:26:13.000Z</time>
      </trkpt>
      <trkpt lat="47.31606" lon="-2.29616">
        <ele>16.799999237061</ele>
        <time>2020-08-09T09:26:15.000Z</time>
      </trkpt>
      <trkpt lat="47.31591" lon="-2.29599">
        <ele>16.799999237061</ele>
        <time>2020-08-09T09:26:19.000Z</time>
      </trkpt>
      <trkpt lat="47.31568" lon="-2.29565">
        <ele>16.799999237061</ele>
        <time>2020-08-09T09:26:25.000Z</time>
      </trkpt>
      <trkpt lat="47.31555" lon="-2.29533">
        <ele>16.799999237061</ele>
        <time>2020-08-09T09:26:30.000Z</time>
      </trkpt>
      <trkpt lat="47.31551" lon="-2.29519">
        <ele>16.799999237061</ele>
        <time>2020-08-09T09:26:32.000Z</time>
      </trkpt>
      <trkpt lat="47.31547" lon="-2.29498">
        <ele>16.799999237061</ele>
        <time>2020-08-09T09:26:35.000Z</time>
      </trkpt>
      <trkpt lat="47.31537" lon="-2.29464">
        <ele>16.799999237061</ele>
        <time>2020-08-09T09:26:40.000Z</time>
      </trkpt>
      <trkpt lat="47.31534" lon="-2.29458">
        <ele>16.799999237061</ele>
        <time>2020-08-09T09:26:41.000Z</time>
      </trkpt>
      <trkpt lat="47.31517" lon="-2.29419">
        <ele>16.799999237061</ele>
        <time>2020-08-09T09:26:47.000Z</time>
      </trkpt>
      <trkpt lat="47.31514" lon="-2.29413">
        <ele>16.39999961853</ele>
        <time>2020-08-09T09:26:48.000Z</time>
      </trkpt>
      <trkpt lat="47.31511" lon="-2.29407">
        <ele>16</ele>
        <time>2020-08-09T09:26:49.000Z</time>
      </trkpt>
      <trkpt lat="47.31507" lon="-2.29401">
        <ele>15.39999961853</ele>
        <time>2020-08-09T09:26:50.000Z</time>
      </trkpt>
      <trkpt lat="47.31503" lon="-2.29397">
        <ele>15</ele>
        <time>2020-08-09T09:26:51.000Z</time>
      </trkpt>
      <trkpt lat="47.31498" lon="-2.29394">
        <ele>14.60000038147</ele>
        <time>2020-08-09T09:26:52.000Z</time>
      </trkpt>
      <trkpt lat="47.31479" lon="-2.29395">
        <ele>14.60000038147</ele>
        <time>2020-08-09T09:26:56.000Z</time>
      </trkpt>
      <trkpt lat="47.31474" lon="-2.29397">
        <ele>14.60000038147</ele>
        <time>2020-08-09T09:26:57.000Z</time>
      </trkpt>
      <trkpt lat="47.31468" lon="-2.29398">
        <ele>14.60000038147</ele>
        <time>2020-08-09T09:26:58.000Z</time>
      </trkpt>
      <trkpt lat="47.31452" lon="-2.29391">
        <ele>14.60000038147</ele>
        <time>2020-08-09T09:27:01.000Z</time>
      </trkpt>
      <trkpt lat="47.31447" lon="-2.29387">
        <ele>14.60000038147</ele>
        <time>2020-08-09T09:27:02.000Z</time>
      </trkpt>
      <trkpt lat="47.31443" lon="-2.29382">
        <ele>14.60000038147</ele>
        <time>2020-08-09T09:27:03.000Z</time>
      </trkpt>
      <trkpt lat="47.31431" lon="-2.29364">
        <ele>14.60000038147</ele>
        <time>2020-08-09T09:27:06.000Z</time>
      </trkpt>
      <trkpt lat="47.31427" lon="-2.29358">
        <ele>14.60000038147</ele>
        <time>2020-08-09T09:27:07.000Z</time>
      </trkpt>
      <trkpt lat="47.31413" lon="-2.29341">
        <ele>14.199999809265</ele>
        <time>2020-08-09T09:27:10.000Z</time>
      </trkpt>
      <trkpt lat="47.31407" lon="-2.29335">
        <ele>13.800000190735</ele>
        <time>2020-08-09T09:27:11.000Z</time>
      </trkpt>
      <trkpt lat="47.31401" lon="-2.2933">
        <ele>13.39999961853</ele>
        <time>2020-08-09T09:27:12.000Z</time>
      </trkpt>
      <trkpt lat="47.31393" lon="-2.29325">
        <ele>13</ele>
        <time>2020-08-09T09:27:13.000Z</time>
      </trkpt>
      <trkpt lat="47.31387" lon="-2.29321">
        <ele>12.60000038147</ele>
        <time>2020-08-09T09:27:14.000Z</time>
      </trkpt>
      <trkpt lat="47.31342" lon="-2.29301">
        <ele>12.60000038147</ele>
        <time>2020-08-09T09:27:21.000Z</time>
      </trkpt>
      <trkpt lat="47.31312" lon="-2.29294">
        <ele>12.60000038147</ele>
        <time>2020-08-09T09:27:26.000Z</time>
      </trkpt>
      <trkpt lat="47.31307" lon="-2.29295">
        <ele>12.199999809265</ele>
        <time>2020-08-09T09:27:27.000Z</time>
      </trkpt>
      <trkpt lat="47.31301" lon="-2.29297">
        <ele>11.800000190735</ele>
        <time>2020-08-09T09:27:28.000Z</time>
      </trkpt>
      <trkpt lat="47.31296" lon="-2.293">
        <ele>11.39999961853</ele>
        <time>2020-08-09T09:27:29.000Z</time>
      </trkpt>
      <trkpt lat="47.31291" lon="-2.29304">
        <ele>11</ele>
        <time>2020-08-09T09:27:30.000Z</time>
      </trkpt>
      <trkpt lat="47.31286" lon="-2.29309">
        <ele>10.39999961853</ele>
        <time>2020-08-09T09:27:31.000Z</time>
      </trkpt>
      <trkpt lat="47.31273" lon="-2.29331">
        <ele>10.39999961853</ele>
        <time>2020-08-09T09:27:35.000Z</time>
      </trkpt>
      <trkpt lat="47.31266" lon="-2.29348">
        <ele>10.39999961853</ele>
        <time>2020-08-09T09:27:39.000Z</time>
      </trkpt>
      <trkpt lat="47.31263" lon="-2.29364">
        <ele>10.39999961853</ele>
        <time>2020-08-09T09:27:44.000Z</time>
      </trkpt>
      <trkpt lat="47.31261" lon="-2.29372">
        <ele>10.39999961853</ele>
        <time>2020-08-09T09:27:49.000Z</time>
      </trkpt>
      <trkpt lat="47.31258" lon="-2.29374">
        <ele>8.1999998092651</ele>
        <time>2020-08-09T09:29:09.000Z</time>
      </trkpt>
      <trkpt lat="47.31254" lon="-2.2938">
        <ele>8.1999998092651</ele>
        <time>2020-08-09T09:29:12.000Z</time>
      </trkpt>
      <trkpt lat="47.31237" lon="-2.29395">
        <ele>8.1999998092651</ele>
        <time>2020-08-09T09:29:17.000Z</time>
      </trkpt>
      <trkpt lat="47.31216" lon="-2.29409">
        <ele>8.1999998092651</ele>
        <time>2020-08-09T09:29:22.000Z</time>
      </trkpt>
      <trkpt lat="47.31197" lon="-2.29424">
        <ele>8.1999998092651</ele>
        <time>2020-08-09T09:29:26.000Z</time>
      </trkpt>
      <trkpt lat="47.31165" lon="-2.29449">
        <ele>8.1999998092651</ele>
        <time>2020-08-09T09:29:32.000Z</time>
      </trkpt>
      <trkpt lat="47.3115" lon="-2.29466">
        <ele>8.1999998092651</ele>
        <time>2020-08-09T09:29:35.000Z</time>
      </trkpt>
      <trkpt lat="47.31145" lon="-2.2948">
        <ele>8.1999998092651</ele>
        <time>2020-08-09T09:29:37.000Z</time>
      </trkpt>
      <trkpt lat="47.31149" lon="-2.295">
        <ele>8.1999998092651</ele>
        <time>2020-08-09T09:29:40.000Z</time>
      </trkpt>
      <trkpt lat="47.31153" lon="-2.29513">
        <ele>8.1999998092651</ele>
        <time>2020-08-09T09:29:42.000Z</time>
      </trkpt>
      <trkpt lat="47.31164" lon="-2.2954">
        <ele>8.1999998092651</ele>
        <time>2020-08-09T09:29:46.000Z</time>
      </trkpt>
      <trkpt lat="47.31169" lon="-2.2956">
        <ele>8.1999998092651</ele>
        <time>2020-08-09T09:29:49.000Z</time>
      </trkpt>
      <trkpt lat="47.3117" lon="-2.29575">
        <ele>8.1999998092651</ele>
        <time>2020-08-09T09:29:51.000Z</time>
      </trkpt>
      <trkpt lat="47.31161" lon="-2.2959">
        <ele>8.1999998092651</ele>
        <time>2020-08-09T09:29:54.000Z</time>
      </trkpt>
      <trkpt lat="47.31146" lon="-2.296">
        <ele>8.1999998092651</ele>
        <time>2020-08-09T09:29:57.000Z</time>
      </trkpt>
      <trkpt lat="47.3114" lon="-2.29604">
        <ele>8.1999998092651</ele>
        <time>2020-08-09T09:29:58.000Z</time>
      </trkpt>
      <trkpt lat="47.31112" lon="-2.29632">
        <ele>8.1999998092651</ele>
        <time>2020-08-09T09:30:03.000Z</time>
      </trkpt>
      <trkpt lat="47.31084" lon="-2.29667">
        <ele>8.1999998092651</ele>
        <time>2020-08-09T09:30:10.000Z</time>
      </trkpt>
      <trkpt lat="47.31073" lon="-2.29679">
        <ele>8.1999998092651</ele>
        <time>2020-08-09T09:30:13.000Z</time>
      </trkpt>
      <trkpt lat="47.31062" lon="-2.2969">
        <ele>8.1999998092651</ele>
        <time>2020-08-09T09:30:16.000Z</time>
      </trkpt>
      <trkpt lat="47.31043" lon="-2.29698">
        <ele>8.1999998092651</ele>
        <time>2020-08-09T09:30:21.000Z</time>
      </trkpt>
      <trkpt lat="47.31039" lon="-2.29696">
        <ele>8.1999998092651</ele>
        <time>2020-08-09T09:30:22.000Z</time>
      </trkpt>
      <trkpt lat="47.31033" lon="-2.29688">
        <ele>8.1999998092651</ele>
        <time>2020-08-09T09:30:24.000Z</time>
      </trkpt>
      <trkpt lat="47.31026" lon="-2.29669">
        <ele>8.1999998092651</ele>
        <time>2020-08-09T09:30:27.000Z</time>
      </trkpt>
      <trkpt lat="47.31024" lon="-2.29663">
        <ele>8.1999998092651</ele>
        <time>2020-08-09T09:30:28.000Z</time>
      </trkpt>
      <trkpt lat="47.31003" lon="-2.29616">
        <ele>8.1999998092651</ele>
        <time>2020-08-09T09:30:35.000Z</time>
      </trkpt>
      <trkpt lat="47.30999" lon="-2.2961">
        <ele>8.1999998092651</ele>
        <time>2020-08-09T09:30:36.000Z</time>
      </trkpt>
      <trkpt lat="47.30979" lon="-2.29589">
        <ele>8.1999998092651</ele>
        <time>2020-08-09T09:30:40.000Z</time>
      </trkpt>
      <trkpt lat="47.30955" lon="-2.29581">
        <ele>8.1999998092651</ele>
        <time>2020-08-09T09:30:44.000Z</time>
      </trkpt>
      <trkpt lat="47.30912" lon="-2.29569">
        <ele>8.1999998092651</ele>
        <time>2020-08-09T09:30:51.000Z</time>
      </trkpt>
      <trkpt lat="47.3088" lon="-2.29559">
        <ele>8.1999998092651</ele>
        <time>2020-08-09T09:30:57.000Z</time>
      </trkpt>
      <trkpt lat="47.30847" lon="-2.29547">
        <ele>8.1999998092651</ele>
        <time>2020-08-09T09:31:03.000Z</time>
      </trkpt>
      <trkpt lat="47.30813" lon="-2.29545">
        <ele>8.1999998092651</ele>
        <time>2020-08-09T09:31:08.000Z</time>
      </trkpt>
      <trkpt lat="47.30806" lon="-2.29547">
        <ele>8.1999998092651</ele>
        <time>2020-08-09T09:31:09.000Z</time>
      </trkpt>
      <trkpt lat="47.30757" lon="-2.29564">
        <ele>8.1999998092651</ele>
        <time>2020-08-09T09:31:16.000Z</time>
      </trkpt>
      <trkpt lat="47.30715" lon="-2.29578">
        <ele>8.1999998092651</ele>
        <time>2020-08-09T09:31:22.000Z</time>
      </trkpt>
      <trkpt lat="47.30676" lon="-2.29588">
        <ele>7.8000001907349</ele>
        <time>2020-08-09T09:31:28.000Z</time>
      </trkpt>
      <trkpt lat="47.30669" lon="-2.2959">
        <ele>7.4000000953674</ele>
        <time>2020-08-09T09:31:29.000Z</time>
      </trkpt>
      <trkpt lat="47.30662" lon="-2.29593">
        <ele>7</ele>
        <time>2020-08-09T09:31:30.000Z</time>
      </trkpt>
      <trkpt lat="47.30655" lon="-2.29595">
        <ele>6.5999999046326</ele>
        <time>2020-08-09T09:31:31.000Z</time>
      </trkpt>
      <trkpt lat="47.30648" lon="-2.29597">
        <ele>6</ele>
        <time>2020-08-09T09:31:32.000Z</time>
      </trkpt>
      <trkpt lat="47.30628" lon="-2.29605">
        <ele>6</ele>
        <time>2020-08-09T09:31:35.000Z</time>
      </trkpt>
      <trkpt lat="47.30576" lon="-2.29623">
        <ele>6</ele>
        <time>2020-08-09T09:31:43.000Z</time>
      </trkpt>
      <trkpt lat="47.30523" lon="-2.2964">
        <ele>6</ele>
        <time>2020-08-09T09:31:51.000Z</time>
      </trkpt>
      <trkpt lat="47.30516" lon="-2.29642">
        <ele>6</ele>
        <time>2020-08-09T09:31:52.000Z</time>
      </trkpt>
      <trkpt lat="47.30466" lon="-2.29658">
        <ele>6</ele>
        <time>2020-08-09T09:31:59.000Z</time>
      </trkpt>
      <trkpt lat="47.30409" lon="-2.29674">
        <ele>6</ele>
        <time>2020-08-09T09:32:06.000Z</time>
      </trkpt>
      <trkpt lat="47.30351" lon="-2.29693">
        <ele>6</ele>
        <time>2020-08-09T09:32:13.000Z</time>
      </trkpt>
      <trkpt lat="47.30297" lon="-2.29711">
        <ele>6</ele>
        <time>2020-08-09T09:32:20.000Z</time>
      </trkpt>
      <trkpt lat="47.3026" lon="-2.29721">
        <ele>6</ele>
        <time>2020-08-09T09:32:25.000Z</time>
      </trkpt>
      <trkpt lat="47.30253" lon="-2.29719">
        <ele>6</ele>
        <time>2020-08-09T09:32:26.000Z</time>
      </trkpt>
      <trkpt lat="47.30231" lon="-2.29709">
        <ele>6</ele>
        <time>2020-08-09T09:32:29.000Z</time>
      </trkpt>
      <trkpt lat="47.30223" lon="-2.29706">
        <ele>6</ele>
        <time>2020-08-09T09:32:30.000Z</time>
      </trkpt>
      <trkpt lat="47.30187" lon="-2.29686">
        <ele>6</ele>
        <time>2020-08-09T09:32:35.000Z</time>
      </trkpt>
      <trkpt lat="47.30152" lon="-2.29667">
        <ele>6</ele>
        <time>2020-08-09T09:32:41.000Z</time>
      </trkpt>
      <trkpt lat="47.30131" lon="-2.29658">
        <ele>6</ele>
        <time>2020-08-09T09:32:46.000Z</time>
      </trkpt>
      <trkpt lat="47.30111" lon="-2.29654">
        <ele>6</ele>
        <time>2020-08-09T09:32:52.000Z</time>
      </trkpt>
      <trkpt lat="47.30096" lon="-2.29649">
        <ele>6</ele>
        <time>2020-08-09T09:32:58.000Z</time>
      </trkpt>
      <trkpt lat="47.3008" lon="-2.29644">
        <ele>6</ele>
        <time>2020-08-09T09:33:06.000Z</time>
      </trkpt>
      <trkpt lat="47.30067" lon="-2.29641">
        <ele>6</ele>
        <time>2020-08-09T09:33:13.000Z</time>
      </trkpt>
      <trkpt lat="47.30053" lon="-2.29636">
        <ele>6</ele>
        <time>2020-08-09T09:33:21.000Z</time>
      </trkpt>
      <trkpt lat="47.30047" lon="-2.29631">
        <ele>6</ele>
        <time>2020-08-09T09:33:25.000Z</time>
      </trkpt>
      <trkpt lat="47.30046" lon="-2.29625">
        <ele>6</ele>
        <time>2020-08-09T09:33:27.000Z</time>
      </trkpt>
      <trkpt lat="47.30049" lon="-2.29621">
        <ele>6</ele>
        <time>2020-08-09T09:33:31.000Z</time>
      </trkpt>
      <trkpt lat="47.30049" lon="-2.29625">
        <ele>6</ele>
        <time>2020-08-09T09:33:51.000Z</time>
      </trkpt>
      <trkpt lat="47.30046" lon="-2.29628">
        <ele>6</ele>
        <time>2020-08-09T09:33:53.000Z</time>
      </trkpt>
      <trkpt lat="47.30039" lon="-2.29629">
        <ele>6</ele>
        <time>2020-08-09T09:33:55.000Z</time>
      </trkpt>
      <trkpt lat="47.3003" lon="-2.29629">
        <ele>6</ele>
        <time>2020-08-09T09:33:57.000Z</time>
      </trkpt>
      <trkpt lat="47.30025" lon="-2.2963">
        <ele>6</ele>
        <time>2020-08-09T09:33:58.000Z</time>
      </trkpt>
      <trkpt lat="47.29998" lon="-2.29633">
        <ele>6</ele>
        <time>2020-08-09T09:34:03.000Z</time>
      </trkpt>
      <trkpt lat="47.29977" lon="-2.29635">
        <ele>6</ele>
        <time>2020-08-09T09:34:07.000Z</time>
      </trkpt>
      <trkpt lat="47.29966" lon="-2.29637">
        <ele>6</ele>
        <time>2020-08-09T09:34:09.000Z</time>
      </trkpt>
      <trkpt lat="47.29948" lon="-2.29642">
        <ele>6</ele>
        <time>2020-08-09T09:34:13.000Z</time>
      </trkpt>
      <trkpt lat="47.29939" lon="-2.29647">
        <ele>6</ele>
        <time>2020-08-09T09:34:15.000Z</time>
      </trkpt>
      <trkpt lat="47.29915" lon="-2.29663">
        <ele>6</ele>
        <time>2020-08-09T09:34:21.000Z</time>
      </trkpt>
      <trkpt lat="47.29909" lon="-2.29671">
        <ele>6</ele>
        <time>2020-08-09T09:34:23.000Z</time>
      </trkpt>
      <trkpt lat="47.29908" lon="-2.29689">
        <ele>6</ele>
        <time>2020-08-09T09:34:26.000Z</time>
      </trkpt>
      <trkpt lat="47.29911" lon="-2.29702">
        <ele>6</ele>
        <time>2020-08-09T09:34:28.000Z</time>
      </trkpt>
      <trkpt lat="47.29915" lon="-2.29717">
        <ele>6</ele>
        <time>2020-08-09T09:34:30.000Z</time>
      </trkpt>
      <trkpt lat="47.2993" lon="-2.29762">
        <ele>6</ele>
        <time>2020-08-09T09:34:36.000Z</time>
      </trkpt>
      <trkpt lat="47.29932" lon="-2.2977">
        <ele>6</ele>
        <time>2020-08-09T09:34:37.000Z</time>
      </trkpt>
      <trkpt lat="47.29939" lon="-2.298">
        <ele>6</ele>
        <time>2020-08-09T09:34:41.000Z</time>
      </trkpt>
      <trkpt lat="47.29938" lon="-2.29812">
        <ele>6</ele>
        <time>2020-08-09T09:34:43.000Z</time>
      </trkpt>
      <trkpt lat="47.29937" lon="-2.29815">
        <ele>6</ele>
        <time>2020-08-09T09:34:44.000Z</time>
      </trkpt>
      <trkpt lat="47.29931" lon="-2.29821">
        <ele>6</ele>
        <time>2020-08-09T09:34:46.000Z</time>
      </trkpt>
      <trkpt lat="47.29924" lon="-2.29826">
        <ele>6</ele>
        <time>2020-08-09T09:34:48.000Z</time>
      </trkpt>
      <trkpt lat="47.29911" lon="-2.29834">
        <ele>6</ele>
        <time>2020-08-09T09:34:52.000Z</time>
      </trkpt>
      <trkpt lat="47.29909" lon="-2.29839">
        <ele>6</ele>
        <time>2020-08-09T09:34:53.000Z</time>
      </trkpt>
      <trkpt lat="47.29907" lon="-2.2985">
        <ele>6</ele>
        <time>2020-08-09T09:34:55.000Z</time>
      </trkpt>
      <trkpt lat="47.29905" lon="-2.29871">
        <ele>6</ele>
        <time>2020-08-09T09:34:58.000Z</time>
      </trkpt>
      <trkpt lat="47.29906" lon="-2.29878">
        <ele>6</ele>
        <time>2020-08-09T09:34:59.000Z</time>
      </trkpt>
      <trkpt lat="47.29907" lon="-2.29911">
        <ele>6</ele>
        <time>2020-08-09T09:35:03.000Z</time>
      </trkpt>
      <trkpt lat="47.29907" lon="-2.29927">
        <ele>6</ele>
        <time>2020-08-09T09:35:05.000Z</time>
      </trkpt>
      <trkpt lat="47.29898" lon="-2.2994">
        <ele>6</ele>
        <time>2020-08-09T09:35:08.000Z</time>
      </trkpt>
      <trkpt lat="47.29883" lon="-2.29943">
        <ele>6</ele>
        <time>2020-08-09T09:35:11.000Z</time>
      </trkpt>
      <trkpt lat="47.29877" lon="-2.29945">
        <ele>6</ele>
        <time>2020-08-09T09:35:12.000Z</time>
      </trkpt>
      <trkpt lat="47.29846" lon="-2.29952">
        <ele>6</ele>
        <time>2020-08-09T09:35:18.000Z</time>
      </trkpt>
      <trkpt lat="47.29811" lon="-2.29954">
        <ele>6</ele>
        <time>2020-08-09T09:35:24.000Z</time>
      </trkpt>
      <trkpt lat="47.29782" lon="-2.29955">
        <ele>6</ele>
        <time>2020-08-09T09:35:29.000Z</time>
      </trkpt>
      <trkpt lat="47.29778" lon="-2.29957">
        <ele>6</ele>
        <time>2020-08-09T09:35:30.000Z</time>
      </trkpt>
      <trkpt lat="47.29764" lon="-2.29969">
        <ele>6</ele>
        <time>2020-08-09T09:35:33.000Z</time>
      </trkpt>
      <trkpt lat="47.29752" lon="-2.29977">
        <ele>6</ele>
        <time>2020-08-09T09:35:35.000Z</time>
      </trkpt>
      <trkpt lat="47.29714" lon="-2.29996">
        <ele>6</ele>
        <time>2020-08-09T09:35:41.000Z</time>
      </trkpt>
      <trkpt lat="47.29681" lon="-2.29999">
        <ele>6</ele>
        <time>2020-08-09T09:35:46.000Z</time>
      </trkpt>
      <trkpt lat="47.29663" lon="-2.29995">
        <ele>6</ele>
        <time>2020-08-09T09:35:49.000Z</time>
      </trkpt>
      <trkpt lat="47.29652" lon="-2.29988">
        <ele>6</ele>
        <time>2020-08-09T09:35:51.000Z</time>
      </trkpt>
      <trkpt lat="47.29639" lon="-2.29983">
        <ele>6</ele>
        <time>2020-08-09T09:35:54.000Z</time>
      </trkpt>
      <trkpt lat="47.29635" lon="-2.29988">
        <ele>6</ele>
        <time>2020-08-09T09:35:55.000Z</time>
      </trkpt>
      <trkpt lat="47.29625" lon="-2.29995">
        <ele>6</ele>
        <time>2020-08-09T09:35:57.000Z</time>
      </trkpt>
      <trkpt lat="47.29612" lon="-2.29999">
        <ele>6</ele>
        <time>2020-08-09T09:35:59.000Z</time>
      </trkpt>
      <trkpt lat="47.29562" lon="-2.30015">
        <ele>6</ele>
        <time>2020-08-09T09:36:06.000Z</time>
      </trkpt>
      <trkpt lat="47.29529" lon="-2.30028">
        <ele>6</ele>
        <time>2020-08-09T09:36:11.000Z</time>
      </trkpt>
      <trkpt lat="47.29516" lon="-2.30028">
        <ele>6</ele>
        <time>2020-08-09T09:36:13.000Z</time>
      </trkpt>
      <trkpt lat="47.29505" lon="-2.30025">
        <ele>6</ele>
        <time>2020-08-09T09:36:15.000Z</time>
      </trkpt>
      <trkpt lat="47.295" lon="-2.30025">
        <ele>6</ele>
        <time>2020-08-09T09:36:16.000Z</time>
      </trkpt>
      <trkpt lat="47.29495" lon="-2.30027">
        <ele>6</ele>
        <time>2020-08-09T09:36:17.000Z</time>
      </trkpt>
      <trkpt lat="47.29462" lon="-2.30028">
        <ele>6</ele>
        <time>2020-08-09T09:36:23.000Z</time>
      </trkpt>
      <trkpt lat="47.2944" lon="-2.30028">
        <ele>6</ele>
        <time>2020-08-09T09:36:27.000Z</time>
      </trkpt>
      <trkpt lat="47.29429" lon="-2.30028">
        <ele>6</ele>
        <time>2020-08-09T09:36:29.000Z</time>
      </trkpt>
      <trkpt lat="47.29408" lon="-2.30028">
        <ele>6</ele>
        <time>2020-08-09T09:36:33.000Z</time>
      </trkpt>
      <trkpt lat="47.29403" lon="-2.30026">
        <ele>6</ele>
        <time>2020-08-09T09:36:34.000Z</time>
      </trkpt>
      <trkpt lat="47.29398" lon="-2.30024">
        <ele>6</ele>
        <time>2020-08-09T09:36:35.000Z</time>
      </trkpt>
      <trkpt lat="47.29379" lon="-2.30018">
        <ele>6</ele>
        <time>2020-08-09T09:36:39.000Z</time>
      </trkpt>
      <trkpt lat="47.29356" lon="-2.30007">
        <ele>6.5999999046326</ele>
        <time>2020-08-09T09:36:45.000Z</time>
      </trkpt>
      <trkpt lat="47.29352" lon="-2.30006">
        <ele>7</ele>
        <time>2020-08-09T09:36:46.000Z</time>
      </trkpt>
      <trkpt lat="47.2935" lon="-2.30005">
        <ele>7.4000000953674</ele>
        <time>2020-08-09T09:36:47.000Z</time>
      </trkpt>
      <trkpt lat="47.29347" lon="-2.30005">
        <ele>7.8000001907349</ele>
        <time>2020-08-09T09:36:48.000Z</time>
      </trkpt>
      <trkpt lat="47.29345" lon="-2.30005">
        <ele>8.1999998092651</ele>
        <time>2020-08-09T09:36:49.000Z</time>
      </trkpt>
      <trkpt lat="47.29345" lon="-2.30008">
        <ele>8.1999998092651</ele>
        <time>2020-08-09T09:36:50.000Z</time>
      </trkpt>
      <trkpt lat="47.29345" lon="-2.30022">
        <ele>8.1999998092651</ele>
        <time>2020-08-09T09:36:54.000Z</time>
      </trkpt>
      <trkpt lat="47.29345" lon="-2.30025">
        <ele>8.1999998092651</ele>
        <time>2020-08-09T09:36:55.000Z</time>
      </trkpt>
      <trkpt lat="47.29343" lon="-2.30059">
        <ele>8.1999998092651</ele>
        <time>2020-08-09T09:37:05.000Z</time>
      </trkpt>
      <trkpt lat="47.29339" lon="-2.30093">
        <ele>8.1999998092651</ele>
        <time>2020-08-09T09:37:13.000Z</time>
      </trkpt>
      <trkpt lat="47.29331" lon="-2.30125">
        <ele>8.1999998092651</ele>
        <time>2020-08-09T09:37:20.000Z</time>
      </trkpt>
      <trkpt lat="47.29326" lon="-2.30137">
        <ele>8.1999998092651</ele>
        <time>2020-08-09T09:37:23.000Z</time>
      </trkpt>
      <trkpt lat="47.29319" lon="-2.30137">
        <ele>8.1999998092651</ele>
        <time>2020-08-09T09:37:25.000Z</time>
      </trkpt>
      <trkpt lat="47.29292" lon="-2.30137">
        <ele>8.1999998092651</ele>
        <time>2020-08-09T09:37:33.000Z</time>
      </trkpt>
      <trkpt lat="47.2928" lon="-2.30137">
        <ele>8.1999998092651</ele>
        <time>2020-08-09T09:37:38.000Z</time>
      </trkpt>
      <trkpt lat="47.29269" lon="-2.30138">
        <ele>8.1999998092651</ele>
        <time>2020-08-09T09:37:44.000Z</time>
      </trkpt>
      <trkpt lat="47.29268" lon="-2.30139">
        <ele>8.1999998092651</ele>
        <time>2020-08-09T09:37:45.000Z</time>
      </trkpt>
      <trkpt lat="47.29264" lon="-2.30138">
        <ele>8.1999998092651</ele>
        <time>2020-08-09T09:37:47.000Z</time>
      </trkpt>
      <trkpt lat="47.29256" lon="-2.30139">
        <ele>8.1999998092651</ele>
        <time>2020-08-09T09:37:51.000Z</time>
      </trkpt>
      <trkpt lat="47.29243" lon="-2.30139">
        <ele>8.1999998092651</ele>
        <time>2020-08-09T09:37:58.000Z</time>
      </trkpt>
      <trkpt lat="47.2923" lon="-2.30145">
        <ele>8.1999998092651</ele>
        <time>2020-08-09T09:38:05.000Z</time>
      </trkpt>
      <trkpt lat="47.29214" lon="-2.30153">
        <ele>8.1999998092651</ele>
        <time>2020-08-09T09:38:14.000Z</time>
      </trkpt>
      <trkpt lat="47.29197" lon="-2.30162">
        <ele>8.1999998092651</ele>
        <time>2020-08-09T09:38:21.000Z</time>
      </trkpt>
      <trkpt lat="47.29177" lon="-2.30175">
        <ele>8.1999998092651</ele>
        <time>2020-08-09T09:38:29.000Z</time>
      </trkpt>
      <trkpt lat="47.29175" lon="-2.30176">
        <ele>8.1999998092651</ele>
        <time>2020-08-09T09:38:32.000Z</time>
      </trkpt>
      <trkpt lat="47.29172" lon="-2.3018">
        <ele>8.1999998092651</ele>
        <time>2020-08-09T09:39:25.000Z</time>
      </trkpt>
      <trkpt lat="47.29157" lon="-2.30187">
        <ele>8.1999998092651</ele>
        <time>2020-08-09T09:39:30.000Z</time>
      </trkpt>
      <trkpt lat="47.29135" lon="-2.30199">
        <ele>8.1999998092651</ele>
        <time>2020-08-09T09:39:38.000Z</time>
      </trkpt>
      <trkpt lat="47.29117" lon="-2.30206">
        <ele>8.1999998092651</ele>
        <time>2020-08-09T09:39:44.000Z</time>
      </trkpt>
      <trkpt lat="47.29086" lon="-2.30224">
        <ele>8.1999998092651</ele>
        <time>2020-08-09T09:39:52.000Z</time>
      </trkpt>
      <trkpt lat="47.29059" lon="-2.30237">
        <ele>8.1999998092651</ele>
        <time>2020-08-09T09:39:59.000Z</time>
      </trkpt>
      <trkpt lat="47.29022" lon="-2.30248">
        <ele>8.1999998092651</ele>
        <time>2020-08-09T09:40:08.000Z</time>
      </trkpt>
      <trkpt lat="47.29001" lon="-2.30255">
        <ele>8.1999998092651</ele>
        <time>2020-08-09T09:40:14.000Z</time>
      </trkpt>
      <trkpt lat="47.28986" lon="-2.30256">
        <ele>8.6000003814697</ele>
        <time>2020-08-09T09:40:18.000Z</time>
      </trkpt>
      <trkpt lat="47.28983" lon="-2.30255">
        <ele>9</ele>
        <time>2020-08-09T09:40:19.000Z</time>
      </trkpt>
      <trkpt lat="47.28979" lon="-2.30256">
        <ele>9.3999996185303</ele>
        <time>2020-08-09T09:40:20.000Z</time>
      </trkpt>
      <trkpt lat="47.28976" lon="-2.30259">
        <ele>9.8000001907349</ele>
        <time>2020-08-09T09:40:21.000Z</time>
      </trkpt>
      <trkpt lat="47.28973" lon="-2.30264">
        <ele>10.199999809265</ele>
        <time>2020-08-09T09:40:22.000Z</time>
      </trkpt>
      <trkpt lat="47.28972" lon="-2.30271">
        <ele>10.199999809265</ele>
        <time>2020-08-09T09:40:23.000Z</time>
      </trkpt>
      <trkpt lat="47.28973" lon="-2.30296">
        <ele>10.199999809265</ele>
        <time>2020-08-09T09:40:27.000Z</time>
      </trkpt>
      <trkpt lat="47.28975" lon="-2.30325">
        <ele>10.199999809265</ele>
        <time>2020-08-09T09:40:32.000Z</time>
      </trkpt>
      <trkpt lat="47.28976" lon="-2.30342">
        <ele>10.199999809265</ele>
        <time>2020-08-09T09:40:35.000Z</time>
      </trkpt>
      <trkpt lat="47.28977" lon="-2.30365">
        <ele>10.199999809265</ele>
        <time>2020-08-09T09:40:39.000Z</time>
      </trkpt>
      <trkpt lat="47.28979" lon="-2.30413">
        <ele>10.199999809265</ele>
        <time>2020-08-09T09:40:46.000Z</time>
      </trkpt>
      <trkpt lat="47.2898" lon="-2.30427">
        <ele>10.199999809265</ele>
        <time>2020-08-09T09:40:48.000Z</time>
      </trkpt>
      <trkpt lat="47.28982" lon="-2.30447">
        <ele>10.60000038147</ele>
        <time>2020-08-09T09:40:51.000Z</time>
      </trkpt>
      <trkpt lat="47.28983" lon="-2.30454">
        <ele>11</ele>
        <time>2020-08-09T09:40:52.000Z</time>
      </trkpt>
      <trkpt lat="47.28984" lon="-2.30461">
        <ele>11.39999961853</ele>
        <time>2020-08-09T09:40:53.000Z</time>
      </trkpt>
      <trkpt lat="47.28985" lon="-2.30469">
        <ele>11.800000190735</ele>
        <time>2020-08-09T09:40:54.000Z</time>
      </trkpt>
      <trkpt lat="47.28986" lon="-2.30475">
        <ele>12.199999809265</ele>
        <time>2020-08-09T09:40:55.000Z</time>
      </trkpt>
      <trkpt lat="47.28989" lon="-2.30496">
        <ele>12.199999809265</ele>
        <time>2020-08-09T09:40:58.000Z</time>
      </trkpt>
      <trkpt lat="47.28994" lon="-2.30534">
        <ele>12.199999809265</ele>
        <time>2020-08-09T09:41:04.000Z</time>
      </trkpt>
      <trkpt lat="47.29" lon="-2.30578">
        <ele>12.199999809265</ele>
        <time>2020-08-09T09:41:10.000Z</time>
      </trkpt>
      <trkpt lat="47.29004" lon="-2.30625">
        <ele>12.199999809265</ele>
        <time>2020-08-09T09:41:16.000Z</time>
      </trkpt>
      <trkpt lat="47.29003" lon="-2.30632">
        <ele>12.199999809265</ele>
        <time>2020-08-09T09:41:17.000Z</time>
      </trkpt>
      <trkpt lat="47.29005" lon="-2.30666">
        <ele>12.199999809265</ele>
        <time>2020-08-09T09:41:21.000Z</time>
      </trkpt>
      <trkpt lat="47.29006" lon="-2.30736">
        <ele>12.199999809265</ele>
        <time>2020-08-09T09:41:29.000Z</time>
      </trkpt>
      <trkpt lat="47.29009" lon="-2.30761">
        <ele>12.199999809265</ele>
        <time>2020-08-09T09:41:32.000Z</time>
      </trkpt>
      <trkpt lat="47.29012" lon="-2.30776">
        <ele>12.199999809265</ele>
        <time>2020-08-09T09:41:34.000Z</time>
      </trkpt>
      <trkpt lat="47.29021" lon="-2.3083">
        <ele>12.199999809265</ele>
        <time>2020-08-09T09:41:41.000Z</time>
      </trkpt>
      <trkpt lat="47.29027" lon="-2.30878">
        <ele>12.60000038147</ele>
        <time>2020-08-09T09:41:47.000Z</time>
      </trkpt>
      <trkpt lat="47.29027" lon="-2.30886">
        <ele>13</ele>
        <time>2020-08-09T09:41:48.000Z</time>
      </trkpt>
      <trkpt lat="47.29028" lon="-2.30893">
        <ele>13.60000038147</ele>
        <time>2020-08-09T09:41:49.000Z</time>
      </trkpt>
      <trkpt lat="47.29029" lon="-2.30901">
        <ele>14</ele>
        <time>2020-08-09T09:41:50.000Z</time>
      </trkpt>
      <trkpt lat="47.29029" lon="-2.30909">
        <ele>14.39999961853</ele>
        <time>2020-08-09T09:41:51.000Z</time>
      </trkpt>
      <trkpt lat="47.29031" lon="-2.30955">
        <ele>14.800000190735</ele>
        <time>2020-08-09T09:41:57.000Z</time>
      </trkpt>
      <trkpt lat="47.29031" lon="-2.30963">
        <ele>15.199999809265</ele>
        <time>2020-08-09T09:41:58.000Z</time>
      </trkpt>
      <trkpt lat="47.29031" lon="-2.30971">
        <ele>15.60000038147</ele>
        <time>2020-08-09T09:41:59.000Z</time>
      </trkpt>
      <trkpt lat="47.29031" lon="-2.30979">
        <ele>16.200000762939</ele>
        <time>2020-08-09T09:42:00.000Z</time>
      </trkpt>
      <trkpt lat="47.29032" lon="-2.30987">
        <ele>16.60000038147</ele>
        <time>2020-08-09T09:42:01.000Z</time>
      </trkpt>
      <trkpt lat="47.29032" lon="-2.31019">
        <ele>16.60000038147</ele>
        <time>2020-08-09T09:42:05.000Z</time>
      </trkpt>
      <trkpt lat="47.29031" lon="-2.31042">
        <ele>17</ele>
        <time>2020-08-09T09:42:08.000Z</time>
      </trkpt>
      <trkpt lat="47.29031" lon="-2.3105">
        <ele>17.39999961853</ele>
        <time>2020-08-09T09:42:09.000Z</time>
      </trkpt>
      <trkpt lat="47.29031" lon="-2.31058">
        <ele>17.799999237061</ele>
        <time>2020-08-09T09:42:10.000Z</time>
      </trkpt>
      <trkpt lat="47.29031" lon="-2.31065">
        <ele>18.200000762939</ele>
        <time>2020-08-09T09:42:11.000Z</time>
      </trkpt>
      <trkpt lat="47.29031" lon="-2.31073">
        <ele>18.60000038147</ele>
        <time>2020-08-09T09:42:12.000Z</time>
      </trkpt>
      <trkpt lat="47.29034" lon="-2.31095">
        <ele>19</ele>
        <time>2020-08-09T09:42:15.000Z</time>
      </trkpt>
      <trkpt lat="47.29034" lon="-2.31103">
        <ele>19.60000038147</ele>
        <time>2020-08-09T09:42:16.000Z</time>
      </trkpt>
      <trkpt lat="47.29035" lon="-2.31111">
        <ele>20</ele>
        <time>2020-08-09T09:42:17.000Z</time>
      </trkpt>
      <trkpt lat="47.29035" lon="-2.31119">
        <ele>20.39999961853</ele>
        <time>2020-08-09T09:42:18.000Z</time>
      </trkpt>
      <trkpt lat="47.29035" lon="-2.31127">
        <ele>20.799999237061</ele>
        <time>2020-08-09T09:42:19.000Z</time>
      </trkpt>
      <trkpt lat="47.29041" lon="-2.31184">
        <ele>20.799999237061</ele>
        <time>2020-08-09T09:42:26.000Z</time>
      </trkpt>
      <trkpt lat="47.29043" lon="-2.31211">
        <ele>21.200000762939</ele>
        <time>2020-08-09T09:42:29.000Z</time>
      </trkpt>
      <trkpt lat="47.29043" lon="-2.31219">
        <ele>21.60000038147</ele>
        <time>2020-08-09T09:42:30.000Z</time>
      </trkpt>
      <trkpt lat="47.29041" lon="-2.31228">
        <ele>22</ele>
        <time>2020-08-09T09:42:31.000Z</time>
      </trkpt>
      <trkpt lat="47.29039" lon="-2.31236">
        <ele>22.39999961853</ele>
        <time>2020-08-09T09:42:32.000Z</time>
      </trkpt>
      <trkpt lat="47.29035" lon="-2.31244">
        <ele>22.799999237061</ele>
        <time>2020-08-09T09:42:33.000Z</time>
      </trkpt>
      <trkpt lat="47.29032" lon="-2.31252">
        <ele>22.799999237061</ele>
        <time>2020-08-09T09:42:34.000Z</time>
      </trkpt>
      <trkpt lat="47.29024" lon="-2.31267">
        <ele>22.799999237061</ele>
        <time>2020-08-09T09:42:36.000Z</time>
      </trkpt>
      <trkpt lat="47.29005" lon="-2.31314">
        <ele>22.799999237061</ele>
        <time>2020-08-09T09:42:42.000Z</time>
      </trkpt>
      <trkpt lat="47.28982" lon="-2.31357">
        <ele>22.799999237061</ele>
        <time>2020-08-09T09:42:48.000Z</time>
      </trkpt>
      <trkpt lat="47.28955" lon="-2.31385">
        <ele>22.799999237061</ele>
        <time>2020-08-09T09:42:53.000Z</time>
      </trkpt>
      <trkpt lat="47.28949" lon="-2.31388">
        <ele>22.799999237061</ele>
        <time>2020-08-09T09:42:54.000Z</time>
      </trkpt>
      <trkpt lat="47.28928" lon="-2.31393">
        <ele>22.799999237061</ele>
        <time>2020-08-09T09:42:57.000Z</time>
      </trkpt>
      <trkpt lat="47.28913" lon="-2.31394">
        <ele>23.39999961853</ele>
        <time>2020-08-09T09:42:59.000Z</time>
      </trkpt>
      <trkpt lat="47.28906" lon="-2.31395">
        <ele>23.799999237061</ele>
        <time>2020-08-09T09:43:00.000Z</time>
      </trkpt>
      <trkpt lat="47.28899" lon="-2.31395">
        <ele>24.200000762939</ele>
        <time>2020-08-09T09:43:01.000Z</time>
      </trkpt>
      <trkpt lat="47.28892" lon="-2.31395">
        <ele>24.60000038147</ele>
        <time>2020-08-09T09:43:02.000Z</time>
      </trkpt>
      <trkpt lat="47.28885" lon="-2.31396">
        <ele>25</ele>
        <time>2020-08-09T09:43:03.000Z</time>
      </trkpt>
      <trkpt lat="47.2885" lon="-2.3141">
        <ele>25</ele>
        <time>2020-08-09T09:43:08.000Z</time>
      </trkpt>
      <trkpt lat="47.28796" lon="-2.31443">
        <ele>25</ele>
        <time>2020-08-09T09:43:16.000Z</time>
      </trkpt>
      <trkpt lat="47.2879" lon="-2.31448">
        <ele>25</ele>
        <time>2020-08-09T09:43:17.000Z</time>
      </trkpt>
      <trkpt lat="47.2877" lon="-2.31461">
        <ele>25</ele>
        <time>2020-08-09T09:43:20.000Z</time>
      </trkpt>
      <trkpt lat="47.28756" lon="-2.31468">
        <ele>25.60000038147</ele>
        <time>2020-08-09T09:43:22.000Z</time>
      </trkpt>
      <trkpt lat="47.28748" lon="-2.31472">
        <ele>26</ele>
        <time>2020-08-09T09:43:23.000Z</time>
      </trkpt>
      <trkpt lat="47.28741" lon="-2.31476">
        <ele>26.39999961853</ele>
        <time>2020-08-09T09:43:24.000Z</time>
      </trkpt>
      <trkpt lat="47.28734" lon="-2.31481">
        <ele>26.799999237061</ele>
        <time>2020-08-09T09:43:25.000Z</time>
      </trkpt>
      <trkpt lat="47.28728" lon="-2.31484">
        <ele>27.200000762939</ele>
        <time>2020-08-09T09:43:26.000Z</time>
      </trkpt>
      <trkpt lat="47.28715" lon="-2.31491">
        <ele>27.200000762939</ele>
        <time>2020-08-09T09:43:28.000Z</time>
      </trkpt>
      <trkpt lat="47.28695" lon="-2.31497">
        <ele>27.200000762939</ele>
        <time>2020-08-09T09:43:31.000Z</time>
      </trkpt>
      <trkpt lat="47.28683" lon="-2.31493">
        <ele>27.200000762939</ele>
        <time>2020-08-09T09:43:33.000Z</time>
      </trkpt>
      <trkpt lat="47.28673" lon="-2.31475">
        <ele>27.200000762939</ele>
        <time>2020-08-09T09:43:36.000Z</time>
      </trkpt>
      <trkpt lat="47.2867" lon="-2.31464">
        <ele>27.200000762939</ele>
        <time>2020-08-09T09:43:38.000Z</time>
      </trkpt>
      <trkpt lat="47.28667" lon="-2.31457">
        <ele>27.200000762939</ele>
        <time>2020-08-09T09:43:40.000Z</time>
      </trkpt>
      <trkpt lat="47.28664" lon="-2.31455">
        <ele>27.200000762939</ele>
        <time>2020-08-09T09:43:41.000Z</time>
      </trkpt>
      <trkpt lat="47.28659" lon="-2.31455">
        <ele>27.200000762939</ele>
        <time>2020-08-09T09:43:43.000Z</time>
      </trkpt>
      <trkpt lat="47.28647" lon="-2.31461">
        <ele>27.200000762939</ele>
        <time>2020-08-09T09:43:49.000Z</time>
      </trkpt>
      <trkpt lat="47.28634" lon="-2.31467">
        <ele>27.200000762939</ele>
        <time>2020-08-09T09:43:56.000Z</time>
      </trkpt>
      <trkpt lat="47.28621" lon="-2.31476">
        <ele>27.200000762939</ele>
        <time>2020-08-09T09:44:04.000Z</time>
      </trkpt>
      <trkpt lat="47.28617" lon="-2.31476">
        <ele>27.200000762939</ele>
        <time>2020-08-09T09:44:06.000Z</time>
      </trkpt>
      <trkpt lat="47.28614" lon="-2.31473">
        <ele>27.200000762939</ele>
        <time>2020-08-09T09:44:08.000Z</time>
      </trkpt>
      <trkpt lat="47.28611" lon="-2.3147">
        <ele>27.200000762939</ele>
        <time>2020-08-09T09:44:10.000Z</time>
      </trkpt>
      <trkpt lat="47.28608" lon="-2.31472">
        <ele>27.200000762939</ele>
        <time>2020-08-09T09:44:12.000Z</time>
      </trkpt>
      <trkpt lat="47.28608" lon="-2.31472">
        <ele>27.200000762939</ele>
        <time>2020-08-09T09:44:14.000Z</time>
      </trkpt>
      <trkpt lat="47.28615" lon="-2.31478">
        <ele>27.200000762939</ele>
        <time>2020-08-09T09:45:42.000Z</time>
      </trkpt>
      <trkpt lat="47.28617" lon="-2.3148">
        <ele>27.200000762939</ele>
        <time>2020-08-09T09:45:43.000Z</time>
      </trkpt>
      <trkpt lat="47.28622" lon="-2.31498">
        <ele>27.200000762939</ele>
        <time>2020-08-09T09:45:48.000Z</time>
      </trkpt>
      <trkpt lat="47.28624" lon="-2.3153">
        <ele>27.200000762939</ele>
        <time>2020-08-09T09:45:53.000Z</time>
      </trkpt>
      <trkpt lat="47.28625" lon="-2.31551">
        <ele>27.200000762939</ele>
        <time>2020-08-09T09:45:56.000Z</time>
      </trkpt>
      <trkpt lat="47.28624" lon="-2.3158">
        <ele>27.200000762939</ele>
        <time>2020-08-09T09:46:00.000Z</time>
      </trkpt>
      <trkpt lat="47.28623" lon="-2.31642">
        <ele>27.200000762939</ele>
        <time>2020-08-09T09:46:08.000Z</time>
      </trkpt>
      <trkpt lat="47.28627" lon="-2.31697">
        <ele>27.200000762939</ele>
        <time>2020-08-09T09:46:15.000Z</time>
      </trkpt>
      <trkpt lat="47.28639" lon="-2.31764">
        <ele>27.200000762939</ele>
        <time>2020-08-09T09:46:24.000Z</time>
      </trkpt>
      <trkpt lat="47.28644" lon="-2.31806">
        <ele>27.200000762939</ele>
        <time>2020-08-09T09:46:30.000Z</time>
      </trkpt>
      <trkpt lat="47.28651" lon="-2.31871">
        <ele>27.200000762939</ele>
        <time>2020-08-09T09:46:39.000Z</time>
      </trkpt>
      <trkpt lat="47.28652" lon="-2.31878">
        <ele>27.200000762939</ele>
        <time>2020-08-09T09:46:40.000Z</time>
      </trkpt>
      <trkpt lat="47.28655" lon="-2.3192">
        <ele>27.200000762939</ele>
        <time>2020-08-09T09:46:45.000Z</time>
      </trkpt>
      <trkpt lat="47.28664" lon="-2.31987">
        <ele>27.200000762939</ele>
        <time>2020-08-09T09:46:53.000Z</time>
      </trkpt>
      <trkpt lat="47.28678" lon="-2.32042">
        <ele>27.200000762939</ele>
        <time>2020-08-09T09:47:00.000Z</time>
      </trkpt>
      <trkpt lat="47.28691" lon="-2.32101">
        <ele>27.200000762939</ele>
        <time>2020-08-09T09:47:07.000Z</time>
      </trkpt>
      <trkpt lat="47.28692" lon="-2.3211">
        <ele>27.200000762939</ele>
        <time>2020-08-09T09:47:08.000Z</time>
      </trkpt>
      <trkpt lat="47.28692" lon="-2.32136">
        <ele>27.200000762939</ele>
        <time>2020-08-09T09:47:11.000Z</time>
      </trkpt>
      <trkpt lat="47.28681" lon="-2.32171">
        <ele>27.200000762939</ele>
        <time>2020-08-09T09:47:15.000Z</time>
      </trkpt>
      <trkpt lat="47.28677" lon="-2.3218">
        <ele>27.200000762939</ele>
        <time>2020-08-09T09:47:16.000Z</time>
      </trkpt>
      <trkpt lat="47.28664" lon="-2.32204">
        <ele>26.799999237061</ele>
        <time>2020-08-09T09:47:19.000Z</time>
      </trkpt>
      <trkpt lat="47.28659" lon="-2.32212">
        <ele>26.39999961853</ele>
        <time>2020-08-09T09:47:20.000Z</time>
      </trkpt>
      <trkpt lat="47.28653" lon="-2.32218">
        <ele>26</ele>
        <time>2020-08-09T09:47:21.000Z</time>
      </trkpt>
      <trkpt lat="47.28647" lon="-2.32224">
        <ele>25.60000038147</ele>
        <time>2020-08-09T09:47:22.000Z</time>
      </trkpt>
      <trkpt lat="47.2864" lon="-2.3223">
        <ele>25.200000762939</ele>
        <time>2020-08-09T09:47:23.000Z</time>
      </trkpt>
      <trkpt lat="47.28625" lon="-2.32241">
        <ele>25.200000762939</ele>
        <time>2020-08-09T09:47:25.000Z</time>
      </trkpt>
      <trkpt lat="47.28581" lon="-2.32268">
        <ele>25.200000762939</ele>
        <time>2020-08-09T09:47:31.000Z</time>
      </trkpt>
      <trkpt lat="47.28574" lon="-2.32274">
        <ele>25.200000762939</ele>
        <time>2020-08-09T09:47:32.000Z</time>
      </trkpt>
      <trkpt lat="47.28555" lon="-2.32294">
        <ele>25.200000762939</ele>
        <time>2020-08-09T09:47:35.000Z</time>
      </trkpt>
      <trkpt lat="47.28535" lon="-2.32315">
        <ele>24.799999237061</ele>
        <time>2020-08-09T09:47:38.000Z</time>
      </trkpt>
      <trkpt lat="47.28527" lon="-2.32321">
        <ele>24</ele>
        <time>2020-08-09T09:47:39.000Z</time>
      </trkpt>
      <trkpt lat="47.28521" lon="-2.32327">
        <ele>23.60000038147</ele>
        <time>2020-08-09T09:47:40.000Z</time>
      </trkpt>
      <trkpt lat="47.28514" lon="-2.32333">
        <ele>23.200000762939</ele>
        <time>2020-08-09T09:47:41.000Z</time>
      </trkpt>
      <trkpt lat="47.28471" lon="-2.32361">
        <ele>23.200000762939</ele>
        <time>2020-08-09T09:47:47.000Z</time>
      </trkpt>
      <trkpt lat="47.28444" lon="-2.32379">
        <ele>22.60000038147</ele>
        <time>2020-08-09T09:47:51.000Z</time>
      </trkpt>
      <trkpt lat="47.28437" lon="-2.32383">
        <ele>22.200000762939</ele>
        <time>2020-08-09T09:47:52.000Z</time>
      </trkpt>
      <trkpt lat="47.2843" lon="-2.32387">
        <ele>21.799999237061</ele>
        <time>2020-08-09T09:47:53.000Z</time>
      </trkpt>
      <trkpt lat="47.28423" lon="-2.32391">
        <ele>21.39999961853</ele>
        <time>2020-08-09T09:47:54.000Z</time>
      </trkpt>
      <trkpt lat="47.28416" lon="-2.32396">
        <ele>21</ele>
        <time>2020-08-09T09:47:55.000Z</time>
      </trkpt>
      <trkpt lat="47.28382" lon="-2.32418">
        <ele>21</ele>
        <time>2020-08-09T09:48:01.000Z</time>
      </trkpt>
      <trkpt lat="47.28376" lon="-2.32424">
        <ele>20.60000038147</ele>
        <time>2020-08-09T09:48:03.000Z</time>
      </trkpt>
      <trkpt lat="47.28375" lon="-2.32426">
        <ele>20</ele>
        <time>2020-08-09T09:48:04.000Z</time>
      </trkpt>
      <trkpt lat="47.28375" lon="-2.32426">
        <ele>19.200000762939</ele>
        <time>2020-08-09T09:48:05.000Z</time>
      </trkpt>
      <trkpt lat="47.28375" lon="-2.32429">
        <ele>18.60000038147</ele>
        <time>2020-08-09T09:48:26.000Z</time>
      </trkpt>
      <trkpt lat="47.28375" lon="-2.32435">
        <ele>18.60000038147</ele>
        <time>2020-08-09T09:48:28.000Z</time>
      </trkpt>
      <trkpt lat="47.28376" lon="-2.32448">
        <ele>18.60000038147</ele>
        <time>2020-08-09T09:48:31.000Z</time>
      </trkpt>
      <trkpt lat="47.28377" lon="-2.32455">
        <ele>18.60000038147</ele>
        <time>2020-08-09T09:48:32.000Z</time>
      </trkpt>
      <trkpt lat="47.28388" lon="-2.32499">
        <ele>18.60000038147</ele>
        <time>2020-08-09T09:48:38.000Z</time>
      </trkpt>
      <trkpt lat="47.28392" lon="-2.32521">
        <ele>18.60000038147</ele>
        <time>2020-08-09T09:48:42.000Z</time>
      </trkpt>
      <trkpt lat="47.28385" lon="-2.32525">
        <ele>18.60000038147</ele>
        <time>2020-08-09T09:48:45.000Z</time>
      </trkpt>
      <trkpt lat="47.28377" lon="-2.32526">
        <ele>18.200000762939</ele>
        <time>2020-08-09T09:48:48.000Z</time>
      </trkpt>
      <trkpt lat="47.28374" lon="-2.32525">
        <ele>17.799999237061</ele>
        <time>2020-08-09T09:48:49.000Z</time>
      </trkpt>
      <trkpt lat="47.2837" lon="-2.32525">
        <ele>17.39999961853</ele>
        <time>2020-08-09T09:48:50.000Z</time>
      </trkpt>
      <trkpt lat="47.28366" lon="-2.32525">
        <ele>17</ele>
        <time>2020-08-09T09:48:51.000Z</time>
      </trkpt>
      <trkpt lat="47.28362" lon="-2.32525">
        <ele>16.39999961853</ele>
        <time>2020-08-09T09:48:52.000Z</time>
      </trkpt>
      <trkpt lat="47.28347" lon="-2.32526">
        <ele>16.39999961853</ele>
        <time>2020-08-09T09:48:55.000Z</time>
      </trkpt>
      <trkpt lat="47.28337" lon="-2.32527">
        <ele>16.39999961853</ele>
        <time>2020-08-09T09:48:57.000Z</time>
      </trkpt>
      <trkpt lat="47.28314" lon="-2.32527">
        <ele>16.39999961853</ele>
        <time>2020-08-09T09:49:01.000Z</time>
      </trkpt>
      <trkpt lat="47.28277" lon="-2.32524">
        <ele>16.39999961853</ele>
        <time>2020-08-09T09:49:07.000Z</time>
      </trkpt>
      <trkpt lat="47.28272" lon="-2.32522">
        <ele>16.39999961853</ele>
        <time>2020-08-09T09:49:08.000Z</time>
      </trkpt>
      <trkpt lat="47.28257" lon="-2.3251">
        <ele>16.39999961853</ele>
        <time>2020-08-09T09:49:11.000Z</time>
      </trkpt>
      <trkpt lat="47.28248" lon="-2.32498">
        <ele>16.39999961853</ele>
        <time>2020-08-09T09:49:13.000Z</time>
      </trkpt>
      <trkpt lat="47.28233" lon="-2.32479">
        <ele>16.39999961853</ele>
        <time>2020-08-09T09:49:17.000Z</time>
      </trkpt>
      <trkpt lat="47.28213" lon="-2.32464">
        <ele>16.39999961853</ele>
        <time>2020-08-09T09:49:21.000Z</time>
      </trkpt>
      <trkpt lat="47.28179" lon="-2.32457">
        <ele>16.39999961853</ele>
        <time>2020-08-09T09:49:27.000Z</time>
      </trkpt>
      <trkpt lat="47.28146" lon="-2.32462">
        <ele>16.39999961853</ele>
        <time>2020-08-09T09:49:33.000Z</time>
      </trkpt>
      <trkpt lat="47.28129" lon="-2.32463">
        <ele>16.39999961853</ele>
        <time>2020-08-09T09:49:36.000Z</time>
      </trkpt>
      <trkpt lat="47.2812" lon="-2.32459">
        <ele>16.39999961853</ele>
        <time>2020-08-09T09:49:38.000Z</time>
      </trkpt>
      <trkpt lat="47.28101" lon="-2.32449">
        <ele>17.39999961853</ele>
        <time>2020-08-09T09:49:43.000Z</time>
      </trkpt>
      <trkpt lat="47.28098" lon="-2.32446">
        <ele>17.799999237061</ele>
        <time>2020-08-09T09:49:44.000Z</time>
      </trkpt>
      <trkpt lat="47.28094" lon="-2.32443">
        <ele>18.200000762939</ele>
        <time>2020-08-09T09:49:45.000Z</time>
      </trkpt>
      <trkpt lat="47.2809" lon="-2.32441">
        <ele>18.60000038147</ele>
        <time>2020-08-09T09:49:46.000Z</time>
      </trkpt>
      <trkpt lat="47.28083" lon="-2.32438">
        <ele>18.60000038147</ele>
        <time>2020-08-09T09:49:48.000Z</time>
      </trkpt>
      <trkpt lat="47.28058" lon="-2.32435">
        <ele>18.60000038147</ele>
        <time>2020-08-09T09:49:53.000Z</time>
      </trkpt>
      <trkpt lat="47.28053" lon="-2.32435">
        <ele>18.60000038147</ele>
        <time>2020-08-09T09:49:54.000Z</time>
      </trkpt>
      <trkpt lat="47.28042" lon="-2.32434">
        <ele>18.60000038147</ele>
        <time>2020-08-09T09:49:56.000Z</time>
      </trkpt>
      <trkpt lat="47.28026" lon="-2.32431">
        <ele>18.60000038147</ele>
        <time>2020-08-09T09:49:59.000Z</time>
      </trkpt>
      <trkpt lat="47.27982" lon="-2.32418">
        <ele>18.60000038147</ele>
        <time>2020-08-09T09:50:07.000Z</time>
      </trkpt>
      <trkpt lat="47.27951" lon="-2.32407">
        <ele>18.60000038147</ele>
        <time>2020-08-09T09:50:13.000Z</time>
      </trkpt>
      <trkpt lat="47.27923" lon="-2.32401">
        <ele>18.60000038147</ele>
        <time>2020-08-09T09:50:19.000Z</time>
      </trkpt>
      <trkpt lat="47.27919" lon="-2.32399">
        <ele>18.60000038147</ele>
        <time>2020-08-09T09:50:20.000Z</time>
      </trkpt>
      <trkpt lat="47.27904" lon="-2.32388">
        <ele>18.60000038147</ele>
        <time>2020-08-09T09:50:26.000Z</time>
      </trkpt>
      <trkpt lat="47.27892" lon="-2.32386">
        <ele>18.60000038147</ele>
        <time>2020-08-09T09:50:32.000Z</time>
      </trkpt>
      <trkpt lat="47.27881" lon="-2.32388">
        <ele>18.60000038147</ele>
        <time>2020-08-09T09:50:35.000Z</time>
      </trkpt>
      <trkpt lat="47.27878" lon="-2.32388">
        <ele>18.60000038147</ele>
        <time>2020-08-09T09:50:36.000Z</time>
      </trkpt>
      <trkpt lat="47.27859" lon="-2.32379">
        <ele>18.60000038147</ele>
        <time>2020-08-09T09:50:41.000Z</time>
      </trkpt>
      <trkpt lat="47.27845" lon="-2.32376">
        <ele>18.60000038147</ele>
        <time>2020-08-09T09:50:45.000Z</time>
      </trkpt>
      <trkpt lat="47.27841" lon="-2.32376">
        <ele>18.60000038147</ele>
        <time>2020-08-09T09:50:46.000Z</time>
      </trkpt>
      <trkpt lat="47.27821" lon="-2.32382">
        <ele>18.60000038147</ele>
        <time>2020-08-09T09:50:51.000Z</time>
      </trkpt>
      <trkpt lat="47.27804" lon="-2.32382">
        <ele>18.60000038147</ele>
        <time>2020-08-09T09:50:56.000Z</time>
      </trkpt>
      <trkpt lat="47.278" lon="-2.32382">
        <ele>19.39999961853</ele>
        <time>2020-08-09T09:50:57.000Z</time>
      </trkpt>
      <trkpt lat="47.27796" lon="-2.32382">
        <ele>19.799999237061</ele>
        <time>2020-08-09T09:50:58.000Z</time>
      </trkpt>
      <trkpt lat="47.27792" lon="-2.32382">
        <ele>20.200000762939</ele>
        <time>2020-08-09T09:50:59.000Z</time>
      </trkpt>
      <trkpt lat="47.27789" lon="-2.32382">
        <ele>20.60000038147</ele>
        <time>2020-08-09T09:51:00.000Z</time>
      </trkpt>
      <trkpt lat="47.27782" lon="-2.32383">
        <ele>20.60000038147</ele>
        <time>2020-08-09T09:51:02.000Z</time>
      </trkpt>
      <trkpt lat="47.27776" lon="-2.32381">
        <ele>20.60000038147</ele>
        <time>2020-08-09T09:51:04.000Z</time>
      </trkpt>
      <trkpt lat="47.27769" lon="-2.32374">
        <ele>20.60000038147</ele>
        <time>2020-08-09T09:51:06.000Z</time>
      </trkpt>
      <trkpt lat="47.27752" lon="-2.32363">
        <ele>20.60000038147</ele>
        <time>2020-08-09T09:51:11.000Z</time>
      </trkpt>
      <trkpt lat="47.2773" lon="-2.32351">
        <ele>20.60000038147</ele>
        <time>2020-08-09T09:51:17.000Z</time>
      </trkpt>
      <trkpt lat="47.27707" lon="-2.32335">
        <ele>20.60000038147</ele>
        <time>2020-08-09T09:51:23.000Z</time>
      </trkpt>
      <trkpt lat="47.27689" lon="-2.32326">
        <ele>20.60000038147</ele>
        <time>2020-08-09T09:51:28.000Z</time>
      </trkpt>
      <trkpt lat="47.27662" lon="-2.32318">
        <ele>20.60000038147</ele>
        <time>2020-08-09T09:51:34.000Z</time>
      </trkpt>
      <trkpt lat="47.27637" lon="-2.32307">
        <ele>20.60000038147</ele>
        <time>2020-08-09T09:51:40.000Z</time>
      </trkpt>
      <trkpt lat="47.27621" lon="-2.32297">
        <ele>20.60000038147</ele>
        <time>2020-08-09T09:51:45.000Z</time>
      </trkpt>
      <trkpt lat="47.27619" lon="-2.32295">
        <ele>20.60000038147</ele>
        <time>2020-08-09T09:51:46.000Z</time>
      </trkpt>
      <trkpt lat="47.27619" lon="-2.32294">
        <ele>20.60000038147</ele>
        <time>2020-08-09T09:51:47.000Z</time>
      </trkpt>
      <trkpt lat="47.27617" lon="-2.32292">
        <ele>20.60000038147</ele>
        <time>2020-08-09T09:52:11.000Z</time>
      </trkpt>
      <trkpt lat="47.27603" lon="-2.3228">
        <ele>20.60000038147</ele>
        <time>2020-08-09T09:52:16.000Z</time>
      </trkpt>
      <trkpt lat="47.27587" lon="-2.32267">
        <ele>20.200000762939</ele>
        <time>2020-08-09T09:52:20.000Z</time>
      </trkpt>
      <trkpt lat="47.27583" lon="-2.32263">
        <ele>19.799999237061</ele>
        <time>2020-08-09T09:52:21.000Z</time>
      </trkpt>
      <trkpt lat="47.27577" lon="-2.32259">
        <ele>19.39999961853</ele>
        <time>2020-08-09T09:52:22.000Z</time>
      </trkpt>
      <trkpt lat="47.27572" lon="-2.32255">
        <ele>19</ele>
        <time>2020-08-09T09:52:23.000Z</time>
      </trkpt>
      <trkpt lat="47.27567" lon="-2.3225">
        <ele>18.60000038147</ele>
        <time>2020-08-09T09:52:24.000Z</time>
      </trkpt>
      <trkpt lat="47.27549" lon="-2.32235">
        <ele>18.60000038147</ele>
        <time>2020-08-09T09:52:27.000Z</time>
      </trkpt>
      <trkpt lat="47.2753" lon="-2.32217">
        <ele>18.200000762939</ele>
        <time>2020-08-09T09:52:30.000Z</time>
      </trkpt>
      <trkpt lat="47.27524" lon="-2.32211">
        <ele>17.60000038147</ele>
        <time>2020-08-09T09:52:31.000Z</time>
      </trkpt>
      <trkpt lat="47.27517" lon="-2.32204">
        <ele>17.200000762939</ele>
        <time>2020-08-09T09:52:32.000Z</time>
      </trkpt>
      <trkpt lat="47.27511" lon="-2.32196">
        <ele>16.799999237061</ele>
        <time>2020-08-09T09:52:33.000Z</time>
      </trkpt>
      <trkpt lat="47.27505" lon="-2.32188">
        <ele>16.39999961853</ele>
        <time>2020-08-09T09:52:34.000Z</time>
      </trkpt>
      <trkpt lat="47.27485" lon="-2.32163">
        <ele>15.800000190735</ele>
        <time>2020-08-09T09:52:37.000Z</time>
      </trkpt>
      <trkpt lat="47.27479" lon="-2.32154">
        <ele>15.39999961853</ele>
        <time>2020-08-09T09:52:38.000Z</time>
      </trkpt>
      <trkpt lat="47.27473" lon="-2.32145">
        <ele>15</ele>
        <time>2020-08-09T09:52:39.000Z</time>
      </trkpt>
      <trkpt lat="47.27467" lon="-2.32137">
        <ele>14.39999961853</ele>
        <time>2020-08-09T09:52:40.000Z</time>
      </trkpt>
      <trkpt lat="47.27462" lon="-2.32129">
        <ele>14</ele>
        <time>2020-08-09T09:52:41.000Z</time>
      </trkpt>
      <trkpt lat="47.27442" lon="-2.32103">
        <ele>14</ele>
        <time>2020-08-09T09:52:45.000Z</time>
      </trkpt>
      <trkpt lat="47.27407" lon="-2.32061">
        <ele>13.60000038147</ele>
        <time>2020-08-09T09:52:52.000Z</time>
      </trkpt>
      <trkpt lat="47.27401" lon="-2.32055">
        <ele>13.199999809265</ele>
        <time>2020-08-09T09:52:53.000Z</time>
      </trkpt>
      <trkpt lat="47.27395" lon="-2.32048">
        <ele>12.800000190735</ele>
        <time>2020-08-09T09:52:54.000Z</time>
      </trkpt>
      <trkpt lat="47.27389" lon="-2.32042">
        <ele>12.39999961853</ele>
        <time>2020-08-09T09:52:55.000Z</time>
      </trkpt>
      <trkpt lat="47.27383" lon="-2.32035">
        <ele>12</ele>
        <time>2020-08-09T09:52:56.000Z</time>
      </trkpt>
      <trkpt lat="47.27372" lon="-2.32023">
        <ele>11.39999961853</ele>
        <time>2020-08-09T09:52:58.000Z</time>
      </trkpt>
      <trkpt lat="47.27367" lon="-2.32018">
        <ele>11</ele>
        <time>2020-08-09T09:52:59.000Z</time>
      </trkpt>
      <trkpt lat="47.27363" lon="-2.32014">
        <ele>10.60000038147</ele>
        <time>2020-08-09T09:53:00.000Z</time>
      </trkpt>
      <trkpt lat="47.2736" lon="-2.32012">
        <ele>9.6000003814697</ele>
        <time>2020-08-09T09:53:01.000Z</time>
      </trkpt>
      <trkpt lat="47.27358" lon="-2.32012">
        <ele>9.1999998092651</ele>
        <time>2020-08-09T09:53:02.000Z</time>
      </trkpt>
      <trkpt lat="47.27357" lon="-2.32013">
        <ele>8.8000001907349</ele>
        <time>2020-08-09T09:53:03.000Z</time>
      </trkpt>
      <trkpt lat="47.27356" lon="-2.32016">
        <ele>8.3999996185303</ele>
        <time>2020-08-09T09:53:04.000Z</time>
      </trkpt>
      <trkpt lat="47.27356" lon="-2.32019">
        <ele>8</ele>
        <time>2020-08-09T09:53:05.000Z</time>
      </trkpt>
      <trkpt lat="47.27356" lon="-2.32022">
        <ele>7.5999999046326</ele>
        <time>2020-08-09T09:53:06.000Z</time>
      </trkpt>
      <trkpt lat="47.27362" lon="-2.32031">
        <ele>7.5999999046326</ele>
        <time>2020-08-09T09:53:09.000Z</time>
      </trkpt>
      <trkpt lat="47.27365" lon="-2.32034">
        <ele>7.5999999046326</ele>
        <time>2020-08-09T09:53:10.000Z</time>
      </trkpt>
      <trkpt lat="47.27379" lon="-2.32059">
        <ele>7.5999999046326</ele>
        <time>2020-08-09T09:53:16.000Z</time>
      </trkpt>
      <trkpt lat="47.27393" lon="-2.32084">
        <ele>7.5999999046326</ele>
        <time>2020-08-09T09:53:21.000Z</time>
      </trkpt>
      <trkpt lat="47.27396" lon="-2.321">
        <ele>7.5999999046326</ele>
        <time>2020-08-09T09:53:23.000Z</time>
      </trkpt>
      <trkpt lat="47.27396" lon="-2.32125">
        <ele>7.5999999046326</ele>
        <time>2020-08-09T09:53:26.000Z</time>
      </trkpt>
      <trkpt lat="47.27393" lon="-2.32143">
        <ele>7.5999999046326</ele>
        <time>2020-08-09T09:53:28.000Z</time>
      </trkpt>
      <trkpt lat="47.27392" lon="-2.32206">
        <ele>7.5999999046326</ele>
        <time>2020-08-09T09:53:35.000Z</time>
      </trkpt>
      <trkpt lat="47.27385" lon="-2.32255">
        <ele>7.5999999046326</ele>
        <time>2020-08-09T09:53:41.000Z</time>
      </trkpt>
      <trkpt lat="47.27376" lon="-2.32294">
        <ele>7.5999999046326</ele>
        <time>2020-08-09T09:53:47.000Z</time>
      </trkpt>
      <trkpt lat="47.27367" lon="-2.32344">
        <ele>7.5999999046326</ele>
        <time>2020-08-09T09:53:55.000Z</time>
      </trkpt>
      <trkpt lat="47.27359" lon="-2.32384">
        <ele>7.5999999046326</ele>
        <time>2020-08-09T09:54:01.000Z</time>
      </trkpt>
      <trkpt lat="47.27346" lon="-2.32433">
        <ele>7.5999999046326</ele>
        <time>2020-08-09T09:54:07.000Z</time>
      </trkpt>
      <trkpt lat="47.27343" lon="-2.32441">
        <ele>7.5999999046326</ele>
        <time>2020-08-09T09:54:08.000Z</time>
      </trkpt>
      <trkpt lat="47.27329" lon="-2.32471">
        <ele>7.5999999046326</ele>
        <time>2020-08-09T09:54:12.000Z</time>
      </trkpt>
      <trkpt lat="47.27325" lon="-2.32477">
        <ele>7.5999999046326</ele>
        <time>2020-08-09T09:54:13.000Z</time>
      </trkpt>
      <trkpt lat="47.27309" lon="-2.32507">
        <ele>7.5999999046326</ele>
        <time>2020-08-09T09:54:18.000Z</time>
      </trkpt>
      <trkpt lat="47.27305" lon="-2.32513">
        <ele>7.5999999046326</ele>
        <time>2020-08-09T09:54:19.000Z</time>
      </trkpt>
      <trkpt lat="47.27281" lon="-2.32547">
        <ele>7.5999999046326</ele>
        <time>2020-08-09T09:54:25.000Z</time>
      </trkpt>
      <trkpt lat="47.27244" lon="-2.3259">
        <ele>7.5999999046326</ele>
        <time>2020-08-09T09:54:33.000Z</time>
      </trkpt>
      <trkpt lat="47.27207" lon="-2.32626">
        <ele>7.5999999046326</ele>
        <time>2020-08-09T09:54:40.000Z</time>
      </trkpt>
      <trkpt lat="47.27169" lon="-2.32661">
        <ele>7.5999999046326</ele>
        <time>2020-08-09T09:54:48.000Z</time>
      </trkpt>
      <trkpt lat="47.27137" lon="-2.32694">
        <ele>7.5999999046326</ele>
        <time>2020-08-09T09:54:56.000Z</time>
      </trkpt>
      <trkpt lat="47.27134" lon="-2.32699">
        <ele>7.5999999046326</ele>
        <time>2020-08-09T09:54:57.000Z</time>
      </trkpt>
      <trkpt lat="47.27126" lon="-2.32711">
        <ele>7.5999999046326</ele>
        <time>2020-08-09T09:55:00.000Z</time>
      </trkpt>
      <trkpt lat="47.27122" lon="-2.32715">
        <ele>7.5999999046326</ele>
        <time>2020-08-09T09:55:01.000Z</time>
      </trkpt>
      <trkpt lat="47.27103" lon="-2.32732">
        <ele>7.5999999046326</ele>
        <time>2020-08-09T09:55:06.000Z</time>
      </trkpt>
      <trkpt lat="47.27078" lon="-2.32754">
        <ele>7.5999999046326</ele>
        <time>2020-08-09T09:55:12.000Z</time>
      </trkpt>
      <trkpt lat="47.27051" lon="-2.32779">
        <ele>7.5999999046326</ele>
        <time>2020-08-09T09:55:18.000Z</time>
      </trkpt>
      <trkpt lat="47.2701" lon="-2.32816">
        <ele>7.5999999046326</ele>
        <time>2020-08-09T09:55:27.000Z</time>
      </trkpt>
      <trkpt lat="47.26978" lon="-2.32845">
        <ele>7.5999999046326</ele>
        <time>2020-08-09T09:55:34.000Z</time>
      </trkpt>
      <trkpt lat="47.26943" lon="-2.32877">
        <ele>7.5999999046326</ele>
        <time>2020-08-09T09:55:42.000Z</time>
      </trkpt>
      <trkpt lat="47.26915" lon="-2.32903">
        <ele>7.5999999046326</ele>
        <time>2020-08-09T09:55:49.000Z</time>
      </trkpt>
      <trkpt lat="47.26891" lon="-2.32924">
        <ele>7.5999999046326</ele>
        <time>2020-08-09T09:55:54.000Z</time>
      </trkpt>
      <trkpt lat="47.26853" lon="-2.3296">
        <ele>7.5999999046326</ele>
        <time>2020-08-09T09:56:02.000Z</time>
      </trkpt>
      <trkpt lat="47.26823" lon="-2.32988">
        <ele>7.5999999046326</ele>
        <time>2020-08-09T09:56:09.000Z</time>
      </trkpt>
      <trkpt lat="47.26799" lon="-2.33013">
        <ele>7.5999999046326</ele>
        <time>2020-08-09T09:56:15.000Z</time>
      </trkpt>
      <trkpt lat="47.26784" lon="-2.33028">
        <ele>7.1999998092651</ele>
        <time>2020-08-09T09:56:19.000Z</time>
      </trkpt>
      <trkpt lat="47.2678" lon="-2.33032">
        <ele>6.8000001907349</ele>
        <time>2020-08-09T09:56:20.000Z</time>
      </trkpt>
      <trkpt lat="47.26777" lon="-2.33036">
        <ele>6.4000000953674</ele>
        <time>2020-08-09T09:56:21.000Z</time>
      </trkpt>
      <trkpt lat="47.26773" lon="-2.3304">
        <ele>6</ele>
        <time>2020-08-09T09:56:22.000Z</time>
      </trkpt>
      <trkpt lat="47.26769" lon="-2.33044">
        <ele>5.5999999046326</ele>
        <time>2020-08-09T09:56:23.000Z</time>
      </trkpt>
      <trkpt lat="47.26749" lon="-2.33063">
        <ele>5.5999999046326</ele>
        <time>2020-08-09T09:56:29.000Z</time>
      </trkpt>
      <trkpt lat="47.26742" lon="-2.33067">
        <ele>5.5999999046326</ele>
        <time>2020-08-09T09:56:32.000Z</time>
      </trkpt>
      <trkpt lat="47.26736" lon="-2.33064">
        <ele>5.5999999046326</ele>
        <time>2020-08-09T09:56:34.000Z</time>
      </trkpt>
      <trkpt lat="47.26727" lon="-2.3306">
        <ele>5.5999999046326</ele>
        <time>2020-08-09T09:56:37.000Z</time>
      </trkpt>
      <trkpt lat="47.26725" lon="-2.33063">
        <ele>5.5999999046326</ele>
        <time>2020-08-09T09:56:38.000Z</time>
      </trkpt>
      <trkpt lat="47.26718" lon="-2.33074">
        <ele>5.5999999046326</ele>
        <time>2020-08-09T09:56:42.000Z</time>
      </trkpt>
      <trkpt lat="47.26716" lon="-2.33077">
        <ele>5.5999999046326</ele>
        <time>2020-08-09T09:56:43.000Z</time>
      </trkpt>
      <trkpt lat="47.26714" lon="-2.33079">
        <ele>5.1999998092651</ele>
        <time>2020-08-09T09:56:44.000Z</time>
      </trkpt>
      <trkpt lat="47.26712" lon="-2.33081">
        <ele>4.5999999046326</ele>
        <time>2020-08-09T09:56:45.000Z</time>
      </trkpt>
      <trkpt lat="47.2671" lon="-2.33083">
        <ele>4.1999998092651</ele>
        <time>2020-08-09T09:56:46.000Z</time>
      </trkpt>
      <trkpt lat="47.26708" lon="-2.33085">
        <ele>3.7999999523163</ele>
        <time>2020-08-09T09:56:47.000Z</time>
      </trkpt>
      <trkpt lat="47.26706" lon="-2.33087">
        <ele>3.4000000953674</ele>
        <time>2020-08-09T09:56:48.000Z</time>
      </trkpt>
      <trkpt lat="47.26703" lon="-2.33091">
        <ele>3.4000000953674</ele>
        <time>2020-08-09T09:56:50.000Z</time>
      </trkpt>
      <trkpt lat="47.26687" lon="-2.33103">
        <ele>3.4000000953674</ele>
        <time>2020-08-09T09:56:56.000Z</time>
      </trkpt>
      <trkpt lat="47.26674" lon="-2.33119">
        <ele>3.4000000953674</ele>
        <time>2020-08-09T09:57:02.000Z</time>
      </trkpt>
      <trkpt lat="47.26668" lon="-2.33125">
        <ele>3.4000000953674</ele>
        <time>2020-08-09T09:57:05.000Z</time>
      </trkpt>
      <trkpt lat="47.26664" lon="-2.33126">
        <ele>3.4000000953674</ele>
        <time>2020-08-09T09:57:07.000Z</time>
      </trkpt>
      <trkpt lat="47.26661" lon="-2.33128">
        <ele>3.4000000953674</ele>
        <time>2020-08-09T09:57:09.000Z</time>
      </trkpt>
      <trkpt lat="47.26656" lon="-2.33134">
        <ele>3.4000000953674</ele>
        <time>2020-08-09T09:57:12.000Z</time>
      </trkpt>
      <trkpt lat="47.26647" lon="-2.33147">
        <ele>3.4000000953674</ele>
        <time>2020-08-09T09:57:19.000Z</time>
      </trkpt>
      <trkpt lat="47.26646" lon="-2.33148">
        <ele>3.4000000953674</ele>
        <time>2020-08-09T09:57:20.000Z</time>
      </trkpt>
      <trkpt lat="47.26644" lon="-2.33148">
        <ele>3.4000000953674</ele>
        <time>2020-08-09T09:57:25.000Z</time>
      </trkpt>
      <trkpt lat="47.26641" lon="-2.3315">
        <ele>3.4000000953674</ele>
        <time>2020-08-09T09:57:27.000Z</time>
      </trkpt>
      <trkpt lat="47.26632" lon="-2.33151">
        <ele>3.4000000953674</ele>
        <time>2020-08-09T09:57:31.000Z</time>
      </trkpt>
      <trkpt lat="47.2663" lon="-2.33151">
        <ele>3.4000000953674</ele>
        <time>2020-08-09T09:57:32.000Z</time>
      </trkpt>
      <trkpt lat="47.26616" lon="-2.33147">
        <ele>3.4000000953674</ele>
        <time>2020-08-09T09:57:39.000Z</time>
      </trkpt>
      <trkpt lat="47.26609" lon="-2.33145">
        <ele>3.4000000953674</ele>
        <time>2020-08-09T09:57:44.000Z</time>
      </trkpt>
      <trkpt lat="47.26599" lon="-2.33147">
        <ele>3.4000000953674</ele>
        <time>2020-08-09T09:57:51.000Z</time>
      </trkpt>
      <trkpt lat="47.26599" lon="-2.33146">
        <ele>3.4000000953674</ele>
        <time>2020-08-09T09:57:52.000Z</time>
      </trkpt>
      <trkpt lat="47.26594" lon="-2.33147">
        <ele>5</ele>
        <time>2020-08-09T10:01:10.000Z</time>
      </trkpt>
      <trkpt lat="47.26589" lon="-2.33147">
        <ele>5</ele>
        <time>2020-08-09T10:01:12.000Z</time>
      </trkpt>
      <trkpt lat="47.26579" lon="-2.33135">
        <ele>5</ele>
        <time>2020-08-09T10:01:16.000Z</time>
      </trkpt>
      <trkpt lat="47.26567" lon="-2.33122">
        <ele>5</ele>
        <time>2020-08-09T10:01:20.000Z</time>
      </trkpt>
      <trkpt lat="47.26563" lon="-2.33119">
        <ele>5</ele>
        <time>2020-08-09T10:01:21.000Z</time>
      </trkpt>
      <trkpt lat="47.26535" lon="-2.33103">
        <ele>5</ele>
        <time>2020-08-09T10:01:28.000Z</time>
      </trkpt>
      <trkpt lat="47.26511" lon="-2.33083">
        <ele>5</ele>
        <time>2020-08-09T10:01:34.000Z</time>
      </trkpt>
      <trkpt lat="47.26476" lon="-2.33048">
        <ele>5</ele>
        <time>2020-08-09T10:01:43.000Z</time>
      </trkpt>
      <trkpt lat="47.26446" lon="-2.33013">
        <ele>5</ele>
        <time>2020-08-09T10:01:51.000Z</time>
      </trkpt>
      <trkpt lat="47.26419" lon="-2.32974">
        <ele>5</ele>
        <time>2020-08-09T10:01:59.000Z</time>
      </trkpt>
      <trkpt lat="47.26417" lon="-2.32968">
        <ele>5</ele>
        <time>2020-08-09T10:02:00.000Z</time>
      </trkpt>
      <trkpt lat="47.26398" lon="-2.32917">
        <ele>5</ele>
        <time>2020-08-09T10:02:09.000Z</time>
      </trkpt>
      <trkpt lat="47.26381" lon="-2.32873">
        <ele>5</ele>
        <time>2020-08-09T10:02:16.000Z</time>
      </trkpt>
      <trkpt lat="47.26359" lon="-2.32814">
        <ele>5</ele>
        <time>2020-08-09T10:02:25.000Z</time>
      </trkpt>
      <trkpt lat="47.2634" lon="-2.32763">
        <ele>5</ele>
        <time>2020-08-09T10:02:33.000Z</time>
      </trkpt>
      <trkpt lat="47.26321" lon="-2.32713">
        <ele>5</ele>
        <time>2020-08-09T10:02:41.000Z</time>
      </trkpt>
      <trkpt lat="47.26307" lon="-2.3266">
        <ele>5</ele>
        <time>2020-08-09T10:02:49.000Z</time>
      </trkpt>
      <trkpt lat="47.26303" lon="-2.32619">
        <ele>5</ele>
        <time>2020-08-09T10:02:55.000Z</time>
      </trkpt>
      <trkpt lat="47.26303" lon="-2.32578">
        <ele>5</ele>
        <time>2020-08-09T10:03:01.000Z</time>
      </trkpt>
      <trkpt lat="47.26302" lon="-2.32572">
        <ele>5</ele>
        <time>2020-08-09T10:03:02.000Z</time>
      </trkpt>
      <trkpt lat="47.26298" lon="-2.32549">
        <ele>5</ele>
        <time>2020-08-09T10:03:06.000Z</time>
      </trkpt>
      <trkpt lat="47.26302" lon="-2.32531">
        <ele>5</ele>
        <time>2020-08-09T10:03:10.000Z</time>
      </trkpt>
      <trkpt lat="47.26318" lon="-2.3251">
        <ele>5</ele>
        <time>2020-08-09T10:03:15.000Z</time>
      </trkpt>
      <trkpt lat="47.26342" lon="-2.32482">
        <ele>5</ele>
        <time>2020-08-09T10:03:22.000Z</time>
      </trkpt>
      <trkpt lat="47.26343" lon="-2.32475">
        <ele>5</ele>
        <time>2020-08-09T10:03:23.000Z</time>
      </trkpt>
      <trkpt lat="47.26338" lon="-2.32457">
        <ele>5</ele>
        <time>2020-08-09T10:03:26.000Z</time>
      </trkpt>
      <trkpt lat="47.26335" lon="-2.32451">
        <ele>5</ele>
        <time>2020-08-09T10:03:27.000Z</time>
      </trkpt>
      <trkpt lat="47.26331" lon="-2.3244">
        <ele>5.4000000953674</ele>
        <time>2020-08-09T10:03:29.000Z</time>
      </trkpt>
      <trkpt lat="47.26329" lon="-2.32435">
        <ele>6</ele>
        <time>2020-08-09T10:03:30.000Z</time>
      </trkpt>
      <trkpt lat="47.26327" lon="-2.32429">
        <ele>6.4000000953674</ele>
        <time>2020-08-09T10:03:31.000Z</time>
      </trkpt>
      <trkpt lat="47.26325" lon="-2.32424">
        <ele>6.8000001907349</ele>
        <time>2020-08-09T10:03:32.000Z</time>
      </trkpt>
      <trkpt lat="47.26323" lon="-2.32418">
        <ele>7.1999998092651</ele>
        <time>2020-08-09T10:03:33.000Z</time>
      </trkpt>
      <trkpt lat="47.2632" lon="-2.32408">
        <ele>7.1999998092651</ele>
        <time>2020-08-09T10:03:35.000Z</time>
      </trkpt>
      <trkpt lat="47.26314" lon="-2.32385">
        <ele>7.1999998092651</ele>
        <time>2020-08-09T10:03:39.000Z</time>
      </trkpt>
      <trkpt lat="47.2631" lon="-2.32373">
        <ele>7.1999998092651</ele>
        <time>2020-08-09T10:03:41.000Z</time>
      </trkpt>
      <trkpt lat="47.26308" lon="-2.32367">
        <ele>7.1999998092651</ele>
        <time>2020-08-09T10:03:42.000Z</time>
      </trkpt>
      <trkpt lat="47.26292" lon="-2.32319">
        <ele>7.1999998092651</ele>
        <time>2020-08-09T10:03:50.000Z</time>
      </trkpt>
      <trkpt lat="47.26271" lon="-2.32261">
        <ele>7.1999998092651</ele>
        <time>2020-08-09T10:03:59.000Z</time>
      </trkpt>
      <trkpt lat="47.2625" lon="-2.32204">
        <ele>7.1999998092651</ele>
        <time>2020-08-09T10:04:06.000Z</time>
      </trkpt>
      <trkpt lat="47.26226" lon="-2.32144">
        <ele>7.1999998092651</ele>
        <time>2020-08-09T10:04:13.000Z</time>
      </trkpt>
      <trkpt lat="47.26222" lon="-2.32137">
        <ele>7.1999998092651</ele>
        <time>2020-08-09T10:04:14.000Z</time>
      </trkpt>
      <trkpt lat="47.26214" lon="-2.32123">
        <ele>6.8000001907349</ele>
        <time>2020-08-09T10:04:16.000Z</time>
      </trkpt>
      <trkpt lat="47.26211" lon="-2.32117">
        <ele>6.4000000953674</ele>
        <time>2020-08-09T10:04:17.000Z</time>
      </trkpt>
      <trkpt lat="47.26207" lon="-2.32109">
        <ele>6</ele>
        <time>2020-08-09T10:04:18.000Z</time>
      </trkpt>
      <trkpt lat="47.26204" lon="-2.32102">
        <ele>5.5999999046326</ele>
        <time>2020-08-09T10:04:19.000Z</time>
      </trkpt>
      <trkpt lat="47.26201" lon="-2.32094">
        <ele>5.1999998092651</ele>
        <time>2020-08-09T10:04:20.000Z</time>
      </trkpt>
      <trkpt lat="47.26188" lon="-2.32061">
        <ele>5.1999998092651</ele>
        <time>2020-08-09T10:04:25.000Z</time>
      </trkpt>
      <trkpt lat="47.26181" lon="-2.32043">
        <ele>5.1999998092651</ele>
        <time>2020-08-09T10:04:28.000Z</time>
      </trkpt>
      <trkpt lat="47.26177" lon="-2.32029">
        <ele>5.1999998092651</ele>
        <time>2020-08-09T10:04:31.000Z</time>
      </trkpt>
      <trkpt lat="47.26184" lon="-2.32023">
        <ele>5.1999998092651</ele>
        <time>2020-08-09T10:04:34.000Z</time>
      </trkpt>
      <trkpt lat="47.2619" lon="-2.32022">
        <ele>5.1999998092651</ele>
        <time>2020-08-09T10:04:36.000Z</time>
      </trkpt>
      <trkpt lat="47.26194" lon="-2.32022">
        <ele>4.8000001907349</ele>
        <time>2020-08-09T10:04:38.000Z</time>
      </trkpt>
      <trkpt lat="47.26196" lon="-2.3202">
        <ele>4.4000000953674</ele>
        <time>2020-08-09T10:04:39.000Z</time>
      </trkpt>
      <trkpt lat="47.26197" lon="-2.32017">
        <ele>4</ele>
        <time>2020-08-09T10:04:40.000Z</time>
      </trkpt>
      <trkpt lat="47.26198" lon="-2.32014">
        <ele>3.5999999046326</ele>
        <time>2020-08-09T10:04:41.000Z</time>
      </trkpt>
      <trkpt lat="47.26199" lon="-2.32011">
        <ele>3.2000000476837</ele>
        <time>2020-08-09T10:04:42.000Z</time>
      </trkpt>
      <trkpt lat="47.26199" lon="-2.32007">
        <ele>3.2000000476837</ele>
        <time>2020-08-09T10:04:43.000Z</time>
      </trkpt>
      <trkpt lat="47.26204" lon="-2.31999">
        <ele>3.2000000476837</ele>
        <time>2020-08-09T10:04:47.000Z</time>
      </trkpt>
      <trkpt lat="47.26208" lon="-2.31995">
        <ele>3.2000000476837</ele>
        <time>2020-08-09T10:04:49.000Z</time>
      </trkpt>
      <trkpt lat="47.26219" lon="-2.31983">
        <ele>3.2000000476837</ele>
        <time>2020-08-09T10:04:53.000Z</time>
      </trkpt>
      <trkpt lat="47.26226" lon="-2.31978">
        <ele>3.2000000476837</ele>
        <time>2020-08-09T10:04:56.000Z</time>
      </trkpt>
      <trkpt lat="47.2623" lon="-2.31977">
        <ele>3.2000000476837</ele>
        <time>2020-08-09T10:04:57.000Z</time>
      </trkpt>
      <trkpt lat="47.26237" lon="-2.31966">
        <ele>3.2000000476837</ele>
        <time>2020-08-09T10:05:00.000Z</time>
      </trkpt>
      <trkpt lat="47.2624" lon="-2.31961">
        <ele>3.2000000476837</ele>
        <time>2020-08-09T10:05:01.000Z</time>
      </trkpt>
      <trkpt lat="47.26249" lon="-2.31942">
        <ele>3.2000000476837</ele>
        <time>2020-08-09T10:05:06.000Z</time>
      </trkpt>
      <trkpt lat="47.2626" lon="-2.31924">
        <ele>3.2000000476837</ele>
        <time>2020-08-09T10:05:11.000Z</time>
      </trkpt>
      <trkpt lat="47.26276" lon="-2.31907">
        <ele>3.2000000476837</ele>
        <time>2020-08-09T10:05:16.000Z</time>
      </trkpt>
      <trkpt lat="47.2629" lon="-2.3189">
        <ele>3.2000000476837</ele>
        <time>2020-08-09T10:05:21.000Z</time>
      </trkpt>
      <trkpt lat="47.26292" lon="-2.31885">
        <ele>3.2000000476837</ele>
        <time>2020-08-09T10:05:22.000Z</time>
      </trkpt>
      <trkpt lat="47.26296" lon="-2.31855">
        <ele>3.2000000476837</ele>
        <time>2020-08-09T10:05:27.000Z</time>
      </trkpt>
      <trkpt lat="47.26301" lon="-2.31822">
        <ele>3.2000000476837</ele>
        <time>2020-08-09T10:05:33.000Z</time>
      </trkpt>
      <trkpt lat="47.26303" lon="-2.3178">
        <ele>3.2000000476837</ele>
        <time>2020-08-09T10:05:40.000Z</time>
      </trkpt>
      <trkpt lat="47.263" lon="-2.31744">
        <ele>3.2000000476837</ele>
        <time>2020-08-09T10:05:46.000Z</time>
      </trkpt>
      <trkpt lat="47.26299" lon="-2.31738">
        <ele>3.5999999046326</ele>
        <time>2020-08-09T10:05:47.000Z</time>
      </trkpt>
      <trkpt lat="47.26299" lon="-2.31732">
        <ele>4</ele>
        <time>2020-08-09T10:05:48.000Z</time>
      </trkpt>
      <trkpt lat="47.26302" lon="-2.31726">
        <ele>4.8000001907349</ele>
        <time>2020-08-09T10:05:49.000Z</time>
      </trkpt>
      <trkpt lat="47.26305" lon="-2.31723">
        <ele>5.1999998092651</ele>
        <time>2020-08-09T10:05:50.000Z</time>
      </trkpt>
      <trkpt lat="47.26316" lon="-2.31716">
        <ele>5.1999998092651</ele>
        <time>2020-08-09T10:05:53.000Z</time>
      </trkpt>
      <trkpt lat="47.26323" lon="-2.31712">
        <ele>5.1999998092651</ele>
        <time>2020-08-09T10:05:55.000Z</time>
      </trkpt>
      <trkpt lat="47.2633" lon="-2.31701">
        <ele>5.1999998092651</ele>
        <time>2020-08-09T10:05:58.000Z</time>
      </trkpt>
      <trkpt lat="47.26332" lon="-2.31697">
        <ele>5.1999998092651</ele>
        <time>2020-08-09T10:05:59.000Z</time>
      </trkpt>
      <trkpt lat="47.2634" lon="-2.31688">
        <ele>5.1999998092651</ele>
        <time>2020-08-09T10:06:02.000Z</time>
      </trkpt>
      <trkpt lat="47.26351" lon="-2.31682">
        <ele>5.5999999046326</ele>
        <time>2020-08-09T10:06:05.000Z</time>
      </trkpt>
      <trkpt lat="47.26355" lon="-2.3168">
        <ele>6</ele>
        <time>2020-08-09T10:06:06.000Z</time>
      </trkpt>
      <trkpt lat="47.26358" lon="-2.31678">
        <ele>6.4000000953674</ele>
        <time>2020-08-09T10:06:07.000Z</time>
      </trkpt>
      <trkpt lat="47.26361" lon="-2.31677">
        <ele>6.8000001907349</ele>
        <time>2020-08-09T10:06:08.000Z</time>
      </trkpt>
      <trkpt lat="47.26364" lon="-2.31676">
        <ele>7.4000000953674</ele>
        <time>2020-08-09T10:06:09.000Z</time>
      </trkpt>
      <trkpt lat="47.26378" lon="-2.31671">
        <ele>7.4000000953674</ele>
        <time>2020-08-09T10:06:13.000Z</time>
      </trkpt>
      <trkpt lat="47.26388" lon="-2.31663">
        <ele>7.4000000953674</ele>
        <time>2020-08-09T10:06:17.000Z</time>
      </trkpt>
      <trkpt lat="47.26404" lon="-2.31656">
        <ele>7.4000000953674</ele>
        <time>2020-08-09T10:06:23.000Z</time>
      </trkpt>
      <trkpt lat="47.26412" lon="-2.31642">
        <ele>7.4000000953674</ele>
        <time>2020-08-09T10:06:27.000Z</time>
      </trkpt>
      <trkpt lat="47.26412" lon="-2.31616">
        <ele>7.4000000953674</ele>
        <time>2020-08-09T10:06:33.000Z</time>
      </trkpt>
      <trkpt lat="47.26412" lon="-2.31606">
        <ele>7.8000001907349</ele>
        <time>2020-08-09T10:06:35.000Z</time>
      </trkpt>
      <trkpt lat="47.26412" lon="-2.31602">
        <ele>8.1999998092651</ele>
        <time>2020-08-09T10:06:36.000Z</time>
      </trkpt>
      <trkpt lat="47.26411" lon="-2.31597">
        <ele>8.6000003814697</ele>
        <time>2020-08-09T10:06:37.000Z</time>
      </trkpt>
      <trkpt lat="47.26411" lon="-2.31593">
        <ele>9.3999996185303</ele>
        <time>2020-08-09T10:06:38.000Z</time>
      </trkpt>
      <trkpt lat="47.26411" lon="-2.31585">
        <ele>9.3999996185303</ele>
        <time>2020-08-09T10:06:40.000Z</time>
      </trkpt>
      <trkpt lat="47.26411" lon="-2.31562">
        <ele>9.3999996185303</ele>
        <time>2020-08-09T10:06:46.000Z</time>
      </trkpt>
      <trkpt lat="47.26413" lon="-2.31556">
        <ele>9.3999996185303</ele>
        <time>2020-08-09T10:06:48.000Z</time>
      </trkpt>
      <trkpt lat="47.26417" lon="-2.31557">
        <ele>9.3999996185303</ele>
        <time>2020-08-09T10:06:50.000Z</time>
      </trkpt>
      <trkpt lat="47.26418" lon="-2.31556">
        <ele>9.3999996185303</ele>
        <time>2020-08-09T10:06:52.000Z</time>
      </trkpt>
    </trkseg>
  </trk>
</gpx>